<?xml version="1.0" encoding="UTF-8" standalone="no" ?>
<gpx xmlns="http://www.topografix.com/GPX/1/1" xmlns:xsi="http://www.w3.org/2001/XMLSchema-instance" xsi:schemaLocation="http://www.topografix.com/GPX/1/1 http://www.topografix.com/GPX/1/1/gpx.xsd" version="1.1" creator="VisuGPX - https://www.visugpx.com">
  <metadata>
    <name>Champagnat Cyclisme</name>
  </metadata>
  <trk>
    <name><![CDATA[Champagnat Cyclisme_1]]></name>
    <trkseg>
      <trkpt lat="46.4827" lon="5.36837">
        <ele>264.8</ele>
        <time>2021-10-07T12:09:03Z</time>
      </trkpt>
      <trkpt lat="46.48261" lon="5.36825">
        <ele>264.2</ele>
        <time>2021-10-07T12:09:04Z</time>
      </trkpt>
      <trkpt lat="46.4825" lon="5.36813">
        <ele>263.2</ele>
        <time>2021-10-07T12:09:05Z</time>
      </trkpt>
      <trkpt lat="46.48239" lon="5.36803">
        <ele>262</ele>
        <time>2021-10-07T12:09:06Z</time>
      </trkpt>
      <trkpt lat="46.48228" lon="5.36794">
        <ele>260.8</ele>
        <time>2021-10-07T12:09:07Z</time>
      </trkpt>
      <trkpt lat="46.48204" lon="5.36775">
        <ele>258.6</ele>
        <time>2021-10-07T12:09:09Z</time>
      </trkpt>
      <trkpt lat="46.48192" lon="5.36765">
        <ele>257.8</ele>
        <time>2021-10-07T12:09:10Z</time>
      </trkpt>
      <trkpt lat="46.4818" lon="5.36756">
        <ele>257</ele>
        <time>2021-10-07T12:09:11Z</time>
      </trkpt>
      <trkpt lat="46.48157" lon="5.36737">
        <ele>255.8</ele>
        <time>2021-10-07T12:09:13Z</time>
      </trkpt>
      <trkpt lat="46.48136" lon="5.3672">
        <ele>254.4</ele>
        <time>2021-10-07T12:09:15Z</time>
      </trkpt>
      <trkpt lat="46.48119" lon="5.36708">
        <ele>252.6</ele>
        <time>2021-10-07T12:09:17Z</time>
      </trkpt>
      <trkpt lat="46.48113" lon="5.36702">
        <ele>252</ele>
        <time>2021-10-07T12:09:18Z</time>
      </trkpt>
      <trkpt lat="46.48109" lon="5.36695">
        <ele>251.4</ele>
        <time>2021-10-07T12:09:19Z</time>
      </trkpt>
      <trkpt lat="46.48108" lon="5.36687">
        <ele>250.8</ele>
        <time>2021-10-07T12:09:20Z</time>
      </trkpt>
      <trkpt lat="46.48111" lon="5.36679">
        <ele>250.4</ele>
        <time>2021-10-07T12:09:21Z</time>
      </trkpt>
      <trkpt lat="46.48115" lon="5.36672">
        <ele>249.8</ele>
        <time>2021-10-07T12:09:22Z</time>
      </trkpt>
      <trkpt lat="46.48121" lon="5.36666">
        <ele>249.4</ele>
        <time>2021-10-07T12:09:23Z</time>
      </trkpt>
      <trkpt lat="46.48133" lon="5.36654">
        <ele>249</ele>
        <time>2021-10-07T12:09:25Z</time>
      </trkpt>
      <trkpt lat="46.48139" lon="5.36647">
        <ele>248.8</ele>
        <time>2021-10-07T12:09:26Z</time>
      </trkpt>
      <trkpt lat="46.48146" lon="5.3664">
        <ele>248.8</ele>
        <time>2021-10-07T12:09:27Z</time>
      </trkpt>
      <trkpt lat="46.48152" lon="5.36633">
        <ele>248.6</ele>
        <time>2021-10-07T12:09:28Z</time>
      </trkpt>
      <trkpt lat="46.48158" lon="5.36625">
        <ele>247.6</ele>
        <time>2021-10-07T12:09:29Z</time>
      </trkpt>
      <trkpt lat="46.48165" lon="5.36619">
        <ele>246.8</ele>
        <time>2021-10-07T12:09:30Z</time>
      </trkpt>
      <trkpt lat="46.48172" lon="5.36614">
        <ele>246</ele>
        <time>2021-10-07T12:09:31Z</time>
      </trkpt>
      <trkpt lat="46.48186" lon="5.36606">
        <ele>245.2</ele>
        <time>2021-10-07T12:09:33Z</time>
      </trkpt>
      <trkpt lat="46.48194" lon="5.36604">
        <ele>244.8</ele>
        <time>2021-10-07T12:09:34Z</time>
      </trkpt>
      <trkpt lat="46.48201" lon="5.36602">
        <ele>244.4</ele>
        <time>2021-10-07T12:09:35Z</time>
      </trkpt>
      <trkpt lat="46.48213" lon="5.36591">
        <ele>244</ele>
        <time>2021-10-07T12:09:37Z</time>
      </trkpt>
      <trkpt lat="46.4822" lon="5.36572">
        <ele>244</ele>
        <time>2021-10-07T12:09:39Z</time>
      </trkpt>
      <trkpt lat="46.48223" lon="5.36562">
        <ele>244</ele>
        <time>2021-10-07T12:09:40Z</time>
      </trkpt>
      <trkpt lat="46.48228" lon="5.36554">
        <ele>244</ele>
        <time>2021-10-07T12:09:41Z</time>
      </trkpt>
      <trkpt lat="46.4824" lon="5.36541">
        <ele>243.6</ele>
        <time>2021-10-07T12:09:43Z</time>
      </trkpt>
      <trkpt lat="46.48253" lon="5.36529">
        <ele>243.6</ele>
        <time>2021-10-07T12:09:45Z</time>
      </trkpt>
      <trkpt lat="46.48265" lon="5.36516">
        <ele>243.4</ele>
        <time>2021-10-07T12:09:47Z</time>
      </trkpt>
      <trkpt lat="46.48277" lon="5.36503">
        <ele>243.2</ele>
        <time>2021-10-07T12:09:49Z</time>
      </trkpt>
      <trkpt lat="46.4829" lon="5.36489">
        <ele>242.4</ele>
        <time>2021-10-07T12:09:51Z</time>
      </trkpt>
      <trkpt lat="46.48302" lon="5.36476">
        <ele>242</ele>
        <time>2021-10-07T12:09:53Z</time>
      </trkpt>
      <trkpt lat="46.48314" lon="5.36462">
        <ele>241.8</ele>
        <time>2021-10-07T12:09:55Z</time>
      </trkpt>
      <trkpt lat="46.48327" lon="5.36448">
        <ele>241.4</ele>
        <time>2021-10-07T12:09:57Z</time>
      </trkpt>
      <trkpt lat="46.48333" lon="5.36442">
        <ele>241.2</ele>
        <time>2021-10-07T12:09:58Z</time>
      </trkpt>
      <trkpt lat="46.48339" lon="5.36435">
        <ele>241.2</ele>
        <time>2021-10-07T12:09:59Z</time>
      </trkpt>
      <trkpt lat="46.48352" lon="5.36421">
        <ele>240.8</ele>
        <time>2021-10-07T12:10:01Z</time>
      </trkpt>
      <trkpt lat="46.48365" lon="5.36407">
        <ele>240.6</ele>
        <time>2021-10-07T12:10:03Z</time>
      </trkpt>
      <trkpt lat="46.48372" lon="5.364">
        <ele>240</ele>
        <time>2021-10-07T12:10:04Z</time>
      </trkpt>
      <trkpt lat="46.48378" lon="5.36393">
        <ele>239.6</ele>
        <time>2021-10-07T12:10:05Z</time>
      </trkpt>
      <trkpt lat="46.48391" lon="5.3638">
        <ele>239</ele>
        <time>2021-10-07T12:10:07Z</time>
      </trkpt>
      <trkpt lat="46.48398" lon="5.36373">
        <ele>238.8</ele>
        <time>2021-10-07T12:10:08Z</time>
      </trkpt>
      <trkpt lat="46.48404" lon="5.36367">
        <ele>238.6</ele>
        <time>2021-10-07T12:10:09Z</time>
      </trkpt>
      <trkpt lat="46.48418" lon="5.36358">
        <ele>237.6</ele>
        <time>2021-10-07T12:10:11Z</time>
      </trkpt>
      <trkpt lat="46.48432" lon="5.36352">
        <ele>237.4</ele>
        <time>2021-10-07T12:10:13Z</time>
      </trkpt>
      <trkpt lat="46.48446" lon="5.36348">
        <ele>237.2</ele>
        <time>2021-10-07T12:10:15Z</time>
      </trkpt>
      <trkpt lat="46.48452" lon="5.36347">
        <ele>237.2</ele>
        <time>2021-10-07T12:10:16Z</time>
      </trkpt>
      <trkpt lat="46.48459" lon="5.36346">
        <ele>237</ele>
        <time>2021-10-07T12:10:17Z</time>
      </trkpt>
      <trkpt lat="46.48473" lon="5.36344">
        <ele>236.6</ele>
        <time>2021-10-07T12:10:19Z</time>
      </trkpt>
      <trkpt lat="46.48486" lon="5.36342">
        <ele>236.6</ele>
        <time>2021-10-07T12:10:21Z</time>
      </trkpt>
      <trkpt lat="46.485" lon="5.3634">
        <ele>236.4</ele>
        <time>2021-10-07T12:10:23Z</time>
      </trkpt>
      <trkpt lat="46.48512" lon="5.36338">
        <ele>236.4</ele>
        <time>2021-10-07T12:10:25Z</time>
      </trkpt>
      <trkpt lat="46.48525" lon="5.36336">
        <ele>236.4</ele>
        <time>2021-10-07T12:10:27Z</time>
      </trkpt>
      <trkpt lat="46.48538" lon="5.36334">
        <ele>236.4</ele>
        <time>2021-10-07T12:10:29Z</time>
      </trkpt>
      <trkpt lat="46.48551" lon="5.36331">
        <ele>236.4</ele>
        <time>2021-10-07T12:10:31Z</time>
      </trkpt>
      <trkpt lat="46.48564" lon="5.36329">
        <ele>236.4</ele>
        <time>2021-10-07T12:10:33Z</time>
      </trkpt>
      <trkpt lat="46.48577" lon="5.36327">
        <ele>236.4</ele>
        <time>2021-10-07T12:10:35Z</time>
      </trkpt>
      <trkpt lat="46.48584" lon="5.36326">
        <ele>236.4</ele>
        <time>2021-10-07T12:10:36Z</time>
      </trkpt>
      <trkpt lat="46.48591" lon="5.36325">
        <ele>236.4</ele>
        <time>2021-10-07T12:10:37Z</time>
      </trkpt>
      <trkpt lat="46.48606" lon="5.36323">
        <ele>236</ele>
        <time>2021-10-07T12:10:39Z</time>
      </trkpt>
      <trkpt lat="46.48613" lon="5.36321">
        <ele>235.8</ele>
        <time>2021-10-07T12:10:40Z</time>
      </trkpt>
      <trkpt lat="46.4862" lon="5.36316">
        <ele>235.4</ele>
        <time>2021-10-07T12:10:41Z</time>
      </trkpt>
      <trkpt lat="46.48627" lon="5.3631">
        <ele>235.2</ele>
        <time>2021-10-07T12:10:42Z</time>
      </trkpt>
      <trkpt lat="46.48632" lon="5.36301">
        <ele>234.8</ele>
        <time>2021-10-07T12:10:43Z</time>
      </trkpt>
      <trkpt lat="46.48635" lon="5.36289">
        <ele>234.4</ele>
        <time>2021-10-07T12:10:44Z</time>
      </trkpt>
      <trkpt lat="46.48637" lon="5.36277">
        <ele>234.2</ele>
        <time>2021-10-07T12:10:45Z</time>
      </trkpt>
      <trkpt lat="46.48639" lon="5.36265">
        <ele>234</ele>
        <time>2021-10-07T12:10:46Z</time>
      </trkpt>
      <trkpt lat="46.4864" lon="5.36252">
        <ele>233.8</ele>
        <time>2021-10-07T12:10:47Z</time>
      </trkpt>
      <trkpt lat="46.48643" lon="5.36227">
        <ele>233.2</ele>
        <time>2021-10-07T12:10:49Z</time>
      </trkpt>
      <trkpt lat="46.48645" lon="5.36202">
        <ele>232.2</ele>
        <time>2021-10-07T12:10:51Z</time>
      </trkpt>
      <trkpt lat="46.48646" lon="5.36189">
        <ele>232</ele>
        <time>2021-10-07T12:10:52Z</time>
      </trkpt>
      <trkpt lat="46.48647" lon="5.36177">
        <ele>232</ele>
        <time>2021-10-07T12:10:53Z</time>
      </trkpt>
      <trkpt lat="46.48649" lon="5.36152">
        <ele>231.6</ele>
        <time>2021-10-07T12:10:55Z</time>
      </trkpt>
      <trkpt lat="46.48652" lon="5.36128">
        <ele>231.2</ele>
        <time>2021-10-07T12:10:57Z</time>
      </trkpt>
      <trkpt lat="46.48655" lon="5.36116">
        <ele>230.8</ele>
        <time>2021-10-07T12:10:58Z</time>
      </trkpt>
      <trkpt lat="46.48657" lon="5.36105">
        <ele>230.6</ele>
        <time>2021-10-07T12:10:59Z</time>
      </trkpt>
      <trkpt lat="46.48662" lon="5.36082">
        <ele>230.4</ele>
        <time>2021-10-07T12:11:01Z</time>
      </trkpt>
      <trkpt lat="46.48667" lon="5.36062">
        <ele>230.4</ele>
        <time>2021-10-07T12:11:03Z</time>
      </trkpt>
      <trkpt lat="46.48671" lon="5.36043">
        <ele>230.2</ele>
        <time>2021-10-07T12:11:05Z</time>
      </trkpt>
      <trkpt lat="46.48675" lon="5.36023">
        <ele>230.2</ele>
        <time>2021-10-07T12:11:07Z</time>
      </trkpt>
      <trkpt lat="46.48678" lon="5.36006">
        <ele>230.2</ele>
        <time>2021-10-07T12:11:09Z</time>
      </trkpt>
      <trkpt lat="46.48679" lon="5.35997">
        <ele>230.6</ele>
        <time>2021-10-07T12:11:10Z</time>
      </trkpt>
      <trkpt lat="46.4868" lon="5.35988">
        <ele>230.8</ele>
        <time>2021-10-07T12:11:11Z</time>
      </trkpt>
      <trkpt lat="46.48683" lon="5.3597">
        <ele>231.2</ele>
        <time>2021-10-07T12:11:13Z</time>
      </trkpt>
      <trkpt lat="46.48686" lon="5.35951">
        <ele>232</ele>
        <time>2021-10-07T12:11:15Z</time>
      </trkpt>
      <trkpt lat="46.48689" lon="5.35931">
        <ele>232.2</ele>
        <time>2021-10-07T12:11:17Z</time>
      </trkpt>
      <trkpt lat="46.48691" lon="5.35921">
        <ele>232.2</ele>
        <time>2021-10-07T12:11:18Z</time>
      </trkpt>
      <trkpt lat="46.48693" lon="5.35912">
        <ele>232.2</ele>
        <time>2021-10-07T12:11:19Z</time>
      </trkpt>
      <trkpt lat="46.48697" lon="5.35902">
        <ele>232.4</ele>
        <time>2021-10-07T12:11:20Z</time>
      </trkpt>
      <trkpt lat="46.487" lon="5.35892">
        <ele>232.4</ele>
        <time>2021-10-07T12:11:21Z</time>
      </trkpt>
      <trkpt lat="46.48708" lon="5.35872">
        <ele>232.4</ele>
        <time>2021-10-07T12:11:23Z</time>
      </trkpt>
      <trkpt lat="46.48716" lon="5.35852">
        <ele>232.4</ele>
        <time>2021-10-07T12:11:25Z</time>
      </trkpt>
      <trkpt lat="46.4872" lon="5.35842">
        <ele>232.2</ele>
        <time>2021-10-07T12:11:26Z</time>
      </trkpt>
      <trkpt lat="46.48725" lon="5.35832">
        <ele>232.2</ele>
        <time>2021-10-07T12:11:27Z</time>
      </trkpt>
      <trkpt lat="46.48733" lon="5.35812">
        <ele>231.4</ele>
        <time>2021-10-07T12:11:29Z</time>
      </trkpt>
      <trkpt lat="46.48741" lon="5.35792">
        <ele>231</ele>
        <time>2021-10-07T12:11:31Z</time>
      </trkpt>
      <trkpt lat="46.4875" lon="5.35772">
        <ele>230.8</ele>
        <time>2021-10-07T12:11:33Z</time>
      </trkpt>
      <trkpt lat="46.48758" lon="5.35753">
        <ele>230.8</ele>
        <time>2021-10-07T12:11:35Z</time>
      </trkpt>
      <trkpt lat="46.48767" lon="5.35733">
        <ele>230.6</ele>
        <time>2021-10-07T12:11:37Z</time>
      </trkpt>
      <trkpt lat="46.48775" lon="5.35714">
        <ele>230.4</ele>
        <time>2021-10-07T12:11:39Z</time>
      </trkpt>
      <trkpt lat="46.48784" lon="5.35696">
        <ele>230.2</ele>
        <time>2021-10-07T12:11:41Z</time>
      </trkpt>
      <trkpt lat="46.48792" lon="5.35678">
        <ele>230</ele>
        <time>2021-10-07T12:11:43Z</time>
      </trkpt>
      <trkpt lat="46.48799" lon="5.35661">
        <ele>230</ele>
        <time>2021-10-07T12:11:45Z</time>
      </trkpt>
      <trkpt lat="46.48807" lon="5.35645">
        <ele>229.8</ele>
        <time>2021-10-07T12:11:47Z</time>
      </trkpt>
      <trkpt lat="46.48811" lon="5.35636">
        <ele>229.8</ele>
        <time>2021-10-07T12:11:48Z</time>
      </trkpt>
      <trkpt lat="46.48815" lon="5.35628">
        <ele>229.8</ele>
        <time>2021-10-07T12:11:49Z</time>
      </trkpt>
      <trkpt lat="46.48822" lon="5.35611">
        <ele>229.6</ele>
        <time>2021-10-07T12:11:51Z</time>
      </trkpt>
      <trkpt lat="46.4883" lon="5.35595">
        <ele>229.6</ele>
        <time>2021-10-07T12:11:53Z</time>
      </trkpt>
      <trkpt lat="46.48838" lon="5.35579">
        <ele>229.8</ele>
        <time>2021-10-07T12:11:55Z</time>
      </trkpt>
      <trkpt lat="46.48844" lon="5.35574">
        <ele>229.8</ele>
        <time>2021-10-07T12:11:56Z</time>
      </trkpt>
      <trkpt lat="46.48851" lon="5.3557">
        <ele>230</ele>
        <time>2021-10-07T12:11:57Z</time>
      </trkpt>
      <trkpt lat="46.48865" lon="5.35567">
        <ele>230</ele>
        <time>2021-10-07T12:11:59Z</time>
      </trkpt>
      <trkpt lat="46.48873" lon="5.35567">
        <ele>230</ele>
        <time>2021-10-07T12:12:00Z</time>
      </trkpt>
      <trkpt lat="46.4888" lon="5.35566">
        <ele>230</ele>
        <time>2021-10-07T12:12:01Z</time>
      </trkpt>
      <trkpt lat="46.48895" lon="5.35565">
        <ele>230</ele>
        <time>2021-10-07T12:12:03Z</time>
      </trkpt>
      <trkpt lat="46.4891" lon="5.35565">
        <ele>229.8</ele>
        <time>2021-10-07T12:12:05Z</time>
      </trkpt>
      <trkpt lat="46.48925" lon="5.35565">
        <ele>229.8</ele>
        <time>2021-10-07T12:12:07Z</time>
      </trkpt>
      <trkpt lat="46.48941" lon="5.35564">
        <ele>229.4</ele>
        <time>2021-10-07T12:12:09Z</time>
      </trkpt>
      <trkpt lat="46.48958" lon="5.35564">
        <ele>228.4</ele>
        <time>2021-10-07T12:12:11Z</time>
      </trkpt>
      <trkpt lat="46.48975" lon="5.35563">
        <ele>227.8</ele>
        <time>2021-10-07T12:12:13Z</time>
      </trkpt>
      <trkpt lat="46.48983" lon="5.35562">
        <ele>227.6</ele>
        <time>2021-10-07T12:12:14Z</time>
      </trkpt>
      <trkpt lat="46.48991" lon="5.35561">
        <ele>227.2</ele>
        <time>2021-10-07T12:12:15Z</time>
      </trkpt>
      <trkpt lat="46.49007" lon="5.3556">
        <ele>226.8</ele>
        <time>2021-10-07T12:12:17Z</time>
      </trkpt>
      <trkpt lat="46.49022" lon="5.35559">
        <ele>226.6</ele>
        <time>2021-10-07T12:12:19Z</time>
      </trkpt>
      <trkpt lat="46.49037" lon="5.35557">
        <ele>226.6</ele>
        <time>2021-10-07T12:12:21Z</time>
      </trkpt>
      <trkpt lat="46.49044" lon="5.35557">
        <ele>226.6</ele>
        <time>2021-10-07T12:12:22Z</time>
      </trkpt>
      <trkpt lat="46.49051" lon="5.35556">
        <ele>226.6</ele>
        <time>2021-10-07T12:12:23Z</time>
      </trkpt>
      <trkpt lat="46.49065" lon="5.35556">
        <ele>226.6</ele>
        <time>2021-10-07T12:12:25Z</time>
      </trkpt>
      <trkpt lat="46.49079" lon="5.35555">
        <ele>226.6</ele>
        <time>2021-10-07T12:12:27Z</time>
      </trkpt>
      <trkpt lat="46.49092" lon="5.35554">
        <ele>226.8</ele>
        <time>2021-10-07T12:12:29Z</time>
      </trkpt>
      <trkpt lat="46.49104" lon="5.35553">
        <ele>227.6</ele>
        <time>2021-10-07T12:12:31Z</time>
      </trkpt>
      <trkpt lat="46.49117" lon="5.35553">
        <ele>228</ele>
        <time>2021-10-07T12:12:33Z</time>
      </trkpt>
      <trkpt lat="46.49129" lon="5.35554">
        <ele>228.4</ele>
        <time>2021-10-07T12:12:35Z</time>
      </trkpt>
      <trkpt lat="46.49141" lon="5.35553">
        <ele>228.8</ele>
        <time>2021-10-07T12:12:37Z</time>
      </trkpt>
      <trkpt lat="46.49147" lon="5.35552">
        <ele>229</ele>
        <time>2021-10-07T12:12:38Z</time>
      </trkpt>
      <trkpt lat="46.49152" lon="5.35552">
        <ele>229.2</ele>
        <time>2021-10-07T12:12:39Z</time>
      </trkpt>
      <trkpt lat="46.49158" lon="5.35552">
        <ele>229.2</ele>
        <time>2021-10-07T12:12:40Z</time>
      </trkpt>
      <trkpt lat="46.49163" lon="5.35552">
        <ele>229.4</ele>
        <time>2021-10-07T12:12:41Z</time>
      </trkpt>
      <trkpt lat="46.49174" lon="5.35552">
        <ele>229.8</ele>
        <time>2021-10-07T12:12:43Z</time>
      </trkpt>
      <trkpt lat="46.49184" lon="5.3555">
        <ele>230</ele>
        <time>2021-10-07T12:12:45Z</time>
      </trkpt>
      <trkpt lat="46.4919" lon="5.3555">
        <ele>230</ele>
        <time>2021-10-07T12:12:46Z</time>
      </trkpt>
      <trkpt lat="46.49195" lon="5.3555">
        <ele>230.2</ele>
        <time>2021-10-07T12:12:47Z</time>
      </trkpt>
      <trkpt lat="46.492" lon="5.3555">
        <ele>230.4</ele>
        <time>2021-10-07T12:12:48Z</time>
      </trkpt>
      <trkpt lat="46.49206" lon="5.35551">
        <ele>230.6</ele>
        <time>2021-10-07T12:12:49Z</time>
      </trkpt>
      <trkpt lat="46.49218" lon="5.3555">
        <ele>231</ele>
        <time>2021-10-07T12:12:51Z</time>
      </trkpt>
      <trkpt lat="46.49224" lon="5.35549">
        <ele>231.2</ele>
        <time>2021-10-07T12:12:52Z</time>
      </trkpt>
      <trkpt lat="46.49231" lon="5.35549">
        <ele>231.2</ele>
        <time>2021-10-07T12:12:53Z</time>
      </trkpt>
      <trkpt lat="46.49246" lon="5.35549">
        <ele>231.4</ele>
        <time>2021-10-07T12:12:55Z</time>
      </trkpt>
      <trkpt lat="46.49254" lon="5.35549">
        <ele>231.4</ele>
        <time>2021-10-07T12:12:56Z</time>
      </trkpt>
      <trkpt lat="46.49261" lon="5.35549">
        <ele>231.4</ele>
        <time>2021-10-07T12:12:57Z</time>
      </trkpt>
      <trkpt lat="46.49276" lon="5.35549">
        <ele>231.4</ele>
        <time>2021-10-07T12:12:59Z</time>
      </trkpt>
      <trkpt lat="46.49291" lon="5.35548">
        <ele>231.4</ele>
        <time>2021-10-07T12:13:01Z</time>
      </trkpt>
      <trkpt lat="46.49305" lon="5.35546">
        <ele>231.4</ele>
        <time>2021-10-07T12:13:03Z</time>
      </trkpt>
      <trkpt lat="46.49319" lon="5.35544">
        <ele>231.4</ele>
        <time>2021-10-07T12:13:05Z</time>
      </trkpt>
      <trkpt lat="46.49333" lon="5.35543">
        <ele>231.2</ele>
        <time>2021-10-07T12:13:07Z</time>
      </trkpt>
      <trkpt lat="46.49349" lon="5.3554">
        <ele>231</ele>
        <time>2021-10-07T12:13:09Z</time>
      </trkpt>
      <trkpt lat="46.49365" lon="5.35539">
        <ele>230.6</ele>
        <time>2021-10-07T12:13:11Z</time>
      </trkpt>
      <trkpt lat="46.49381" lon="5.3554">
        <ele>230</ele>
        <time>2021-10-07T12:13:13Z</time>
      </trkpt>
      <trkpt lat="46.49397" lon="5.35543">
        <ele>229.6</ele>
        <time>2021-10-07T12:13:15Z</time>
      </trkpt>
      <trkpt lat="46.49413" lon="5.35548">
        <ele>229.2</ele>
        <time>2021-10-07T12:13:17Z</time>
      </trkpt>
      <trkpt lat="46.49428" lon="5.35554">
        <ele>229</ele>
        <time>2021-10-07T12:13:19Z</time>
      </trkpt>
      <trkpt lat="46.49435" lon="5.35557">
        <ele>228.8</ele>
        <time>2021-10-07T12:13:20Z</time>
      </trkpt>
      <trkpt lat="46.49443" lon="5.3556">
        <ele>228.6</ele>
        <time>2021-10-07T12:13:21Z</time>
      </trkpt>
      <trkpt lat="46.49457" lon="5.35565">
        <ele>228.4</ele>
        <time>2021-10-07T12:13:23Z</time>
      </trkpt>
      <trkpt lat="46.49471" lon="5.35571">
        <ele>228.2</ele>
        <time>2021-10-07T12:13:25Z</time>
      </trkpt>
      <trkpt lat="46.49485" lon="5.35577">
        <ele>228</ele>
        <time>2021-10-07T12:13:27Z</time>
      </trkpt>
      <trkpt lat="46.49492" lon="5.3558">
        <ele>228</ele>
        <time>2021-10-07T12:13:28Z</time>
      </trkpt>
      <trkpt lat="46.49499" lon="5.35582">
        <ele>227.8</ele>
        <time>2021-10-07T12:13:29Z</time>
      </trkpt>
      <trkpt lat="46.49506" lon="5.35585">
        <ele>227.8</ele>
        <time>2021-10-07T12:13:30Z</time>
      </trkpt>
      <trkpt lat="46.49513" lon="5.35588">
        <ele>227.8</ele>
        <time>2021-10-07T12:13:31Z</time>
      </trkpt>
      <trkpt lat="46.49526" lon="5.35593">
        <ele>227.4</ele>
        <time>2021-10-07T12:13:33Z</time>
      </trkpt>
      <trkpt lat="46.4954" lon="5.35599">
        <ele>227.2</ele>
        <time>2021-10-07T12:13:35Z</time>
      </trkpt>
      <trkpt lat="46.49553" lon="5.35604">
        <ele>226.8</ele>
        <time>2021-10-07T12:13:37Z</time>
      </trkpt>
      <trkpt lat="46.4956" lon="5.35606">
        <ele>226.8</ele>
        <time>2021-10-07T12:13:38Z</time>
      </trkpt>
      <trkpt lat="46.49567" lon="5.35608">
        <ele>226.6</ele>
        <time>2021-10-07T12:13:39Z</time>
      </trkpt>
      <trkpt lat="46.49582" lon="5.35613">
        <ele>226.2</ele>
        <time>2021-10-07T12:13:41Z</time>
      </trkpt>
      <trkpt lat="46.49596" lon="5.35617">
        <ele>226</ele>
        <time>2021-10-07T12:13:43Z</time>
      </trkpt>
      <trkpt lat="46.49611" lon="5.35622">
        <ele>225.8</ele>
        <time>2021-10-07T12:13:45Z</time>
      </trkpt>
      <trkpt lat="46.49625" lon="5.35626">
        <ele>225.8</ele>
        <time>2021-10-07T12:13:47Z</time>
      </trkpt>
      <trkpt lat="46.49639" lon="5.35629">
        <ele>225.6</ele>
        <time>2021-10-07T12:13:49Z</time>
      </trkpt>
      <trkpt lat="46.49653" lon="5.35633">
        <ele>225.2</ele>
        <time>2021-10-07T12:13:51Z</time>
      </trkpt>
      <trkpt lat="46.49664" lon="5.35635">
        <ele>225</ele>
        <time>2021-10-07T12:13:53Z</time>
      </trkpt>
      <trkpt lat="46.49668" lon="5.35636">
        <ele>225</ele>
        <time>2021-10-07T12:13:54Z</time>
      </trkpt>
      <trkpt lat="46.49672" lon="5.35637">
        <ele>225</ele>
        <time>2021-10-07T12:13:55Z</time>
      </trkpt>
      <trkpt lat="46.49679" lon="5.3564">
        <ele>225</ele>
        <time>2021-10-07T12:13:57Z</time>
      </trkpt>
      <trkpt lat="46.49683" lon="5.35641">
        <ele>225</ele>
        <time>2021-10-07T12:13:58Z</time>
      </trkpt>
      <trkpt lat="46.49688" lon="5.35644">
        <ele>225</ele>
        <time>2021-10-07T12:13:59Z</time>
      </trkpt>
      <trkpt lat="46.49692" lon="5.35646">
        <ele>225</ele>
        <time>2021-10-07T12:14:00Z</time>
      </trkpt>
      <trkpt lat="46.49695" lon="5.35647">
        <ele>225</ele>
        <time>2021-10-07T12:14:01Z</time>
      </trkpt>
      <trkpt lat="46.497" lon="5.35647">
        <ele>225.2</ele>
        <time>2021-10-07T12:14:03Z</time>
      </trkpt>
      <trkpt lat="46.49702" lon="5.35647">
        <ele>225.2</ele>
        <time>2021-10-07T12:14:04Z</time>
      </trkpt>
      <trkpt lat="46.49705" lon="5.35643">
        <ele>225.2</ele>
        <time>2021-10-07T12:14:05Z</time>
      </trkpt>
      <trkpt lat="46.49707" lon="5.35637">
        <ele>225.2</ele>
        <time>2021-10-07T12:14:06Z</time>
      </trkpt>
      <trkpt lat="46.49708" lon="5.3563">
        <ele>225.2</ele>
        <time>2021-10-07T12:14:07Z</time>
      </trkpt>
      <trkpt lat="46.49709" lon="5.35613">
        <ele>225.2</ele>
        <time>2021-10-07T12:14:09Z</time>
      </trkpt>
      <trkpt lat="46.49711" lon="5.35604">
        <ele>225.2</ele>
        <time>2021-10-07T12:14:10Z</time>
      </trkpt>
      <trkpt lat="46.49712" lon="5.35594">
        <ele>225.2</ele>
        <time>2021-10-07T12:14:11Z</time>
      </trkpt>
      <trkpt lat="46.49714" lon="5.35574">
        <ele>225</ele>
        <time>2021-10-07T12:14:13Z</time>
      </trkpt>
      <trkpt lat="46.49717" lon="5.35554">
        <ele>224.8</ele>
        <time>2021-10-07T12:14:15Z</time>
      </trkpt>
      <trkpt lat="46.49718" lon="5.35543">
        <ele>224.6</ele>
        <time>2021-10-07T12:14:16Z</time>
      </trkpt>
      <trkpt lat="46.49719" lon="5.35533">
        <ele>224.6</ele>
        <time>2021-10-07T12:14:17Z</time>
      </trkpt>
      <trkpt lat="46.4972" lon="5.35523">
        <ele>224.4</ele>
        <time>2021-10-07T12:14:18Z</time>
      </trkpt>
      <trkpt lat="46.49721" lon="5.35513">
        <ele>224.2</ele>
        <time>2021-10-07T12:14:19Z</time>
      </trkpt>
      <trkpt lat="46.49724" lon="5.35493">
        <ele>224</ele>
        <time>2021-10-07T12:14:21Z</time>
      </trkpt>
      <trkpt lat="46.49725" lon="5.35482">
        <ele>223.6</ele>
        <time>2021-10-07T12:14:22Z</time>
      </trkpt>
      <trkpt lat="46.49727" lon="5.35472">
        <ele>223.6</ele>
        <time>2021-10-07T12:14:23Z</time>
      </trkpt>
      <trkpt lat="46.49729" lon="5.3545">
        <ele>223.4</ele>
        <time>2021-10-07T12:14:25Z</time>
      </trkpt>
      <trkpt lat="46.49732" lon="5.35428">
        <ele>223.2</ele>
        <time>2021-10-07T12:14:27Z</time>
      </trkpt>
      <trkpt lat="46.49735" lon="5.35406">
        <ele>223</ele>
        <time>2021-10-07T12:14:29Z</time>
      </trkpt>
      <trkpt lat="46.49737" lon="5.35383">
        <ele>222.6</ele>
        <time>2021-10-07T12:14:31Z</time>
      </trkpt>
      <trkpt lat="46.49738" lon="5.35361">
        <ele>222</ele>
        <time>2021-10-07T12:14:33Z</time>
      </trkpt>
      <trkpt lat="46.49737" lon="5.35339">
        <ele>221.6</ele>
        <time>2021-10-07T12:14:35Z</time>
      </trkpt>
      <trkpt lat="46.49735" lon="5.35317">
        <ele>221.2</ele>
        <time>2021-10-07T12:14:37Z</time>
      </trkpt>
      <trkpt lat="46.49734" lon="5.35307">
        <ele>221.2</ele>
        <time>2021-10-07T12:14:38Z</time>
      </trkpt>
      <trkpt lat="46.49732" lon="5.35298">
        <ele>221.2</ele>
        <time>2021-10-07T12:14:39Z</time>
      </trkpt>
      <trkpt lat="46.49728" lon="5.35279">
        <ele>221.2</ele>
        <time>2021-10-07T12:14:41Z</time>
      </trkpt>
      <trkpt lat="46.49724" lon="5.35261">
        <ele>221.2</ele>
        <time>2021-10-07T12:14:43Z</time>
      </trkpt>
      <trkpt lat="46.49721" lon="5.35243">
        <ele>221.2</ele>
        <time>2021-10-07T12:14:45Z</time>
      </trkpt>
      <trkpt lat="46.49717" lon="5.35226">
        <ele>221.4</ele>
        <time>2021-10-07T12:14:47Z</time>
      </trkpt>
      <trkpt lat="46.49714" lon="5.35208">
        <ele>221.8</ele>
        <time>2021-10-07T12:14:49Z</time>
      </trkpt>
      <trkpt lat="46.4971" lon="5.3519">
        <ele>222</ele>
        <time>2021-10-07T12:14:51Z</time>
      </trkpt>
      <trkpt lat="46.49705" lon="5.3517">
        <ele>222.2</ele>
        <time>2021-10-07T12:14:53Z</time>
      </trkpt>
      <trkpt lat="46.49701" lon="5.3515">
        <ele>222.2</ele>
        <time>2021-10-07T12:14:55Z</time>
      </trkpt>
      <trkpt lat="46.49697" lon="5.35129">
        <ele>222.2</ele>
        <time>2021-10-07T12:14:57Z</time>
      </trkpt>
      <trkpt lat="46.49693" lon="5.35108">
        <ele>222.2</ele>
        <time>2021-10-07T12:14:59Z</time>
      </trkpt>
      <trkpt lat="46.49691" lon="5.35098">
        <ele>222.2</ele>
        <time>2021-10-07T12:15:00Z</time>
      </trkpt>
      <trkpt lat="46.49689" lon="5.35088">
        <ele>222</ele>
        <time>2021-10-07T12:15:01Z</time>
      </trkpt>
      <trkpt lat="46.49685" lon="5.35069">
        <ele>222</ele>
        <time>2021-10-07T12:15:03Z</time>
      </trkpt>
      <trkpt lat="46.49681" lon="5.3505">
        <ele>222</ele>
        <time>2021-10-07T12:15:05Z</time>
      </trkpt>
      <trkpt lat="46.49678" lon="5.35031">
        <ele>222</ele>
        <time>2021-10-07T12:15:07Z</time>
      </trkpt>
      <trkpt lat="46.49674" lon="5.35014">
        <ele>222</ele>
        <time>2021-10-07T12:15:09Z</time>
      </trkpt>
      <trkpt lat="46.49671" lon="5.34996">
        <ele>221.8</ele>
        <time>2021-10-07T12:15:11Z</time>
      </trkpt>
      <trkpt lat="46.49668" lon="5.34978">
        <ele>222.2</ele>
        <time>2021-10-07T12:15:13Z</time>
      </trkpt>
      <trkpt lat="46.49666" lon="5.3497">
        <ele>222.6</ele>
        <time>2021-10-07T12:15:14Z</time>
      </trkpt>
      <trkpt lat="46.49665" lon="5.34962">
        <ele>222.8</ele>
        <time>2021-10-07T12:15:15Z</time>
      </trkpt>
      <trkpt lat="46.49663" lon="5.34954">
        <ele>222.8</ele>
        <time>2021-10-07T12:15:16Z</time>
      </trkpt>
      <trkpt lat="46.49662" lon="5.34945">
        <ele>223.2</ele>
        <time>2021-10-07T12:15:17Z</time>
      </trkpt>
      <trkpt lat="46.49659" lon="5.34928">
        <ele>223.2</ele>
        <time>2021-10-07T12:15:19Z</time>
      </trkpt>
      <trkpt lat="46.49655" lon="5.34909">
        <ele>223.4</ele>
        <time>2021-10-07T12:15:21Z</time>
      </trkpt>
      <trkpt lat="46.49653" lon="5.34899">
        <ele>223.6</ele>
        <time>2021-10-07T12:15:22Z</time>
      </trkpt>
      <trkpt lat="46.49651" lon="5.3489">
        <ele>223.6</ele>
        <time>2021-10-07T12:15:23Z</time>
      </trkpt>
      <trkpt lat="46.49649" lon="5.3488">
        <ele>223.8</ele>
        <time>2021-10-07T12:15:24Z</time>
      </trkpt>
      <trkpt lat="46.49647" lon="5.3487">
        <ele>223.8</ele>
        <time>2021-10-07T12:15:25Z</time>
      </trkpt>
      <trkpt lat="46.49643" lon="5.34849">
        <ele>224</ele>
        <time>2021-10-07T12:15:27Z</time>
      </trkpt>
      <trkpt lat="46.49639" lon="5.34828">
        <ele>224</ele>
        <time>2021-10-07T12:15:29Z</time>
      </trkpt>
      <trkpt lat="46.49638" lon="5.34817">
        <ele>224</ele>
        <time>2021-10-07T12:15:30Z</time>
      </trkpt>
      <trkpt lat="46.49636" lon="5.34806">
        <ele>224</ele>
        <time>2021-10-07T12:15:31Z</time>
      </trkpt>
      <trkpt lat="46.49634" lon="5.34783">
        <ele>224</ele>
        <time>2021-10-07T12:15:33Z</time>
      </trkpt>
      <trkpt lat="46.49632" lon="5.34758">
        <ele>224</ele>
        <time>2021-10-07T12:15:35Z</time>
      </trkpt>
      <trkpt lat="46.49633" lon="5.34732">
        <ele>224</ele>
        <time>2021-10-07T12:15:37Z</time>
      </trkpt>
      <trkpt lat="46.49634" lon="5.34706">
        <ele>223.6</ele>
        <time>2021-10-07T12:15:39Z</time>
      </trkpt>
      <trkpt lat="46.49636" lon="5.34692">
        <ele>222.8</ele>
        <time>2021-10-07T12:15:40Z</time>
      </trkpt>
      <trkpt lat="46.49637" lon="5.34679">
        <ele>222.2</ele>
        <time>2021-10-07T12:15:41Z</time>
      </trkpt>
      <trkpt lat="46.49639" lon="5.34652">
        <ele>220.8</ele>
        <time>2021-10-07T12:15:43Z</time>
      </trkpt>
      <trkpt lat="46.49642" lon="5.34624">
        <ele>219.4</ele>
        <time>2021-10-07T12:15:45Z</time>
      </trkpt>
      <trkpt lat="46.49646" lon="5.34596">
        <ele>218.4</ele>
        <time>2021-10-07T12:15:47Z</time>
      </trkpt>
      <trkpt lat="46.49648" lon="5.34582">
        <ele>218</ele>
        <time>2021-10-07T12:15:48Z</time>
      </trkpt>
      <trkpt lat="46.4965" lon="5.34569">
        <ele>217.4</ele>
        <time>2021-10-07T12:15:49Z</time>
      </trkpt>
      <trkpt lat="46.49655" lon="5.34545">
        <ele>216.4</ele>
        <time>2021-10-07T12:15:51Z</time>
      </trkpt>
      <trkpt lat="46.49658" lon="5.34534">
        <ele>216</ele>
        <time>2021-10-07T12:15:52Z</time>
      </trkpt>
      <trkpt lat="46.49661" lon="5.34523">
        <ele>215.8</ele>
        <time>2021-10-07T12:15:53Z</time>
      </trkpt>
      <trkpt lat="46.49667" lon="5.34502">
        <ele>215.8</ele>
        <time>2021-10-07T12:15:55Z</time>
      </trkpt>
      <trkpt lat="46.49672" lon="5.34482">
        <ele>215.6</ele>
        <time>2021-10-07T12:15:57Z</time>
      </trkpt>
      <trkpt lat="46.49675" lon="5.34472">
        <ele>215.6</ele>
        <time>2021-10-07T12:15:58Z</time>
      </trkpt>
      <trkpt lat="46.49677" lon="5.34462">
        <ele>215.6</ele>
        <time>2021-10-07T12:15:59Z</time>
      </trkpt>
      <trkpt lat="46.49682" lon="5.34445">
        <ele>215.6</ele>
        <time>2021-10-07T12:16:01Z</time>
      </trkpt>
      <trkpt lat="46.49687" lon="5.34429">
        <ele>216.2</ele>
        <time>2021-10-07T12:16:03Z</time>
      </trkpt>
      <trkpt lat="46.49692" lon="5.34413">
        <ele>217</ele>
        <time>2021-10-07T12:16:05Z</time>
      </trkpt>
      <trkpt lat="46.49696" lon="5.34396">
        <ele>217.6</ele>
        <time>2021-10-07T12:16:07Z</time>
      </trkpt>
      <trkpt lat="46.49701" lon="5.34381">
        <ele>218.4</ele>
        <time>2021-10-07T12:16:09Z</time>
      </trkpt>
      <trkpt lat="46.49703" lon="5.34373">
        <ele>218.6</ele>
        <time>2021-10-07T12:16:10Z</time>
      </trkpt>
      <trkpt lat="46.49706" lon="5.34365">
        <ele>218.8</ele>
        <time>2021-10-07T12:16:11Z</time>
      </trkpt>
      <trkpt lat="46.4971" lon="5.3435">
        <ele>219.6</ele>
        <time>2021-10-07T12:16:13Z</time>
      </trkpt>
      <trkpt lat="46.49715" lon="5.34336">
        <ele>220.4</ele>
        <time>2021-10-07T12:16:15Z</time>
      </trkpt>
      <trkpt lat="46.49721" lon="5.34323">
        <ele>220.8</ele>
        <time>2021-10-07T12:16:17Z</time>
      </trkpt>
      <trkpt lat="46.49724" lon="5.34315">
        <ele>221</ele>
        <time>2021-10-07T12:16:18Z</time>
      </trkpt>
      <trkpt lat="46.49727" lon="5.34307">
        <ele>221.2</ele>
        <time>2021-10-07T12:16:19Z</time>
      </trkpt>
      <trkpt lat="46.49735" lon="5.34292">
        <ele>221.4</ele>
        <time>2021-10-07T12:16:21Z</time>
      </trkpt>
      <trkpt lat="46.49743" lon="5.34277">
        <ele>221.4</ele>
        <time>2021-10-07T12:16:23Z</time>
      </trkpt>
      <trkpt lat="46.49752" lon="5.34263">
        <ele>221.6</ele>
        <time>2021-10-07T12:16:25Z</time>
      </trkpt>
      <trkpt lat="46.49761" lon="5.34248">
        <ele>221.6</ele>
        <time>2021-10-07T12:16:27Z</time>
      </trkpt>
      <trkpt lat="46.49769" lon="5.34234">
        <ele>221.4</ele>
        <time>2021-10-07T12:16:29Z</time>
      </trkpt>
      <trkpt lat="46.49777" lon="5.3422">
        <ele>221.4</ele>
        <time>2021-10-07T12:16:31Z</time>
      </trkpt>
      <trkpt lat="46.49786" lon="5.34206">
        <ele>221.4</ele>
        <time>2021-10-07T12:16:33Z</time>
      </trkpt>
      <trkpt lat="46.49794" lon="5.34193">
        <ele>221.4</ele>
        <time>2021-10-07T12:16:35Z</time>
      </trkpt>
      <trkpt lat="46.49803" lon="5.3418">
        <ele>221.2</ele>
        <time>2021-10-07T12:16:37Z</time>
      </trkpt>
      <trkpt lat="46.49811" lon="5.34166">
        <ele>221.2</ele>
        <time>2021-10-07T12:16:39Z</time>
      </trkpt>
      <trkpt lat="46.49815" lon="5.34159">
        <ele>221</ele>
        <time>2021-10-07T12:16:40Z</time>
      </trkpt>
      <trkpt lat="46.49819" lon="5.34152">
        <ele>221</ele>
        <time>2021-10-07T12:16:41Z</time>
      </trkpt>
      <trkpt lat="46.49827" lon="5.34138">
        <ele>221.2</ele>
        <time>2021-10-07T12:16:43Z</time>
      </trkpt>
      <trkpt lat="46.49835" lon="5.34124">
        <ele>221.4</ele>
        <time>2021-10-07T12:16:45Z</time>
      </trkpt>
      <trkpt lat="46.49844" lon="5.3411">
        <ele>221.4</ele>
        <time>2021-10-07T12:16:47Z</time>
      </trkpt>
      <trkpt lat="46.49853" lon="5.34096">
        <ele>221.4</ele>
        <time>2021-10-07T12:16:49Z</time>
      </trkpt>
      <trkpt lat="46.49863" lon="5.34082">
        <ele>221.4</ele>
        <time>2021-10-07T12:16:51Z</time>
      </trkpt>
      <trkpt lat="46.49873" lon="5.34068">
        <ele>221.4</ele>
        <time>2021-10-07T12:16:53Z</time>
      </trkpt>
      <trkpt lat="46.49883" lon="5.34055">
        <ele>221.2</ele>
        <time>2021-10-07T12:16:55Z</time>
      </trkpt>
      <trkpt lat="46.49893" lon="5.34043">
        <ele>221.2</ele>
        <time>2021-10-07T12:16:57Z</time>
      </trkpt>
      <trkpt lat="46.49903" lon="5.34033">
        <ele>221.2</ele>
        <time>2021-10-07T12:16:59Z</time>
      </trkpt>
      <trkpt lat="46.49913" lon="5.34022">
        <ele>221.2</ele>
        <time>2021-10-07T12:17:01Z</time>
      </trkpt>
      <trkpt lat="46.49917" lon="5.34017">
        <ele>221.2</ele>
        <time>2021-10-07T12:17:02Z</time>
      </trkpt>
      <trkpt lat="46.49922" lon="5.34012">
        <ele>221.2</ele>
        <time>2021-10-07T12:17:03Z</time>
      </trkpt>
      <trkpt lat="46.49931" lon="5.34002">
        <ele>221.2</ele>
        <time>2021-10-07T12:17:05Z</time>
      </trkpt>
      <trkpt lat="46.4994" lon="5.33992">
        <ele>221.6</ele>
        <time>2021-10-07T12:17:07Z</time>
      </trkpt>
      <trkpt lat="46.49949" lon="5.33982">
        <ele>222.2</ele>
        <time>2021-10-07T12:17:09Z</time>
      </trkpt>
      <trkpt lat="46.49953" lon="5.33977">
        <ele>222.2</ele>
        <time>2021-10-07T12:17:10Z</time>
      </trkpt>
      <trkpt lat="46.49958" lon="5.33972">
        <ele>222.4</ele>
        <time>2021-10-07T12:17:11Z</time>
      </trkpt>
      <trkpt lat="46.49967" lon="5.33963">
        <ele>222.6</ele>
        <time>2021-10-07T12:17:13Z</time>
      </trkpt>
      <trkpt lat="46.49972" lon="5.33959">
        <ele>223</ele>
        <time>2021-10-07T12:17:14Z</time>
      </trkpt>
      <trkpt lat="46.49977" lon="5.33954">
        <ele>223.4</ele>
        <time>2021-10-07T12:17:15Z</time>
      </trkpt>
      <trkpt lat="46.49987" lon="5.33946">
        <ele>223.8</ele>
        <time>2021-10-07T12:17:17Z</time>
      </trkpt>
      <trkpt lat="46.49996" lon="5.33937">
        <ele>224</ele>
        <time>2021-10-07T12:17:19Z</time>
      </trkpt>
      <trkpt lat="46.50006" lon="5.33926">
        <ele>224.2</ele>
        <time>2021-10-07T12:17:21Z</time>
      </trkpt>
      <trkpt lat="46.50011" lon="5.3392">
        <ele>224.2</ele>
        <time>2021-10-07T12:17:22Z</time>
      </trkpt>
      <trkpt lat="46.50016" lon="5.33914">
        <ele>224.2</ele>
        <time>2021-10-07T12:17:23Z</time>
      </trkpt>
      <trkpt lat="46.50027" lon="5.33903">
        <ele>224.2</ele>
        <time>2021-10-07T12:17:25Z</time>
      </trkpt>
      <trkpt lat="46.50038" lon="5.3389">
        <ele>224.2</ele>
        <time>2021-10-07T12:17:27Z</time>
      </trkpt>
      <trkpt lat="46.5005" lon="5.33877">
        <ele>224.2</ele>
        <time>2021-10-07T12:17:29Z</time>
      </trkpt>
      <trkpt lat="46.50056" lon="5.3387">
        <ele>224.2</ele>
        <time>2021-10-07T12:17:30Z</time>
      </trkpt>
      <trkpt lat="46.50062" lon="5.33863">
        <ele>224.2</ele>
        <time>2021-10-07T12:17:31Z</time>
      </trkpt>
      <trkpt lat="46.50074" lon="5.3385">
        <ele>224</ele>
        <time>2021-10-07T12:17:33Z</time>
      </trkpt>
      <trkpt lat="46.50087" lon="5.33836">
        <ele>223.4</ele>
        <time>2021-10-07T12:17:35Z</time>
      </trkpt>
      <trkpt lat="46.501" lon="5.33821">
        <ele>222.8</ele>
        <time>2021-10-07T12:17:37Z</time>
      </trkpt>
      <trkpt lat="46.50106" lon="5.33814">
        <ele>222.6</ele>
        <time>2021-10-07T12:17:38Z</time>
      </trkpt>
      <trkpt lat="46.50113" lon="5.33807">
        <ele>222.4</ele>
        <time>2021-10-07T12:17:39Z</time>
      </trkpt>
      <trkpt lat="46.50126" lon="5.33794">
        <ele>222.2</ele>
        <time>2021-10-07T12:17:41Z</time>
      </trkpt>
      <trkpt lat="46.50132" lon="5.33787">
        <ele>221.8</ele>
        <time>2021-10-07T12:17:42Z</time>
      </trkpt>
      <trkpt lat="46.50138" lon="5.3378">
        <ele>221.4</ele>
        <time>2021-10-07T12:17:43Z</time>
      </trkpt>
      <trkpt lat="46.50151" lon="5.33767">
        <ele>221</ele>
        <time>2021-10-07T12:17:45Z</time>
      </trkpt>
      <trkpt lat="46.50163" lon="5.33755">
        <ele>220.6</ele>
        <time>2021-10-07T12:17:47Z</time>
      </trkpt>
      <trkpt lat="46.50174" lon="5.33743">
        <ele>220.6</ele>
        <time>2021-10-07T12:17:49Z</time>
      </trkpt>
      <trkpt lat="46.50186" lon="5.33731">
        <ele>220.6</ele>
        <time>2021-10-07T12:17:51Z</time>
      </trkpt>
      <trkpt lat="46.50196" lon="5.33719">
        <ele>220.6</ele>
        <time>2021-10-07T12:17:53Z</time>
      </trkpt>
      <trkpt lat="46.50207" lon="5.33707">
        <ele>221</ele>
        <time>2021-10-07T12:17:55Z</time>
      </trkpt>
      <trkpt lat="46.50218" lon="5.33695">
        <ele>221</ele>
        <time>2021-10-07T12:17:57Z</time>
      </trkpt>
      <trkpt lat="46.50229" lon="5.33683">
        <ele>221.2</ele>
        <time>2021-10-07T12:17:59Z</time>
      </trkpt>
      <trkpt lat="46.5024" lon="5.33671">
        <ele>221.2</ele>
        <time>2021-10-07T12:18:01Z</time>
      </trkpt>
      <trkpt lat="46.50246" lon="5.33665">
        <ele>221.2</ele>
        <time>2021-10-07T12:18:02Z</time>
      </trkpt>
      <trkpt lat="46.50252" lon="5.33658">
        <ele>221.2</ele>
        <time>2021-10-07T12:18:03Z</time>
      </trkpt>
      <trkpt lat="46.50263" lon="5.33646">
        <ele>221.2</ele>
        <time>2021-10-07T12:18:05Z</time>
      </trkpt>
      <trkpt lat="46.50274" lon="5.33633">
        <ele>221.2</ele>
        <time>2021-10-07T12:18:07Z</time>
      </trkpt>
      <trkpt lat="46.50286" lon="5.3362">
        <ele>221.2</ele>
        <time>2021-10-07T12:18:09Z</time>
      </trkpt>
      <trkpt lat="46.50298" lon="5.33607">
        <ele>221</ele>
        <time>2021-10-07T12:18:11Z</time>
      </trkpt>
      <trkpt lat="46.5031" lon="5.33594">
        <ele>220.6</ele>
        <time>2021-10-07T12:18:13Z</time>
      </trkpt>
      <trkpt lat="46.50316" lon="5.33588">
        <ele>220.6</ele>
        <time>2021-10-07T12:18:14Z</time>
      </trkpt>
      <trkpt lat="46.50322" lon="5.33581">
        <ele>220.4</ele>
        <time>2021-10-07T12:18:15Z</time>
      </trkpt>
      <trkpt lat="46.50334" lon="5.33568">
        <ele>220.4</ele>
        <time>2021-10-07T12:18:17Z</time>
      </trkpt>
      <trkpt lat="46.50346" lon="5.33555">
        <ele>220.2</ele>
        <time>2021-10-07T12:18:19Z</time>
      </trkpt>
      <trkpt lat="46.50358" lon="5.33542">
        <ele>220</ele>
        <time>2021-10-07T12:18:21Z</time>
      </trkpt>
      <trkpt lat="46.5037" lon="5.33529">
        <ele>220</ele>
        <time>2021-10-07T12:18:23Z</time>
      </trkpt>
      <trkpt lat="46.50382" lon="5.33516">
        <ele>220</ele>
        <time>2021-10-07T12:18:25Z</time>
      </trkpt>
      <trkpt lat="46.50395" lon="5.33504">
        <ele>219.8</ele>
        <time>2021-10-07T12:18:27Z</time>
      </trkpt>
      <trkpt lat="46.50406" lon="5.3349">
        <ele>219.6</ele>
        <time>2021-10-07T12:18:29Z</time>
      </trkpt>
      <trkpt lat="46.50418" lon="5.33477">
        <ele>219.6</ele>
        <time>2021-10-07T12:18:31Z</time>
      </trkpt>
      <trkpt lat="46.50424" lon="5.3347">
        <ele>219.4</ele>
        <time>2021-10-07T12:18:32Z</time>
      </trkpt>
      <trkpt lat="46.5043" lon="5.33463">
        <ele>219.2</ele>
        <time>2021-10-07T12:18:33Z</time>
      </trkpt>
      <trkpt lat="46.5044" lon="5.33448">
        <ele>218.6</ele>
        <time>2021-10-07T12:18:35Z</time>
      </trkpt>
      <trkpt lat="46.5045" lon="5.3343">
        <ele>218.6</ele>
        <time>2021-10-07T12:18:37Z</time>
      </trkpt>
      <trkpt lat="46.50454" lon="5.33421">
        <ele>218.6</ele>
        <time>2021-10-07T12:18:38Z</time>
      </trkpt>
      <trkpt lat="46.50458" lon="5.33412">
        <ele>218.6</ele>
        <time>2021-10-07T12:18:39Z</time>
      </trkpt>
      <trkpt lat="46.50461" lon="5.33401">
        <ele>218.6</ele>
        <time>2021-10-07T12:18:40Z</time>
      </trkpt>
      <trkpt lat="46.50464" lon="5.33391">
        <ele>218.4</ele>
        <time>2021-10-07T12:18:41Z</time>
      </trkpt>
      <trkpt lat="46.50466" lon="5.33381">
        <ele>218.2</ele>
        <time>2021-10-07T12:18:42Z</time>
      </trkpt>
      <trkpt lat="46.50468" lon="5.3337">
        <ele>217.8</ele>
        <time>2021-10-07T12:18:43Z</time>
      </trkpt>
      <trkpt lat="46.5047" lon="5.3335">
        <ele>217.6</ele>
        <time>2021-10-07T12:18:45Z</time>
      </trkpt>
      <trkpt lat="46.50471" lon="5.3333">
        <ele>217.4</ele>
        <time>2021-10-07T12:18:47Z</time>
      </trkpt>
      <trkpt lat="46.50472" lon="5.33311">
        <ele>217.4</ele>
        <time>2021-10-07T12:18:49Z</time>
      </trkpt>
      <trkpt lat="46.50473" lon="5.33292">
        <ele>217.4</ele>
        <time>2021-10-07T12:18:51Z</time>
      </trkpt>
      <trkpt lat="46.50473" lon="5.33282">
        <ele>217.4</ele>
        <time>2021-10-07T12:18:52Z</time>
      </trkpt>
      <trkpt lat="46.50473" lon="5.33273">
        <ele>217.4</ele>
        <time>2021-10-07T12:18:53Z</time>
      </trkpt>
      <trkpt lat="46.50473" lon="5.33254">
        <ele>217.4</ele>
        <time>2021-10-07T12:18:55Z</time>
      </trkpt>
      <trkpt lat="46.50473" lon="5.33244">
        <ele>217.4</ele>
        <time>2021-10-07T12:18:56Z</time>
      </trkpt>
      <trkpt lat="46.50473" lon="5.33234">
        <ele>217.6</ele>
        <time>2021-10-07T12:18:57Z</time>
      </trkpt>
      <trkpt lat="46.50473" lon="5.3321">
        <ele>217.8</ele>
        <time>2021-10-07T12:18:59Z</time>
      </trkpt>
      <trkpt lat="46.50474" lon="5.3319">
        <ele>218</ele>
        <time>2021-10-07T12:19:01Z</time>
      </trkpt>
      <trkpt lat="46.50474" lon="5.33179">
        <ele>218</ele>
        <time>2021-10-07T12:19:02Z</time>
      </trkpt>
      <trkpt lat="46.50474" lon="5.33169">
        <ele>218</ele>
        <time>2021-10-07T12:19:03Z</time>
      </trkpt>
      <trkpt lat="46.50475" lon="5.33146">
        <ele>218</ele>
        <time>2021-10-07T12:19:05Z</time>
      </trkpt>
      <trkpt lat="46.50476" lon="5.33122">
        <ele>218</ele>
        <time>2021-10-07T12:19:07Z</time>
      </trkpt>
      <trkpt lat="46.50476" lon="5.33095">
        <ele>218</ele>
        <time>2021-10-07T12:19:09Z</time>
      </trkpt>
      <trkpt lat="46.50476" lon="5.33068">
        <ele>217.4</ele>
        <time>2021-10-07T12:19:11Z</time>
      </trkpt>
      <trkpt lat="46.50476" lon="5.33039">
        <ele>216.8</ele>
        <time>2021-10-07T12:19:13Z</time>
      </trkpt>
      <trkpt lat="46.50476" lon="5.3301">
        <ele>215.8</ele>
        <time>2021-10-07T12:19:15Z</time>
      </trkpt>
      <trkpt lat="46.50477" lon="5.3298">
        <ele>214.6</ele>
        <time>2021-10-07T12:19:17Z</time>
      </trkpt>
      <trkpt lat="46.50477" lon="5.3295">
        <ele>213.6</ele>
        <time>2021-10-07T12:19:19Z</time>
      </trkpt>
      <trkpt lat="46.50477" lon="5.32918">
        <ele>212.2</ele>
        <time>2021-10-07T12:19:21Z</time>
      </trkpt>
      <trkpt lat="46.50477" lon="5.32885">
        <ele>210.8</ele>
        <time>2021-10-07T12:19:23Z</time>
      </trkpt>
      <trkpt lat="46.50477" lon="5.32852">
        <ele>209.4</ele>
        <time>2021-10-07T12:19:25Z</time>
      </trkpt>
      <trkpt lat="46.50478" lon="5.3282">
        <ele>207.8</ele>
        <time>2021-10-07T12:19:27Z</time>
      </trkpt>
      <trkpt lat="46.50478" lon="5.32789">
        <ele>206.6</ele>
        <time>2021-10-07T12:19:29Z</time>
      </trkpt>
      <trkpt lat="46.50479" lon="5.32774">
        <ele>206.2</ele>
        <time>2021-10-07T12:19:30Z</time>
      </trkpt>
      <trkpt lat="46.50479" lon="5.3276">
        <ele>205.8</ele>
        <time>2021-10-07T12:19:31Z</time>
      </trkpt>
      <trkpt lat="46.50479" lon="5.32732">
        <ele>204.8</ele>
        <time>2021-10-07T12:19:33Z</time>
      </trkpt>
      <trkpt lat="46.5048" lon="5.32705">
        <ele>204</ele>
        <time>2021-10-07T12:19:35Z</time>
      </trkpt>
      <trkpt lat="46.5048" lon="5.32677">
        <ele>203.8</ele>
        <time>2021-10-07T12:19:37Z</time>
      </trkpt>
      <trkpt lat="46.50481" lon="5.32664">
        <ele>203.6</ele>
        <time>2021-10-07T12:19:38Z</time>
      </trkpt>
      <trkpt lat="46.50481" lon="5.3265">
        <ele>203.6</ele>
        <time>2021-10-07T12:19:39Z</time>
      </trkpt>
      <trkpt lat="46.50481" lon="5.32623">
        <ele>203.6</ele>
        <time>2021-10-07T12:19:41Z</time>
      </trkpt>
      <trkpt lat="46.5048" lon="5.32596">
        <ele>203.6</ele>
        <time>2021-10-07T12:19:43Z</time>
      </trkpt>
      <trkpt lat="46.50479" lon="5.32568">
        <ele>203.2</ele>
        <time>2021-10-07T12:19:45Z</time>
      </trkpt>
      <trkpt lat="46.50477" lon="5.32541">
        <ele>203.2</ele>
        <time>2021-10-07T12:19:47Z</time>
      </trkpt>
      <trkpt lat="46.50476" lon="5.32515">
        <ele>203</ele>
        <time>2021-10-07T12:19:49Z</time>
      </trkpt>
      <trkpt lat="46.50474" lon="5.32488">
        <ele>203</ele>
        <time>2021-10-07T12:19:51Z</time>
      </trkpt>
      <trkpt lat="46.50472" lon="5.32463">
        <ele>202.6</ele>
        <time>2021-10-07T12:19:53Z</time>
      </trkpt>
      <trkpt lat="46.50469" lon="5.32437">
        <ele>202.2</ele>
        <time>2021-10-07T12:19:55Z</time>
      </trkpt>
      <trkpt lat="46.50465" lon="5.32413">
        <ele>201.6</ele>
        <time>2021-10-07T12:19:57Z</time>
      </trkpt>
      <trkpt lat="46.5046" lon="5.32389">
        <ele>201.2</ele>
        <time>2021-10-07T12:19:59Z</time>
      </trkpt>
      <trkpt lat="46.50455" lon="5.32366">
        <ele>201</ele>
        <time>2021-10-07T12:20:01Z</time>
      </trkpt>
      <trkpt lat="46.50452" lon="5.32354">
        <ele>201</ele>
        <time>2021-10-07T12:20:02Z</time>
      </trkpt>
      <trkpt lat="46.5045" lon="5.32343">
        <ele>201</ele>
        <time>2021-10-07T12:20:03Z</time>
      </trkpt>
      <trkpt lat="46.50445" lon="5.32321">
        <ele>201</ele>
        <time>2021-10-07T12:20:05Z</time>
      </trkpt>
      <trkpt lat="46.50442" lon="5.32311">
        <ele>201</ele>
        <time>2021-10-07T12:20:06Z</time>
      </trkpt>
      <trkpt lat="46.50441" lon="5.323">
        <ele>201</ele>
        <time>2021-10-07T12:20:07Z</time>
      </trkpt>
      <trkpt lat="46.50437" lon="5.32278">
        <ele>201</ele>
        <time>2021-10-07T12:20:09Z</time>
      </trkpt>
      <trkpt lat="46.50435" lon="5.32257">
        <ele>201</ele>
        <time>2021-10-07T12:20:11Z</time>
      </trkpt>
      <trkpt lat="46.50434" lon="5.32235">
        <ele>200.8</ele>
        <time>2021-10-07T12:20:13Z</time>
      </trkpt>
      <trkpt lat="46.50434" lon="5.32213">
        <ele>200.8</ele>
        <time>2021-10-07T12:20:15Z</time>
      </trkpt>
      <trkpt lat="46.50441" lon="5.32195">
        <ele>200.8</ele>
        <time>2021-10-07T12:20:17Z</time>
      </trkpt>
      <trkpt lat="46.50453" lon="5.32184">
        <ele>201</ele>
        <time>2021-10-07T12:20:19Z</time>
      </trkpt>
      <trkpt lat="46.50459" lon="5.32178">
        <ele>200.8</ele>
        <time>2021-10-07T12:20:20Z</time>
      </trkpt>
      <trkpt lat="46.50464" lon="5.3217">
        <ele>200.8</ele>
        <time>2021-10-07T12:20:21Z</time>
      </trkpt>
      <trkpt lat="46.5047" lon="5.32152">
        <ele>200.8</ele>
        <time>2021-10-07T12:20:23Z</time>
      </trkpt>
      <trkpt lat="46.50473" lon="5.32143">
        <ele>200.8</ele>
        <time>2021-10-07T12:20:24Z</time>
      </trkpt>
      <trkpt lat="46.50476" lon="5.32134">
        <ele>200.6</ele>
        <time>2021-10-07T12:20:25Z</time>
      </trkpt>
      <trkpt lat="46.50482" lon="5.32115">
        <ele>200.6</ele>
        <time>2021-10-07T12:20:27Z</time>
      </trkpt>
      <trkpt lat="46.50489" lon="5.32098">
        <ele>200.6</ele>
        <time>2021-10-07T12:20:29Z</time>
      </trkpt>
      <trkpt lat="46.50493" lon="5.32089">
        <ele>200.6</ele>
        <time>2021-10-07T12:20:30Z</time>
      </trkpt>
      <trkpt lat="46.50497" lon="5.32081">
        <ele>200.6</ele>
        <time>2021-10-07T12:20:31Z</time>
      </trkpt>
      <trkpt lat="46.50506" lon="5.32065">
        <ele>200.6</ele>
        <time>2021-10-07T12:20:33Z</time>
      </trkpt>
      <trkpt lat="46.50514" lon="5.32049">
        <ele>200.6</ele>
        <time>2021-10-07T12:20:35Z</time>
      </trkpt>
      <trkpt lat="46.50524" lon="5.32034">
        <ele>200.6</ele>
        <time>2021-10-07T12:20:37Z</time>
      </trkpt>
      <trkpt lat="46.50529" lon="5.32028">
        <ele>200.6</ele>
        <time>2021-10-07T12:20:38Z</time>
      </trkpt>
      <trkpt lat="46.50533" lon="5.32021">
        <ele>200.6</ele>
        <time>2021-10-07T12:20:39Z</time>
      </trkpt>
      <trkpt lat="46.50542" lon="5.32009">
        <ele>200.6</ele>
        <time>2021-10-07T12:20:41Z</time>
      </trkpt>
      <trkpt lat="46.5055" lon="5.31996">
        <ele>200.6</ele>
        <time>2021-10-07T12:20:43Z</time>
      </trkpt>
      <trkpt lat="46.50554" lon="5.3199">
        <ele>200.6</ele>
        <time>2021-10-07T12:20:44Z</time>
      </trkpt>
      <trkpt lat="46.50557" lon="5.31984">
        <ele>200.6</ele>
        <time>2021-10-07T12:20:45Z</time>
      </trkpt>
      <trkpt lat="46.50562" lon="5.31972">
        <ele>200.8</ele>
        <time>2021-10-07T12:20:47Z</time>
      </trkpt>
      <trkpt lat="46.50567" lon="5.31959">
        <ele>201.2</ele>
        <time>2021-10-07T12:20:49Z</time>
      </trkpt>
      <trkpt lat="46.50569" lon="5.31952">
        <ele>201.6</ele>
        <time>2021-10-07T12:20:50Z</time>
      </trkpt>
      <trkpt lat="46.50571" lon="5.31946">
        <ele>202</ele>
        <time>2021-10-07T12:20:51Z</time>
      </trkpt>
      <trkpt lat="46.50576" lon="5.31934">
        <ele>203</ele>
        <time>2021-10-07T12:20:53Z</time>
      </trkpt>
      <trkpt lat="46.50579" lon="5.31923">
        <ele>203.8</ele>
        <time>2021-10-07T12:20:55Z</time>
      </trkpt>
      <trkpt lat="46.50582" lon="5.31917">
        <ele>204.2</ele>
        <time>2021-10-07T12:20:56Z</time>
      </trkpt>
      <trkpt lat="46.50584" lon="5.31911">
        <ele>204.6</ele>
        <time>2021-10-07T12:20:57Z</time>
      </trkpt>
      <trkpt lat="46.50588" lon="5.319">
        <ele>205</ele>
        <time>2021-10-07T12:20:59Z</time>
      </trkpt>
      <trkpt lat="46.5059" lon="5.31895">
        <ele>205.2</ele>
        <time>2021-10-07T12:21:00Z</time>
      </trkpt>
      <trkpt lat="46.50593" lon="5.31889">
        <ele>205.8</ele>
        <time>2021-10-07T12:21:01Z</time>
      </trkpt>
      <trkpt lat="46.50597" lon="5.31878">
        <ele>206.6</ele>
        <time>2021-10-07T12:21:03Z</time>
      </trkpt>
      <trkpt lat="46.50601" lon="5.31866">
        <ele>207.2</ele>
        <time>2021-10-07T12:21:05Z</time>
      </trkpt>
      <trkpt lat="46.50605" lon="5.31856">
        <ele>207.6</ele>
        <time>2021-10-07T12:21:07Z</time>
      </trkpt>
      <trkpt lat="46.50607" lon="5.31851">
        <ele>207.8</ele>
        <time>2021-10-07T12:21:08Z</time>
      </trkpt>
      <trkpt lat="46.50609" lon="5.31846">
        <ele>207.8</ele>
        <time>2021-10-07T12:21:09Z</time>
      </trkpt>
      <trkpt lat="46.5061" lon="5.3184">
        <ele>208.2</ele>
        <time>2021-10-07T12:21:10Z</time>
      </trkpt>
      <trkpt lat="46.50612" lon="5.31834">
        <ele>208.4</ele>
        <time>2021-10-07T12:21:11Z</time>
      </trkpt>
      <trkpt lat="46.50617" lon="5.31822">
        <ele>208.4</ele>
        <time>2021-10-07T12:21:13Z</time>
      </trkpt>
      <trkpt lat="46.50621" lon="5.3181">
        <ele>208.6</ele>
        <time>2021-10-07T12:21:15Z</time>
      </trkpt>
      <trkpt lat="46.50623" lon="5.31804">
        <ele>208.8</ele>
        <time>2021-10-07T12:21:16Z</time>
      </trkpt>
      <trkpt lat="46.50625" lon="5.31798">
        <ele>209</ele>
        <time>2021-10-07T12:21:17Z</time>
      </trkpt>
      <trkpt lat="46.5063" lon="5.31785">
        <ele>209.4</ele>
        <time>2021-10-07T12:21:19Z</time>
      </trkpt>
      <trkpt lat="46.50634" lon="5.31772">
        <ele>209.8</ele>
        <time>2021-10-07T12:21:21Z</time>
      </trkpt>
      <trkpt lat="46.50637" lon="5.31766">
        <ele>209.8</ele>
        <time>2021-10-07T12:21:22Z</time>
      </trkpt>
      <trkpt lat="46.5064" lon="5.3176">
        <ele>210</ele>
        <time>2021-10-07T12:21:23Z</time>
      </trkpt>
      <trkpt lat="46.50643" lon="5.31755">
        <ele>210.2</ele>
        <time>2021-10-07T12:21:24Z</time>
      </trkpt>
      <trkpt lat="46.50646" lon="5.31749">
        <ele>210.2</ele>
        <time>2021-10-07T12:21:25Z</time>
      </trkpt>
      <trkpt lat="46.50654" lon="5.31739">
        <ele>210.2</ele>
        <time>2021-10-07T12:21:27Z</time>
      </trkpt>
      <trkpt lat="46.50663" lon="5.31732">
        <ele>210.4</ele>
        <time>2021-10-07T12:21:29Z</time>
      </trkpt>
      <trkpt lat="46.50674" lon="5.31728">
        <ele>210.4</ele>
        <time>2021-10-07T12:21:31Z</time>
      </trkpt>
      <trkpt lat="46.5068" lon="5.31727">
        <ele>210.4</ele>
        <time>2021-10-07T12:21:32Z</time>
      </trkpt>
      <trkpt lat="46.50685" lon="5.31725">
        <ele>210.4</ele>
        <time>2021-10-07T12:21:33Z</time>
      </trkpt>
      <trkpt lat="46.50691" lon="5.31723">
        <ele>210.4</ele>
        <time>2021-10-07T12:21:34Z</time>
      </trkpt>
      <trkpt lat="46.50697" lon="5.31722">
        <ele>210.4</ele>
        <time>2021-10-07T12:21:35Z</time>
      </trkpt>
      <trkpt lat="46.50709" lon="5.31719">
        <ele>210.4</ele>
        <time>2021-10-07T12:21:37Z</time>
      </trkpt>
      <trkpt lat="46.50721" lon="5.31716">
        <ele>210.2</ele>
        <time>2021-10-07T12:21:39Z</time>
      </trkpt>
      <trkpt lat="46.50734" lon="5.31713">
        <ele>210.2</ele>
        <time>2021-10-07T12:21:41Z</time>
      </trkpt>
      <trkpt lat="46.50746" lon="5.31711">
        <ele>210.2</ele>
        <time>2021-10-07T12:21:43Z</time>
      </trkpt>
      <trkpt lat="46.50759" lon="5.3171">
        <ele>210</ele>
        <time>2021-10-07T12:21:45Z</time>
      </trkpt>
      <trkpt lat="46.50771" lon="5.3171">
        <ele>210</ele>
        <time>2021-10-07T12:21:47Z</time>
      </trkpt>
      <trkpt lat="46.50784" lon="5.31715">
        <ele>210</ele>
        <time>2021-10-07T12:21:49Z</time>
      </trkpt>
      <trkpt lat="46.50795" lon="5.31723">
        <ele>210</ele>
        <time>2021-10-07T12:21:51Z</time>
      </trkpt>
      <trkpt lat="46.50801" lon="5.31727">
        <ele>210</ele>
        <time>2021-10-07T12:21:52Z</time>
      </trkpt>
      <trkpt lat="46.50806" lon="5.31731">
        <ele>210</ele>
        <time>2021-10-07T12:21:53Z</time>
      </trkpt>
      <trkpt lat="46.50817" lon="5.3174">
        <ele>210.4</ele>
        <time>2021-10-07T12:21:55Z</time>
      </trkpt>
      <trkpt lat="46.50828" lon="5.31747">
        <ele>210.8</ele>
        <time>2021-10-07T12:21:57Z</time>
      </trkpt>
      <trkpt lat="46.5084" lon="5.3175">
        <ele>211</ele>
        <time>2021-10-07T12:21:59Z</time>
      </trkpt>
      <trkpt lat="46.50845" lon="5.31749">
        <ele>211</ele>
        <time>2021-10-07T12:22:00Z</time>
      </trkpt>
      <trkpt lat="46.50851" lon="5.31748">
        <ele>211</ele>
        <time>2021-10-07T12:22:01Z</time>
      </trkpt>
      <trkpt lat="46.50861" lon="5.3174">
        <ele>211.2</ele>
        <time>2021-10-07T12:22:03Z</time>
      </trkpt>
      <trkpt lat="46.50866" lon="5.31735">
        <ele>211.2</ele>
        <time>2021-10-07T12:22:04Z</time>
      </trkpt>
      <trkpt lat="46.50871" lon="5.3173">
        <ele>211.2</ele>
        <time>2021-10-07T12:22:05Z</time>
      </trkpt>
      <trkpt lat="46.50881" lon="5.31719">
        <ele>211.2</ele>
        <time>2021-10-07T12:22:07Z</time>
      </trkpt>
      <trkpt lat="46.50891" lon="5.31709">
        <ele>211.4</ele>
        <time>2021-10-07T12:22:09Z</time>
      </trkpt>
      <trkpt lat="46.50901" lon="5.31698">
        <ele>211.4</ele>
        <time>2021-10-07T12:22:11Z</time>
      </trkpt>
      <trkpt lat="46.50912" lon="5.31687">
        <ele>211.6</ele>
        <time>2021-10-07T12:22:13Z</time>
      </trkpt>
      <trkpt lat="46.50923" lon="5.31675">
        <ele>211.6</ele>
        <time>2021-10-07T12:22:15Z</time>
      </trkpt>
      <trkpt lat="46.50935" lon="5.31663">
        <ele>211.6</ele>
        <time>2021-10-07T12:22:17Z</time>
      </trkpt>
      <trkpt lat="46.50947" lon="5.3165">
        <ele>211.6</ele>
        <time>2021-10-07T12:22:19Z</time>
      </trkpt>
      <trkpt lat="46.5096" lon="5.31636">
        <ele>211.6</ele>
        <time>2021-10-07T12:22:21Z</time>
      </trkpt>
      <trkpt lat="46.50972" lon="5.31624">
        <ele>211.4</ele>
        <time>2021-10-07T12:22:23Z</time>
      </trkpt>
      <trkpt lat="46.50978" lon="5.31617">
        <ele>211.2</ele>
        <time>2021-10-07T12:22:24Z</time>
      </trkpt>
      <trkpt lat="46.50983" lon="5.31611">
        <ele>210.6</ele>
        <time>2021-10-07T12:22:25Z</time>
      </trkpt>
      <trkpt lat="46.50994" lon="5.316">
        <ele>210.4</ele>
        <time>2021-10-07T12:22:27Z</time>
      </trkpt>
      <trkpt lat="46.51005" lon="5.31588">
        <ele>210.2</ele>
        <time>2021-10-07T12:22:29Z</time>
      </trkpt>
      <trkpt lat="46.51016" lon="5.31577">
        <ele>210.2</ele>
        <time>2021-10-07T12:22:31Z</time>
      </trkpt>
      <trkpt lat="46.51021" lon="5.31572">
        <ele>210.2</ele>
        <time>2021-10-07T12:22:32Z</time>
      </trkpt>
      <trkpt lat="46.51026" lon="5.31566">
        <ele>210.2</ele>
        <time>2021-10-07T12:22:33Z</time>
      </trkpt>
      <trkpt lat="46.5103" lon="5.31559">
        <ele>210.2</ele>
        <time>2021-10-07T12:22:34Z</time>
      </trkpt>
      <trkpt lat="46.51034" lon="5.31552">
        <ele>210.4</ele>
        <time>2021-10-07T12:22:35Z</time>
      </trkpt>
      <trkpt lat="46.51041" lon="5.31534">
        <ele>210.6</ele>
        <time>2021-10-07T12:22:37Z</time>
      </trkpt>
      <trkpt lat="46.51044" lon="5.31524">
        <ele>210.6</ele>
        <time>2021-10-07T12:22:38Z</time>
      </trkpt>
      <trkpt lat="46.51047" lon="5.31514">
        <ele>210.6</ele>
        <time>2021-10-07T12:22:39Z</time>
      </trkpt>
      <trkpt lat="46.51052" lon="5.31492">
        <ele>210.6</ele>
        <time>2021-10-07T12:22:41Z</time>
      </trkpt>
      <trkpt lat="46.51058" lon="5.31469">
        <ele>210.6</ele>
        <time>2021-10-07T12:22:43Z</time>
      </trkpt>
      <trkpt lat="46.51063" lon="5.31445">
        <ele>210.4</ele>
        <time>2021-10-07T12:22:45Z</time>
      </trkpt>
      <trkpt lat="46.51068" lon="5.3142">
        <ele>209.8</ele>
        <time>2021-10-07T12:22:47Z</time>
      </trkpt>
      <trkpt lat="46.51072" lon="5.31395">
        <ele>209.6</ele>
        <time>2021-10-07T12:22:49Z</time>
      </trkpt>
      <trkpt lat="46.51073" lon="5.31383">
        <ele>209.4</ele>
        <time>2021-10-07T12:22:50Z</time>
      </trkpt>
      <trkpt lat="46.51073" lon="5.3137">
        <ele>208.8</ele>
        <time>2021-10-07T12:22:51Z</time>
      </trkpt>
      <trkpt lat="46.51072" lon="5.31345">
        <ele>207.6</ele>
        <time>2021-10-07T12:22:53Z</time>
      </trkpt>
      <trkpt lat="46.51073" lon="5.31332">
        <ele>207.4</ele>
        <time>2021-10-07T12:22:54Z</time>
      </trkpt>
      <trkpt lat="46.51075" lon="5.31319">
        <ele>207</ele>
        <time>2021-10-07T12:22:55Z</time>
      </trkpt>
      <trkpt lat="46.51079" lon="5.31307">
        <ele>206.8</ele>
        <time>2021-10-07T12:22:56Z</time>
      </trkpt>
      <trkpt lat="46.51085" lon="5.31296">
        <ele>206.4</ele>
        <time>2021-10-07T12:22:57Z</time>
      </trkpt>
      <trkpt lat="46.51098" lon="5.31277">
        <ele>205.6</ele>
        <time>2021-10-07T12:22:59Z</time>
      </trkpt>
      <trkpt lat="46.51113" lon="5.31257">
        <ele>205</ele>
        <time>2021-10-07T12:23:01Z</time>
      </trkpt>
      <trkpt lat="46.51128" lon="5.31238">
        <ele>204.4</ele>
        <time>2021-10-07T12:23:03Z</time>
      </trkpt>
      <trkpt lat="46.51136" lon="5.3123">
        <ele>203.6</ele>
        <time>2021-10-07T12:23:04Z</time>
      </trkpt>
      <trkpt lat="46.51144" lon="5.31222">
        <ele>203</ele>
        <time>2021-10-07T12:23:05Z</time>
      </trkpt>
      <trkpt lat="46.51151" lon="5.31213">
        <ele>202.2</ele>
        <time>2021-10-07T12:23:06Z</time>
      </trkpt>
      <trkpt lat="46.51159" lon="5.31205">
        <ele>201.6</ele>
        <time>2021-10-07T12:23:07Z</time>
      </trkpt>
      <trkpt lat="46.51166" lon="5.31197">
        <ele>201.2</ele>
        <time>2021-10-07T12:23:08Z</time>
      </trkpt>
      <trkpt lat="46.51173" lon="5.31189">
        <ele>200.8</ele>
        <time>2021-10-07T12:23:09Z</time>
      </trkpt>
      <trkpt lat="46.51188" lon="5.31173">
        <ele>200.4</ele>
        <time>2021-10-07T12:23:11Z</time>
      </trkpt>
      <trkpt lat="46.51202" lon="5.31156">
        <ele>200</ele>
        <time>2021-10-07T12:23:13Z</time>
      </trkpt>
      <trkpt lat="46.51216" lon="5.31139">
        <ele>200</ele>
        <time>2021-10-07T12:23:15Z</time>
      </trkpt>
      <trkpt lat="46.5123" lon="5.31123">
        <ele>199.8</ele>
        <time>2021-10-07T12:23:17Z</time>
      </trkpt>
      <trkpt lat="46.51246" lon="5.31107">
        <ele>199.6</ele>
        <time>2021-10-07T12:23:19Z</time>
      </trkpt>
      <trkpt lat="46.51254" lon="5.311">
        <ele>199.6</ele>
        <time>2021-10-07T12:23:20Z</time>
      </trkpt>
      <trkpt lat="46.51263" lon="5.31095">
        <ele>199.6</ele>
        <time>2021-10-07T12:23:21Z</time>
      </trkpt>
      <trkpt lat="46.51281" lon="5.3109">
        <ele>198.8</ele>
        <time>2021-10-07T12:23:23Z</time>
      </trkpt>
      <trkpt lat="46.5129" lon="5.31089">
        <ele>198</ele>
        <time>2021-10-07T12:23:24Z</time>
      </trkpt>
      <trkpt lat="46.51299" lon="5.31088">
        <ele>197.4</ele>
        <time>2021-10-07T12:23:25Z</time>
      </trkpt>
      <trkpt lat="46.51315" lon="5.31086">
        <ele>197.2</ele>
        <time>2021-10-07T12:23:27Z</time>
      </trkpt>
      <trkpt lat="46.51331" lon="5.31085">
        <ele>197</ele>
        <time>2021-10-07T12:23:29Z</time>
      </trkpt>
      <trkpt lat="46.51339" lon="5.31084">
        <ele>197</ele>
        <time>2021-10-07T12:23:30Z</time>
      </trkpt>
      <trkpt lat="46.51347" lon="5.31083">
        <ele>197</ele>
        <time>2021-10-07T12:23:31Z</time>
      </trkpt>
      <trkpt lat="46.51362" lon="5.31082">
        <ele>197</ele>
        <time>2021-10-07T12:23:33Z</time>
      </trkpt>
      <trkpt lat="46.51377" lon="5.31081">
        <ele>197.2</ele>
        <time>2021-10-07T12:23:35Z</time>
      </trkpt>
      <trkpt lat="46.51392" lon="5.3108">
        <ele>197.6</ele>
        <time>2021-10-07T12:23:37Z</time>
      </trkpt>
      <trkpt lat="46.51407" lon="5.31079">
        <ele>198</ele>
        <time>2021-10-07T12:23:39Z</time>
      </trkpt>
      <trkpt lat="46.51421" lon="5.31078">
        <ele>198.2</ele>
        <time>2021-10-07T12:23:41Z</time>
      </trkpt>
      <trkpt lat="46.51436" lon="5.31077">
        <ele>198.2</ele>
        <time>2021-10-07T12:23:43Z</time>
      </trkpt>
      <trkpt lat="46.51451" lon="5.31077">
        <ele>198.2</ele>
        <time>2021-10-07T12:23:45Z</time>
      </trkpt>
      <trkpt lat="46.51465" lon="5.31077">
        <ele>198.2</ele>
        <time>2021-10-07T12:23:47Z</time>
      </trkpt>
      <trkpt lat="46.51479" lon="5.31077">
        <ele>198.2</ele>
        <time>2021-10-07T12:23:49Z</time>
      </trkpt>
      <trkpt lat="46.51492" lon="5.31077">
        <ele>198.2</ele>
        <time>2021-10-07T12:23:51Z</time>
      </trkpt>
      <trkpt lat="46.51506" lon="5.31078">
        <ele>198.2</ele>
        <time>2021-10-07T12:23:53Z</time>
      </trkpt>
      <trkpt lat="46.51519" lon="5.31078">
        <ele>198.2</ele>
        <time>2021-10-07T12:23:55Z</time>
      </trkpt>
      <trkpt lat="46.51532" lon="5.31079">
        <ele>198.2</ele>
        <time>2021-10-07T12:23:57Z</time>
      </trkpt>
      <trkpt lat="46.51544" lon="5.3108">
        <ele>198.2</ele>
        <time>2021-10-07T12:23:59Z</time>
      </trkpt>
      <trkpt lat="46.51557" lon="5.3108">
        <ele>198.4</ele>
        <time>2021-10-07T12:24:01Z</time>
      </trkpt>
      <trkpt lat="46.5157" lon="5.31081">
        <ele>198.4</ele>
        <time>2021-10-07T12:24:03Z</time>
      </trkpt>
      <trkpt lat="46.51576" lon="5.31082">
        <ele>198.6</ele>
        <time>2021-10-07T12:24:04Z</time>
      </trkpt>
      <trkpt lat="46.51582" lon="5.31083">
        <ele>198.6</ele>
        <time>2021-10-07T12:24:05Z</time>
      </trkpt>
      <trkpt lat="46.51594" lon="5.31087">
        <ele>198.6</ele>
        <time>2021-10-07T12:24:07Z</time>
      </trkpt>
      <trkpt lat="46.51606" lon="5.31091">
        <ele>198.6</ele>
        <time>2021-10-07T12:24:09Z</time>
      </trkpt>
      <trkpt lat="46.51617" lon="5.31096">
        <ele>198.6</ele>
        <time>2021-10-07T12:24:11Z</time>
      </trkpt>
      <trkpt lat="46.51627" lon="5.31101">
        <ele>198.8</ele>
        <time>2021-10-07T12:24:13Z</time>
      </trkpt>
      <trkpt lat="46.51636" lon="5.31106">
        <ele>199</ele>
        <time>2021-10-07T12:24:15Z</time>
      </trkpt>
      <trkpt lat="46.51641" lon="5.31108">
        <ele>199.2</ele>
        <time>2021-10-07T12:24:16Z</time>
      </trkpt>
      <trkpt lat="46.51645" lon="5.31108">
        <ele>199.2</ele>
        <time>2021-10-07T12:24:17Z</time>
      </trkpt>
      <trkpt lat="46.51655" lon="5.31107">
        <ele>199.4</ele>
        <time>2021-10-07T12:24:19Z</time>
      </trkpt>
      <trkpt lat="46.51659" lon="5.31106">
        <ele>199.8</ele>
        <time>2021-10-07T12:24:20Z</time>
      </trkpt>
      <trkpt lat="46.51663" lon="5.31106">
        <ele>200.2</ele>
        <time>2021-10-07T12:24:21Z</time>
      </trkpt>
      <trkpt lat="46.51667" lon="5.31106">
        <ele>200.6</ele>
        <time>2021-10-07T12:24:22Z</time>
      </trkpt>
      <trkpt lat="46.51671" lon="5.31108">
        <ele>200.8</ele>
        <time>2021-10-07T12:24:23Z</time>
      </trkpt>
      <trkpt lat="46.51674" lon="5.31111">
        <ele>201.2</ele>
        <time>2021-10-07T12:24:24Z</time>
      </trkpt>
      <trkpt lat="46.51678" lon="5.31117">
        <ele>201.4</ele>
        <time>2021-10-07T12:24:25Z</time>
      </trkpt>
      <trkpt lat="46.51685" lon="5.31129">
        <ele>201.6</ele>
        <time>2021-10-07T12:24:27Z</time>
      </trkpt>
      <trkpt lat="46.51689" lon="5.31136">
        <ele>201.6</ele>
        <time>2021-10-07T12:24:28Z</time>
      </trkpt>
      <trkpt lat="46.51693" lon="5.31143">
        <ele>201.6</ele>
        <time>2021-10-07T12:24:29Z</time>
      </trkpt>
      <trkpt lat="46.51697" lon="5.31149">
        <ele>201.6</ele>
        <time>2021-10-07T12:24:30Z</time>
      </trkpt>
      <trkpt lat="46.51702" lon="5.31155">
        <ele>201.8</ele>
        <time>2021-10-07T12:24:31Z</time>
      </trkpt>
      <trkpt lat="46.51713" lon="5.31166">
        <ele>201.8</ele>
        <time>2021-10-07T12:24:33Z</time>
      </trkpt>
      <trkpt lat="46.51725" lon="5.31175">
        <ele>201.6</ele>
        <time>2021-10-07T12:24:35Z</time>
      </trkpt>
      <trkpt lat="46.51739" lon="5.3118">
        <ele>201.4</ele>
        <time>2021-10-07T12:24:37Z</time>
      </trkpt>
      <trkpt lat="46.51755" lon="5.31182">
        <ele>201</ele>
        <time>2021-10-07T12:24:39Z</time>
      </trkpt>
      <trkpt lat="46.51772" lon="5.31182">
        <ele>200.8</ele>
        <time>2021-10-07T12:24:41Z</time>
      </trkpt>
      <trkpt lat="46.5178" lon="5.31182">
        <ele>200.4</ele>
        <time>2021-10-07T12:24:42Z</time>
      </trkpt>
      <trkpt lat="46.51789" lon="5.31183">
        <ele>200</ele>
        <time>2021-10-07T12:24:43Z</time>
      </trkpt>
      <trkpt lat="46.51798" lon="5.31183">
        <ele>199.4</ele>
        <time>2021-10-07T12:24:44Z</time>
      </trkpt>
      <trkpt lat="46.51807" lon="5.31183">
        <ele>198.8</ele>
        <time>2021-10-07T12:24:45Z</time>
      </trkpt>
      <trkpt lat="46.51816" lon="5.31184">
        <ele>198.2</ele>
        <time>2021-10-07T12:24:46Z</time>
      </trkpt>
      <trkpt lat="46.51825" lon="5.31186">
        <ele>198</ele>
        <time>2021-10-07T12:24:47Z</time>
      </trkpt>
      <trkpt lat="46.51834" lon="5.31189">
        <ele>197.2</ele>
        <time>2021-10-07T12:24:48Z</time>
      </trkpt>
      <trkpt lat="46.51843" lon="5.31192">
        <ele>196.4</ele>
        <time>2021-10-07T12:24:49Z</time>
      </trkpt>
      <trkpt lat="46.51852" lon="5.31197">
        <ele>195.6</ele>
        <time>2021-10-07T12:24:50Z</time>
      </trkpt>
      <trkpt lat="46.5186" lon="5.31203">
        <ele>194.8</ele>
        <time>2021-10-07T12:24:51Z</time>
      </trkpt>
      <trkpt lat="46.51867" lon="5.3121">
        <ele>194.4</ele>
        <time>2021-10-07T12:24:52Z</time>
      </trkpt>
      <trkpt lat="46.51874" lon="5.31218">
        <ele>194</ele>
        <time>2021-10-07T12:24:53Z</time>
      </trkpt>
      <trkpt lat="46.5188" lon="5.31226">
        <ele>193.4</ele>
        <time>2021-10-07T12:24:54Z</time>
      </trkpt>
      <trkpt lat="46.51886" lon="5.31234">
        <ele>193.2</ele>
        <time>2021-10-07T12:24:55Z</time>
      </trkpt>
      <trkpt lat="46.51897" lon="5.31251">
        <ele>192.8</ele>
        <time>2021-10-07T12:24:57Z</time>
      </trkpt>
      <trkpt lat="46.51908" lon="5.31268">
        <ele>192.8</ele>
        <time>2021-10-07T12:24:59Z</time>
      </trkpt>
      <trkpt lat="46.51919" lon="5.31284">
        <ele>192.8</ele>
        <time>2021-10-07T12:25:01Z</time>
      </trkpt>
      <trkpt lat="46.5193" lon="5.313">
        <ele>192.8</ele>
        <time>2021-10-07T12:25:03Z</time>
      </trkpt>
      <trkpt lat="46.51941" lon="5.31316">
        <ele>192.8</ele>
        <time>2021-10-07T12:25:05Z</time>
      </trkpt>
      <trkpt lat="46.51946" lon="5.31323">
        <ele>192.8</ele>
        <time>2021-10-07T12:25:06Z</time>
      </trkpt>
      <trkpt lat="46.51951" lon="5.31331">
        <ele>192.8</ele>
        <time>2021-10-07T12:25:07Z</time>
      </trkpt>
      <trkpt lat="46.51961" lon="5.31346">
        <ele>193</ele>
        <time>2021-10-07T12:25:09Z</time>
      </trkpt>
      <trkpt lat="46.51971" lon="5.31361">
        <ele>193.2</ele>
        <time>2021-10-07T12:25:11Z</time>
      </trkpt>
      <trkpt lat="46.51981" lon="5.31375">
        <ele>193.4</ele>
        <time>2021-10-07T12:25:13Z</time>
      </trkpt>
      <trkpt lat="46.51991" lon="5.31388">
        <ele>193.4</ele>
        <time>2021-10-07T12:25:15Z</time>
      </trkpt>
      <trkpt lat="46.52" lon="5.31402">
        <ele>193.6</ele>
        <time>2021-10-07T12:25:17Z</time>
      </trkpt>
      <trkpt lat="46.52009" lon="5.31415">
        <ele>193.8</ele>
        <time>2021-10-07T12:25:19Z</time>
      </trkpt>
      <trkpt lat="46.52018" lon="5.31428">
        <ele>194.2</ele>
        <time>2021-10-07T12:25:21Z</time>
      </trkpt>
      <trkpt lat="46.52022" lon="5.31435">
        <ele>194.2</ele>
        <time>2021-10-07T12:25:22Z</time>
      </trkpt>
      <trkpt lat="46.52027" lon="5.31441">
        <ele>194.4</ele>
        <time>2021-10-07T12:25:23Z</time>
      </trkpt>
      <trkpt lat="46.52035" lon="5.31453">
        <ele>194.8</ele>
        <time>2021-10-07T12:25:25Z</time>
      </trkpt>
      <trkpt lat="46.52043" lon="5.31466">
        <ele>195</ele>
        <time>2021-10-07T12:25:27Z</time>
      </trkpt>
      <trkpt lat="46.52051" lon="5.31478">
        <ele>195</ele>
        <time>2021-10-07T12:25:29Z</time>
      </trkpt>
      <trkpt lat="46.5206" lon="5.3149">
        <ele>195.2</ele>
        <time>2021-10-07T12:25:31Z</time>
      </trkpt>
      <trkpt lat="46.52068" lon="5.31501">
        <ele>196</ele>
        <time>2021-10-07T12:25:33Z</time>
      </trkpt>
      <trkpt lat="46.52073" lon="5.31507">
        <ele>196.4</ele>
        <time>2021-10-07T12:25:34Z</time>
      </trkpt>
      <trkpt lat="46.52077" lon="5.31513">
        <ele>196.8</ele>
        <time>2021-10-07T12:25:35Z</time>
      </trkpt>
      <trkpt lat="46.52085" lon="5.31524">
        <ele>197</ele>
        <time>2021-10-07T12:25:37Z</time>
      </trkpt>
      <trkpt lat="46.52089" lon="5.31529">
        <ele>197.2</ele>
        <time>2021-10-07T12:25:38Z</time>
      </trkpt>
      <trkpt lat="46.52093" lon="5.31535">
        <ele>197.2</ele>
        <time>2021-10-07T12:25:39Z</time>
      </trkpt>
      <trkpt lat="46.52101" lon="5.31545">
        <ele>197.4</ele>
        <time>2021-10-07T12:25:41Z</time>
      </trkpt>
      <trkpt lat="46.52105" lon="5.31551">
        <ele>197.4</ele>
        <time>2021-10-07T12:25:42Z</time>
      </trkpt>
      <trkpt lat="46.52109" lon="5.31556">
        <ele>197.4</ele>
        <time>2021-10-07T12:25:43Z</time>
      </trkpt>
      <trkpt lat="46.52116" lon="5.31566">
        <ele>197.6</ele>
        <time>2021-10-07T12:25:45Z</time>
      </trkpt>
      <trkpt lat="46.52124" lon="5.31576">
        <ele>198</ele>
        <time>2021-10-07T12:25:47Z</time>
      </trkpt>
      <trkpt lat="46.52132" lon="5.31586">
        <ele>198.4</ele>
        <time>2021-10-07T12:25:49Z</time>
      </trkpt>
      <trkpt lat="46.52139" lon="5.31596">
        <ele>199.2</ele>
        <time>2021-10-07T12:25:51Z</time>
      </trkpt>
      <trkpt lat="46.52146" lon="5.31607">
        <ele>199.6</ele>
        <time>2021-10-07T12:25:53Z</time>
      </trkpt>
      <trkpt lat="46.52153" lon="5.31617">
        <ele>200.4</ele>
        <time>2021-10-07T12:25:55Z</time>
      </trkpt>
      <trkpt lat="46.52156" lon="5.31622">
        <ele>200.8</ele>
        <time>2021-10-07T12:25:56Z</time>
      </trkpt>
      <trkpt lat="46.5216" lon="5.31628">
        <ele>201</ele>
        <time>2021-10-07T12:25:57Z</time>
      </trkpt>
      <trkpt lat="46.52167" lon="5.31638">
        <ele>201.2</ele>
        <time>2021-10-07T12:25:59Z</time>
      </trkpt>
      <trkpt lat="46.52174" lon="5.31649">
        <ele>201.8</ele>
        <time>2021-10-07T12:26:01Z</time>
      </trkpt>
      <trkpt lat="46.52182" lon="5.31659">
        <ele>202.2</ele>
        <time>2021-10-07T12:26:03Z</time>
      </trkpt>
      <trkpt lat="46.52189" lon="5.3167">
        <ele>202.4</ele>
        <time>2021-10-07T12:26:05Z</time>
      </trkpt>
      <trkpt lat="46.52196" lon="5.3168">
        <ele>202.6</ele>
        <time>2021-10-07T12:26:07Z</time>
      </trkpt>
      <trkpt lat="46.52203" lon="5.31691">
        <ele>202.8</ele>
        <time>2021-10-07T12:26:09Z</time>
      </trkpt>
      <trkpt lat="46.5221" lon="5.31702">
        <ele>203.2</ele>
        <time>2021-10-07T12:26:11Z</time>
      </trkpt>
      <trkpt lat="46.52218" lon="5.31712">
        <ele>203.2</ele>
        <time>2021-10-07T12:26:13Z</time>
      </trkpt>
      <trkpt lat="46.52221" lon="5.31718">
        <ele>203.4</ele>
        <time>2021-10-07T12:26:14Z</time>
      </trkpt>
      <trkpt lat="46.52225" lon="5.31723">
        <ele>203.6</ele>
        <time>2021-10-07T12:26:15Z</time>
      </trkpt>
      <trkpt lat="46.52232" lon="5.31734">
        <ele>204</ele>
        <time>2021-10-07T12:26:17Z</time>
      </trkpt>
      <trkpt lat="46.52239" lon="5.31744">
        <ele>204.2</ele>
        <time>2021-10-07T12:26:19Z</time>
      </trkpt>
      <trkpt lat="46.52246" lon="5.31755">
        <ele>204.4</ele>
        <time>2021-10-07T12:26:21Z</time>
      </trkpt>
      <trkpt lat="46.52254" lon="5.31765">
        <ele>204.4</ele>
        <time>2021-10-07T12:26:23Z</time>
      </trkpt>
      <trkpt lat="46.52262" lon="5.31775">
        <ele>204.6</ele>
        <time>2021-10-07T12:26:25Z</time>
      </trkpt>
      <trkpt lat="46.52265" lon="5.31781">
        <ele>204.8</ele>
        <time>2021-10-07T12:26:26Z</time>
      </trkpt>
      <trkpt lat="46.52269" lon="5.31786">
        <ele>205.2</ele>
        <time>2021-10-07T12:26:27Z</time>
      </trkpt>
      <trkpt lat="46.52276" lon="5.31797">
        <ele>205.6</ele>
        <time>2021-10-07T12:26:29Z</time>
      </trkpt>
      <trkpt lat="46.52284" lon="5.31807">
        <ele>206</ele>
        <time>2021-10-07T12:26:31Z</time>
      </trkpt>
      <trkpt lat="46.52287" lon="5.31813">
        <ele>206.2</ele>
        <time>2021-10-07T12:26:32Z</time>
      </trkpt>
      <trkpt lat="46.52291" lon="5.31818">
        <ele>206.2</ele>
        <time>2021-10-07T12:26:33Z</time>
      </trkpt>
      <trkpt lat="46.52298" lon="5.31828">
        <ele>206.6</ele>
        <time>2021-10-07T12:26:35Z</time>
      </trkpt>
      <trkpt lat="46.52305" lon="5.31839">
        <ele>207.2</ele>
        <time>2021-10-07T12:26:37Z</time>
      </trkpt>
      <trkpt lat="46.52313" lon="5.31849">
        <ele>207.4</ele>
        <time>2021-10-07T12:26:39Z</time>
      </trkpt>
      <trkpt lat="46.5232" lon="5.31859">
        <ele>207.6</ele>
        <time>2021-10-07T12:26:41Z</time>
      </trkpt>
      <trkpt lat="46.52327" lon="5.31868">
        <ele>207.6</ele>
        <time>2021-10-07T12:26:43Z</time>
      </trkpt>
      <trkpt lat="46.52334" lon="5.31878">
        <ele>207.6</ele>
        <time>2021-10-07T12:26:45Z</time>
      </trkpt>
      <trkpt lat="46.5234" lon="5.31888">
        <ele>207.8</ele>
        <time>2021-10-07T12:26:47Z</time>
      </trkpt>
      <trkpt lat="46.52347" lon="5.31897">
        <ele>208.2</ele>
        <time>2021-10-07T12:26:49Z</time>
      </trkpt>
      <trkpt lat="46.5235" lon="5.31902">
        <ele>208.4</ele>
        <time>2021-10-07T12:26:50Z</time>
      </trkpt>
      <trkpt lat="46.52354" lon="5.31907">
        <ele>208.6</ele>
        <time>2021-10-07T12:26:51Z</time>
      </trkpt>
      <trkpt lat="46.52361" lon="5.31918">
        <ele>209</ele>
        <time>2021-10-07T12:26:53Z</time>
      </trkpt>
      <trkpt lat="46.52368" lon="5.3193">
        <ele>209.4</ele>
        <time>2021-10-07T12:26:55Z</time>
      </trkpt>
      <trkpt lat="46.52377" lon="5.31942">
        <ele>209.4</ele>
        <time>2021-10-07T12:26:57Z</time>
      </trkpt>
      <trkpt lat="46.52386" lon="5.31955">
        <ele>209.6</ele>
        <time>2021-10-07T12:26:59Z</time>
      </trkpt>
      <trkpt lat="46.52396" lon="5.3197">
        <ele>209.6</ele>
        <time>2021-10-07T12:27:01Z</time>
      </trkpt>
      <trkpt lat="46.52406" lon="5.31984">
        <ele>209.6</ele>
        <time>2021-10-07T12:27:03Z</time>
      </trkpt>
      <trkpt lat="46.52417" lon="5.32">
        <ele>209.4</ele>
        <time>2021-10-07T12:27:05Z</time>
      </trkpt>
      <trkpt lat="46.52428" lon="5.32016">
        <ele>209</ele>
        <time>2021-10-07T12:27:07Z</time>
      </trkpt>
      <trkpt lat="46.52441" lon="5.32032">
        <ele>208.4</ele>
        <time>2021-10-07T12:27:09Z</time>
      </trkpt>
      <trkpt lat="46.52446" lon="5.3204">
        <ele>208</ele>
        <time>2021-10-07T12:27:10Z</time>
      </trkpt>
      <trkpt lat="46.52452" lon="5.32048">
        <ele>207.4</ele>
        <time>2021-10-07T12:27:11Z</time>
      </trkpt>
      <trkpt lat="46.52458" lon="5.32056">
        <ele>207</ele>
        <time>2021-10-07T12:27:12Z</time>
      </trkpt>
      <trkpt lat="46.52464" lon="5.32065">
        <ele>206.8</ele>
        <time>2021-10-07T12:27:13Z</time>
      </trkpt>
      <trkpt lat="46.52476" lon="5.32081">
        <ele>206.2</ele>
        <time>2021-10-07T12:27:15Z</time>
      </trkpt>
      <trkpt lat="46.52482" lon="5.32089">
        <ele>206</ele>
        <time>2021-10-07T12:27:16Z</time>
      </trkpt>
      <trkpt lat="46.52488" lon="5.32098">
        <ele>205.8</ele>
        <time>2021-10-07T12:27:17Z</time>
      </trkpt>
      <trkpt lat="46.52499" lon="5.32114">
        <ele>204.6</ele>
        <time>2021-10-07T12:27:19Z</time>
      </trkpt>
      <trkpt lat="46.52505" lon="5.32122">
        <ele>204.4</ele>
        <time>2021-10-07T12:27:20Z</time>
      </trkpt>
      <trkpt lat="46.52511" lon="5.32131">
        <ele>203.8</ele>
        <time>2021-10-07T12:27:21Z</time>
      </trkpt>
      <trkpt lat="46.52517" lon="5.32139">
        <ele>202.8</ele>
        <time>2021-10-07T12:27:22Z</time>
      </trkpt>
      <trkpt lat="46.52523" lon="5.32147">
        <ele>202.2</ele>
        <time>2021-10-07T12:27:23Z</time>
      </trkpt>
      <trkpt lat="46.52535" lon="5.32163">
        <ele>201.8</ele>
        <time>2021-10-07T12:27:25Z</time>
      </trkpt>
      <trkpt lat="46.52548" lon="5.32176">
        <ele>201.4</ele>
        <time>2021-10-07T12:27:27Z</time>
      </trkpt>
      <trkpt lat="46.52555" lon="5.32182">
        <ele>201.2</ele>
        <time>2021-10-07T12:27:28Z</time>
      </trkpt>
      <trkpt lat="46.52562" lon="5.32187">
        <ele>200.6</ele>
        <time>2021-10-07T12:27:29Z</time>
      </trkpt>
      <trkpt lat="46.52568" lon="5.32191">
        <ele>200.2</ele>
        <time>2021-10-07T12:27:30Z</time>
      </trkpt>
      <trkpt lat="46.52573" lon="5.3219">
        <ele>200</ele>
        <time>2021-10-07T12:27:31Z</time>
      </trkpt>
      <trkpt lat="46.52578" lon="5.32185">
        <ele>199.4</ele>
        <time>2021-10-07T12:27:32Z</time>
      </trkpt>
      <trkpt lat="46.52581" lon="5.32178">
        <ele>198.8</ele>
        <time>2021-10-07T12:27:33Z</time>
      </trkpt>
      <trkpt lat="46.52584" lon="5.32171">
        <ele>198.6</ele>
        <time>2021-10-07T12:27:34Z</time>
      </trkpt>
      <trkpt lat="46.52587" lon="5.32165">
        <ele>198.4</ele>
        <time>2021-10-07T12:27:35Z</time>
      </trkpt>
      <trkpt lat="46.52592" lon="5.32152">
        <ele>198.4</ele>
        <time>2021-10-07T12:27:37Z</time>
      </trkpt>
      <trkpt lat="46.52599" lon="5.32141">
        <ele>198.4</ele>
        <time>2021-10-07T12:27:39Z</time>
      </trkpt>
      <trkpt lat="46.52601" lon="5.32135">
        <ele>198.4</ele>
        <time>2021-10-07T12:27:40Z</time>
      </trkpt>
      <trkpt lat="46.52604" lon="5.32129">
        <ele>198.4</ele>
        <time>2021-10-07T12:27:41Z</time>
      </trkpt>
      <trkpt lat="46.52608" lon="5.32118">
        <ele>198.4</ele>
        <time>2021-10-07T12:27:43Z</time>
      </trkpt>
      <trkpt lat="46.52613" lon="5.32107">
        <ele>199</ele>
        <time>2021-10-07T12:27:45Z</time>
      </trkpt>
      <trkpt lat="46.52616" lon="5.32101">
        <ele>199.4</ele>
        <time>2021-10-07T12:27:46Z</time>
      </trkpt>
      <trkpt lat="46.52618" lon="5.32095">
        <ele>199.6</ele>
        <time>2021-10-07T12:27:47Z</time>
      </trkpt>
      <trkpt lat="46.52621" lon="5.3209">
        <ele>199.8</ele>
        <time>2021-10-07T12:27:48Z</time>
      </trkpt>
      <trkpt lat="46.52623" lon="5.32084">
        <ele>199.8</ele>
        <time>2021-10-07T12:27:49Z</time>
      </trkpt>
      <trkpt lat="46.52626" lon="5.32078">
        <ele>200.4</ele>
        <time>2021-10-07T12:27:50Z</time>
      </trkpt>
      <trkpt lat="46.52628" lon="5.32072">
        <ele>200.8</ele>
        <time>2021-10-07T12:27:51Z</time>
      </trkpt>
      <trkpt lat="46.5263" lon="5.32066">
        <ele>201</ele>
        <time>2021-10-07T12:27:52Z</time>
      </trkpt>
      <trkpt lat="46.52632" lon="5.3206">
        <ele>201.2</ele>
        <time>2021-10-07T12:27:53Z</time>
      </trkpt>
      <trkpt lat="46.52634" lon="5.32055">
        <ele>201.8</ele>
        <time>2021-10-07T12:27:54Z</time>
      </trkpt>
      <trkpt lat="46.52636" lon="5.32049">
        <ele>202.2</ele>
        <time>2021-10-07T12:27:55Z</time>
      </trkpt>
      <trkpt lat="46.5264" lon="5.32039">
        <ele>202.6</ele>
        <time>2021-10-07T12:27:57Z</time>
      </trkpt>
      <trkpt lat="46.52643" lon="5.32028">
        <ele>203</ele>
        <time>2021-10-07T12:27:59Z</time>
      </trkpt>
      <trkpt lat="46.52645" lon="5.32023">
        <ele>203.2</ele>
        <time>2021-10-07T12:28:00Z</time>
      </trkpt>
      <trkpt lat="46.52647" lon="5.32018">
        <ele>203.4</ele>
        <time>2021-10-07T12:28:01Z</time>
      </trkpt>
      <trkpt lat="46.5265" lon="5.32007">
        <ele>203.8</ele>
        <time>2021-10-07T12:28:03Z</time>
      </trkpt>
      <trkpt lat="46.52652" lon="5.32001">
        <ele>204</ele>
        <time>2021-10-07T12:28:04Z</time>
      </trkpt>
      <trkpt lat="46.52654" lon="5.31996">
        <ele>204.2</ele>
        <time>2021-10-07T12:28:05Z</time>
      </trkpt>
      <trkpt lat="46.52656" lon="5.3199">
        <ele>204.6</ele>
        <time>2021-10-07T12:28:06Z</time>
      </trkpt>
      <trkpt lat="46.52658" lon="5.31984">
        <ele>205</ele>
        <time>2021-10-07T12:28:07Z</time>
      </trkpt>
      <trkpt lat="46.52659" lon="5.31978">
        <ele>205.2</ele>
        <time>2021-10-07T12:28:08Z</time>
      </trkpt>
      <trkpt lat="46.52661" lon="5.31972">
        <ele>205.6</ele>
        <time>2021-10-07T12:28:09Z</time>
      </trkpt>
      <trkpt lat="46.52663" lon="5.31961">
        <ele>206</ele>
        <time>2021-10-07T12:28:11Z</time>
      </trkpt>
      <trkpt lat="46.52666" lon="5.31949">
        <ele>206.4</ele>
        <time>2021-10-07T12:28:13Z</time>
      </trkpt>
      <trkpt lat="46.52669" lon="5.31938">
        <ele>207.4</ele>
        <time>2021-10-07T12:28:15Z</time>
      </trkpt>
      <trkpt lat="46.5267" lon="5.31932">
        <ele>207.8</ele>
        <time>2021-10-07T12:28:16Z</time>
      </trkpt>
      <trkpt lat="46.52671" lon="5.31927">
        <ele>208</ele>
        <time>2021-10-07T12:28:17Z</time>
      </trkpt>
      <trkpt lat="46.52674" lon="5.31917">
        <ele>208.8</ele>
        <time>2021-10-07T12:28:19Z</time>
      </trkpt>
      <trkpt lat="46.52676" lon="5.31906">
        <ele>209.2</ele>
        <time>2021-10-07T12:28:21Z</time>
      </trkpt>
      <trkpt lat="46.52679" lon="5.31895">
        <ele>209.8</ele>
        <time>2021-10-07T12:28:23Z</time>
      </trkpt>
      <trkpt lat="46.52681" lon="5.3189">
        <ele>210</ele>
        <time>2021-10-07T12:28:24Z</time>
      </trkpt>
      <trkpt lat="46.52682" lon="5.31885">
        <ele>210.2</ele>
        <time>2021-10-07T12:28:25Z</time>
      </trkpt>
      <trkpt lat="46.52685" lon="5.31874">
        <ele>210.6</ele>
        <time>2021-10-07T12:28:27Z</time>
      </trkpt>
      <trkpt lat="46.52688" lon="5.31864">
        <ele>211.2</ele>
        <time>2021-10-07T12:28:29Z</time>
      </trkpt>
      <trkpt lat="46.52691" lon="5.31853">
        <ele>211.8</ele>
        <time>2021-10-07T12:28:31Z</time>
      </trkpt>
      <trkpt lat="46.52695" lon="5.31842">
        <ele>212</ele>
        <time>2021-10-07T12:28:33Z</time>
      </trkpt>
      <trkpt lat="46.52698" lon="5.31837">
        <ele>212.2</ele>
        <time>2021-10-07T12:28:34Z</time>
      </trkpt>
      <trkpt lat="46.52701" lon="5.31831">
        <ele>212.2</ele>
        <time>2021-10-07T12:28:35Z</time>
      </trkpt>
      <trkpt lat="46.52707" lon="5.31822">
        <ele>212.4</ele>
        <time>2021-10-07T12:28:37Z</time>
      </trkpt>
      <trkpt lat="46.5271" lon="5.31817">
        <ele>212.6</ele>
        <time>2021-10-07T12:28:38Z</time>
      </trkpt>
      <trkpt lat="46.52714" lon="5.31813">
        <ele>212.8</ele>
        <time>2021-10-07T12:28:39Z</time>
      </trkpt>
      <trkpt lat="46.52723" lon="5.31805">
        <ele>212.8</ele>
        <time>2021-10-07T12:28:41Z</time>
      </trkpt>
      <trkpt lat="46.52731" lon="5.31799">
        <ele>213</ele>
        <time>2021-10-07T12:28:43Z</time>
      </trkpt>
      <trkpt lat="46.52741" lon="5.31793">
        <ele>213</ele>
        <time>2021-10-07T12:28:45Z</time>
      </trkpt>
      <trkpt lat="46.5275" lon="5.31788">
        <ele>213.2</ele>
        <time>2021-10-07T12:28:47Z</time>
      </trkpt>
      <trkpt lat="46.5276" lon="5.31784">
        <ele>213.2</ele>
        <time>2021-10-07T12:28:49Z</time>
      </trkpt>
      <trkpt lat="46.5277" lon="5.31779">
        <ele>213.2</ele>
        <time>2021-10-07T12:28:51Z</time>
      </trkpt>
      <trkpt lat="46.5278" lon="5.31775">
        <ele>213.4</ele>
        <time>2021-10-07T12:28:53Z</time>
      </trkpt>
      <trkpt lat="46.52785" lon="5.31773">
        <ele>213.6</ele>
        <time>2021-10-07T12:28:54Z</time>
      </trkpt>
      <trkpt lat="46.52791" lon="5.31771">
        <ele>213.6</ele>
        <time>2021-10-07T12:28:55Z</time>
      </trkpt>
      <trkpt lat="46.52801" lon="5.31767">
        <ele>213.8</ele>
        <time>2021-10-07T12:28:57Z</time>
      </trkpt>
      <trkpt lat="46.52809" lon="5.31762">
        <ele>213.8</ele>
        <time>2021-10-07T12:28:59Z</time>
      </trkpt>
      <trkpt lat="46.52819" lon="5.31758">
        <ele>213.8</ele>
        <time>2021-10-07T12:29:01Z</time>
      </trkpt>
      <trkpt lat="46.52829" lon="5.31754">
        <ele>213.8</ele>
        <time>2021-10-07T12:29:03Z</time>
      </trkpt>
      <trkpt lat="46.5284" lon="5.3175">
        <ele>213.8</ele>
        <time>2021-10-07T12:29:05Z</time>
      </trkpt>
      <trkpt lat="46.52851" lon="5.31745">
        <ele>213.8</ele>
        <time>2021-10-07T12:29:07Z</time>
      </trkpt>
      <trkpt lat="46.52857" lon="5.31742">
        <ele>213.8</ele>
        <time>2021-10-07T12:29:08Z</time>
      </trkpt>
      <trkpt lat="46.52862" lon="5.3174">
        <ele>213.8</ele>
        <time>2021-10-07T12:29:09Z</time>
      </trkpt>
      <trkpt lat="46.52875" lon="5.31735">
        <ele>213.8</ele>
        <time>2021-10-07T12:29:11Z</time>
      </trkpt>
      <trkpt lat="46.52889" lon="5.31732">
        <ele>213.6</ele>
        <time>2021-10-07T12:29:13Z</time>
      </trkpt>
      <trkpt lat="46.52896" lon="5.31732">
        <ele>213.6</ele>
        <time>2021-10-07T12:29:14Z</time>
      </trkpt>
      <trkpt lat="46.52903" lon="5.31733">
        <ele>213.2</ele>
        <time>2021-10-07T12:29:15Z</time>
      </trkpt>
      <trkpt lat="46.52916" lon="5.31737">
        <ele>213</ele>
        <time>2021-10-07T12:29:17Z</time>
      </trkpt>
      <trkpt lat="46.52922" lon="5.31741">
        <ele>213</ele>
        <time>2021-10-07T12:29:18Z</time>
      </trkpt>
      <trkpt lat="46.52929" lon="5.31745">
        <ele>212.8</ele>
        <time>2021-10-07T12:29:19Z</time>
      </trkpt>
      <trkpt lat="46.52934" lon="5.31749">
        <ele>212.8</ele>
        <time>2021-10-07T12:29:20Z</time>
      </trkpt>
      <trkpt lat="46.5294" lon="5.31754">
        <ele>212.6</ele>
        <time>2021-10-07T12:29:21Z</time>
      </trkpt>
      <trkpt lat="46.5295" lon="5.31763">
        <ele>212.4</ele>
        <time>2021-10-07T12:29:23Z</time>
      </trkpt>
      <trkpt lat="46.52961" lon="5.31772">
        <ele>212.2</ele>
        <time>2021-10-07T12:29:25Z</time>
      </trkpt>
      <trkpt lat="46.52973" lon="5.31779">
        <ele>212</ele>
        <time>2021-10-07T12:29:27Z</time>
      </trkpt>
      <trkpt lat="46.52985" lon="5.31782">
        <ele>212</ele>
        <time>2021-10-07T12:29:29Z</time>
      </trkpt>
      <trkpt lat="46.52996" lon="5.31779">
        <ele>211.8</ele>
        <time>2021-10-07T12:29:31Z</time>
      </trkpt>
      <trkpt lat="46.53001" lon="5.31775">
        <ele>211.8</ele>
        <time>2021-10-07T12:29:32Z</time>
      </trkpt>
      <trkpt lat="46.53005" lon="5.3177">
        <ele>211.8</ele>
        <time>2021-10-07T12:29:33Z</time>
      </trkpt>
      <trkpt lat="46.53013" lon="5.31755">
        <ele>211.6</ele>
        <time>2021-10-07T12:29:35Z</time>
      </trkpt>
      <trkpt lat="46.53017" lon="5.31747">
        <ele>211.4</ele>
        <time>2021-10-07T12:29:36Z</time>
      </trkpt>
      <trkpt lat="46.5302" lon="5.31738">
        <ele>211.4</ele>
        <time>2021-10-07T12:29:37Z</time>
      </trkpt>
      <trkpt lat="46.53026" lon="5.3172">
        <ele>211.2</ele>
        <time>2021-10-07T12:29:39Z</time>
      </trkpt>
      <trkpt lat="46.53035" lon="5.317">
        <ele>211</ele>
        <time>2021-10-07T12:29:41Z</time>
      </trkpt>
      <trkpt lat="46.53045" lon="5.31679">
        <ele>210.6</ele>
        <time>2021-10-07T12:29:43Z</time>
      </trkpt>
      <trkpt lat="46.53058" lon="5.3166">
        <ele>210.4</ele>
        <time>2021-10-07T12:29:45Z</time>
      </trkpt>
      <trkpt lat="46.53075" lon="5.31649">
        <ele>210.2</ele>
        <time>2021-10-07T12:29:47Z</time>
      </trkpt>
      <trkpt lat="46.53085" lon="5.31644">
        <ele>210.2</ele>
        <time>2021-10-07T12:29:48Z</time>
      </trkpt>
      <trkpt lat="46.53094" lon="5.3164">
        <ele>209.8</ele>
        <time>2021-10-07T12:29:49Z</time>
      </trkpt>
      <trkpt lat="46.53114" lon="5.31632">
        <ele>208.2</ele>
        <time>2021-10-07T12:29:51Z</time>
      </trkpt>
      <trkpt lat="46.53134" lon="5.31624">
        <ele>207</ele>
        <time>2021-10-07T12:29:53Z</time>
      </trkpt>
      <trkpt lat="46.53155" lon="5.31617">
        <ele>206.2</ele>
        <time>2021-10-07T12:29:55Z</time>
      </trkpt>
      <trkpt lat="46.53165" lon="5.31614">
        <ele>205.8</ele>
        <time>2021-10-07T12:29:56Z</time>
      </trkpt>
      <trkpt lat="46.53175" lon="5.3161">
        <ele>205</ele>
        <time>2021-10-07T12:29:57Z</time>
      </trkpt>
      <trkpt lat="46.53185" lon="5.31606">
        <ele>204</ele>
        <time>2021-10-07T12:29:58Z</time>
      </trkpt>
      <trkpt lat="46.53195" lon="5.31602">
        <ele>203.2</ele>
        <time>2021-10-07T12:29:59Z</time>
      </trkpt>
      <trkpt lat="46.53205" lon="5.31598">
        <ele>202.6</ele>
        <time>2021-10-07T12:30:00Z</time>
      </trkpt>
      <trkpt lat="46.53214" lon="5.31594">
        <ele>202</ele>
        <time>2021-10-07T12:30:01Z</time>
      </trkpt>
      <trkpt lat="46.53234" lon="5.31584">
        <ele>201.4</ele>
        <time>2021-10-07T12:30:03Z</time>
      </trkpt>
      <trkpt lat="46.53243" lon="5.31579">
        <ele>200.8</ele>
        <time>2021-10-07T12:30:04Z</time>
      </trkpt>
      <trkpt lat="46.53252" lon="5.31573">
        <ele>199.8</ele>
        <time>2021-10-07T12:30:05Z</time>
      </trkpt>
      <trkpt lat="46.53271" lon="5.31557">
        <ele>198</ele>
        <time>2021-10-07T12:30:07Z</time>
      </trkpt>
      <trkpt lat="46.5329" lon="5.31541">
        <ele>197.2</ele>
        <time>2021-10-07T12:30:09Z</time>
      </trkpt>
      <trkpt lat="46.53299" lon="5.31532">
        <ele>197</ele>
        <time>2021-10-07T12:30:10Z</time>
      </trkpt>
      <trkpt lat="46.53309" lon="5.31523">
        <ele>196</ele>
        <time>2021-10-07T12:30:11Z</time>
      </trkpt>
      <trkpt lat="46.53326" lon="5.31507">
        <ele>194.2</ele>
        <time>2021-10-07T12:30:13Z</time>
      </trkpt>
      <trkpt lat="46.53342" lon="5.31493">
        <ele>192.8</ele>
        <time>2021-10-07T12:30:15Z</time>
      </trkpt>
      <trkpt lat="46.53357" lon="5.31478">
        <ele>191.8</ele>
        <time>2021-10-07T12:30:17Z</time>
      </trkpt>
      <trkpt lat="46.53371" lon="5.31464">
        <ele>191.6</ele>
        <time>2021-10-07T12:30:19Z</time>
      </trkpt>
      <trkpt lat="46.53377" lon="5.31456">
        <ele>191.6</ele>
        <time>2021-10-07T12:30:20Z</time>
      </trkpt>
      <trkpt lat="46.53383" lon="5.31448">
        <ele>191.6</ele>
        <time>2021-10-07T12:30:21Z</time>
      </trkpt>
      <trkpt lat="46.53391" lon="5.31432">
        <ele>191.6</ele>
        <time>2021-10-07T12:30:23Z</time>
      </trkpt>
      <trkpt lat="46.53394" lon="5.31423">
        <ele>191.6</ele>
        <time>2021-10-07T12:30:24Z</time>
      </trkpt>
      <trkpt lat="46.53398" lon="5.31414">
        <ele>191.6</ele>
        <time>2021-10-07T12:30:25Z</time>
      </trkpt>
      <trkpt lat="46.53406" lon="5.31397">
        <ele>192.2</ele>
        <time>2021-10-07T12:30:27Z</time>
      </trkpt>
      <trkpt lat="46.53414" lon="5.31381">
        <ele>192.6</ele>
        <time>2021-10-07T12:30:29Z</time>
      </trkpt>
      <trkpt lat="46.53422" lon="5.31363">
        <ele>192.8</ele>
        <time>2021-10-07T12:30:31Z</time>
      </trkpt>
      <trkpt lat="46.53426" lon="5.31354">
        <ele>192.8</ele>
        <time>2021-10-07T12:30:32Z</time>
      </trkpt>
      <trkpt lat="46.5343" lon="5.31345">
        <ele>192.8</ele>
        <time>2021-10-07T12:30:33Z</time>
      </trkpt>
      <trkpt lat="46.53439" lon="5.31326">
        <ele>192.8</ele>
        <time>2021-10-07T12:30:35Z</time>
      </trkpt>
      <trkpt lat="46.53448" lon="5.31308">
        <ele>192.8</ele>
        <time>2021-10-07T12:30:37Z</time>
      </trkpt>
      <trkpt lat="46.53456" lon="5.31289">
        <ele>192.8</ele>
        <time>2021-10-07T12:30:39Z</time>
      </trkpt>
      <trkpt lat="46.53464" lon="5.31272">
        <ele>192.4</ele>
        <time>2021-10-07T12:30:41Z</time>
      </trkpt>
      <trkpt lat="46.53468" lon="5.31264">
        <ele>192.2</ele>
        <time>2021-10-07T12:30:42Z</time>
      </trkpt>
      <trkpt lat="46.53472" lon="5.31256">
        <ele>192</ele>
        <time>2021-10-07T12:30:43Z</time>
      </trkpt>
      <trkpt lat="46.53479" lon="5.3124">
        <ele>192</ele>
        <time>2021-10-07T12:30:45Z</time>
      </trkpt>
      <trkpt lat="46.53484" lon="5.31224">
        <ele>192</ele>
        <time>2021-10-07T12:30:47Z</time>
      </trkpt>
      <trkpt lat="46.53487" lon="5.31217">
        <ele>192</ele>
        <time>2021-10-07T12:30:48Z</time>
      </trkpt>
      <trkpt lat="46.53489" lon="5.31209">
        <ele>192</ele>
        <time>2021-10-07T12:30:49Z</time>
      </trkpt>
      <trkpt lat="46.53491" lon="5.31192">
        <ele>192.2</ele>
        <time>2021-10-07T12:30:51Z</time>
      </trkpt>
      <trkpt lat="46.53493" lon="5.31176">
        <ele>192.6</ele>
        <time>2021-10-07T12:30:53Z</time>
      </trkpt>
      <trkpt lat="46.53494" lon="5.31168">
        <ele>193</ele>
        <time>2021-10-07T12:30:54Z</time>
      </trkpt>
      <trkpt lat="46.53495" lon="5.3116">
        <ele>193.6</ele>
        <time>2021-10-07T12:30:55Z</time>
      </trkpt>
      <trkpt lat="46.53497" lon="5.31145">
        <ele>194.2</ele>
        <time>2021-10-07T12:30:57Z</time>
      </trkpt>
      <trkpt lat="46.53499" lon="5.31138">
        <ele>194.4</ele>
        <time>2021-10-07T12:30:58Z</time>
      </trkpt>
      <trkpt lat="46.53501" lon="5.31132">
        <ele>194.8</ele>
        <time>2021-10-07T12:30:59Z</time>
      </trkpt>
      <trkpt lat="46.53504" lon="5.31126">
        <ele>195.2</ele>
        <time>2021-10-07T12:31:00Z</time>
      </trkpt>
      <trkpt lat="46.53508" lon="5.31121">
        <ele>195.6</ele>
        <time>2021-10-07T12:31:01Z</time>
      </trkpt>
      <trkpt lat="46.53515" lon="5.31111">
        <ele>196</ele>
        <time>2021-10-07T12:31:03Z</time>
      </trkpt>
      <trkpt lat="46.53523" lon="5.31103">
        <ele>196.4</ele>
        <time>2021-10-07T12:31:05Z</time>
      </trkpt>
      <trkpt lat="46.53528" lon="5.311">
        <ele>196.6</ele>
        <time>2021-10-07T12:31:06Z</time>
      </trkpt>
      <trkpt lat="46.53533" lon="5.31097">
        <ele>197.4</ele>
        <time>2021-10-07T12:31:07Z</time>
      </trkpt>
      <trkpt lat="46.53538" lon="5.31094">
        <ele>197.8</ele>
        <time>2021-10-07T12:31:08Z</time>
      </trkpt>
      <trkpt lat="46.53542" lon="5.31091">
        <ele>198.4</ele>
        <time>2021-10-07T12:31:09Z</time>
      </trkpt>
      <trkpt lat="46.53552" lon="5.31086">
        <ele>198.8</ele>
        <time>2021-10-07T12:31:11Z</time>
      </trkpt>
      <trkpt lat="46.53557" lon="5.31083">
        <ele>199.2</ele>
        <time>2021-10-07T12:31:12Z</time>
      </trkpt>
      <trkpt lat="46.53562" lon="5.3108">
        <ele>199.2</ele>
        <time>2021-10-07T12:31:13Z</time>
      </trkpt>
      <trkpt lat="46.53572" lon="5.31075">
        <ele>199.4</ele>
        <time>2021-10-07T12:31:15Z</time>
      </trkpt>
      <trkpt lat="46.53583" lon="5.31068">
        <ele>199.4</ele>
        <time>2021-10-07T12:31:17Z</time>
      </trkpt>
      <trkpt lat="46.53595" lon="5.31062">
        <ele>199.4</ele>
        <time>2021-10-07T12:31:19Z</time>
      </trkpt>
      <trkpt lat="46.536" lon="5.31058">
        <ele>199.4</ele>
        <time>2021-10-07T12:31:20Z</time>
      </trkpt>
      <trkpt lat="46.53606" lon="5.31054">
        <ele>199.4</ele>
        <time>2021-10-07T12:31:21Z</time>
      </trkpt>
      <trkpt lat="46.53618" lon="5.31047">
        <ele>199.2</ele>
        <time>2021-10-07T12:31:23Z</time>
      </trkpt>
      <trkpt lat="46.53629" lon="5.3104">
        <ele>199.2</ele>
        <time>2021-10-07T12:31:25Z</time>
      </trkpt>
      <trkpt lat="46.5364" lon="5.31033">
        <ele>198.8</ele>
        <time>2021-10-07T12:31:27Z</time>
      </trkpt>
      <trkpt lat="46.53651" lon="5.31028">
        <ele>198.4</ele>
        <time>2021-10-07T12:31:29Z</time>
      </trkpt>
      <trkpt lat="46.53656" lon="5.31026">
        <ele>198.2</ele>
        <time>2021-10-07T12:31:30Z</time>
      </trkpt>
      <trkpt lat="46.53662" lon="5.31024">
        <ele>198</ele>
        <time>2021-10-07T12:31:31Z</time>
      </trkpt>
      <trkpt lat="46.53674" lon="5.31024">
        <ele>197.8</ele>
        <time>2021-10-07T12:31:33Z</time>
      </trkpt>
      <trkpt lat="46.5368" lon="5.31025">
        <ele>197.8</ele>
        <time>2021-10-07T12:31:34Z</time>
      </trkpt>
      <trkpt lat="46.53685" lon="5.31026">
        <ele>197.8</ele>
        <time>2021-10-07T12:31:35Z</time>
      </trkpt>
      <trkpt lat="46.53697" lon="5.31029">
        <ele>197.8</ele>
        <time>2021-10-07T12:31:37Z</time>
      </trkpt>
      <trkpt lat="46.53709" lon="5.31031">
        <ele>197.8</ele>
        <time>2021-10-07T12:31:39Z</time>
      </trkpt>
      <trkpt lat="46.5372" lon="5.31032">
        <ele>197.8</ele>
        <time>2021-10-07T12:31:41Z</time>
      </trkpt>
      <trkpt lat="46.53726" lon="5.31032">
        <ele>197.8</ele>
        <time>2021-10-07T12:31:42Z</time>
      </trkpt>
      <trkpt lat="46.53732" lon="5.31032">
        <ele>197.8</ele>
        <time>2021-10-07T12:31:43Z</time>
      </trkpt>
      <trkpt lat="46.53744" lon="5.3103">
        <ele>198</ele>
        <time>2021-10-07T12:31:45Z</time>
      </trkpt>
      <trkpt lat="46.53757" lon="5.31026">
        <ele>198</ele>
        <time>2021-10-07T12:31:47Z</time>
      </trkpt>
      <trkpt lat="46.53764" lon="5.31024">
        <ele>198</ele>
        <time>2021-10-07T12:31:48Z</time>
      </trkpt>
      <trkpt lat="46.53771" lon="5.31022">
        <ele>198</ele>
        <time>2021-10-07T12:31:49Z</time>
      </trkpt>
      <trkpt lat="46.53785" lon="5.31018">
        <ele>198</ele>
        <time>2021-10-07T12:31:51Z</time>
      </trkpt>
      <trkpt lat="46.53793" lon="5.31015">
        <ele>198</ele>
        <time>2021-10-07T12:31:52Z</time>
      </trkpt>
      <trkpt lat="46.538" lon="5.31009">
        <ele>197.8</ele>
        <time>2021-10-07T12:31:53Z</time>
      </trkpt>
      <trkpt lat="46.5381" lon="5.30993">
        <ele>197.8</ele>
        <time>2021-10-07T12:31:55Z</time>
      </trkpt>
      <trkpt lat="46.53815" lon="5.30982">
        <ele>197.8</ele>
        <time>2021-10-07T12:31:56Z</time>
      </trkpt>
      <trkpt lat="46.53819" lon="5.30971">
        <ele>197.6</ele>
        <time>2021-10-07T12:31:57Z</time>
      </trkpt>
      <trkpt lat="46.53828" lon="5.30951">
        <ele>197.4</ele>
        <time>2021-10-07T12:31:59Z</time>
      </trkpt>
      <trkpt lat="46.53836" lon="5.30931">
        <ele>196.8</ele>
        <time>2021-10-07T12:32:01Z</time>
      </trkpt>
      <trkpt lat="46.5384" lon="5.30922">
        <ele>196.2</ele>
        <time>2021-10-07T12:32:02Z</time>
      </trkpt>
      <trkpt lat="46.53844" lon="5.30912">
        <ele>195.6</ele>
        <time>2021-10-07T12:32:03Z</time>
      </trkpt>
      <trkpt lat="46.53851" lon="5.30894">
        <ele>195.4</ele>
        <time>2021-10-07T12:32:05Z</time>
      </trkpt>
      <trkpt lat="46.53858" lon="5.30876">
        <ele>195.4</ele>
        <time>2021-10-07T12:32:07Z</time>
      </trkpt>
      <trkpt lat="46.53866" lon="5.30859">
        <ele>195.4</ele>
        <time>2021-10-07T12:32:09Z</time>
      </trkpt>
      <trkpt lat="46.53869" lon="5.30851">
        <ele>195.4</ele>
        <time>2021-10-07T12:32:10Z</time>
      </trkpt>
      <trkpt lat="46.53872" lon="5.30844">
        <ele>195.4</ele>
        <time>2021-10-07T12:32:11Z</time>
      </trkpt>
      <trkpt lat="46.53878" lon="5.30829">
        <ele>195.4</ele>
        <time>2021-10-07T12:32:13Z</time>
      </trkpt>
      <trkpt lat="46.53883" lon="5.30815">
        <ele>195.4</ele>
        <time>2021-10-07T12:32:15Z</time>
      </trkpt>
      <trkpt lat="46.53887" lon="5.30802">
        <ele>195.6</ele>
        <time>2021-10-07T12:32:17Z</time>
      </trkpt>
      <trkpt lat="46.53889" lon="5.30795">
        <ele>195.6</ele>
        <time>2021-10-07T12:32:18Z</time>
      </trkpt>
      <trkpt lat="46.5389" lon="5.30789">
        <ele>195.8</ele>
        <time>2021-10-07T12:32:19Z</time>
      </trkpt>
      <trkpt lat="46.53893" lon="5.30776">
        <ele>196.6</ele>
        <time>2021-10-07T12:32:21Z</time>
      </trkpt>
      <trkpt lat="46.53893" lon="5.30769">
        <ele>197.2</ele>
        <time>2021-10-07T12:32:22Z</time>
      </trkpt>
      <trkpt lat="46.53894" lon="5.30762">
        <ele>197.6</ele>
        <time>2021-10-07T12:32:23Z</time>
      </trkpt>
      <trkpt lat="46.53895" lon="5.30756">
        <ele>198</ele>
        <time>2021-10-07T12:32:24Z</time>
      </trkpt>
      <trkpt lat="46.53895" lon="5.30749">
        <ele>198.4</ele>
        <time>2021-10-07T12:32:25Z</time>
      </trkpt>
      <trkpt lat="46.53896" lon="5.30735">
        <ele>199</ele>
        <time>2021-10-07T12:32:27Z</time>
      </trkpt>
      <trkpt lat="46.53896" lon="5.30722">
        <ele>199.6</ele>
        <time>2021-10-07T12:32:29Z</time>
      </trkpt>
      <trkpt lat="46.53897" lon="5.30709">
        <ele>201</ele>
        <time>2021-10-07T12:32:31Z</time>
      </trkpt>
      <trkpt lat="46.53897" lon="5.30695">
        <ele>201.4</ele>
        <time>2021-10-07T12:32:33Z</time>
      </trkpt>
      <trkpt lat="46.53899" lon="5.3068">
        <ele>202</ele>
        <time>2021-10-07T12:32:35Z</time>
      </trkpt>
      <trkpt lat="46.53902" lon="5.30666">
        <ele>203</ele>
        <time>2021-10-07T12:32:37Z</time>
      </trkpt>
      <trkpt lat="46.53903" lon="5.30659">
        <ele>203.4</ele>
        <time>2021-10-07T12:32:38Z</time>
      </trkpt>
      <trkpt lat="46.53905" lon="5.30651">
        <ele>203.4</ele>
        <time>2021-10-07T12:32:39Z</time>
      </trkpt>
      <trkpt lat="46.53909" lon="5.30637">
        <ele>203.6</ele>
        <time>2021-10-07T12:32:41Z</time>
      </trkpt>
      <trkpt lat="46.53914" lon="5.30622">
        <ele>203.8</ele>
        <time>2021-10-07T12:32:43Z</time>
      </trkpt>
      <trkpt lat="46.53919" lon="5.30609">
        <ele>204</ele>
        <time>2021-10-07T12:32:45Z</time>
      </trkpt>
      <trkpt lat="46.53924" lon="5.30596">
        <ele>204</ele>
        <time>2021-10-07T12:32:47Z</time>
      </trkpt>
      <trkpt lat="46.53929" lon="5.30583">
        <ele>204.2</ele>
        <time>2021-10-07T12:32:49Z</time>
      </trkpt>
      <trkpt lat="46.53936" lon="5.30572">
        <ele>204.4</ele>
        <time>2021-10-07T12:32:51Z</time>
      </trkpt>
      <trkpt lat="46.53942" lon="5.30562">
        <ele>204.6</ele>
        <time>2021-10-07T12:32:53Z</time>
      </trkpt>
      <trkpt lat="46.53949" lon="5.30554">
        <ele>205</ele>
        <time>2021-10-07T12:32:55Z</time>
      </trkpt>
      <trkpt lat="46.53956" lon="5.30548">
        <ele>205.6</ele>
        <time>2021-10-07T12:32:57Z</time>
      </trkpt>
      <trkpt lat="46.5396" lon="5.30545">
        <ele>205.8</ele>
        <time>2021-10-07T12:32:58Z</time>
      </trkpt>
      <trkpt lat="46.53964" lon="5.30542">
        <ele>206.2</ele>
        <time>2021-10-07T12:32:59Z</time>
      </trkpt>
      <trkpt lat="46.53971" lon="5.30538">
        <ele>206.4</ele>
        <time>2021-10-07T12:33:01Z</time>
      </trkpt>
      <trkpt lat="46.53975" lon="5.30536">
        <ele>206.8</ele>
        <time>2021-10-07T12:33:02Z</time>
      </trkpt>
      <trkpt lat="46.53979" lon="5.30534">
        <ele>207</ele>
        <time>2021-10-07T12:33:03Z</time>
      </trkpt>
      <trkpt lat="46.53986" lon="5.30531">
        <ele>207.2</ele>
        <time>2021-10-07T12:33:05Z</time>
      </trkpt>
      <trkpt lat="46.53989" lon="5.3053">
        <ele>207.4</ele>
        <time>2021-10-07T12:33:06Z</time>
      </trkpt>
      <trkpt lat="46.53993" lon="5.30527">
        <ele>207.8</ele>
        <time>2021-10-07T12:33:07Z</time>
      </trkpt>
      <trkpt lat="46.54" lon="5.30522">
        <ele>208.2</ele>
        <time>2021-10-07T12:33:09Z</time>
      </trkpt>
      <trkpt lat="46.54008" lon="5.30517">
        <ele>209</ele>
        <time>2021-10-07T12:33:11Z</time>
      </trkpt>
      <trkpt lat="46.54015" lon="5.30512">
        <ele>209.6</ele>
        <time>2021-10-07T12:33:13Z</time>
      </trkpt>
      <trkpt lat="46.54018" lon="5.30508">
        <ele>209.8</ele>
        <time>2021-10-07T12:33:14Z</time>
      </trkpt>
      <trkpt lat="46.54022" lon="5.30505">
        <ele>210</ele>
        <time>2021-10-07T12:33:15Z</time>
      </trkpt>
      <trkpt lat="46.54028" lon="5.30497">
        <ele>210.4</ele>
        <time>2021-10-07T12:33:17Z</time>
      </trkpt>
      <trkpt lat="46.54035" lon="5.30487">
        <ele>210.6</ele>
        <time>2021-10-07T12:33:19Z</time>
      </trkpt>
      <trkpt lat="46.54038" lon="5.30482">
        <ele>210.6</ele>
        <time>2021-10-07T12:33:20Z</time>
      </trkpt>
      <trkpt lat="46.54041" lon="5.30476">
        <ele>210.6</ele>
        <time>2021-10-07T12:33:21Z</time>
      </trkpt>
      <trkpt lat="46.54048" lon="5.30464">
        <ele>210.6</ele>
        <time>2021-10-07T12:33:23Z</time>
      </trkpt>
      <trkpt lat="46.54053" lon="5.30449">
        <ele>210.6</ele>
        <time>2021-10-07T12:33:25Z</time>
      </trkpt>
      <trkpt lat="46.54055" lon="5.30441">
        <ele>210.6</ele>
        <time>2021-10-07T12:33:26Z</time>
      </trkpt>
      <trkpt lat="46.54057" lon="5.30434">
        <ele>210.6</ele>
        <time>2021-10-07T12:33:27Z</time>
      </trkpt>
      <trkpt lat="46.54061" lon="5.30418">
        <ele>210.6</ele>
        <time>2021-10-07T12:33:29Z</time>
      </trkpt>
      <trkpt lat="46.54064" lon="5.30402">
        <ele>210.6</ele>
        <time>2021-10-07T12:33:31Z</time>
      </trkpt>
      <trkpt lat="46.54068" lon="5.30386">
        <ele>210.6</ele>
        <time>2021-10-07T12:33:33Z</time>
      </trkpt>
      <trkpt lat="46.5407" lon="5.30378">
        <ele>210.6</ele>
        <time>2021-10-07T12:33:34Z</time>
      </trkpt>
      <trkpt lat="46.54072" lon="5.3037">
        <ele>210.8</ele>
        <time>2021-10-07T12:33:35Z</time>
      </trkpt>
      <trkpt lat="46.54076" lon="5.30355">
        <ele>210.8</ele>
        <time>2021-10-07T12:33:37Z</time>
      </trkpt>
      <trkpt lat="46.5408" lon="5.30339">
        <ele>211</ele>
        <time>2021-10-07T12:33:39Z</time>
      </trkpt>
      <trkpt lat="46.54085" lon="5.30324">
        <ele>211</ele>
        <time>2021-10-07T12:33:41Z</time>
      </trkpt>
      <trkpt lat="46.54087" lon="5.30316">
        <ele>211</ele>
        <time>2021-10-07T12:33:42Z</time>
      </trkpt>
      <trkpt lat="46.54089" lon="5.30309">
        <ele>211.2</ele>
        <time>2021-10-07T12:33:43Z</time>
      </trkpt>
      <trkpt lat="46.54094" lon="5.30293">
        <ele>211.2</ele>
        <time>2021-10-07T12:33:45Z</time>
      </trkpt>
      <trkpt lat="46.54099" lon="5.30278">
        <ele>211.2</ele>
        <time>2021-10-07T12:33:47Z</time>
      </trkpt>
      <trkpt lat="46.54104" lon="5.30264">
        <ele>211.2</ele>
        <time>2021-10-07T12:33:49Z</time>
      </trkpt>
      <trkpt lat="46.54109" lon="5.30248">
        <ele>211</ele>
        <time>2021-10-07T12:33:51Z</time>
      </trkpt>
      <trkpt lat="46.54114" lon="5.30233">
        <ele>211</ele>
        <time>2021-10-07T12:33:53Z</time>
      </trkpt>
      <trkpt lat="46.54119" lon="5.30217">
        <ele>210.8</ele>
        <time>2021-10-07T12:33:55Z</time>
      </trkpt>
      <trkpt lat="46.54124" lon="5.30202">
        <ele>210.8</ele>
        <time>2021-10-07T12:33:57Z</time>
      </trkpt>
      <trkpt lat="46.5413" lon="5.30185">
        <ele>210.8</ele>
        <time>2021-10-07T12:33:59Z</time>
      </trkpt>
      <trkpt lat="46.54135" lon="5.30169">
        <ele>210.8</ele>
        <time>2021-10-07T12:34:01Z</time>
      </trkpt>
      <trkpt lat="46.54138" lon="5.30161">
        <ele>210.8</ele>
        <time>2021-10-07T12:34:02Z</time>
      </trkpt>
      <trkpt lat="46.54141" lon="5.30152">
        <ele>210.8</ele>
        <time>2021-10-07T12:34:03Z</time>
      </trkpt>
      <trkpt lat="46.54146" lon="5.30135">
        <ele>210.6</ele>
        <time>2021-10-07T12:34:05Z</time>
      </trkpt>
      <trkpt lat="46.54153" lon="5.30119">
        <ele>210.6</ele>
        <time>2021-10-07T12:34:07Z</time>
      </trkpt>
      <trkpt lat="46.54158" lon="5.30114">
        <ele>210.6</ele>
        <time>2021-10-07T12:34:08Z</time>
      </trkpt>
      <trkpt lat="46.54164" lon="5.30111">
        <ele>210.6</ele>
        <time>2021-10-07T12:34:09Z</time>
      </trkpt>
      <trkpt lat="46.54176" lon="5.30107">
        <ele>210.6</ele>
        <time>2021-10-07T12:34:11Z</time>
      </trkpt>
      <trkpt lat="46.54189" lon="5.30102">
        <ele>210.6</ele>
        <time>2021-10-07T12:34:13Z</time>
      </trkpt>
      <trkpt lat="46.54195" lon="5.301">
        <ele>210.6</ele>
        <time>2021-10-07T12:34:14Z</time>
      </trkpt>
      <trkpt lat="46.54201" lon="5.30099">
        <ele>210.6</ele>
        <time>2021-10-07T12:34:15Z</time>
      </trkpt>
      <trkpt lat="46.54214" lon="5.301">
        <ele>210.4</ele>
        <time>2021-10-07T12:34:17Z</time>
      </trkpt>
      <trkpt lat="46.54228" lon="5.30101">
        <ele>210.4</ele>
        <time>2021-10-07T12:34:19Z</time>
      </trkpt>
      <trkpt lat="46.54241" lon="5.30102">
        <ele>210.2</ele>
        <time>2021-10-07T12:34:21Z</time>
      </trkpt>
      <trkpt lat="46.54248" lon="5.30103">
        <ele>210</ele>
        <time>2021-10-07T12:34:22Z</time>
      </trkpt>
      <trkpt lat="46.54255" lon="5.30104">
        <ele>209.6</ele>
        <time>2021-10-07T12:34:23Z</time>
      </trkpt>
      <trkpt lat="46.54268" lon="5.30106">
        <ele>209.4</ele>
        <time>2021-10-07T12:34:25Z</time>
      </trkpt>
      <trkpt lat="46.54281" lon="5.30108">
        <ele>209.4</ele>
        <time>2021-10-07T12:34:27Z</time>
      </trkpt>
      <trkpt lat="46.54295" lon="5.30108">
        <ele>209.2</ele>
        <time>2021-10-07T12:34:29Z</time>
      </trkpt>
      <trkpt lat="46.54308" lon="5.30109">
        <ele>209</ele>
        <time>2021-10-07T12:34:31Z</time>
      </trkpt>
      <trkpt lat="46.54322" lon="5.30111">
        <ele>208.8</ele>
        <time>2021-10-07T12:34:33Z</time>
      </trkpt>
      <trkpt lat="46.54337" lon="5.30115">
        <ele>208.4</ele>
        <time>2021-10-07T12:34:35Z</time>
      </trkpt>
      <trkpt lat="46.54352" lon="5.30121">
        <ele>208.2</ele>
        <time>2021-10-07T12:34:37Z</time>
      </trkpt>
      <trkpt lat="46.54368" lon="5.30127">
        <ele>208</ele>
        <time>2021-10-07T12:34:39Z</time>
      </trkpt>
      <trkpt lat="46.54376" lon="5.3013">
        <ele>207.8</ele>
        <time>2021-10-07T12:34:40Z</time>
      </trkpt>
      <trkpt lat="46.54385" lon="5.30134">
        <ele>207.6</ele>
        <time>2021-10-07T12:34:41Z</time>
      </trkpt>
      <trkpt lat="46.54393" lon="5.30137">
        <ele>207.4</ele>
        <time>2021-10-07T12:34:42Z</time>
      </trkpt>
      <trkpt lat="46.54402" lon="5.3014">
        <ele>207.2</ele>
        <time>2021-10-07T12:34:43Z</time>
      </trkpt>
      <trkpt lat="46.54419" lon="5.30145">
        <ele>206.8</ele>
        <time>2021-10-07T12:34:45Z</time>
      </trkpt>
      <trkpt lat="46.54436" lon="5.30148">
        <ele>205.4</ele>
        <time>2021-10-07T12:34:47Z</time>
      </trkpt>
      <trkpt lat="46.54445" lon="5.30148">
        <ele>205.2</ele>
        <time>2021-10-07T12:34:48Z</time>
      </trkpt>
      <trkpt lat="46.54454" lon="5.30147">
        <ele>204.8</ele>
        <time>2021-10-07T12:34:49Z</time>
      </trkpt>
      <trkpt lat="46.54463" lon="5.30146">
        <ele>203.6</ele>
        <time>2021-10-07T12:34:50Z</time>
      </trkpt>
      <trkpt lat="46.54472" lon="5.30144">
        <ele>203.2</ele>
        <time>2021-10-07T12:34:51Z</time>
      </trkpt>
      <trkpt lat="46.54481" lon="5.30141">
        <ele>202.8</ele>
        <time>2021-10-07T12:34:52Z</time>
      </trkpt>
      <trkpt lat="46.5449" lon="5.30137">
        <ele>202.8</ele>
        <time>2021-10-07T12:34:53Z</time>
      </trkpt>
      <trkpt lat="46.54498" lon="5.30133">
        <ele>202.6</ele>
        <time>2021-10-07T12:34:54Z</time>
      </trkpt>
      <trkpt lat="46.54507" lon="5.30129">
        <ele>202</ele>
        <time>2021-10-07T12:34:55Z</time>
      </trkpt>
      <trkpt lat="46.54516" lon="5.30124">
        <ele>201.4</ele>
        <time>2021-10-07T12:34:56Z</time>
      </trkpt>
      <trkpt lat="46.54524" lon="5.30119">
        <ele>201</ele>
        <time>2021-10-07T12:34:57Z</time>
      </trkpt>
      <trkpt lat="46.54533" lon="5.30114">
        <ele>200.6</ele>
        <time>2021-10-07T12:34:58Z</time>
      </trkpt>
      <trkpt lat="46.54542" lon="5.30109">
        <ele>200</ele>
        <time>2021-10-07T12:34:59Z</time>
      </trkpt>
      <trkpt lat="46.54559" lon="5.30097">
        <ele>198.4</ele>
        <time>2021-10-07T12:35:01Z</time>
      </trkpt>
      <trkpt lat="46.54576" lon="5.30086">
        <ele>197.8</ele>
        <time>2021-10-07T12:35:03Z</time>
      </trkpt>
      <trkpt lat="46.54593" lon="5.30076">
        <ele>197.4</ele>
        <time>2021-10-07T12:35:05Z</time>
      </trkpt>
      <trkpt lat="46.5461" lon="5.30066">
        <ele>196.6</ele>
        <time>2021-10-07T12:35:07Z</time>
      </trkpt>
      <trkpt lat="46.54618" lon="5.30061">
        <ele>195.8</ele>
        <time>2021-10-07T12:35:08Z</time>
      </trkpt>
      <trkpt lat="46.54627" lon="5.30056">
        <ele>195.2</ele>
        <time>2021-10-07T12:35:09Z</time>
      </trkpt>
      <trkpt lat="46.54636" lon="5.3005">
        <ele>194.6</ele>
        <time>2021-10-07T12:35:10Z</time>
      </trkpt>
      <trkpt lat="46.54645" lon="5.30045">
        <ele>193.8</ele>
        <time>2021-10-07T12:35:11Z</time>
      </trkpt>
      <trkpt lat="46.54654" lon="5.3004">
        <ele>193</ele>
        <time>2021-10-07T12:35:12Z</time>
      </trkpt>
      <trkpt lat="46.54663" lon="5.30034">
        <ele>192.6</ele>
        <time>2021-10-07T12:35:13Z</time>
      </trkpt>
      <trkpt lat="46.54681" lon="5.30024">
        <ele>192.2</ele>
        <time>2021-10-07T12:35:15Z</time>
      </trkpt>
      <trkpt lat="46.5469" lon="5.30018">
        <ele>192</ele>
        <time>2021-10-07T12:35:16Z</time>
      </trkpt>
      <trkpt lat="46.54699" lon="5.30012">
        <ele>191.6</ele>
        <time>2021-10-07T12:35:17Z</time>
      </trkpt>
      <trkpt lat="46.54708" lon="5.30006">
        <ele>191</ele>
        <time>2021-10-07T12:35:18Z</time>
      </trkpt>
      <trkpt lat="46.54717" lon="5.3">
        <ele>190.6</ele>
        <time>2021-10-07T12:35:19Z</time>
      </trkpt>
      <trkpt lat="46.54725" lon="5.29993">
        <ele>190</ele>
        <time>2021-10-07T12:35:20Z</time>
      </trkpt>
      <trkpt lat="46.54734" lon="5.29986">
        <ele>189</ele>
        <time>2021-10-07T12:35:21Z</time>
      </trkpt>
      <trkpt lat="46.54742" lon="5.29979">
        <ele>188.4</ele>
        <time>2021-10-07T12:35:22Z</time>
      </trkpt>
      <trkpt lat="46.54749" lon="5.29973">
        <ele>188.2</ele>
        <time>2021-10-07T12:35:23Z</time>
      </trkpt>
      <trkpt lat="46.54757" lon="5.29966">
        <ele>188</ele>
        <time>2021-10-07T12:35:24Z</time>
      </trkpt>
      <trkpt lat="46.54765" lon="5.2996">
        <ele>187.8</ele>
        <time>2021-10-07T12:35:25Z</time>
      </trkpt>
      <trkpt lat="46.54779" lon="5.29946">
        <ele>187.6</ele>
        <time>2021-10-07T12:35:27Z</time>
      </trkpt>
      <trkpt lat="46.54786" lon="5.29939">
        <ele>187.4</ele>
        <time>2021-10-07T12:35:28Z</time>
      </trkpt>
      <trkpt lat="46.54793" lon="5.29931">
        <ele>187.2</ele>
        <time>2021-10-07T12:35:29Z</time>
      </trkpt>
      <trkpt lat="46.548" lon="5.29924">
        <ele>187</ele>
        <time>2021-10-07T12:35:30Z</time>
      </trkpt>
      <trkpt lat="46.54807" lon="5.29916">
        <ele>187</ele>
        <time>2021-10-07T12:35:31Z</time>
      </trkpt>
      <trkpt lat="46.54819" lon="5.299">
        <ele>187</ele>
        <time>2021-10-07T12:35:33Z</time>
      </trkpt>
      <trkpt lat="46.54831" lon="5.29884">
        <ele>186.8</ele>
        <time>2021-10-07T12:35:35Z</time>
      </trkpt>
      <trkpt lat="46.54843" lon="5.29868">
        <ele>186.8</ele>
        <time>2021-10-07T12:35:37Z</time>
      </trkpt>
      <trkpt lat="46.54854" lon="5.29852">
        <ele>186.8</ele>
        <time>2021-10-07T12:35:39Z</time>
      </trkpt>
      <trkpt lat="46.54866" lon="5.29838">
        <ele>186.8</ele>
        <time>2021-10-07T12:35:41Z</time>
      </trkpt>
      <trkpt lat="46.54877" lon="5.29825">
        <ele>186.8</ele>
        <time>2021-10-07T12:35:43Z</time>
      </trkpt>
      <trkpt lat="46.54887" lon="5.29812">
        <ele>187.4</ele>
        <time>2021-10-07T12:35:45Z</time>
      </trkpt>
      <trkpt lat="46.54897" lon="5.29798">
        <ele>187.6</ele>
        <time>2021-10-07T12:35:47Z</time>
      </trkpt>
      <trkpt lat="46.54906" lon="5.29782">
        <ele>187.6</ele>
        <time>2021-10-07T12:35:49Z</time>
      </trkpt>
      <trkpt lat="46.54911" lon="5.29774">
        <ele>187.8</ele>
        <time>2021-10-07T12:35:50Z</time>
      </trkpt>
      <trkpt lat="46.54916" lon="5.29766">
        <ele>187.8</ele>
        <time>2021-10-07T12:35:51Z</time>
      </trkpt>
      <trkpt lat="46.54926" lon="5.2975">
        <ele>187.8</ele>
        <time>2021-10-07T12:35:53Z</time>
      </trkpt>
      <trkpt lat="46.54935" lon="5.29732">
        <ele>187.8</ele>
        <time>2021-10-07T12:35:55Z</time>
      </trkpt>
      <trkpt lat="46.54943" lon="5.29715">
        <ele>187.8</ele>
        <time>2021-10-07T12:35:57Z</time>
      </trkpt>
      <trkpt lat="46.5495" lon="5.29696">
        <ele>187.8</ele>
        <time>2021-10-07T12:35:59Z</time>
      </trkpt>
      <trkpt lat="46.54955" lon="5.29677">
        <ele>187.8</ele>
        <time>2021-10-07T12:36:01Z</time>
      </trkpt>
      <trkpt lat="46.54957" lon="5.29668">
        <ele>187.8</ele>
        <time>2021-10-07T12:36:02Z</time>
      </trkpt>
      <trkpt lat="46.54958" lon="5.29659">
        <ele>187.8</ele>
        <time>2021-10-07T12:36:03Z</time>
      </trkpt>
      <trkpt lat="46.54961" lon="5.29641">
        <ele>187.8</ele>
        <time>2021-10-07T12:36:05Z</time>
      </trkpt>
      <trkpt lat="46.54964" lon="5.29625">
        <ele>187.8</ele>
        <time>2021-10-07T12:36:07Z</time>
      </trkpt>
      <trkpt lat="46.54968" lon="5.2961">
        <ele>188.2</ele>
        <time>2021-10-07T12:36:09Z</time>
      </trkpt>
      <trkpt lat="46.54972" lon="5.29597">
        <ele>188.4</ele>
        <time>2021-10-07T12:36:11Z</time>
      </trkpt>
      <trkpt lat="46.54978" lon="5.29585">
        <ele>189.6</ele>
        <time>2021-10-07T12:36:13Z</time>
      </trkpt>
      <trkpt lat="46.5498" lon="5.2958">
        <ele>190</ele>
        <time>2021-10-07T12:36:14Z</time>
      </trkpt>
      <trkpt lat="46.54984" lon="5.29575">
        <ele>190.2</ele>
        <time>2021-10-07T12:36:15Z</time>
      </trkpt>
      <trkpt lat="46.5499" lon="5.29565">
        <ele>190.6</ele>
        <time>2021-10-07T12:36:17Z</time>
      </trkpt>
      <trkpt lat="46.54996" lon="5.29556">
        <ele>191.2</ele>
        <time>2021-10-07T12:36:19Z</time>
      </trkpt>
      <trkpt lat="46.55003" lon="5.29546">
        <ele>191.4</ele>
        <time>2021-10-07T12:36:21Z</time>
      </trkpt>
      <trkpt lat="46.55006" lon="5.29541">
        <ele>191.6</ele>
        <time>2021-10-07T12:36:22Z</time>
      </trkpt>
      <trkpt lat="46.5501" lon="5.29537">
        <ele>191.8</ele>
        <time>2021-10-07T12:36:23Z</time>
      </trkpt>
      <trkpt lat="46.55018" lon="5.29528">
        <ele>192.2</ele>
        <time>2021-10-07T12:36:25Z</time>
      </trkpt>
      <trkpt lat="46.55025" lon="5.2952">
        <ele>192.4</ele>
        <time>2021-10-07T12:36:27Z</time>
      </trkpt>
      <trkpt lat="46.55033" lon="5.29514">
        <ele>192.6</ele>
        <time>2021-10-07T12:36:29Z</time>
      </trkpt>
      <trkpt lat="46.55041" lon="5.29509">
        <ele>192.6</ele>
        <time>2021-10-07T12:36:31Z</time>
      </trkpt>
      <trkpt lat="46.55048" lon="5.29505">
        <ele>192.8</ele>
        <time>2021-10-07T12:36:33Z</time>
      </trkpt>
      <trkpt lat="46.55052" lon="5.29504">
        <ele>192.8</ele>
        <time>2021-10-07T12:36:34Z</time>
      </trkpt>
      <trkpt lat="46.55055" lon="5.29503">
        <ele>193</ele>
        <time>2021-10-07T12:36:35Z</time>
      </trkpt>
      <trkpt lat="46.55063" lon="5.29501">
        <ele>193.4</ele>
        <time>2021-10-07T12:36:37Z</time>
      </trkpt>
      <trkpt lat="46.5507" lon="5.29501">
        <ele>194.2</ele>
        <time>2021-10-07T12:36:39Z</time>
      </trkpt>
      <trkpt lat="46.55078" lon="5.29503">
        <ele>195</ele>
        <time>2021-10-07T12:36:41Z</time>
      </trkpt>
      <trkpt lat="46.55082" lon="5.29505">
        <ele>195.4</ele>
        <time>2021-10-07T12:36:42Z</time>
      </trkpt>
      <trkpt lat="46.55086" lon="5.29507">
        <ele>196</ele>
        <time>2021-10-07T12:36:43Z</time>
      </trkpt>
      <trkpt lat="46.55094" lon="5.2951">
        <ele>196.4</ele>
        <time>2021-10-07T12:36:45Z</time>
      </trkpt>
      <trkpt lat="46.55103" lon="5.29512">
        <ele>196.8</ele>
        <time>2021-10-07T12:36:47Z</time>
      </trkpt>
      <trkpt lat="46.55108" lon="5.29514">
        <ele>197</ele>
        <time>2021-10-07T12:36:48Z</time>
      </trkpt>
      <trkpt lat="46.55112" lon="5.29516">
        <ele>197</ele>
        <time>2021-10-07T12:36:49Z</time>
      </trkpt>
      <trkpt lat="46.5512" lon="5.29519">
        <ele>197.4</ele>
        <time>2021-10-07T12:36:51Z</time>
      </trkpt>
      <trkpt lat="46.55125" lon="5.29521">
        <ele>197.6</ele>
        <time>2021-10-07T12:36:52Z</time>
      </trkpt>
      <trkpt lat="46.55129" lon="5.29522">
        <ele>197.8</ele>
        <time>2021-10-07T12:36:53Z</time>
      </trkpt>
      <trkpt lat="46.55138" lon="5.29526">
        <ele>198.2</ele>
        <time>2021-10-07T12:36:55Z</time>
      </trkpt>
      <trkpt lat="46.55142" lon="5.29527">
        <ele>198.4</ele>
        <time>2021-10-07T12:36:56Z</time>
      </trkpt>
      <trkpt lat="46.55146" lon="5.29529">
        <ele>198.6</ele>
        <time>2021-10-07T12:36:57Z</time>
      </trkpt>
      <trkpt lat="46.55155" lon="5.29532">
        <ele>198.8</ele>
        <time>2021-10-07T12:36:59Z</time>
      </trkpt>
      <trkpt lat="46.55164" lon="5.29536">
        <ele>199</ele>
        <time>2021-10-07T12:37:01Z</time>
      </trkpt>
      <trkpt lat="46.55173" lon="5.29539">
        <ele>199.2</ele>
        <time>2021-10-07T12:37:03Z</time>
      </trkpt>
      <trkpt lat="46.55178" lon="5.2954">
        <ele>199.2</ele>
        <time>2021-10-07T12:37:04Z</time>
      </trkpt>
      <trkpt lat="46.55182" lon="5.29541">
        <ele>199.2</ele>
        <time>2021-10-07T12:37:05Z</time>
      </trkpt>
      <trkpt lat="46.55191" lon="5.29541">
        <ele>199.2</ele>
        <time>2021-10-07T12:37:07Z</time>
      </trkpt>
      <trkpt lat="46.55196" lon="5.2954">
        <ele>199.4</ele>
        <time>2021-10-07T12:37:08Z</time>
      </trkpt>
      <trkpt lat="46.552" lon="5.29539">
        <ele>199.6</ele>
        <time>2021-10-07T12:37:09Z</time>
      </trkpt>
      <trkpt lat="46.55209" lon="5.29536">
        <ele>199.6</ele>
        <time>2021-10-07T12:37:11Z</time>
      </trkpt>
      <trkpt lat="46.55218" lon="5.29532">
        <ele>199.8</ele>
        <time>2021-10-07T12:37:13Z</time>
      </trkpt>
      <trkpt lat="46.55222" lon="5.2953">
        <ele>200</ele>
        <time>2021-10-07T12:37:14Z</time>
      </trkpt>
      <trkpt lat="46.55226" lon="5.29528">
        <ele>200.2</ele>
        <time>2021-10-07T12:37:15Z</time>
      </trkpt>
      <trkpt lat="46.55233" lon="5.29523">
        <ele>200.6</ele>
        <time>2021-10-07T12:37:17Z</time>
      </trkpt>
      <trkpt lat="46.55237" lon="5.2952">
        <ele>200.6</ele>
        <time>2021-10-07T12:37:18Z</time>
      </trkpt>
      <trkpt lat="46.55241" lon="5.29517">
        <ele>200.8</ele>
        <time>2021-10-07T12:37:19Z</time>
      </trkpt>
      <trkpt lat="46.5525" lon="5.29512">
        <ele>201</ele>
        <time>2021-10-07T12:37:21Z</time>
      </trkpt>
      <trkpt lat="46.55254" lon="5.29509">
        <ele>201.2</ele>
        <time>2021-10-07T12:37:22Z</time>
      </trkpt>
      <trkpt lat="46.55258" lon="5.29506">
        <ele>201.2</ele>
        <time>2021-10-07T12:37:23Z</time>
      </trkpt>
      <trkpt lat="46.55267" lon="5.29501">
        <ele>201.6</ele>
        <time>2021-10-07T12:37:25Z</time>
      </trkpt>
      <trkpt lat="46.55271" lon="5.29499">
        <ele>201.6</ele>
        <time>2021-10-07T12:37:26Z</time>
      </trkpt>
      <trkpt lat="46.55276" lon="5.29497">
        <ele>201.8</ele>
        <time>2021-10-07T12:37:27Z</time>
      </trkpt>
      <trkpt lat="46.55286" lon="5.29496">
        <ele>201.8</ele>
        <time>2021-10-07T12:37:29Z</time>
      </trkpt>
      <trkpt lat="46.55297" lon="5.295">
        <ele>201.8</ele>
        <time>2021-10-07T12:37:31Z</time>
      </trkpt>
      <trkpt lat="46.55303" lon="5.29503">
        <ele>201.8</ele>
        <time>2021-10-07T12:37:32Z</time>
      </trkpt>
      <trkpt lat="46.55309" lon="5.29506">
        <ele>201.8</ele>
        <time>2021-10-07T12:37:33Z</time>
      </trkpt>
      <trkpt lat="46.55322" lon="5.2951">
        <ele>201.8</ele>
        <time>2021-10-07T12:37:35Z</time>
      </trkpt>
      <trkpt lat="46.55335" lon="5.29511">
        <ele>201.8</ele>
        <time>2021-10-07T12:37:37Z</time>
      </trkpt>
      <trkpt lat="46.55342" lon="5.29512">
        <ele>201.6</ele>
        <time>2021-10-07T12:37:38Z</time>
      </trkpt>
      <trkpt lat="46.55349" lon="5.29513">
        <ele>201.4</ele>
        <time>2021-10-07T12:37:39Z</time>
      </trkpt>
      <trkpt lat="46.55363" lon="5.29516">
        <ele>200.6</ele>
        <time>2021-10-07T12:37:41Z</time>
      </trkpt>
      <trkpt lat="46.5537" lon="5.29517">
        <ele>200.6</ele>
        <time>2021-10-07T12:37:42Z</time>
      </trkpt>
      <trkpt lat="46.55376" lon="5.2952">
        <ele>200.4</ele>
        <time>2021-10-07T12:37:43Z</time>
      </trkpt>
      <trkpt lat="46.55389" lon="5.29524">
        <ele>199.8</ele>
        <time>2021-10-07T12:37:45Z</time>
      </trkpt>
      <trkpt lat="46.55401" lon="5.29529">
        <ele>199.4</ele>
        <time>2021-10-07T12:37:47Z</time>
      </trkpt>
      <trkpt lat="46.55413" lon="5.29535">
        <ele>199.4</ele>
        <time>2021-10-07T12:37:49Z</time>
      </trkpt>
      <trkpt lat="46.55424" lon="5.29542">
        <ele>199.2</ele>
        <time>2021-10-07T12:37:51Z</time>
      </trkpt>
      <trkpt lat="46.55436" lon="5.2955">
        <ele>199.2</ele>
        <time>2021-10-07T12:37:53Z</time>
      </trkpt>
      <trkpt lat="46.55447" lon="5.29558">
        <ele>199.2</ele>
        <time>2021-10-07T12:37:55Z</time>
      </trkpt>
      <trkpt lat="46.55458" lon="5.29566">
        <ele>199.2</ele>
        <time>2021-10-07T12:37:57Z</time>
      </trkpt>
      <trkpt lat="46.55469" lon="5.29574">
        <ele>199.4</ele>
        <time>2021-10-07T12:37:59Z</time>
      </trkpt>
      <trkpt lat="46.5548" lon="5.29583">
        <ele>199.6</ele>
        <time>2021-10-07T12:38:01Z</time>
      </trkpt>
      <trkpt lat="46.55491" lon="5.29591">
        <ele>199.6</ele>
        <time>2021-10-07T12:38:03Z</time>
      </trkpt>
      <trkpt lat="46.55497" lon="5.29595">
        <ele>199.8</ele>
        <time>2021-10-07T12:38:04Z</time>
      </trkpt>
      <trkpt lat="46.55502" lon="5.29599">
        <ele>200</ele>
        <time>2021-10-07T12:38:05Z</time>
      </trkpt>
      <trkpt lat="46.55513" lon="5.29607">
        <ele>200.2</ele>
        <time>2021-10-07T12:38:07Z</time>
      </trkpt>
      <trkpt lat="46.55524" lon="5.29614">
        <ele>200.2</ele>
        <time>2021-10-07T12:38:09Z</time>
      </trkpt>
      <trkpt lat="46.55535" lon="5.29622">
        <ele>200.2</ele>
        <time>2021-10-07T12:38:11Z</time>
      </trkpt>
      <trkpt lat="46.5554" lon="5.29626">
        <ele>200.4</ele>
        <time>2021-10-07T12:38:12Z</time>
      </trkpt>
      <trkpt lat="46.55546" lon="5.2963">
        <ele>200.4</ele>
        <time>2021-10-07T12:38:13Z</time>
      </trkpt>
      <trkpt lat="46.55556" lon="5.29638">
        <ele>200.4</ele>
        <time>2021-10-07T12:38:15Z</time>
      </trkpt>
      <trkpt lat="46.55567" lon="5.29646">
        <ele>200.6</ele>
        <time>2021-10-07T12:38:17Z</time>
      </trkpt>
      <trkpt lat="46.55578" lon="5.29653">
        <ele>200.6</ele>
        <time>2021-10-07T12:38:19Z</time>
      </trkpt>
      <trkpt lat="46.55589" lon="5.2966">
        <ele>200.8</ele>
        <time>2021-10-07T12:38:21Z</time>
      </trkpt>
      <trkpt lat="46.55599" lon="5.29665">
        <ele>200.8</ele>
        <time>2021-10-07T12:38:23Z</time>
      </trkpt>
      <trkpt lat="46.5561" lon="5.29671">
        <ele>201</ele>
        <time>2021-10-07T12:38:25Z</time>
      </trkpt>
      <trkpt lat="46.55621" lon="5.29676">
        <ele>201.2</ele>
        <time>2021-10-07T12:38:27Z</time>
      </trkpt>
      <trkpt lat="46.55632" lon="5.29682">
        <ele>201.2</ele>
        <time>2021-10-07T12:38:29Z</time>
      </trkpt>
      <trkpt lat="46.55642" lon="5.29687">
        <ele>201.2</ele>
        <time>2021-10-07T12:38:31Z</time>
      </trkpt>
      <trkpt lat="46.55653" lon="5.29691">
        <ele>201.2</ele>
        <time>2021-10-07T12:38:33Z</time>
      </trkpt>
      <trkpt lat="46.55664" lon="5.29694">
        <ele>201.4</ele>
        <time>2021-10-07T12:38:35Z</time>
      </trkpt>
      <trkpt lat="46.55674" lon="5.29695">
        <ele>201.4</ele>
        <time>2021-10-07T12:38:37Z</time>
      </trkpt>
      <trkpt lat="46.55679" lon="5.29695">
        <ele>201.4</ele>
        <time>2021-10-07T12:38:38Z</time>
      </trkpt>
      <trkpt lat="46.55684" lon="5.29695">
        <ele>201.4</ele>
        <time>2021-10-07T12:38:39Z</time>
      </trkpt>
      <trkpt lat="46.55689" lon="5.29695">
        <ele>201.4</ele>
        <time>2021-10-07T12:38:40Z</time>
      </trkpt>
      <trkpt lat="46.55694" lon="5.29695">
        <ele>201.4</ele>
        <time>2021-10-07T12:38:41Z</time>
      </trkpt>
      <trkpt lat="46.55702" lon="5.29695">
        <ele>201.4</ele>
        <time>2021-10-07T12:38:43Z</time>
      </trkpt>
      <trkpt lat="46.5571" lon="5.29696">
        <ele>201.8</ele>
        <time>2021-10-07T12:38:45Z</time>
      </trkpt>
      <trkpt lat="46.55719" lon="5.29697">
        <ele>202.2</ele>
        <time>2021-10-07T12:38:47Z</time>
      </trkpt>
      <trkpt lat="46.55726" lon="5.29699">
        <ele>202.4</ele>
        <time>2021-10-07T12:38:49Z</time>
      </trkpt>
      <trkpt lat="46.55733" lon="5.29702">
        <ele>202.8</ele>
        <time>2021-10-07T12:38:51Z</time>
      </trkpt>
      <trkpt lat="46.55741" lon="5.29706">
        <ele>203.4</ele>
        <time>2021-10-07T12:38:53Z</time>
      </trkpt>
      <trkpt lat="46.55745" lon="5.29708">
        <ele>203.6</ele>
        <time>2021-10-07T12:38:54Z</time>
      </trkpt>
      <trkpt lat="46.55748" lon="5.2971">
        <ele>204.2</ele>
        <time>2021-10-07T12:38:55Z</time>
      </trkpt>
      <trkpt lat="46.55755" lon="5.29715">
        <ele>204.6</ele>
        <time>2021-10-07T12:38:57Z</time>
      </trkpt>
      <trkpt lat="46.55758" lon="5.29718">
        <ele>204.8</ele>
        <time>2021-10-07T12:38:58Z</time>
      </trkpt>
      <trkpt lat="46.55761" lon="5.29721">
        <ele>205.2</ele>
        <time>2021-10-07T12:38:59Z</time>
      </trkpt>
      <trkpt lat="46.55765" lon="5.29723">
        <ele>205.8</ele>
        <time>2021-10-07T12:39:00Z</time>
      </trkpt>
      <trkpt lat="46.55768" lon="5.29727">
        <ele>206.2</ele>
        <time>2021-10-07T12:39:01Z</time>
      </trkpt>
      <trkpt lat="46.55771" lon="5.2973">
        <ele>206.2</ele>
        <time>2021-10-07T12:39:02Z</time>
      </trkpt>
      <trkpt lat="46.55774" lon="5.29734">
        <ele>206.4</ele>
        <time>2021-10-07T12:39:03Z</time>
      </trkpt>
      <trkpt lat="46.55781" lon="5.29743">
        <ele>206.4</ele>
        <time>2021-10-07T12:39:05Z</time>
      </trkpt>
      <trkpt lat="46.55784" lon="5.29748">
        <ele>206.6</ele>
        <time>2021-10-07T12:39:06Z</time>
      </trkpt>
      <trkpt lat="46.55787" lon="5.29753">
        <ele>207</ele>
        <time>2021-10-07T12:39:07Z</time>
      </trkpt>
      <trkpt lat="46.55791" lon="5.29758">
        <ele>207.2</ele>
        <time>2021-10-07T12:39:08Z</time>
      </trkpt>
      <trkpt lat="46.55794" lon="5.29763">
        <ele>207.6</ele>
        <time>2021-10-07T12:39:09Z</time>
      </trkpt>
      <trkpt lat="46.55801" lon="5.29773">
        <ele>207.8</ele>
        <time>2021-10-07T12:39:11Z</time>
      </trkpt>
      <trkpt lat="46.55809" lon="5.29783">
        <ele>208</ele>
        <time>2021-10-07T12:39:13Z</time>
      </trkpt>
      <trkpt lat="46.55812" lon="5.29788">
        <ele>208</ele>
        <time>2021-10-07T12:39:14Z</time>
      </trkpt>
      <trkpt lat="46.55816" lon="5.29793">
        <ele>208</ele>
        <time>2021-10-07T12:39:15Z</time>
      </trkpt>
      <trkpt lat="46.55823" lon="5.29802">
        <ele>208</ele>
        <time>2021-10-07T12:39:17Z</time>
      </trkpt>
      <trkpt lat="46.5583" lon="5.29812">
        <ele>208</ele>
        <time>2021-10-07T12:39:19Z</time>
      </trkpt>
      <trkpt lat="46.55837" lon="5.29821">
        <ele>208</ele>
        <time>2021-10-07T12:39:21Z</time>
      </trkpt>
      <trkpt lat="46.55841" lon="5.29826">
        <ele>208</ele>
        <time>2021-10-07T12:39:22Z</time>
      </trkpt>
      <trkpt lat="46.55844" lon="5.29831">
        <ele>208</ele>
        <time>2021-10-07T12:39:23Z</time>
      </trkpt>
      <trkpt lat="46.55852" lon="5.29841">
        <ele>208</ele>
        <time>2021-10-07T12:39:25Z</time>
      </trkpt>
      <trkpt lat="46.5586" lon="5.29852">
        <ele>208</ele>
        <time>2021-10-07T12:39:27Z</time>
      </trkpt>
      <trkpt lat="46.55868" lon="5.29864">
        <ele>207.8</ele>
        <time>2021-10-07T12:39:29Z</time>
      </trkpt>
      <trkpt lat="46.55878" lon="5.29877">
        <ele>207.6</ele>
        <time>2021-10-07T12:39:31Z</time>
      </trkpt>
      <trkpt lat="46.55888" lon="5.2989">
        <ele>207.6</ele>
        <time>2021-10-07T12:39:33Z</time>
      </trkpt>
      <trkpt lat="46.55898" lon="5.29905">
        <ele>207.2</ele>
        <time>2021-10-07T12:39:35Z</time>
      </trkpt>
      <trkpt lat="46.5591" lon="5.29919">
        <ele>206.6</ele>
        <time>2021-10-07T12:39:37Z</time>
      </trkpt>
      <trkpt lat="46.5592" lon="5.29934">
        <ele>206.2</ele>
        <time>2021-10-07T12:39:39Z</time>
      </trkpt>
      <trkpt lat="46.55932" lon="5.2995">
        <ele>205.6</ele>
        <time>2021-10-07T12:39:41Z</time>
      </trkpt>
      <trkpt lat="46.55937" lon="5.29957">
        <ele>205.2</ele>
        <time>2021-10-07T12:39:42Z</time>
      </trkpt>
      <trkpt lat="46.55943" lon="5.29965">
        <ele>204.4</ele>
        <time>2021-10-07T12:39:43Z</time>
      </trkpt>
      <trkpt lat="46.55949" lon="5.29973">
        <ele>203.8</ele>
        <time>2021-10-07T12:39:44Z</time>
      </trkpt>
      <trkpt lat="46.55954" lon="5.2998">
        <ele>203.6</ele>
        <time>2021-10-07T12:39:45Z</time>
      </trkpt>
      <trkpt lat="46.55966" lon="5.29995">
        <ele>203.2</ele>
        <time>2021-10-07T12:39:47Z</time>
      </trkpt>
      <trkpt lat="46.55977" lon="5.30009">
        <ele>203.2</ele>
        <time>2021-10-07T12:39:49Z</time>
      </trkpt>
      <trkpt lat="46.55986" lon="5.30022">
        <ele>203.2</ele>
        <time>2021-10-07T12:39:51Z</time>
      </trkpt>
      <trkpt lat="46.55996" lon="5.30034">
        <ele>203.2</ele>
        <time>2021-10-07T12:39:53Z</time>
      </trkpt>
      <trkpt lat="46.56005" lon="5.30045">
        <ele>203.2</ele>
        <time>2021-10-07T12:39:55Z</time>
      </trkpt>
      <trkpt lat="46.56013" lon="5.30057">
        <ele>203.4</ele>
        <time>2021-10-07T12:39:57Z</time>
      </trkpt>
      <trkpt lat="46.56022" lon="5.30067">
        <ele>203.8</ele>
        <time>2021-10-07T12:39:59Z</time>
      </trkpt>
      <trkpt lat="46.56029" lon="5.30077">
        <ele>204.4</ele>
        <time>2021-10-07T12:40:01Z</time>
      </trkpt>
      <trkpt lat="46.56033" lon="5.30082">
        <ele>205</ele>
        <time>2021-10-07T12:40:02Z</time>
      </trkpt>
      <trkpt lat="46.56036" lon="5.30087">
        <ele>205.4</ele>
        <time>2021-10-07T12:40:03Z</time>
      </trkpt>
      <trkpt lat="46.56043" lon="5.30096">
        <ele>205.6</ele>
        <time>2021-10-07T12:40:05Z</time>
      </trkpt>
      <trkpt lat="46.56047" lon="5.30101">
        <ele>205.8</ele>
        <time>2021-10-07T12:40:06Z</time>
      </trkpt>
      <trkpt lat="46.5605" lon="5.30106">
        <ele>205.8</ele>
        <time>2021-10-07T12:40:07Z</time>
      </trkpt>
      <trkpt lat="46.56053" lon="5.30111">
        <ele>206</ele>
        <time>2021-10-07T12:40:08Z</time>
      </trkpt>
      <trkpt lat="46.56056" lon="5.30115">
        <ele>206.6</ele>
        <time>2021-10-07T12:40:09Z</time>
      </trkpt>
      <trkpt lat="46.5606" lon="5.30119">
        <ele>207</ele>
        <time>2021-10-07T12:40:10Z</time>
      </trkpt>
      <trkpt lat="46.56063" lon="5.30124">
        <ele>207.4</ele>
        <time>2021-10-07T12:40:11Z</time>
      </trkpt>
      <trkpt lat="46.5607" lon="5.30133">
        <ele>208</ele>
        <time>2021-10-07T12:40:13Z</time>
      </trkpt>
      <trkpt lat="46.56073" lon="5.30138">
        <ele>208.2</ele>
        <time>2021-10-07T12:40:14Z</time>
      </trkpt>
      <trkpt lat="46.56077" lon="5.30143">
        <ele>208.4</ele>
        <time>2021-10-07T12:40:15Z</time>
      </trkpt>
      <trkpt lat="46.56084" lon="5.30153">
        <ele>208.8</ele>
        <time>2021-10-07T12:40:17Z</time>
      </trkpt>
      <trkpt lat="46.56092" lon="5.30163">
        <ele>209</ele>
        <time>2021-10-07T12:40:19Z</time>
      </trkpt>
      <trkpt lat="46.561" lon="5.30174">
        <ele>209</ele>
        <time>2021-10-07T12:40:21Z</time>
      </trkpt>
      <trkpt lat="46.56108" lon="5.30184">
        <ele>209</ele>
        <time>2021-10-07T12:40:23Z</time>
      </trkpt>
      <trkpt lat="46.56116" lon="5.30195">
        <ele>209</ele>
        <time>2021-10-07T12:40:25Z</time>
      </trkpt>
      <trkpt lat="46.56124" lon="5.30205">
        <ele>209</ele>
        <time>2021-10-07T12:40:27Z</time>
      </trkpt>
      <trkpt lat="46.56132" lon="5.30216">
        <ele>209</ele>
        <time>2021-10-07T12:40:29Z</time>
      </trkpt>
      <trkpt lat="46.56139" lon="5.30226">
        <ele>208.8</ele>
        <time>2021-10-07T12:40:31Z</time>
      </trkpt>
      <trkpt lat="46.56147" lon="5.30236">
        <ele>208.8</ele>
        <time>2021-10-07T12:40:33Z</time>
      </trkpt>
      <trkpt lat="46.56155" lon="5.30247">
        <ele>208.8</ele>
        <time>2021-10-07T12:40:35Z</time>
      </trkpt>
      <trkpt lat="46.56162" lon="5.30257">
        <ele>208.8</ele>
        <time>2021-10-07T12:40:37Z</time>
      </trkpt>
      <trkpt lat="46.5617" lon="5.30268">
        <ele>208.8</ele>
        <time>2021-10-07T12:40:39Z</time>
      </trkpt>
      <trkpt lat="46.56178" lon="5.30279">
        <ele>208.8</ele>
        <time>2021-10-07T12:40:41Z</time>
      </trkpt>
      <trkpt lat="46.56186" lon="5.3029">
        <ele>208.8</ele>
        <time>2021-10-07T12:40:43Z</time>
      </trkpt>
      <trkpt lat="46.56195" lon="5.30302">
        <ele>209</ele>
        <time>2021-10-07T12:40:45Z</time>
      </trkpt>
      <trkpt lat="46.56203" lon="5.30314">
        <ele>209</ele>
        <time>2021-10-07T12:40:47Z</time>
      </trkpt>
      <trkpt lat="46.56207" lon="5.3032">
        <ele>209</ele>
        <time>2021-10-07T12:40:48Z</time>
      </trkpt>
      <trkpt lat="46.56211" lon="5.30327">
        <ele>209.2</ele>
        <time>2021-10-07T12:40:49Z</time>
      </trkpt>
      <trkpt lat="46.56218" lon="5.3034">
        <ele>209.2</ele>
        <time>2021-10-07T12:40:51Z</time>
      </trkpt>
      <trkpt lat="46.56225" lon="5.30354">
        <ele>209.6</ele>
        <time>2021-10-07T12:40:53Z</time>
      </trkpt>
      <trkpt lat="46.56232" lon="5.30367">
        <ele>209.8</ele>
        <time>2021-10-07T12:40:55Z</time>
      </trkpt>
      <trkpt lat="46.56241" lon="5.3038">
        <ele>210</ele>
        <time>2021-10-07T12:40:57Z</time>
      </trkpt>
      <trkpt lat="46.56245" lon="5.30386">
        <ele>210.2</ele>
        <time>2021-10-07T12:40:58Z</time>
      </trkpt>
      <trkpt lat="46.56249" lon="5.30392">
        <ele>210.2</ele>
        <time>2021-10-07T12:40:59Z</time>
      </trkpt>
      <trkpt lat="46.56258" lon="5.30405">
        <ele>210.2</ele>
        <time>2021-10-07T12:41:01Z</time>
      </trkpt>
      <trkpt lat="46.56267" lon="5.30417">
        <ele>210.4</ele>
        <time>2021-10-07T12:41:03Z</time>
      </trkpt>
      <trkpt lat="46.56276" lon="5.30429">
        <ele>210.4</ele>
        <time>2021-10-07T12:41:05Z</time>
      </trkpt>
      <trkpt lat="46.56285" lon="5.30442">
        <ele>210.4</ele>
        <time>2021-10-07T12:41:07Z</time>
      </trkpt>
      <trkpt lat="46.56294" lon="5.30454">
        <ele>210.4</ele>
        <time>2021-10-07T12:41:09Z</time>
      </trkpt>
      <trkpt lat="46.56303" lon="5.30465">
        <ele>210.4</ele>
        <time>2021-10-07T12:41:11Z</time>
      </trkpt>
      <trkpt lat="46.56312" lon="5.30477">
        <ele>210.4</ele>
        <time>2021-10-07T12:41:13Z</time>
      </trkpt>
      <trkpt lat="46.56321" lon="5.3049">
        <ele>210.4</ele>
        <time>2021-10-07T12:41:15Z</time>
      </trkpt>
      <trkpt lat="46.5633" lon="5.30501">
        <ele>210.4</ele>
        <time>2021-10-07T12:41:17Z</time>
      </trkpt>
      <trkpt lat="46.56334" lon="5.30507">
        <ele>210.4</ele>
        <time>2021-10-07T12:41:18Z</time>
      </trkpt>
      <trkpt lat="46.56338" lon="5.30513">
        <ele>210.4</ele>
        <time>2021-10-07T12:41:19Z</time>
      </trkpt>
      <trkpt lat="46.56347" lon="5.30525">
        <ele>210.4</ele>
        <time>2021-10-07T12:41:21Z</time>
      </trkpt>
      <trkpt lat="46.56356" lon="5.30538">
        <ele>210.2</ele>
        <time>2021-10-07T12:41:23Z</time>
      </trkpt>
      <trkpt lat="46.56365" lon="5.3055">
        <ele>210.2</ele>
        <time>2021-10-07T12:41:25Z</time>
      </trkpt>
      <trkpt lat="46.56374" lon="5.30563">
        <ele>210.2</ele>
        <time>2021-10-07T12:41:27Z</time>
      </trkpt>
      <trkpt lat="46.56383" lon="5.30575">
        <ele>210.2</ele>
        <time>2021-10-07T12:41:29Z</time>
      </trkpt>
      <trkpt lat="46.56392" lon="5.30587">
        <ele>210.2</ele>
        <time>2021-10-07T12:41:31Z</time>
      </trkpt>
      <trkpt lat="46.56401" lon="5.30599">
        <ele>209.6</ele>
        <time>2021-10-07T12:41:33Z</time>
      </trkpt>
      <trkpt lat="46.56408" lon="5.3061">
        <ele>209.4</ele>
        <time>2021-10-07T12:41:35Z</time>
      </trkpt>
      <trkpt lat="46.5641" lon="5.3062">
        <ele>209.4</ele>
        <time>2021-10-07T12:41:37Z</time>
      </trkpt>
      <trkpt lat="46.56409" lon="5.30624">
        <ele>209.4</ele>
        <time>2021-10-07T12:41:38Z</time>
      </trkpt>
      <trkpt lat="46.56409" lon="5.30625">
        <ele>209.4</ele>
        <time>2021-10-07T12:41:39Z</time>
      </trkpt>
      <trkpt lat="46.5641" lon="5.30626">
        <ele>209.4</ele>
        <time>2021-10-07T12:41:41Z</time>
      </trkpt>
      <trkpt lat="46.5641" lon="5.30628">
        <ele>210.6</ele>
        <time>2021-10-07T12:41:50Z</time>
      </trkpt>
      <trkpt lat="46.56412" lon="5.3063">
        <ele>210.6</ele>
        <time>2021-10-07T12:41:51Z</time>
      </trkpt>
      <trkpt lat="46.56417" lon="5.30629">
        <ele>210.6</ele>
        <time>2021-10-07T12:41:53Z</time>
      </trkpt>
      <trkpt lat="46.56421" lon="5.30628">
        <ele>210.6</ele>
        <time>2021-10-07T12:41:54Z</time>
      </trkpt>
      <trkpt lat="46.56425" lon="5.30628">
        <ele>210.6</ele>
        <time>2021-10-07T12:41:55Z</time>
      </trkpt>
      <trkpt lat="46.56436" lon="5.3063">
        <ele>210.6</ele>
        <time>2021-10-07T12:41:57Z</time>
      </trkpt>
      <trkpt lat="46.56441" lon="5.30629">
        <ele>210.6</ele>
        <time>2021-10-07T12:41:58Z</time>
      </trkpt>
      <trkpt lat="46.56447" lon="5.30628">
        <ele>210.6</ele>
        <time>2021-10-07T12:41:59Z</time>
      </trkpt>
      <trkpt lat="46.56458" lon="5.30623">
        <ele>210</ele>
        <time>2021-10-07T12:42:01Z</time>
      </trkpt>
      <trkpt lat="46.56464" lon="5.30621">
        <ele>209.8</ele>
        <time>2021-10-07T12:42:02Z</time>
      </trkpt>
      <trkpt lat="46.5647" lon="5.30619">
        <ele>209.4</ele>
        <time>2021-10-07T12:42:03Z</time>
      </trkpt>
      <trkpt lat="46.56476" lon="5.30618">
        <ele>209</ele>
        <time>2021-10-07T12:42:04Z</time>
      </trkpt>
      <trkpt lat="46.56482" lon="5.30617">
        <ele>208.6</ele>
        <time>2021-10-07T12:42:05Z</time>
      </trkpt>
      <trkpt lat="46.56494" lon="5.30614">
        <ele>208.2</ele>
        <time>2021-10-07T12:42:07Z</time>
      </trkpt>
      <trkpt lat="46.56505" lon="5.30612">
        <ele>208.2</ele>
        <time>2021-10-07T12:42:09Z</time>
      </trkpt>
      <trkpt lat="46.56511" lon="5.30611">
        <ele>208</ele>
        <time>2021-10-07T12:42:10Z</time>
      </trkpt>
      <trkpt lat="46.56517" lon="5.3061">
        <ele>208</ele>
        <time>2021-10-07T12:42:11Z</time>
      </trkpt>
      <trkpt lat="46.56528" lon="5.30608">
        <ele>208</ele>
        <time>2021-10-07T12:42:13Z</time>
      </trkpt>
      <trkpt lat="46.5654" lon="5.30606">
        <ele>207.8</ele>
        <time>2021-10-07T12:42:15Z</time>
      </trkpt>
      <trkpt lat="46.56546" lon="5.30605">
        <ele>207.8</ele>
        <time>2021-10-07T12:42:16Z</time>
      </trkpt>
      <trkpt lat="46.56551" lon="5.30604">
        <ele>208</ele>
        <time>2021-10-07T12:42:17Z</time>
      </trkpt>
      <trkpt lat="46.56563" lon="5.30602">
        <ele>208</ele>
        <time>2021-10-07T12:42:19Z</time>
      </trkpt>
      <trkpt lat="46.56575" lon="5.30602">
        <ele>208</ele>
        <time>2021-10-07T12:42:21Z</time>
      </trkpt>
      <trkpt lat="46.56587" lon="5.30602">
        <ele>208</ele>
        <time>2021-10-07T12:42:23Z</time>
      </trkpt>
      <trkpt lat="46.56593" lon="5.30602">
        <ele>208</ele>
        <time>2021-10-07T12:42:24Z</time>
      </trkpt>
      <trkpt lat="46.56599" lon="5.30602">
        <ele>208</ele>
        <time>2021-10-07T12:42:25Z</time>
      </trkpt>
      <trkpt lat="46.56611" lon="5.30603">
        <ele>208</ele>
        <time>2021-10-07T12:42:27Z</time>
      </trkpt>
      <trkpt lat="46.56623" lon="5.30605">
        <ele>208</ele>
        <time>2021-10-07T12:42:29Z</time>
      </trkpt>
      <trkpt lat="46.56635" lon="5.30608">
        <ele>208.2</ele>
        <time>2021-10-07T12:42:31Z</time>
      </trkpt>
      <trkpt lat="46.56647" lon="5.30612">
        <ele>208.2</ele>
        <time>2021-10-07T12:42:33Z</time>
      </trkpt>
      <trkpt lat="46.56659" lon="5.30617">
        <ele>208.2</ele>
        <time>2021-10-07T12:42:35Z</time>
      </trkpt>
      <trkpt lat="46.56671" lon="5.30624">
        <ele>208.2</ele>
        <time>2021-10-07T12:42:37Z</time>
      </trkpt>
      <trkpt lat="46.56677" lon="5.30628">
        <ele>208.2</ele>
        <time>2021-10-07T12:42:38Z</time>
      </trkpt>
      <trkpt lat="46.56683" lon="5.30632">
        <ele>208.2</ele>
        <time>2021-10-07T12:42:39Z</time>
      </trkpt>
      <trkpt lat="46.56694" lon="5.30642">
        <ele>208.2</ele>
        <time>2021-10-07T12:42:41Z</time>
      </trkpt>
      <trkpt lat="46.56705" lon="5.30653">
        <ele>208.2</ele>
        <time>2021-10-07T12:42:43Z</time>
      </trkpt>
      <trkpt lat="46.56715" lon="5.30664">
        <ele>208</ele>
        <time>2021-10-07T12:42:45Z</time>
      </trkpt>
      <trkpt lat="46.56726" lon="5.30678">
        <ele>207.8</ele>
        <time>2021-10-07T12:42:47Z</time>
      </trkpt>
      <trkpt lat="46.56735" lon="5.30692">
        <ele>207.4</ele>
        <time>2021-10-07T12:42:49Z</time>
      </trkpt>
      <trkpt lat="46.56744" lon="5.30708">
        <ele>207</ele>
        <time>2021-10-07T12:42:51Z</time>
      </trkpt>
      <trkpt lat="46.56751" lon="5.30724">
        <ele>206.4</ele>
        <time>2021-10-07T12:42:53Z</time>
      </trkpt>
      <trkpt lat="46.56755" lon="5.30732">
        <ele>205.8</ele>
        <time>2021-10-07T12:42:54Z</time>
      </trkpt>
      <trkpt lat="46.56759" lon="5.3074">
        <ele>205.6</ele>
        <time>2021-10-07T12:42:55Z</time>
      </trkpt>
      <trkpt lat="46.56767" lon="5.30756">
        <ele>205.2</ele>
        <time>2021-10-07T12:42:57Z</time>
      </trkpt>
      <trkpt lat="46.56771" lon="5.30764">
        <ele>205</ele>
        <time>2021-10-07T12:42:58Z</time>
      </trkpt>
      <trkpt lat="46.56775" lon="5.30773">
        <ele>204.8</ele>
        <time>2021-10-07T12:42:59Z</time>
      </trkpt>
      <trkpt lat="46.56782" lon="5.3079">
        <ele>204.2</ele>
        <time>2021-10-07T12:43:01Z</time>
      </trkpt>
      <trkpt lat="46.56789" lon="5.30808">
        <ele>203.6</ele>
        <time>2021-10-07T12:43:03Z</time>
      </trkpt>
      <trkpt lat="46.56794" lon="5.30827">
        <ele>203</ele>
        <time>2021-10-07T12:43:05Z</time>
      </trkpt>
      <trkpt lat="46.56798" lon="5.30847">
        <ele>202.6</ele>
        <time>2021-10-07T12:43:07Z</time>
      </trkpt>
      <trkpt lat="46.56802" lon="5.30867">
        <ele>202.6</ele>
        <time>2021-10-07T12:43:09Z</time>
      </trkpt>
      <trkpt lat="46.56805" lon="5.30887">
        <ele>202.6</ele>
        <time>2021-10-07T12:43:11Z</time>
      </trkpt>
      <trkpt lat="46.56807" lon="5.30896">
        <ele>202.6</ele>
        <time>2021-10-07T12:43:12Z</time>
      </trkpt>
      <trkpt lat="46.56808" lon="5.30906">
        <ele>202.6</ele>
        <time>2021-10-07T12:43:13Z</time>
      </trkpt>
      <trkpt lat="46.5681" lon="5.30927">
        <ele>202.8</ele>
        <time>2021-10-07T12:43:15Z</time>
      </trkpt>
      <trkpt lat="46.5681" lon="5.30947">
        <ele>203</ele>
        <time>2021-10-07T12:43:17Z</time>
      </trkpt>
      <trkpt lat="46.5681" lon="5.30966">
        <ele>203.6</ele>
        <time>2021-10-07T12:43:19Z</time>
      </trkpt>
      <trkpt lat="46.56809" lon="5.30986">
        <ele>203.6</ele>
        <time>2021-10-07T12:43:21Z</time>
      </trkpt>
      <trkpt lat="46.56808" lon="5.31005">
        <ele>203.6</ele>
        <time>2021-10-07T12:43:23Z</time>
      </trkpt>
      <trkpt lat="46.56807" lon="5.31023">
        <ele>203.8</ele>
        <time>2021-10-07T12:43:25Z</time>
      </trkpt>
      <trkpt lat="46.56807" lon="5.31041">
        <ele>203.8</ele>
        <time>2021-10-07T12:43:27Z</time>
      </trkpt>
      <trkpt lat="46.56808" lon="5.3105">
        <ele>204</ele>
        <time>2021-10-07T12:43:28Z</time>
      </trkpt>
      <trkpt lat="46.56809" lon="5.31059">
        <ele>204</ele>
        <time>2021-10-07T12:43:29Z</time>
      </trkpt>
      <trkpt lat="46.56812" lon="5.31077">
        <ele>204</ele>
        <time>2021-10-07T12:43:31Z</time>
      </trkpt>
      <trkpt lat="46.56815" lon="5.31085">
        <ele>204</ele>
        <time>2021-10-07T12:43:32Z</time>
      </trkpt>
      <trkpt lat="46.56818" lon="5.31093">
        <ele>204</ele>
        <time>2021-10-07T12:43:33Z</time>
      </trkpt>
      <trkpt lat="46.56825" lon="5.31108">
        <ele>204.2</ele>
        <time>2021-10-07T12:43:35Z</time>
      </trkpt>
      <trkpt lat="46.56833" lon="5.31122">
        <ele>204.2</ele>
        <time>2021-10-07T12:43:37Z</time>
      </trkpt>
      <trkpt lat="46.56837" lon="5.31128">
        <ele>204.2</ele>
        <time>2021-10-07T12:43:38Z</time>
      </trkpt>
      <trkpt lat="46.56842" lon="5.31134">
        <ele>204.2</ele>
        <time>2021-10-07T12:43:39Z</time>
      </trkpt>
      <trkpt lat="46.56853" lon="5.31145">
        <ele>204.4</ele>
        <time>2021-10-07T12:43:41Z</time>
      </trkpt>
      <trkpt lat="46.56864" lon="5.31153">
        <ele>204.4</ele>
        <time>2021-10-07T12:43:43Z</time>
      </trkpt>
      <trkpt lat="46.56876" lon="5.31158">
        <ele>204.4</ele>
        <time>2021-10-07T12:43:45Z</time>
      </trkpt>
      <trkpt lat="46.56888" lon="5.31162">
        <ele>204.2</ele>
        <time>2021-10-07T12:43:47Z</time>
      </trkpt>
      <trkpt lat="46.56893" lon="5.31162">
        <ele>204.2</ele>
        <time>2021-10-07T12:43:48Z</time>
      </trkpt>
      <trkpt lat="46.56899" lon="5.31163">
        <ele>204.2</ele>
        <time>2021-10-07T12:43:49Z</time>
      </trkpt>
      <trkpt lat="46.5691" lon="5.31163">
        <ele>204.2</ele>
        <time>2021-10-07T12:43:51Z</time>
      </trkpt>
      <trkpt lat="46.5692" lon="5.31165">
        <ele>204</ele>
        <time>2021-10-07T12:43:53Z</time>
      </trkpt>
      <trkpt lat="46.56931" lon="5.31168">
        <ele>203.8</ele>
        <time>2021-10-07T12:43:55Z</time>
      </trkpt>
      <trkpt lat="46.5694" lon="5.31173">
        <ele>203.8</ele>
        <time>2021-10-07T12:43:57Z</time>
      </trkpt>
      <trkpt lat="46.5695" lon="5.31179">
        <ele>203.8</ele>
        <time>2021-10-07T12:43:59Z</time>
      </trkpt>
      <trkpt lat="46.56959" lon="5.31187">
        <ele>203.8</ele>
        <time>2021-10-07T12:44:01Z</time>
      </trkpt>
      <trkpt lat="46.56968" lon="5.31195">
        <ele>203.8</ele>
        <time>2021-10-07T12:44:03Z</time>
      </trkpt>
      <trkpt lat="46.56977" lon="5.31203">
        <ele>203.8</ele>
        <time>2021-10-07T12:44:05Z</time>
      </trkpt>
      <trkpt lat="46.56986" lon="5.31211">
        <ele>204</ele>
        <time>2021-10-07T12:44:07Z</time>
      </trkpt>
      <trkpt lat="46.56995" lon="5.31219">
        <ele>204.4</ele>
        <time>2021-10-07T12:44:09Z</time>
      </trkpt>
      <trkpt lat="46.57004" lon="5.31227">
        <ele>204.6</ele>
        <time>2021-10-07T12:44:11Z</time>
      </trkpt>
      <trkpt lat="46.57009" lon="5.31231">
        <ele>204.6</ele>
        <time>2021-10-07T12:44:12Z</time>
      </trkpt>
      <trkpt lat="46.57013" lon="5.31235">
        <ele>204.8</ele>
        <time>2021-10-07T12:44:13Z</time>
      </trkpt>
      <trkpt lat="46.57022" lon="5.31243">
        <ele>205</ele>
        <time>2021-10-07T12:44:15Z</time>
      </trkpt>
      <trkpt lat="46.57031" lon="5.31251">
        <ele>205.2</ele>
        <time>2021-10-07T12:44:17Z</time>
      </trkpt>
      <trkpt lat="46.57039" lon="5.31259">
        <ele>205.4</ele>
        <time>2021-10-07T12:44:19Z</time>
      </trkpt>
      <trkpt lat="46.57048" lon="5.31267">
        <ele>205.4</ele>
        <time>2021-10-07T12:44:21Z</time>
      </trkpt>
      <trkpt lat="46.57057" lon="5.31274">
        <ele>205.6</ele>
        <time>2021-10-07T12:44:23Z</time>
      </trkpt>
      <trkpt lat="46.57066" lon="5.31282">
        <ele>205.8</ele>
        <time>2021-10-07T12:44:25Z</time>
      </trkpt>
      <trkpt lat="46.57076" lon="5.31288">
        <ele>206</ele>
        <time>2021-10-07T12:44:27Z</time>
      </trkpt>
      <trkpt lat="46.57085" lon="5.31294">
        <ele>206</ele>
        <time>2021-10-07T12:44:29Z</time>
      </trkpt>
      <trkpt lat="46.5709" lon="5.31296">
        <ele>206</ele>
        <time>2021-10-07T12:44:30Z</time>
      </trkpt>
      <trkpt lat="46.57094" lon="5.31298">
        <ele>206</ele>
        <time>2021-10-07T12:44:31Z</time>
      </trkpt>
      <trkpt lat="46.57104" lon="5.313">
        <ele>206</ele>
        <time>2021-10-07T12:44:33Z</time>
      </trkpt>
      <trkpt lat="46.57113" lon="5.31301">
        <ele>206</ele>
        <time>2021-10-07T12:44:35Z</time>
      </trkpt>
      <trkpt lat="46.57122" lon="5.31302">
        <ele>206.2</ele>
        <time>2021-10-07T12:44:37Z</time>
      </trkpt>
      <trkpt lat="46.57126" lon="5.31302">
        <ele>206.2</ele>
        <time>2021-10-07T12:44:38Z</time>
      </trkpt>
      <trkpt lat="46.57131" lon="5.31302">
        <ele>206.4</ele>
        <time>2021-10-07T12:44:39Z</time>
      </trkpt>
      <trkpt lat="46.57139" lon="5.31302">
        <ele>206.6</ele>
        <time>2021-10-07T12:44:41Z</time>
      </trkpt>
      <trkpt lat="46.57143" lon="5.31302">
        <ele>207.2</ele>
        <time>2021-10-07T12:44:42Z</time>
      </trkpt>
      <trkpt lat="46.57148" lon="5.31303">
        <ele>207.6</ele>
        <time>2021-10-07T12:44:43Z</time>
      </trkpt>
      <trkpt lat="46.57156" lon="5.31304">
        <ele>208</ele>
        <time>2021-10-07T12:44:45Z</time>
      </trkpt>
      <trkpt lat="46.57161" lon="5.31305">
        <ele>208.2</ele>
        <time>2021-10-07T12:44:46Z</time>
      </trkpt>
      <trkpt lat="46.57165" lon="5.31306">
        <ele>208.4</ele>
        <time>2021-10-07T12:44:47Z</time>
      </trkpt>
      <trkpt lat="46.57173" lon="5.3131">
        <ele>208.6</ele>
        <time>2021-10-07T12:44:49Z</time>
      </trkpt>
      <trkpt lat="46.57182" lon="5.31316">
        <ele>209.4</ele>
        <time>2021-10-07T12:44:51Z</time>
      </trkpt>
      <trkpt lat="46.57189" lon="5.31323">
        <ele>210</ele>
        <time>2021-10-07T12:44:53Z</time>
      </trkpt>
      <trkpt lat="46.57196" lon="5.3133">
        <ele>210.2</ele>
        <time>2021-10-07T12:44:55Z</time>
      </trkpt>
      <trkpt lat="46.57203" lon="5.31339">
        <ele>210.2</ele>
        <time>2021-10-07T12:44:57Z</time>
      </trkpt>
      <trkpt lat="46.57206" lon="5.31344">
        <ele>210.4</ele>
        <time>2021-10-07T12:44:58Z</time>
      </trkpt>
      <trkpt lat="46.57209" lon="5.31349">
        <ele>210.4</ele>
        <time>2021-10-07T12:44:59Z</time>
      </trkpt>
      <trkpt lat="46.57213" lon="5.31354">
        <ele>210.4</ele>
        <time>2021-10-07T12:45:00Z</time>
      </trkpt>
      <trkpt lat="46.57216" lon="5.3136">
        <ele>210.6</ele>
        <time>2021-10-07T12:45:01Z</time>
      </trkpt>
      <trkpt lat="46.57222" lon="5.31371">
        <ele>210.6</ele>
        <time>2021-10-07T12:45:03Z</time>
      </trkpt>
      <trkpt lat="46.57227" lon="5.31384">
        <ele>211.4</ele>
        <time>2021-10-07T12:45:05Z</time>
      </trkpt>
      <trkpt lat="46.57231" lon="5.31397">
        <ele>211.8</ele>
        <time>2021-10-07T12:45:07Z</time>
      </trkpt>
      <trkpt lat="46.57233" lon="5.31411">
        <ele>212.8</ele>
        <time>2021-10-07T12:45:09Z</time>
      </trkpt>
      <trkpt lat="46.57236" lon="5.31424">
        <ele>213</ele>
        <time>2021-10-07T12:45:11Z</time>
      </trkpt>
      <trkpt lat="46.5724" lon="5.31437">
        <ele>213.2</ele>
        <time>2021-10-07T12:45:13Z</time>
      </trkpt>
      <trkpt lat="46.57243" lon="5.3145">
        <ele>213.4</ele>
        <time>2021-10-07T12:45:15Z</time>
      </trkpt>
      <trkpt lat="46.57248" lon="5.31462">
        <ele>213.6</ele>
        <time>2021-10-07T12:45:17Z</time>
      </trkpt>
      <trkpt lat="46.57254" lon="5.31474">
        <ele>213.6</ele>
        <time>2021-10-07T12:45:19Z</time>
      </trkpt>
      <trkpt lat="46.5726" lon="5.31485">
        <ele>213.6</ele>
        <time>2021-10-07T12:45:21Z</time>
      </trkpt>
      <trkpt lat="46.57268" lon="5.31497">
        <ele>213.8</ele>
        <time>2021-10-07T12:45:23Z</time>
      </trkpt>
      <trkpt lat="46.57272" lon="5.31503">
        <ele>213.8</ele>
        <time>2021-10-07T12:45:24Z</time>
      </trkpt>
      <trkpt lat="46.57276" lon="5.31509">
        <ele>213.8</ele>
        <time>2021-10-07T12:45:25Z</time>
      </trkpt>
      <trkpt lat="46.57284" lon="5.3152">
        <ele>214</ele>
        <time>2021-10-07T12:45:27Z</time>
      </trkpt>
      <trkpt lat="46.57291" lon="5.31532">
        <ele>214</ele>
        <time>2021-10-07T12:45:29Z</time>
      </trkpt>
      <trkpt lat="46.57299" lon="5.31543">
        <ele>213.6</ele>
        <time>2021-10-07T12:45:31Z</time>
      </trkpt>
      <trkpt lat="46.57306" lon="5.31555">
        <ele>213.8</ele>
        <time>2021-10-07T12:45:33Z</time>
      </trkpt>
      <trkpt lat="46.57314" lon="5.31567">
        <ele>213.6</ele>
        <time>2021-10-07T12:45:35Z</time>
      </trkpt>
      <trkpt lat="46.57322" lon="5.31578">
        <ele>213.4</ele>
        <time>2021-10-07T12:45:37Z</time>
      </trkpt>
      <trkpt lat="46.57331" lon="5.31589">
        <ele>213.2</ele>
        <time>2021-10-07T12:45:39Z</time>
      </trkpt>
      <trkpt lat="46.5734" lon="5.31599">
        <ele>213.2</ele>
        <time>2021-10-07T12:45:41Z</time>
      </trkpt>
      <trkpt lat="46.57349" lon="5.31608">
        <ele>213.2</ele>
        <time>2021-10-07T12:45:43Z</time>
      </trkpt>
      <trkpt lat="46.5736" lon="5.31614">
        <ele>213</ele>
        <time>2021-10-07T12:45:45Z</time>
      </trkpt>
      <trkpt lat="46.57366" lon="5.31616">
        <ele>213</ele>
        <time>2021-10-07T12:45:46Z</time>
      </trkpt>
      <trkpt lat="46.57372" lon="5.31618">
        <ele>212.8</ele>
        <time>2021-10-07T12:45:47Z</time>
      </trkpt>
      <trkpt lat="46.57377" lon="5.31619">
        <ele>212.8</ele>
        <time>2021-10-07T12:45:48Z</time>
      </trkpt>
      <trkpt lat="46.57383" lon="5.31619">
        <ele>212.8</ele>
        <time>2021-10-07T12:45:49Z</time>
      </trkpt>
      <trkpt lat="46.57395" lon="5.3162">
        <ele>212.8</ele>
        <time>2021-10-07T12:45:51Z</time>
      </trkpt>
      <trkpt lat="46.574" lon="5.3162">
        <ele>212.8</ele>
        <time>2021-10-07T12:45:52Z</time>
      </trkpt>
      <trkpt lat="46.57406" lon="5.3162">
        <ele>212.8</ele>
        <time>2021-10-07T12:45:53Z</time>
      </trkpt>
      <trkpt lat="46.57418" lon="5.31619">
        <ele>212.8</ele>
        <time>2021-10-07T12:45:55Z</time>
      </trkpt>
      <trkpt lat="46.5743" lon="5.31618">
        <ele>212.6</ele>
        <time>2021-10-07T12:45:57Z</time>
      </trkpt>
      <trkpt lat="46.57442" lon="5.31617">
        <ele>212.6</ele>
        <time>2021-10-07T12:45:59Z</time>
      </trkpt>
      <trkpt lat="46.57455" lon="5.31617">
        <ele>212.4</ele>
        <time>2021-10-07T12:46:01Z</time>
      </trkpt>
      <trkpt lat="46.57468" lon="5.31616">
        <ele>212.4</ele>
        <time>2021-10-07T12:46:03Z</time>
      </trkpt>
      <trkpt lat="46.57481" lon="5.31616">
        <ele>212.4</ele>
        <time>2021-10-07T12:46:05Z</time>
      </trkpt>
      <trkpt lat="46.57493" lon="5.31615">
        <ele>212.4</ele>
        <time>2021-10-07T12:46:07Z</time>
      </trkpt>
      <trkpt lat="46.57506" lon="5.31613">
        <ele>212.4</ele>
        <time>2021-10-07T12:46:09Z</time>
      </trkpt>
      <trkpt lat="46.57518" lon="5.31612">
        <ele>212.2</ele>
        <time>2021-10-07T12:46:11Z</time>
      </trkpt>
      <trkpt lat="46.57531" lon="5.31609">
        <ele>212.2</ele>
        <time>2021-10-07T12:46:13Z</time>
      </trkpt>
      <trkpt lat="46.57543" lon="5.31607">
        <ele>212.2</ele>
        <time>2021-10-07T12:46:15Z</time>
      </trkpt>
      <trkpt lat="46.57556" lon="5.31605">
        <ele>212.2</ele>
        <time>2021-10-07T12:46:17Z</time>
      </trkpt>
      <trkpt lat="46.57569" lon="5.31603">
        <ele>212.2</ele>
        <time>2021-10-07T12:46:19Z</time>
      </trkpt>
      <trkpt lat="46.57581" lon="5.31601">
        <ele>212.2</ele>
        <time>2021-10-07T12:46:21Z</time>
      </trkpt>
      <trkpt lat="46.57594" lon="5.316">
        <ele>212.2</ele>
        <time>2021-10-07T12:46:23Z</time>
      </trkpt>
      <trkpt lat="46.57606" lon="5.31598">
        <ele>212.2</ele>
        <time>2021-10-07T12:46:25Z</time>
      </trkpt>
      <trkpt lat="46.57619" lon="5.31596">
        <ele>212.4</ele>
        <time>2021-10-07T12:46:27Z</time>
      </trkpt>
      <trkpt lat="46.57631" lon="5.31594">
        <ele>212.4</ele>
        <time>2021-10-07T12:46:29Z</time>
      </trkpt>
      <trkpt lat="46.57637" lon="5.31593">
        <ele>212.4</ele>
        <time>2021-10-07T12:46:30Z</time>
      </trkpt>
      <trkpt lat="46.57644" lon="5.31592">
        <ele>212.4</ele>
        <time>2021-10-07T12:46:31Z</time>
      </trkpt>
      <trkpt lat="46.57657" lon="5.3159">
        <ele>212.6</ele>
        <time>2021-10-07T12:46:33Z</time>
      </trkpt>
      <trkpt lat="46.5767" lon="5.31588">
        <ele>212.6</ele>
        <time>2021-10-07T12:46:35Z</time>
      </trkpt>
      <trkpt lat="46.57683" lon="5.31586">
        <ele>212.6</ele>
        <time>2021-10-07T12:46:37Z</time>
      </trkpt>
      <trkpt lat="46.57696" lon="5.31583">
        <ele>212.8</ele>
        <time>2021-10-07T12:46:39Z</time>
      </trkpt>
      <trkpt lat="46.57709" lon="5.31578">
        <ele>213</ele>
        <time>2021-10-07T12:46:41Z</time>
      </trkpt>
      <trkpt lat="46.57722" lon="5.31572">
        <ele>213</ele>
        <time>2021-10-07T12:46:43Z</time>
      </trkpt>
      <trkpt lat="46.57734" lon="5.31564">
        <ele>213</ele>
        <time>2021-10-07T12:46:45Z</time>
      </trkpt>
      <trkpt lat="46.57747" lon="5.31555">
        <ele>213</ele>
        <time>2021-10-07T12:46:47Z</time>
      </trkpt>
      <trkpt lat="46.5776" lon="5.31545">
        <ele>212.8</ele>
        <time>2021-10-07T12:46:49Z</time>
      </trkpt>
      <trkpt lat="46.57773" lon="5.31534">
        <ele>212.8</ele>
        <time>2021-10-07T12:46:51Z</time>
      </trkpt>
      <trkpt lat="46.57786" lon="5.31524">
        <ele>212.6</ele>
        <time>2021-10-07T12:46:53Z</time>
      </trkpt>
      <trkpt lat="46.57799" lon="5.31514">
        <ele>212.2</ele>
        <time>2021-10-07T12:46:55Z</time>
      </trkpt>
      <trkpt lat="46.57813" lon="5.31504">
        <ele>211.8</ele>
        <time>2021-10-07T12:46:57Z</time>
      </trkpt>
      <trkpt lat="46.57827" lon="5.31496">
        <ele>211.6</ele>
        <time>2021-10-07T12:46:59Z</time>
      </trkpt>
      <trkpt lat="46.57834" lon="5.31493">
        <ele>211.6</ele>
        <time>2021-10-07T12:47:00Z</time>
      </trkpt>
      <trkpt lat="46.57842" lon="5.3149">
        <ele>211.2</ele>
        <time>2021-10-07T12:47:01Z</time>
      </trkpt>
      <trkpt lat="46.57849" lon="5.31487">
        <ele>210.8</ele>
        <time>2021-10-07T12:47:02Z</time>
      </trkpt>
      <trkpt lat="46.57856" lon="5.31484">
        <ele>210.6</ele>
        <time>2021-10-07T12:47:03Z</time>
      </trkpt>
      <trkpt lat="46.5787" lon="5.3148">
        <ele>210</ele>
        <time>2021-10-07T12:47:05Z</time>
      </trkpt>
      <trkpt lat="46.57878" lon="5.31478">
        <ele>209.8</ele>
        <time>2021-10-07T12:47:06Z</time>
      </trkpt>
      <trkpt lat="46.57885" lon="5.31475">
        <ele>209.6</ele>
        <time>2021-10-07T12:47:07Z</time>
      </trkpt>
      <trkpt lat="46.57899" lon="5.31471">
        <ele>209.4</ele>
        <time>2021-10-07T12:47:09Z</time>
      </trkpt>
      <trkpt lat="46.57913" lon="5.31467">
        <ele>209.2</ele>
        <time>2021-10-07T12:47:11Z</time>
      </trkpt>
      <trkpt lat="46.57927" lon="5.31463">
        <ele>209</ele>
        <time>2021-10-07T12:47:13Z</time>
      </trkpt>
      <trkpt lat="46.57941" lon="5.31458">
        <ele>208.6</ele>
        <time>2021-10-07T12:47:15Z</time>
      </trkpt>
      <trkpt lat="46.57955" lon="5.31454">
        <ele>208.4</ele>
        <time>2021-10-07T12:47:17Z</time>
      </trkpt>
      <trkpt lat="46.57969" lon="5.3145">
        <ele>208.2</ele>
        <time>2021-10-07T12:47:19Z</time>
      </trkpt>
      <trkpt lat="46.57976" lon="5.31448">
        <ele>208.2</ele>
        <time>2021-10-07T12:47:20Z</time>
      </trkpt>
      <trkpt lat="46.57983" lon="5.31445">
        <ele>208.2</ele>
        <time>2021-10-07T12:47:21Z</time>
      </trkpt>
      <trkpt lat="46.57997" lon="5.31441">
        <ele>207.8</ele>
        <time>2021-10-07T12:47:23Z</time>
      </trkpt>
      <trkpt lat="46.58004" lon="5.31439">
        <ele>207.6</ele>
        <time>2021-10-07T12:47:24Z</time>
      </trkpt>
      <trkpt lat="46.58011" lon="5.31438">
        <ele>207.4</ele>
        <time>2021-10-07T12:47:25Z</time>
      </trkpt>
      <trkpt lat="46.58024" lon="5.31434">
        <ele>207.2</ele>
        <time>2021-10-07T12:47:27Z</time>
      </trkpt>
      <trkpt lat="46.5803" lon="5.31432">
        <ele>207</ele>
        <time>2021-10-07T12:47:28Z</time>
      </trkpt>
      <trkpt lat="46.58037" lon="5.31431">
        <ele>207</ele>
        <time>2021-10-07T12:47:29Z</time>
      </trkpt>
      <trkpt lat="46.58049" lon="5.3143">
        <ele>206.8</ele>
        <time>2021-10-07T12:47:31Z</time>
      </trkpt>
      <trkpt lat="46.58061" lon="5.31429">
        <ele>206.8</ele>
        <time>2021-10-07T12:47:33Z</time>
      </trkpt>
      <trkpt lat="46.58067" lon="5.3143">
        <ele>206.8</ele>
        <time>2021-10-07T12:47:34Z</time>
      </trkpt>
      <trkpt lat="46.58073" lon="5.3143">
        <ele>206.8</ele>
        <time>2021-10-07T12:47:35Z</time>
      </trkpt>
      <trkpt lat="46.58085" lon="5.31431">
        <ele>206.8</ele>
        <time>2021-10-07T12:47:37Z</time>
      </trkpt>
      <trkpt lat="46.58096" lon="5.31433">
        <ele>206.8</ele>
        <time>2021-10-07T12:47:39Z</time>
      </trkpt>
      <trkpt lat="46.58108" lon="5.31434">
        <ele>207.2</ele>
        <time>2021-10-07T12:47:41Z</time>
      </trkpt>
      <trkpt lat="46.58119" lon="5.31434">
        <ele>207.4</ele>
        <time>2021-10-07T12:47:43Z</time>
      </trkpt>
      <trkpt lat="46.58131" lon="5.31433">
        <ele>207.6</ele>
        <time>2021-10-07T12:47:45Z</time>
      </trkpt>
      <trkpt lat="46.58143" lon="5.31429">
        <ele>207.8</ele>
        <time>2021-10-07T12:47:47Z</time>
      </trkpt>
      <trkpt lat="46.58148" lon="5.31426">
        <ele>208</ele>
        <time>2021-10-07T12:47:48Z</time>
      </trkpt>
      <trkpt lat="46.58154" lon="5.31422">
        <ele>208</ele>
        <time>2021-10-07T12:47:49Z</time>
      </trkpt>
      <trkpt lat="46.58159" lon="5.31418">
        <ele>208</ele>
        <time>2021-10-07T12:47:50Z</time>
      </trkpt>
      <trkpt lat="46.58165" lon="5.31413">
        <ele>208</ele>
        <time>2021-10-07T12:47:51Z</time>
      </trkpt>
      <trkpt lat="46.58177" lon="5.31404">
        <ele>208</ele>
        <time>2021-10-07T12:47:53Z</time>
      </trkpt>
      <trkpt lat="46.58182" lon="5.314">
        <ele>208</ele>
        <time>2021-10-07T12:47:54Z</time>
      </trkpt>
      <trkpt lat="46.58188" lon="5.31395">
        <ele>208</ele>
        <time>2021-10-07T12:47:55Z</time>
      </trkpt>
      <trkpt lat="46.582" lon="5.31386">
        <ele>207.8</ele>
        <time>2021-10-07T12:47:57Z</time>
      </trkpt>
      <trkpt lat="46.58212" lon="5.31376">
        <ele>207.6</ele>
        <time>2021-10-07T12:47:59Z</time>
      </trkpt>
      <trkpt lat="46.58224" lon="5.31366">
        <ele>207.4</ele>
        <time>2021-10-07T12:48:01Z</time>
      </trkpt>
      <trkpt lat="46.5823" lon="5.31361">
        <ele>207.2</ele>
        <time>2021-10-07T12:48:02Z</time>
      </trkpt>
      <trkpt lat="46.58236" lon="5.31356">
        <ele>207.2</ele>
        <time>2021-10-07T12:48:03Z</time>
      </trkpt>
      <trkpt lat="46.58249" lon="5.31346">
        <ele>207.2</ele>
        <time>2021-10-07T12:48:05Z</time>
      </trkpt>
      <trkpt lat="46.58261" lon="5.31336">
        <ele>206.8</ele>
        <time>2021-10-07T12:48:07Z</time>
      </trkpt>
      <trkpt lat="46.58268" lon="5.31331">
        <ele>206.6</ele>
        <time>2021-10-07T12:48:08Z</time>
      </trkpt>
      <trkpt lat="46.58274" lon="5.31326">
        <ele>206.2</ele>
        <time>2021-10-07T12:48:09Z</time>
      </trkpt>
      <trkpt lat="46.58287" lon="5.31315">
        <ele>205.8</ele>
        <time>2021-10-07T12:48:11Z</time>
      </trkpt>
      <trkpt lat="46.58293" lon="5.3131">
        <ele>205.6</ele>
        <time>2021-10-07T12:48:12Z</time>
      </trkpt>
      <trkpt lat="46.58299" lon="5.31305">
        <ele>205.4</ele>
        <time>2021-10-07T12:48:13Z</time>
      </trkpt>
      <trkpt lat="46.58312" lon="5.31295">
        <ele>205.2</ele>
        <time>2021-10-07T12:48:15Z</time>
      </trkpt>
      <trkpt lat="46.58325" lon="5.31285">
        <ele>205.2</ele>
        <time>2021-10-07T12:48:17Z</time>
      </trkpt>
      <trkpt lat="46.58338" lon="5.31276">
        <ele>205</ele>
        <time>2021-10-07T12:48:19Z</time>
      </trkpt>
      <trkpt lat="46.58352" lon="5.31268">
        <ele>205</ele>
        <time>2021-10-07T12:48:21Z</time>
      </trkpt>
      <trkpt lat="46.58366" lon="5.31261">
        <ele>204.8</ele>
        <time>2021-10-07T12:48:23Z</time>
      </trkpt>
      <trkpt lat="46.58381" lon="5.31254">
        <ele>204.8</ele>
        <time>2021-10-07T12:48:25Z</time>
      </trkpt>
      <trkpt lat="46.58395" lon="5.31248">
        <ele>204.8</ele>
        <time>2021-10-07T12:48:27Z</time>
      </trkpt>
      <trkpt lat="46.58408" lon="5.31242">
        <ele>204.6</ele>
        <time>2021-10-07T12:48:29Z</time>
      </trkpt>
      <trkpt lat="46.58415" lon="5.31239">
        <ele>204.8</ele>
        <time>2021-10-07T12:48:30Z</time>
      </trkpt>
      <trkpt lat="46.58422" lon="5.31236">
        <ele>204.8</ele>
        <time>2021-10-07T12:48:31Z</time>
      </trkpt>
      <trkpt lat="46.58436" lon="5.31231">
        <ele>204.8</ele>
        <time>2021-10-07T12:48:33Z</time>
      </trkpt>
      <trkpt lat="46.58449" lon="5.31225">
        <ele>204.8</ele>
        <time>2021-10-07T12:48:35Z</time>
      </trkpt>
      <trkpt lat="46.58462" lon="5.31219">
        <ele>204.8</ele>
        <time>2021-10-07T12:48:37Z</time>
      </trkpt>
      <trkpt lat="46.58476" lon="5.31214">
        <ele>204.6</ele>
        <time>2021-10-07T12:48:39Z</time>
      </trkpt>
      <trkpt lat="46.58489" lon="5.31208">
        <ele>204.6</ele>
        <time>2021-10-07T12:48:41Z</time>
      </trkpt>
      <trkpt lat="46.58496" lon="5.31205">
        <ele>204.6</ele>
        <time>2021-10-07T12:48:42Z</time>
      </trkpt>
      <trkpt lat="46.58503" lon="5.31202">
        <ele>204.6</ele>
        <time>2021-10-07T12:48:43Z</time>
      </trkpt>
      <trkpt lat="46.58518" lon="5.31196">
        <ele>204.6</ele>
        <time>2021-10-07T12:48:45Z</time>
      </trkpt>
      <trkpt lat="46.58532" lon="5.31189">
        <ele>204.6</ele>
        <time>2021-10-07T12:48:47Z</time>
      </trkpt>
      <trkpt lat="46.58546" lon="5.31181">
        <ele>204.6</ele>
        <time>2021-10-07T12:48:49Z</time>
      </trkpt>
      <trkpt lat="46.58559" lon="5.31171">
        <ele>204.6</ele>
        <time>2021-10-07T12:48:51Z</time>
      </trkpt>
      <trkpt lat="46.58572" lon="5.3116">
        <ele>204.6</ele>
        <time>2021-10-07T12:48:53Z</time>
      </trkpt>
      <trkpt lat="46.58585" lon="5.31148">
        <ele>204.4</ele>
        <time>2021-10-07T12:48:55Z</time>
      </trkpt>
      <trkpt lat="46.58597" lon="5.31135">
        <ele>204.4</ele>
        <time>2021-10-07T12:48:57Z</time>
      </trkpt>
      <trkpt lat="46.5861" lon="5.31122">
        <ele>204.4</ele>
        <time>2021-10-07T12:48:59Z</time>
      </trkpt>
      <trkpt lat="46.58623" lon="5.3111">
        <ele>204.2</ele>
        <time>2021-10-07T12:49:01Z</time>
      </trkpt>
      <trkpt lat="46.58635" lon="5.31097">
        <ele>203.8</ele>
        <time>2021-10-07T12:49:03Z</time>
      </trkpt>
      <trkpt lat="46.58647" lon="5.31084">
        <ele>203.6</ele>
        <time>2021-10-07T12:49:05Z</time>
      </trkpt>
      <trkpt lat="46.58659" lon="5.31071">
        <ele>203.6</ele>
        <time>2021-10-07T12:49:07Z</time>
      </trkpt>
      <trkpt lat="46.58671" lon="5.31058">
        <ele>203.4</ele>
        <time>2021-10-07T12:49:09Z</time>
      </trkpt>
      <trkpt lat="46.58683" lon="5.31046">
        <ele>203.4</ele>
        <time>2021-10-07T12:49:11Z</time>
      </trkpt>
      <trkpt lat="46.58694" lon="5.31034">
        <ele>203.2</ele>
        <time>2021-10-07T12:49:13Z</time>
      </trkpt>
      <trkpt lat="46.587" lon="5.31028">
        <ele>203.4</ele>
        <time>2021-10-07T12:49:14Z</time>
      </trkpt>
      <trkpt lat="46.58705" lon="5.31022">
        <ele>203.4</ele>
        <time>2021-10-07T12:49:15Z</time>
      </trkpt>
      <trkpt lat="46.58717" lon="5.31011">
        <ele>203.4</ele>
        <time>2021-10-07T12:49:17Z</time>
      </trkpt>
      <trkpt lat="46.58728" lon="5.30999">
        <ele>203.4</ele>
        <time>2021-10-07T12:49:19Z</time>
      </trkpt>
      <trkpt lat="46.58734" lon="5.30993">
        <ele>203.4</ele>
        <time>2021-10-07T12:49:20Z</time>
      </trkpt>
      <trkpt lat="46.58739" lon="5.30987">
        <ele>203.4</ele>
        <time>2021-10-07T12:49:21Z</time>
      </trkpt>
      <trkpt lat="46.5875" lon="5.30976">
        <ele>203.4</ele>
        <time>2021-10-07T12:49:23Z</time>
      </trkpt>
      <trkpt lat="46.5876" lon="5.30965">
        <ele>203.6</ele>
        <time>2021-10-07T12:49:25Z</time>
      </trkpt>
      <trkpt lat="46.5877" lon="5.30955">
        <ele>203.6</ele>
        <time>2021-10-07T12:49:27Z</time>
      </trkpt>
      <trkpt lat="46.58776" lon="5.30949">
        <ele>203.6</ele>
        <time>2021-10-07T12:49:28Z</time>
      </trkpt>
      <trkpt lat="46.58781" lon="5.30944">
        <ele>203.6</ele>
        <time>2021-10-07T12:49:29Z</time>
      </trkpt>
      <trkpt lat="46.58791" lon="5.30933">
        <ele>204</ele>
        <time>2021-10-07T12:49:31Z</time>
      </trkpt>
      <trkpt lat="46.58796" lon="5.30928">
        <ele>204.4</ele>
        <time>2021-10-07T12:49:32Z</time>
      </trkpt>
      <trkpt lat="46.58801" lon="5.30923">
        <ele>204.6</ele>
        <time>2021-10-07T12:49:33Z</time>
      </trkpt>
      <trkpt lat="46.58812" lon="5.30915">
        <ele>205</ele>
        <time>2021-10-07T12:49:35Z</time>
      </trkpt>
      <trkpt lat="46.58818" lon="5.30911">
        <ele>205.2</ele>
        <time>2021-10-07T12:49:36Z</time>
      </trkpt>
      <trkpt lat="46.58824" lon="5.30908">
        <ele>205.4</ele>
        <time>2021-10-07T12:49:37Z</time>
      </trkpt>
      <trkpt lat="46.58836" lon="5.30904">
        <ele>205.8</ele>
        <time>2021-10-07T12:49:39Z</time>
      </trkpt>
      <trkpt lat="46.58848" lon="5.30901">
        <ele>206.2</ele>
        <time>2021-10-07T12:49:41Z</time>
      </trkpt>
      <trkpt lat="46.58862" lon="5.30898">
        <ele>206.4</ele>
        <time>2021-10-07T12:49:43Z</time>
      </trkpt>
      <trkpt lat="46.58875" lon="5.30897">
        <ele>206.4</ele>
        <time>2021-10-07T12:49:45Z</time>
      </trkpt>
      <trkpt lat="46.58888" lon="5.30895">
        <ele>206.6</ele>
        <time>2021-10-07T12:49:47Z</time>
      </trkpt>
      <trkpt lat="46.58901" lon="5.30893">
        <ele>206.6</ele>
        <time>2021-10-07T12:49:49Z</time>
      </trkpt>
      <trkpt lat="46.58914" lon="5.30892">
        <ele>206.6</ele>
        <time>2021-10-07T12:49:51Z</time>
      </trkpt>
      <trkpt lat="46.58927" lon="5.3089">
        <ele>206.8</ele>
        <time>2021-10-07T12:49:53Z</time>
      </trkpt>
      <trkpt lat="46.5894" lon="5.30889">
        <ele>206.8</ele>
        <time>2021-10-07T12:49:55Z</time>
      </trkpt>
      <trkpt lat="46.58947" lon="5.30888">
        <ele>206.8</ele>
        <time>2021-10-07T12:49:56Z</time>
      </trkpt>
      <trkpt lat="46.58954" lon="5.30888">
        <ele>206.6</ele>
        <time>2021-10-07T12:49:57Z</time>
      </trkpt>
      <trkpt lat="46.58968" lon="5.30886">
        <ele>206.6</ele>
        <time>2021-10-07T12:49:59Z</time>
      </trkpt>
      <trkpt lat="46.58982" lon="5.30884">
        <ele>206.6</ele>
        <time>2021-10-07T12:50:01Z</time>
      </trkpt>
      <trkpt lat="46.58997" lon="5.30883">
        <ele>206.4</ele>
        <time>2021-10-07T12:50:03Z</time>
      </trkpt>
      <trkpt lat="46.59012" lon="5.30881">
        <ele>206</ele>
        <time>2021-10-07T12:50:05Z</time>
      </trkpt>
      <trkpt lat="46.5902" lon="5.3088">
        <ele>205.6</ele>
        <time>2021-10-07T12:50:06Z</time>
      </trkpt>
      <trkpt lat="46.59028" lon="5.30879">
        <ele>205</ele>
        <time>2021-10-07T12:50:07Z</time>
      </trkpt>
      <trkpt lat="46.59036" lon="5.30877">
        <ele>204</ele>
        <time>2021-10-07T12:50:08Z</time>
      </trkpt>
      <trkpt lat="46.59044" lon="5.30876">
        <ele>203.6</ele>
        <time>2021-10-07T12:50:09Z</time>
      </trkpt>
      <trkpt lat="46.5906" lon="5.30874">
        <ele>202.6</ele>
        <time>2021-10-07T12:50:11Z</time>
      </trkpt>
      <trkpt lat="46.59077" lon="5.30872">
        <ele>202</ele>
        <time>2021-10-07T12:50:13Z</time>
      </trkpt>
      <trkpt lat="46.59085" lon="5.30871">
        <ele>201.8</ele>
        <time>2021-10-07T12:50:14Z</time>
      </trkpt>
      <trkpt lat="46.59094" lon="5.3087">
        <ele>201.6</ele>
        <time>2021-10-07T12:50:15Z</time>
      </trkpt>
      <trkpt lat="46.59103" lon="5.30868">
        <ele>201.2</ele>
        <time>2021-10-07T12:50:16Z</time>
      </trkpt>
      <trkpt lat="46.59111" lon="5.30867">
        <ele>200.8</ele>
        <time>2021-10-07T12:50:17Z</time>
      </trkpt>
      <trkpt lat="46.59129" lon="5.30865">
        <ele>199.6</ele>
        <time>2021-10-07T12:50:19Z</time>
      </trkpt>
      <trkpt lat="46.59146" lon="5.30862">
        <ele>198.6</ele>
        <time>2021-10-07T12:50:21Z</time>
      </trkpt>
      <trkpt lat="46.59155" lon="5.30861">
        <ele>198.2</ele>
        <time>2021-10-07T12:50:22Z</time>
      </trkpt>
      <trkpt lat="46.59163" lon="5.3086">
        <ele>197.6</ele>
        <time>2021-10-07T12:50:23Z</time>
      </trkpt>
      <trkpt lat="46.59172" lon="5.30859">
        <ele>197.2</ele>
        <time>2021-10-07T12:50:24Z</time>
      </trkpt>
      <trkpt lat="46.59181" lon="5.30858">
        <ele>196.8</ele>
        <time>2021-10-07T12:50:25Z</time>
      </trkpt>
      <trkpt lat="46.59198" lon="5.30856">
        <ele>195.8</ele>
        <time>2021-10-07T12:50:27Z</time>
      </trkpt>
      <trkpt lat="46.59215" lon="5.30854">
        <ele>194.8</ele>
        <time>2021-10-07T12:50:29Z</time>
      </trkpt>
      <trkpt lat="46.59233" lon="5.30852">
        <ele>194.2</ele>
        <time>2021-10-07T12:50:31Z</time>
      </trkpt>
      <trkpt lat="46.59251" lon="5.30849">
        <ele>194</ele>
        <time>2021-10-07T12:50:33Z</time>
      </trkpt>
      <trkpt lat="46.59269" lon="5.30847">
        <ele>193.8</ele>
        <time>2021-10-07T12:50:35Z</time>
      </trkpt>
      <trkpt lat="46.59278" lon="5.30846">
        <ele>193.4</ele>
        <time>2021-10-07T12:50:36Z</time>
      </trkpt>
      <trkpt lat="46.59287" lon="5.30845">
        <ele>193.2</ele>
        <time>2021-10-07T12:50:37Z</time>
      </trkpt>
      <trkpt lat="46.59305" lon="5.30842">
        <ele>192.6</ele>
        <time>2021-10-07T12:50:39Z</time>
      </trkpt>
      <trkpt lat="46.59315" lon="5.30841">
        <ele>192</ele>
        <time>2021-10-07T12:50:40Z</time>
      </trkpt>
      <trkpt lat="46.59324" lon="5.3084">
        <ele>191.6</ele>
        <time>2021-10-07T12:50:41Z</time>
      </trkpt>
      <trkpt lat="46.59342" lon="5.30838">
        <ele>191.2</ele>
        <time>2021-10-07T12:50:43Z</time>
      </trkpt>
      <trkpt lat="46.59351" lon="5.30836">
        <ele>191</ele>
        <time>2021-10-07T12:50:44Z</time>
      </trkpt>
      <trkpt lat="46.59361" lon="5.30835">
        <ele>190.6</ele>
        <time>2021-10-07T12:50:45Z</time>
      </trkpt>
      <trkpt lat="46.59379" lon="5.30833">
        <ele>190</ele>
        <time>2021-10-07T12:50:47Z</time>
      </trkpt>
      <trkpt lat="46.59388" lon="5.30832">
        <ele>189.6</ele>
        <time>2021-10-07T12:50:48Z</time>
      </trkpt>
      <trkpt lat="46.59397" lon="5.3083">
        <ele>189.4</ele>
        <time>2021-10-07T12:50:49Z</time>
      </trkpt>
      <trkpt lat="46.59415" lon="5.30828">
        <ele>188.6</ele>
        <time>2021-10-07T12:50:51Z</time>
      </trkpt>
      <trkpt lat="46.59433" lon="5.30825">
        <ele>187.8</ele>
        <time>2021-10-07T12:50:53Z</time>
      </trkpt>
      <trkpt lat="46.59442" lon="5.30824">
        <ele>187.6</ele>
        <time>2021-10-07T12:50:54Z</time>
      </trkpt>
      <trkpt lat="46.5945" lon="5.30823">
        <ele>187.2</ele>
        <time>2021-10-07T12:50:55Z</time>
      </trkpt>
      <trkpt lat="46.59467" lon="5.30821">
        <ele>186.8</ele>
        <time>2021-10-07T12:50:57Z</time>
      </trkpt>
      <trkpt lat="46.59475" lon="5.3082">
        <ele>186.4</ele>
        <time>2021-10-07T12:50:58Z</time>
      </trkpt>
      <trkpt lat="46.59484" lon="5.30819">
        <ele>186.2</ele>
        <time>2021-10-07T12:50:59Z</time>
      </trkpt>
      <trkpt lat="46.595" lon="5.30817">
        <ele>185.8</ele>
        <time>2021-10-07T12:51:01Z</time>
      </trkpt>
      <trkpt lat="46.59515" lon="5.30815">
        <ele>185.8</ele>
        <time>2021-10-07T12:51:03Z</time>
      </trkpt>
      <trkpt lat="46.5953" lon="5.30813">
        <ele>185.8</ele>
        <time>2021-10-07T12:51:05Z</time>
      </trkpt>
      <trkpt lat="46.59545" lon="5.3081">
        <ele>185.8</ele>
        <time>2021-10-07T12:51:07Z</time>
      </trkpt>
      <trkpt lat="46.59552" lon="5.30809">
        <ele>185.8</ele>
        <time>2021-10-07T12:51:08Z</time>
      </trkpt>
      <trkpt lat="46.59559" lon="5.30808">
        <ele>185.8</ele>
        <time>2021-10-07T12:51:09Z</time>
      </trkpt>
      <trkpt lat="46.59573" lon="5.30807">
        <ele>185.8</ele>
        <time>2021-10-07T12:51:11Z</time>
      </trkpt>
      <trkpt lat="46.59587" lon="5.30805">
        <ele>186</ele>
        <time>2021-10-07T12:51:13Z</time>
      </trkpt>
      <trkpt lat="46.59602" lon="5.30803">
        <ele>186.2</ele>
        <time>2021-10-07T12:51:15Z</time>
      </trkpt>
      <trkpt lat="46.59616" lon="5.30802">
        <ele>186.4</ele>
        <time>2021-10-07T12:51:17Z</time>
      </trkpt>
      <trkpt lat="46.59623" lon="5.30801">
        <ele>186.4</ele>
        <time>2021-10-07T12:51:18Z</time>
      </trkpt>
      <trkpt lat="46.5963" lon="5.308">
        <ele>186.4</ele>
        <time>2021-10-07T12:51:19Z</time>
      </trkpt>
      <trkpt lat="46.59643" lon="5.30798">
        <ele>186.4</ele>
        <time>2021-10-07T12:51:21Z</time>
      </trkpt>
      <trkpt lat="46.59655" lon="5.30796">
        <ele>186.4</ele>
        <time>2021-10-07T12:51:23Z</time>
      </trkpt>
      <trkpt lat="46.59667" lon="5.30795">
        <ele>186.4</ele>
        <time>2021-10-07T12:51:25Z</time>
      </trkpt>
      <trkpt lat="46.59673" lon="5.30794">
        <ele>186.4</ele>
        <time>2021-10-07T12:51:26Z</time>
      </trkpt>
      <trkpt lat="46.59678" lon="5.30794">
        <ele>186.4</ele>
        <time>2021-10-07T12:51:27Z</time>
      </trkpt>
      <trkpt lat="46.59689" lon="5.30792">
        <ele>186.8</ele>
        <time>2021-10-07T12:51:29Z</time>
      </trkpt>
      <trkpt lat="46.59699" lon="5.30792">
        <ele>187</ele>
        <time>2021-10-07T12:51:31Z</time>
      </trkpt>
      <trkpt lat="46.59709" lon="5.30791">
        <ele>187.4</ele>
        <time>2021-10-07T12:51:33Z</time>
      </trkpt>
      <trkpt lat="46.59714" lon="5.30791">
        <ele>187.8</ele>
        <time>2021-10-07T12:51:34Z</time>
      </trkpt>
      <trkpt lat="46.59719" lon="5.3079">
        <ele>188</ele>
        <time>2021-10-07T12:51:35Z</time>
      </trkpt>
      <trkpt lat="46.59729" lon="5.3079">
        <ele>188.6</ele>
        <time>2021-10-07T12:51:37Z</time>
      </trkpt>
      <trkpt lat="46.59734" lon="5.30789">
        <ele>189.2</ele>
        <time>2021-10-07T12:51:38Z</time>
      </trkpt>
      <trkpt lat="46.59738" lon="5.30789">
        <ele>189.6</ele>
        <time>2021-10-07T12:51:39Z</time>
      </trkpt>
      <trkpt lat="46.59748" lon="5.30789">
        <ele>190.4</ele>
        <time>2021-10-07T12:51:41Z</time>
      </trkpt>
      <trkpt lat="46.59758" lon="5.30788">
        <ele>191.2</ele>
        <time>2021-10-07T12:51:43Z</time>
      </trkpt>
      <trkpt lat="46.59762" lon="5.30787">
        <ele>191.4</ele>
        <time>2021-10-07T12:51:44Z</time>
      </trkpt>
      <trkpt lat="46.59767" lon="5.30787">
        <ele>191.8</ele>
        <time>2021-10-07T12:51:45Z</time>
      </trkpt>
      <trkpt lat="46.59777" lon="5.30787">
        <ele>192</ele>
        <time>2021-10-07T12:51:47Z</time>
      </trkpt>
      <trkpt lat="46.59786" lon="5.30789">
        <ele>192.4</ele>
        <time>2021-10-07T12:51:49Z</time>
      </trkpt>
      <trkpt lat="46.59791" lon="5.30791">
        <ele>192.6</ele>
        <time>2021-10-07T12:51:50Z</time>
      </trkpt>
      <trkpt lat="46.59796" lon="5.30792">
        <ele>193</ele>
        <time>2021-10-07T12:51:51Z</time>
      </trkpt>
      <trkpt lat="46.59805" lon="5.30797">
        <ele>193.2</ele>
        <time>2021-10-07T12:51:53Z</time>
      </trkpt>
      <trkpt lat="46.59813" lon="5.30801">
        <ele>193.4</ele>
        <time>2021-10-07T12:51:55Z</time>
      </trkpt>
      <trkpt lat="46.59818" lon="5.30803">
        <ele>193.8</ele>
        <time>2021-10-07T12:51:56Z</time>
      </trkpt>
      <trkpt lat="46.59822" lon="5.30805">
        <ele>193.8</ele>
        <time>2021-10-07T12:51:57Z</time>
      </trkpt>
      <trkpt lat="46.59831" lon="5.30809">
        <ele>194</ele>
        <time>2021-10-07T12:51:59Z</time>
      </trkpt>
      <trkpt lat="46.59836" lon="5.30811">
        <ele>194</ele>
        <time>2021-10-07T12:52:00Z</time>
      </trkpt>
      <trkpt lat="46.5984" lon="5.30813">
        <ele>194.4</ele>
        <time>2021-10-07T12:52:01Z</time>
      </trkpt>
      <trkpt lat="46.59845" lon="5.30814">
        <ele>194.6</ele>
        <time>2021-10-07T12:52:02Z</time>
      </trkpt>
      <trkpt lat="46.5985" lon="5.30816">
        <ele>194.8</ele>
        <time>2021-10-07T12:52:03Z</time>
      </trkpt>
      <trkpt lat="46.59859" lon="5.30818">
        <ele>195.2</ele>
        <time>2021-10-07T12:52:05Z</time>
      </trkpt>
      <trkpt lat="46.59869" lon="5.30821">
        <ele>195.6</ele>
        <time>2021-10-07T12:52:07Z</time>
      </trkpt>
      <trkpt lat="46.59874" lon="5.30822">
        <ele>195.6</ele>
        <time>2021-10-07T12:52:08Z</time>
      </trkpt>
      <trkpt lat="46.59879" lon="5.30823">
        <ele>195.8</ele>
        <time>2021-10-07T12:52:09Z</time>
      </trkpt>
      <trkpt lat="46.59883" lon="5.30824">
        <ele>196</ele>
        <time>2021-10-07T12:52:10Z</time>
      </trkpt>
      <trkpt lat="46.59888" lon="5.30825">
        <ele>196.2</ele>
        <time>2021-10-07T12:52:11Z</time>
      </trkpt>
      <trkpt lat="46.59897" lon="5.30827">
        <ele>196.4</ele>
        <time>2021-10-07T12:52:13Z</time>
      </trkpt>
      <trkpt lat="46.59906" lon="5.30829">
        <ele>196.6</ele>
        <time>2021-10-07T12:52:15Z</time>
      </trkpt>
      <trkpt lat="46.59916" lon="5.30831">
        <ele>196.6</ele>
        <time>2021-10-07T12:52:17Z</time>
      </trkpt>
      <trkpt lat="46.59926" lon="5.30833">
        <ele>196.6</ele>
        <time>2021-10-07T12:52:19Z</time>
      </trkpt>
      <trkpt lat="46.5993" lon="5.30833">
        <ele>196.6</ele>
        <time>2021-10-07T12:52:20Z</time>
      </trkpt>
      <trkpt lat="46.59935" lon="5.30834">
        <ele>196.8</ele>
        <time>2021-10-07T12:52:21Z</time>
      </trkpt>
      <trkpt lat="46.59944" lon="5.30836">
        <ele>197.2</ele>
        <time>2021-10-07T12:52:23Z</time>
      </trkpt>
      <trkpt lat="46.59954" lon="5.30838">
        <ele>197.6</ele>
        <time>2021-10-07T12:52:25Z</time>
      </trkpt>
      <trkpt lat="46.59963" lon="5.30842">
        <ele>198</ele>
        <time>2021-10-07T12:52:27Z</time>
      </trkpt>
      <trkpt lat="46.59967" lon="5.30844">
        <ele>198</ele>
        <time>2021-10-07T12:52:28Z</time>
      </trkpt>
      <trkpt lat="46.59971" lon="5.30847">
        <ele>198</ele>
        <time>2021-10-07T12:52:29Z</time>
      </trkpt>
      <trkpt lat="46.59979" lon="5.30855">
        <ele>198.2</ele>
        <time>2021-10-07T12:52:31Z</time>
      </trkpt>
      <trkpt lat="46.59986" lon="5.30863">
        <ele>198.2</ele>
        <time>2021-10-07T12:52:33Z</time>
      </trkpt>
      <trkpt lat="46.59993" lon="5.30871">
        <ele>198.4</ele>
        <time>2021-10-07T12:52:35Z</time>
      </trkpt>
      <trkpt lat="46.6" lon="5.30878">
        <ele>198.4</ele>
        <time>2021-10-07T12:52:37Z</time>
      </trkpt>
      <trkpt lat="46.60007" lon="5.30887">
        <ele>198.6</ele>
        <time>2021-10-07T12:52:39Z</time>
      </trkpt>
      <trkpt lat="46.60014" lon="5.30895">
        <ele>199</ele>
        <time>2021-10-07T12:52:41Z</time>
      </trkpt>
      <trkpt lat="46.60018" lon="5.309">
        <ele>199</ele>
        <time>2021-10-07T12:52:42Z</time>
      </trkpt>
      <trkpt lat="46.60022" lon="5.30904">
        <ele>199.6</ele>
        <time>2021-10-07T12:52:43Z</time>
      </trkpt>
      <trkpt lat="46.60026" lon="5.30908">
        <ele>199.8</ele>
        <time>2021-10-07T12:52:44Z</time>
      </trkpt>
      <trkpt lat="46.60029" lon="5.30912">
        <ele>200.2</ele>
        <time>2021-10-07T12:52:45Z</time>
      </trkpt>
      <trkpt lat="46.60036" lon="5.3092">
        <ele>200.6</ele>
        <time>2021-10-07T12:52:47Z</time>
      </trkpt>
      <trkpt lat="46.60043" lon="5.30928">
        <ele>200.8</ele>
        <time>2021-10-07T12:52:49Z</time>
      </trkpt>
      <trkpt lat="46.60047" lon="5.30932">
        <ele>201</ele>
        <time>2021-10-07T12:52:50Z</time>
      </trkpt>
      <trkpt lat="46.60051" lon="5.30937">
        <ele>201</ele>
        <time>2021-10-07T12:52:51Z</time>
      </trkpt>
      <trkpt lat="46.60058" lon="5.30945">
        <ele>201.2</ele>
        <time>2021-10-07T12:52:53Z</time>
      </trkpt>
      <trkpt lat="46.60066" lon="5.30954">
        <ele>201.4</ele>
        <time>2021-10-07T12:52:55Z</time>
      </trkpt>
      <trkpt lat="46.60073" lon="5.30962">
        <ele>202</ele>
        <time>2021-10-07T12:52:57Z</time>
      </trkpt>
      <trkpt lat="46.60081" lon="5.30971">
        <ele>202.4</ele>
        <time>2021-10-07T12:52:59Z</time>
      </trkpt>
      <trkpt lat="46.60088" lon="5.30979">
        <ele>202.8</ele>
        <time>2021-10-07T12:53:01Z</time>
      </trkpt>
      <trkpt lat="46.60095" lon="5.30987">
        <ele>203</ele>
        <time>2021-10-07T12:53:03Z</time>
      </trkpt>
      <trkpt lat="46.60098" lon="5.30991">
        <ele>203</ele>
        <time>2021-10-07T12:53:04Z</time>
      </trkpt>
      <trkpt lat="46.60101" lon="5.30995">
        <ele>203.2</ele>
        <time>2021-10-07T12:53:05Z</time>
      </trkpt>
      <trkpt lat="46.60106" lon="5.31001">
        <ele>203.2</ele>
        <time>2021-10-07T12:53:07Z</time>
      </trkpt>
      <trkpt lat="46.60107" lon="5.31004">
        <ele>203.2</ele>
        <time>2021-10-07T12:53:08Z</time>
      </trkpt>
      <trkpt lat="46.60107" lon="5.31006">
        <ele>203.4</ele>
        <time>2021-10-07T12:53:09Z</time>
      </trkpt>
      <trkpt lat="46.60108" lon="5.31011">
        <ele>203.4</ele>
        <time>2021-10-07T12:53:11Z</time>
      </trkpt>
      <trkpt lat="46.6011" lon="5.31013">
        <ele>203.4</ele>
        <time>2021-10-07T12:53:12Z</time>
      </trkpt>
      <trkpt lat="46.60113" lon="5.31013">
        <ele>203.6</ele>
        <time>2021-10-07T12:53:13Z</time>
      </trkpt>
      <trkpt lat="46.60121" lon="5.31013">
        <ele>203.8</ele>
        <time>2021-10-07T12:53:15Z</time>
      </trkpt>
      <trkpt lat="46.60127" lon="5.31014">
        <ele>203.8</ele>
        <time>2021-10-07T12:53:16Z</time>
      </trkpt>
      <trkpt lat="46.60133" lon="5.31015">
        <ele>203.8</ele>
        <time>2021-10-07T12:53:17Z</time>
      </trkpt>
      <trkpt lat="46.60146" lon="5.3102">
        <ele>203.8</ele>
        <time>2021-10-07T12:53:19Z</time>
      </trkpt>
      <trkpt lat="46.60153" lon="5.31022">
        <ele>203.8</ele>
        <time>2021-10-07T12:53:20Z</time>
      </trkpt>
      <trkpt lat="46.6016" lon="5.31024">
        <ele>203.8</ele>
        <time>2021-10-07T12:53:21Z</time>
      </trkpt>
      <trkpt lat="46.60175" lon="5.31029">
        <ele>203.8</ele>
        <time>2021-10-07T12:53:23Z</time>
      </trkpt>
      <trkpt lat="46.60189" lon="5.31033">
        <ele>203.2</ele>
        <time>2021-10-07T12:53:25Z</time>
      </trkpt>
      <trkpt lat="46.60196" lon="5.31035">
        <ele>203</ele>
        <time>2021-10-07T12:53:26Z</time>
      </trkpt>
      <trkpt lat="46.60204" lon="5.31037">
        <ele>202.8</ele>
        <time>2021-10-07T12:53:27Z</time>
      </trkpt>
      <trkpt lat="46.60218" lon="5.31042">
        <ele>202.6</ele>
        <time>2021-10-07T12:53:29Z</time>
      </trkpt>
      <trkpt lat="46.60233" lon="5.31048">
        <ele>202.4</ele>
        <time>2021-10-07T12:53:31Z</time>
      </trkpt>
      <trkpt lat="46.6024" lon="5.31051">
        <ele>202</ele>
        <time>2021-10-07T12:53:32Z</time>
      </trkpt>
      <trkpt lat="46.60247" lon="5.31055">
        <ele>201.8</ele>
        <time>2021-10-07T12:53:33Z</time>
      </trkpt>
      <trkpt lat="46.60261" lon="5.31062">
        <ele>201</ele>
        <time>2021-10-07T12:53:35Z</time>
      </trkpt>
      <trkpt lat="46.60276" lon="5.3107">
        <ele>200.4</ele>
        <time>2021-10-07T12:53:37Z</time>
      </trkpt>
      <trkpt lat="46.6029" lon="5.31078">
        <ele>200</ele>
        <time>2021-10-07T12:53:39Z</time>
      </trkpt>
      <trkpt lat="46.60297" lon="5.31082">
        <ele>200</ele>
        <time>2021-10-07T12:53:40Z</time>
      </trkpt>
      <trkpt lat="46.60304" lon="5.31086">
        <ele>199.8</ele>
        <time>2021-10-07T12:53:41Z</time>
      </trkpt>
      <trkpt lat="46.60319" lon="5.31095">
        <ele>199.6</ele>
        <time>2021-10-07T12:53:43Z</time>
      </trkpt>
      <trkpt lat="46.60326" lon="5.31099">
        <ele>199.6</ele>
        <time>2021-10-07T12:53:44Z</time>
      </trkpt>
      <trkpt lat="46.60332" lon="5.31105">
        <ele>199.4</ele>
        <time>2021-10-07T12:53:45Z</time>
      </trkpt>
      <trkpt lat="46.60338" lon="5.31112">
        <ele>199.4</ele>
        <time>2021-10-07T12:53:46Z</time>
      </trkpt>
      <trkpt lat="46.60344" lon="5.31119">
        <ele>199.4</ele>
        <time>2021-10-07T12:53:47Z</time>
      </trkpt>
      <trkpt lat="46.60349" lon="5.31126">
        <ele>199.4</ele>
        <time>2021-10-07T12:53:48Z</time>
      </trkpt>
      <trkpt lat="46.60354" lon="5.31135">
        <ele>199.4</ele>
        <time>2021-10-07T12:53:49Z</time>
      </trkpt>
      <trkpt lat="46.60358" lon="5.31144">
        <ele>199.4</ele>
        <time>2021-10-07T12:53:50Z</time>
      </trkpt>
      <trkpt lat="46.60362" lon="5.31153">
        <ele>199.4</ele>
        <time>2021-10-07T12:53:51Z</time>
      </trkpt>
      <trkpt lat="46.60368" lon="5.31172">
        <ele>199.4</ele>
        <time>2021-10-07T12:53:53Z</time>
      </trkpt>
      <trkpt lat="46.60372" lon="5.31192">
        <ele>199.4</ele>
        <time>2021-10-07T12:53:55Z</time>
      </trkpt>
      <trkpt lat="46.60374" lon="5.31213">
        <ele>199.4</ele>
        <time>2021-10-07T12:53:57Z</time>
      </trkpt>
      <trkpt lat="46.60373" lon="5.31234">
        <ele>199.2</ele>
        <time>2021-10-07T12:53:59Z</time>
      </trkpt>
      <trkpt lat="46.60371" lon="5.31254">
        <ele>199.2</ele>
        <time>2021-10-07T12:54:01Z</time>
      </trkpt>
      <trkpt lat="46.60369" lon="5.31273">
        <ele>199.2</ele>
        <time>2021-10-07T12:54:03Z</time>
      </trkpt>
      <trkpt lat="46.60367" lon="5.31291">
        <ele>199.4</ele>
        <time>2021-10-07T12:54:05Z</time>
      </trkpt>
      <trkpt lat="46.60366" lon="5.313">
        <ele>199.4</ele>
        <time>2021-10-07T12:54:06Z</time>
      </trkpt>
      <trkpt lat="46.60365" lon="5.31309">
        <ele>199.4</ele>
        <time>2021-10-07T12:54:07Z</time>
      </trkpt>
      <trkpt lat="46.60364" lon="5.31326">
        <ele>199.4</ele>
        <time>2021-10-07T12:54:09Z</time>
      </trkpt>
      <trkpt lat="46.60363" lon="5.31334">
        <ele>199.6</ele>
        <time>2021-10-07T12:54:10Z</time>
      </trkpt>
      <trkpt lat="46.60363" lon="5.31343">
        <ele>200</ele>
        <time>2021-10-07T12:54:11Z</time>
      </trkpt>
      <trkpt lat="46.60362" lon="5.3136">
        <ele>200.2</ele>
        <time>2021-10-07T12:54:13Z</time>
      </trkpt>
      <trkpt lat="46.60363" lon="5.31369">
        <ele>200.4</ele>
        <time>2021-10-07T12:54:14Z</time>
      </trkpt>
      <trkpt lat="46.60364" lon="5.31377">
        <ele>200.4</ele>
        <time>2021-10-07T12:54:15Z</time>
      </trkpt>
      <trkpt lat="46.60368" lon="5.31394">
        <ele>200.6</ele>
        <time>2021-10-07T12:54:17Z</time>
      </trkpt>
      <trkpt lat="46.60375" lon="5.31409">
        <ele>200.6</ele>
        <time>2021-10-07T12:54:19Z</time>
      </trkpt>
      <trkpt lat="46.6038" lon="5.31416">
        <ele>200.6</ele>
        <time>2021-10-07T12:54:20Z</time>
      </trkpt>
      <trkpt lat="46.60385" lon="5.31422">
        <ele>200.6</ele>
        <time>2021-10-07T12:54:21Z</time>
      </trkpt>
      <trkpt lat="46.60391" lon="5.31429">
        <ele>200.6</ele>
        <time>2021-10-07T12:54:22Z</time>
      </trkpt>
      <trkpt lat="46.60397" lon="5.31435">
        <ele>200.6</ele>
        <time>2021-10-07T12:54:23Z</time>
      </trkpt>
      <trkpt lat="46.60409" lon="5.31447">
        <ele>199.6</ele>
        <time>2021-10-07T12:54:25Z</time>
      </trkpt>
      <trkpt lat="46.60415" lon="5.31453">
        <ele>199.4</ele>
        <time>2021-10-07T12:54:26Z</time>
      </trkpt>
      <trkpt lat="46.60421" lon="5.31459">
        <ele>199.2</ele>
        <time>2021-10-07T12:54:27Z</time>
      </trkpt>
      <trkpt lat="46.60431" lon="5.31472">
        <ele>198.8</ele>
        <time>2021-10-07T12:54:29Z</time>
      </trkpt>
      <trkpt lat="46.60441" lon="5.31486">
        <ele>198.6</ele>
        <time>2021-10-07T12:54:31Z</time>
      </trkpt>
      <trkpt lat="46.60446" lon="5.31493">
        <ele>198.4</ele>
        <time>2021-10-07T12:54:32Z</time>
      </trkpt>
      <trkpt lat="46.6045" lon="5.315">
        <ele>198.4</ele>
        <time>2021-10-07T12:54:33Z</time>
      </trkpt>
      <trkpt lat="46.60459" lon="5.31514">
        <ele>198.2</ele>
        <time>2021-10-07T12:54:35Z</time>
      </trkpt>
      <trkpt lat="46.60468" lon="5.31528">
        <ele>198.2</ele>
        <time>2021-10-07T12:54:37Z</time>
      </trkpt>
      <trkpt lat="46.60477" lon="5.3154">
        <ele>198.2</ele>
        <time>2021-10-07T12:54:39Z</time>
      </trkpt>
      <trkpt lat="46.60482" lon="5.31545">
        <ele>198.2</ele>
        <time>2021-10-07T12:54:40Z</time>
      </trkpt>
      <trkpt lat="46.60487" lon="5.31551">
        <ele>198.2</ele>
        <time>2021-10-07T12:54:41Z</time>
      </trkpt>
      <trkpt lat="46.60497" lon="5.31561">
        <ele>198.4</ele>
        <time>2021-10-07T12:54:43Z</time>
      </trkpt>
      <trkpt lat="46.60507" lon="5.3157">
        <ele>198.8</ele>
        <time>2021-10-07T12:54:45Z</time>
      </trkpt>
      <trkpt lat="46.60517" lon="5.31579">
        <ele>199.2</ele>
        <time>2021-10-07T12:54:47Z</time>
      </trkpt>
      <trkpt lat="46.60527" lon="5.31587">
        <ele>199.6</ele>
        <time>2021-10-07T12:54:49Z</time>
      </trkpt>
      <trkpt lat="46.60536" lon="5.31596">
        <ele>200</ele>
        <time>2021-10-07T12:54:51Z</time>
      </trkpt>
      <trkpt lat="46.60541" lon="5.316">
        <ele>200.2</ele>
        <time>2021-10-07T12:54:52Z</time>
      </trkpt>
      <trkpt lat="46.60545" lon="5.31604">
        <ele>200.2</ele>
        <time>2021-10-07T12:54:53Z</time>
      </trkpt>
      <trkpt lat="46.60554" lon="5.31612">
        <ele>200.8</ele>
        <time>2021-10-07T12:54:55Z</time>
      </trkpt>
      <trkpt lat="46.60562" lon="5.3162">
        <ele>201</ele>
        <time>2021-10-07T12:54:57Z</time>
      </trkpt>
      <trkpt lat="46.60571" lon="5.31627">
        <ele>201.2</ele>
        <time>2021-10-07T12:54:59Z</time>
      </trkpt>
      <trkpt lat="46.60579" lon="5.31635">
        <ele>201.4</ele>
        <time>2021-10-07T12:55:01Z</time>
      </trkpt>
      <trkpt lat="46.60587" lon="5.31642">
        <ele>201.8</ele>
        <time>2021-10-07T12:55:03Z</time>
      </trkpt>
      <trkpt lat="46.60595" lon="5.31649">
        <ele>202.2</ele>
        <time>2021-10-07T12:55:05Z</time>
      </trkpt>
      <trkpt lat="46.606" lon="5.31652">
        <ele>202.4</ele>
        <time>2021-10-07T12:55:06Z</time>
      </trkpt>
      <trkpt lat="46.60605" lon="5.31655">
        <ele>202.6</ele>
        <time>2021-10-07T12:55:07Z</time>
      </trkpt>
      <trkpt lat="46.60614" lon="5.31661">
        <ele>203</ele>
        <time>2021-10-07T12:55:09Z</time>
      </trkpt>
      <trkpt lat="46.60625" lon="5.31667">
        <ele>203.4</ele>
        <time>2021-10-07T12:55:11Z</time>
      </trkpt>
      <trkpt lat="46.60636" lon="5.31671">
        <ele>203.8</ele>
        <time>2021-10-07T12:55:13Z</time>
      </trkpt>
      <trkpt lat="46.60648" lon="5.31676">
        <ele>204</ele>
        <time>2021-10-07T12:55:15Z</time>
      </trkpt>
      <trkpt lat="46.6066" lon="5.31681">
        <ele>204</ele>
        <time>2021-10-07T12:55:17Z</time>
      </trkpt>
      <trkpt lat="46.60672" lon="5.31685">
        <ele>204</ele>
        <time>2021-10-07T12:55:19Z</time>
      </trkpt>
      <trkpt lat="46.60684" lon="5.3169">
        <ele>204.2</ele>
        <time>2021-10-07T12:55:21Z</time>
      </trkpt>
      <trkpt lat="46.60691" lon="5.31693">
        <ele>204.4</ele>
        <time>2021-10-07T12:55:22Z</time>
      </trkpt>
      <trkpt lat="46.60697" lon="5.31695">
        <ele>204.4</ele>
        <time>2021-10-07T12:55:23Z</time>
      </trkpt>
      <trkpt lat="46.6071" lon="5.317">
        <ele>204.4</ele>
        <time>2021-10-07T12:55:25Z</time>
      </trkpt>
      <trkpt lat="46.60723" lon="5.31706">
        <ele>204.2</ele>
        <time>2021-10-07T12:55:27Z</time>
      </trkpt>
      <trkpt lat="46.60737" lon="5.31712">
        <ele>204</ele>
        <time>2021-10-07T12:55:29Z</time>
      </trkpt>
      <trkpt lat="46.60743" lon="5.31716">
        <ele>204</ele>
        <time>2021-10-07T12:55:30Z</time>
      </trkpt>
      <trkpt lat="46.6075" lon="5.3172">
        <ele>203.8</ele>
        <time>2021-10-07T12:55:31Z</time>
      </trkpt>
      <trkpt lat="46.6076" lon="5.31731">
        <ele>203.8</ele>
        <time>2021-10-07T12:55:33Z</time>
      </trkpt>
      <trkpt lat="46.60765" lon="5.31737">
        <ele>203.6</ele>
        <time>2021-10-07T12:55:34Z</time>
      </trkpt>
      <trkpt lat="46.60769" lon="5.31744">
        <ele>203.4</ele>
        <time>2021-10-07T12:55:35Z</time>
      </trkpt>
      <trkpt lat="46.60774" lon="5.31751">
        <ele>203.2</ele>
        <time>2021-10-07T12:55:36Z</time>
      </trkpt>
      <trkpt lat="46.60778" lon="5.31759">
        <ele>203.2</ele>
        <time>2021-10-07T12:55:37Z</time>
      </trkpt>
      <trkpt lat="46.60786" lon="5.31776">
        <ele>203.2</ele>
        <time>2021-10-07T12:55:39Z</time>
      </trkpt>
      <trkpt lat="46.60794" lon="5.31796">
        <ele>203</ele>
        <time>2021-10-07T12:55:41Z</time>
      </trkpt>
      <trkpt lat="46.60802" lon="5.31816">
        <ele>202.8</ele>
        <time>2021-10-07T12:55:43Z</time>
      </trkpt>
      <trkpt lat="46.60808" lon="5.31836">
        <ele>202.4</ele>
        <time>2021-10-07T12:55:45Z</time>
      </trkpt>
      <trkpt lat="46.6081" lon="5.31845">
        <ele>202</ele>
        <time>2021-10-07T12:55:46Z</time>
      </trkpt>
      <trkpt lat="46.60812" lon="5.31855">
        <ele>201.4</ele>
        <time>2021-10-07T12:55:47Z</time>
      </trkpt>
      <trkpt lat="46.60814" lon="5.31864">
        <ele>201</ele>
        <time>2021-10-07T12:55:48Z</time>
      </trkpt>
      <trkpt lat="46.60816" lon="5.31873">
        <ele>200.6</ele>
        <time>2021-10-07T12:55:49Z</time>
      </trkpt>
      <trkpt lat="46.6082" lon="5.3189">
        <ele>200.4</ele>
        <time>2021-10-07T12:55:51Z</time>
      </trkpt>
      <trkpt lat="46.60824" lon="5.31906">
        <ele>200.4</ele>
        <time>2021-10-07T12:55:53Z</time>
      </trkpt>
      <trkpt lat="46.60825" lon="5.31914">
        <ele>200.4</ele>
        <time>2021-10-07T12:55:54Z</time>
      </trkpt>
      <trkpt lat="46.60826" lon="5.31922">
        <ele>200.4</ele>
        <time>2021-10-07T12:55:55Z</time>
      </trkpt>
      <trkpt lat="46.60828" lon="5.31939">
        <ele>200.4</ele>
        <time>2021-10-07T12:55:57Z</time>
      </trkpt>
      <trkpt lat="46.60828" lon="5.31955">
        <ele>201</ele>
        <time>2021-10-07T12:55:59Z</time>
      </trkpt>
      <trkpt lat="46.60829" lon="5.31973">
        <ele>201.8</ele>
        <time>2021-10-07T12:56:01Z</time>
      </trkpt>
      <trkpt lat="46.60829" lon="5.31982">
        <ele>202.2</ele>
        <time>2021-10-07T12:56:02Z</time>
      </trkpt>
      <trkpt lat="46.6083" lon="5.31992">
        <ele>202.6</ele>
        <time>2021-10-07T12:56:03Z</time>
      </trkpt>
      <trkpt lat="46.6083" lon="5.32002">
        <ele>203</ele>
        <time>2021-10-07T12:56:04Z</time>
      </trkpt>
      <trkpt lat="46.60831" lon="5.32012">
        <ele>203.2</ele>
        <time>2021-10-07T12:56:05Z</time>
      </trkpt>
      <trkpt lat="46.60831" lon="5.32022">
        <ele>203.2</ele>
        <time>2021-10-07T12:56:06Z</time>
      </trkpt>
      <trkpt lat="46.60832" lon="5.32033">
        <ele>203.2</ele>
        <time>2021-10-07T12:56:07Z</time>
      </trkpt>
      <trkpt lat="46.60834" lon="5.32055">
        <ele>203.2</ele>
        <time>2021-10-07T12:56:09Z</time>
      </trkpt>
      <trkpt lat="46.60836" lon="5.32066">
        <ele>203.2</ele>
        <time>2021-10-07T12:56:10Z</time>
      </trkpt>
      <trkpt lat="46.60838" lon="5.32077">
        <ele>203.2</ele>
        <time>2021-10-07T12:56:11Z</time>
      </trkpt>
      <trkpt lat="46.60846" lon="5.32097">
        <ele>203</ele>
        <time>2021-10-07T12:56:13Z</time>
      </trkpt>
      <trkpt lat="46.60851" lon="5.32106">
        <ele>202.8</ele>
        <time>2021-10-07T12:56:14Z</time>
      </trkpt>
      <trkpt lat="46.60857" lon="5.32114">
        <ele>202.4</ele>
        <time>2021-10-07T12:56:15Z</time>
      </trkpt>
      <trkpt lat="46.60863" lon="5.32121">
        <ele>202</ele>
        <time>2021-10-07T12:56:16Z</time>
      </trkpt>
      <trkpt lat="46.60868" lon="5.32128">
        <ele>201.8</ele>
        <time>2021-10-07T12:56:17Z</time>
      </trkpt>
      <trkpt lat="46.60879" lon="5.32141">
        <ele>201.4</ele>
        <time>2021-10-07T12:56:19Z</time>
      </trkpt>
      <trkpt lat="46.60888" lon="5.32153">
        <ele>201.2</ele>
        <time>2021-10-07T12:56:21Z</time>
      </trkpt>
      <trkpt lat="46.60897" lon="5.32164">
        <ele>201.2</ele>
        <time>2021-10-07T12:56:23Z</time>
      </trkpt>
      <trkpt lat="46.60905" lon="5.32175">
        <ele>201</ele>
        <time>2021-10-07T12:56:25Z</time>
      </trkpt>
      <trkpt lat="46.60914" lon="5.32184">
        <ele>201</ele>
        <time>2021-10-07T12:56:27Z</time>
      </trkpt>
      <trkpt lat="46.60922" lon="5.32194">
        <ele>201</ele>
        <time>2021-10-07T12:56:29Z</time>
      </trkpt>
      <trkpt lat="46.60931" lon="5.32202">
        <ele>201.2</ele>
        <time>2021-10-07T12:56:31Z</time>
      </trkpt>
      <trkpt lat="46.60939" lon="5.3221">
        <ele>201.4</ele>
        <time>2021-10-07T12:56:33Z</time>
      </trkpt>
      <trkpt lat="46.60944" lon="5.32213">
        <ele>201.6</ele>
        <time>2021-10-07T12:56:34Z</time>
      </trkpt>
      <trkpt lat="46.60948" lon="5.32216">
        <ele>202.2</ele>
        <time>2021-10-07T12:56:35Z</time>
      </trkpt>
      <trkpt lat="46.60958" lon="5.3222">
        <ele>203</ele>
        <time>2021-10-07T12:56:37Z</time>
      </trkpt>
      <trkpt lat="46.60969" lon="5.32222">
        <ele>203.4</ele>
        <time>2021-10-07T12:56:39Z</time>
      </trkpt>
      <trkpt lat="46.60981" lon="5.32223">
        <ele>203.4</ele>
        <time>2021-10-07T12:56:41Z</time>
      </trkpt>
      <trkpt lat="46.60993" lon="5.32223">
        <ele>203.4</ele>
        <time>2021-10-07T12:56:43Z</time>
      </trkpt>
      <trkpt lat="46.61006" lon="5.32223">
        <ele>203.4</ele>
        <time>2021-10-07T12:56:45Z</time>
      </trkpt>
      <trkpt lat="46.61012" lon="5.32223">
        <ele>203.4</ele>
        <time>2021-10-07T12:56:46Z</time>
      </trkpt>
      <trkpt lat="46.61019" lon="5.32223">
        <ele>203.4</ele>
        <time>2021-10-07T12:56:47Z</time>
      </trkpt>
      <trkpt lat="46.61033" lon="5.32223">
        <ele>203.2</ele>
        <time>2021-10-07T12:56:49Z</time>
      </trkpt>
      <trkpt lat="46.61047" lon="5.32223">
        <ele>203</ele>
        <time>2021-10-07T12:56:51Z</time>
      </trkpt>
      <trkpt lat="46.61061" lon="5.32223">
        <ele>202.8</ele>
        <time>2021-10-07T12:56:53Z</time>
      </trkpt>
      <trkpt lat="46.61069" lon="5.32223">
        <ele>202.6</ele>
        <time>2021-10-07T12:56:54Z</time>
      </trkpt>
      <trkpt lat="46.61076" lon="5.32223">
        <ele>202.6</ele>
        <time>2021-10-07T12:56:55Z</time>
      </trkpt>
      <trkpt lat="46.61091" lon="5.32224">
        <ele>202.2</ele>
        <time>2021-10-07T12:56:57Z</time>
      </trkpt>
      <trkpt lat="46.61098" lon="5.32224">
        <ele>202</ele>
        <time>2021-10-07T12:56:58Z</time>
      </trkpt>
      <trkpt lat="46.61106" lon="5.32224">
        <ele>201.8</ele>
        <time>2021-10-07T12:56:59Z</time>
      </trkpt>
      <trkpt lat="46.61121" lon="5.32224">
        <ele>201.2</ele>
        <time>2021-10-07T12:57:01Z</time>
      </trkpt>
      <trkpt lat="46.61136" lon="5.32224">
        <ele>200.8</ele>
        <time>2021-10-07T12:57:03Z</time>
      </trkpt>
      <trkpt lat="46.61144" lon="5.32223">
        <ele>200.4</ele>
        <time>2021-10-07T12:57:04Z</time>
      </trkpt>
      <trkpt lat="46.61151" lon="5.32223">
        <ele>200.4</ele>
        <time>2021-10-07T12:57:05Z</time>
      </trkpt>
      <trkpt lat="46.61165" lon="5.32221">
        <ele>200</ele>
        <time>2021-10-07T12:57:07Z</time>
      </trkpt>
      <trkpt lat="46.61179" lon="5.32218">
        <ele>200</ele>
        <time>2021-10-07T12:57:09Z</time>
      </trkpt>
      <trkpt lat="46.61185" lon="5.32215">
        <ele>199.8</ele>
        <time>2021-10-07T12:57:10Z</time>
      </trkpt>
      <trkpt lat="46.61191" lon="5.32211">
        <ele>199.8</ele>
        <time>2021-10-07T12:57:11Z</time>
      </trkpt>
      <trkpt lat="46.61202" lon="5.32201">
        <ele>199.8</ele>
        <time>2021-10-07T12:57:13Z</time>
      </trkpt>
      <trkpt lat="46.61207" lon="5.32196">
        <ele>199.8</ele>
        <time>2021-10-07T12:57:14Z</time>
      </trkpt>
      <trkpt lat="46.61212" lon="5.32192">
        <ele>199.8</ele>
        <time>2021-10-07T12:57:15Z</time>
      </trkpt>
      <trkpt lat="46.61224" lon="5.32184">
        <ele>199.8</ele>
        <time>2021-10-07T12:57:17Z</time>
      </trkpt>
      <trkpt lat="46.61235" lon="5.32178">
        <ele>200.2</ele>
        <time>2021-10-07T12:57:19Z</time>
      </trkpt>
      <trkpt lat="46.61247" lon="5.32174">
        <ele>200.4</ele>
        <time>2021-10-07T12:57:21Z</time>
      </trkpt>
      <trkpt lat="46.6126" lon="5.32173">
        <ele>200.4</ele>
        <time>2021-10-07T12:57:23Z</time>
      </trkpt>
      <trkpt lat="46.61266" lon="5.32173">
        <ele>200.4</ele>
        <time>2021-10-07T12:57:24Z</time>
      </trkpt>
      <trkpt lat="46.61272" lon="5.32173">
        <ele>200.4</ele>
        <time>2021-10-07T12:57:25Z</time>
      </trkpt>
      <trkpt lat="46.61285" lon="5.32176">
        <ele>200.4</ele>
        <time>2021-10-07T12:57:27Z</time>
      </trkpt>
      <trkpt lat="46.61299" lon="5.3218">
        <ele>200.4</ele>
        <time>2021-10-07T12:57:29Z</time>
      </trkpt>
      <trkpt lat="46.61313" lon="5.32186">
        <ele>200.4</ele>
        <time>2021-10-07T12:57:31Z</time>
      </trkpt>
      <trkpt lat="46.61327" lon="5.32192">
        <ele>200.2</ele>
        <time>2021-10-07T12:57:33Z</time>
      </trkpt>
      <trkpt lat="46.61341" lon="5.32199">
        <ele>199.6</ele>
        <time>2021-10-07T12:57:35Z</time>
      </trkpt>
      <trkpt lat="46.61349" lon="5.32202">
        <ele>199.4</ele>
        <time>2021-10-07T12:57:36Z</time>
      </trkpt>
      <trkpt lat="46.61356" lon="5.32204">
        <ele>199.2</ele>
        <time>2021-10-07T12:57:37Z</time>
      </trkpt>
      <trkpt lat="46.61372" lon="5.32205">
        <ele>199</ele>
        <time>2021-10-07T12:57:39Z</time>
      </trkpt>
      <trkpt lat="46.61379" lon="5.32204">
        <ele>198.6</ele>
        <time>2021-10-07T12:57:40Z</time>
      </trkpt>
      <trkpt lat="46.61387" lon="5.32203">
        <ele>198.4</ele>
        <time>2021-10-07T12:57:41Z</time>
      </trkpt>
      <trkpt lat="46.61402" lon="5.32199">
        <ele>197.6</ele>
        <time>2021-10-07T12:57:43Z</time>
      </trkpt>
      <trkpt lat="46.61417" lon="5.32192">
        <ele>197.2</ele>
        <time>2021-10-07T12:57:45Z</time>
      </trkpt>
      <trkpt lat="46.61431" lon="5.32184">
        <ele>196.2</ele>
        <time>2021-10-07T12:57:47Z</time>
      </trkpt>
      <trkpt lat="46.61444" lon="5.32174">
        <ele>195.6</ele>
        <time>2021-10-07T12:57:49Z</time>
      </trkpt>
      <trkpt lat="46.61457" lon="5.32164">
        <ele>195.2</ele>
        <time>2021-10-07T12:57:51Z</time>
      </trkpt>
      <trkpt lat="46.61464" lon="5.3216">
        <ele>195.2</ele>
        <time>2021-10-07T12:57:52Z</time>
      </trkpt>
      <trkpt lat="46.61472" lon="5.32156">
        <ele>195</ele>
        <time>2021-10-07T12:57:53Z</time>
      </trkpt>
      <trkpt lat="46.61487" lon="5.32152">
        <ele>195</ele>
        <time>2021-10-07T12:57:55Z</time>
      </trkpt>
      <trkpt lat="46.61503" lon="5.32152">
        <ele>194.8</ele>
        <time>2021-10-07T12:57:57Z</time>
      </trkpt>
      <trkpt lat="46.61518" lon="5.32157">
        <ele>194.6</ele>
        <time>2021-10-07T12:57:59Z</time>
      </trkpt>
      <trkpt lat="46.6153" lon="5.32167">
        <ele>194</ele>
        <time>2021-10-07T12:58:01Z</time>
      </trkpt>
      <trkpt lat="46.61542" lon="5.32181">
        <ele>193.4</ele>
        <time>2021-10-07T12:58:03Z</time>
      </trkpt>
      <trkpt lat="46.61547" lon="5.32189">
        <ele>193.2</ele>
        <time>2021-10-07T12:58:04Z</time>
      </trkpt>
      <trkpt lat="46.61551" lon="5.32197">
        <ele>193</ele>
        <time>2021-10-07T12:58:05Z</time>
      </trkpt>
      <trkpt lat="46.61556" lon="5.32204">
        <ele>193</ele>
        <time>2021-10-07T12:58:06Z</time>
      </trkpt>
      <trkpt lat="46.6156" lon="5.32212">
        <ele>192.8</ele>
        <time>2021-10-07T12:58:07Z</time>
      </trkpt>
      <trkpt lat="46.61569" lon="5.32228">
        <ele>192.8</ele>
        <time>2021-10-07T12:58:09Z</time>
      </trkpt>
      <trkpt lat="46.61574" lon="5.32235">
        <ele>192.8</ele>
        <time>2021-10-07T12:58:10Z</time>
      </trkpt>
      <trkpt lat="46.61578" lon="5.32242">
        <ele>192.8</ele>
        <time>2021-10-07T12:58:11Z</time>
      </trkpt>
      <trkpt lat="46.61586" lon="5.32257">
        <ele>193</ele>
        <time>2021-10-07T12:58:13Z</time>
      </trkpt>
      <trkpt lat="46.61593" lon="5.32272">
        <ele>193.2</ele>
        <time>2021-10-07T12:58:15Z</time>
      </trkpt>
      <trkpt lat="46.61596" lon="5.3228">
        <ele>193.2</ele>
        <time>2021-10-07T12:58:16Z</time>
      </trkpt>
      <trkpt lat="46.61599" lon="5.32289">
        <ele>193.4</ele>
        <time>2021-10-07T12:58:17Z</time>
      </trkpt>
      <trkpt lat="46.61602" lon="5.32306">
        <ele>193.8</ele>
        <time>2021-10-07T12:58:19Z</time>
      </trkpt>
      <trkpt lat="46.61604" lon="5.32314">
        <ele>194</ele>
        <time>2021-10-07T12:58:20Z</time>
      </trkpt>
      <trkpt lat="46.61605" lon="5.32323">
        <ele>194</ele>
        <time>2021-10-07T12:58:21Z</time>
      </trkpt>
      <trkpt lat="46.61607" lon="5.3234">
        <ele>194.2</ele>
        <time>2021-10-07T12:58:23Z</time>
      </trkpt>
      <trkpt lat="46.61609" lon="5.32356">
        <ele>194.2</ele>
        <time>2021-10-07T12:58:25Z</time>
      </trkpt>
      <trkpt lat="46.61614" lon="5.32372">
        <ele>194.4</ele>
        <time>2021-10-07T12:58:27Z</time>
      </trkpt>
      <trkpt lat="46.61617" lon="5.32379">
        <ele>194.8</ele>
        <time>2021-10-07T12:58:28Z</time>
      </trkpt>
      <trkpt lat="46.6162" lon="5.32386">
        <ele>195</ele>
        <time>2021-10-07T12:58:29Z</time>
      </trkpt>
      <trkpt lat="46.61627" lon="5.32399">
        <ele>195.2</ele>
        <time>2021-10-07T12:58:31Z</time>
      </trkpt>
      <trkpt lat="46.61636" lon="5.32409">
        <ele>195.4</ele>
        <time>2021-10-07T12:58:33Z</time>
      </trkpt>
      <trkpt lat="46.6164" lon="5.32414">
        <ele>195.4</ele>
        <time>2021-10-07T12:58:34Z</time>
      </trkpt>
      <trkpt lat="46.61645" lon="5.32418">
        <ele>195.6</ele>
        <time>2021-10-07T12:58:35Z</time>
      </trkpt>
      <trkpt lat="46.61654" lon="5.32426">
        <ele>195.8</ele>
        <time>2021-10-07T12:58:37Z</time>
      </trkpt>
      <trkpt lat="46.61663" lon="5.32432">
        <ele>196</ele>
        <time>2021-10-07T12:58:39Z</time>
      </trkpt>
      <trkpt lat="46.61668" lon="5.32435">
        <ele>196</ele>
        <time>2021-10-07T12:58:40Z</time>
      </trkpt>
      <trkpt lat="46.61672" lon="5.32438">
        <ele>196</ele>
        <time>2021-10-07T12:58:41Z</time>
      </trkpt>
      <trkpt lat="46.61681" lon="5.32443">
        <ele>196.2</ele>
        <time>2021-10-07T12:58:43Z</time>
      </trkpt>
      <trkpt lat="46.6169" lon="5.32448">
        <ele>196.4</ele>
        <time>2021-10-07T12:58:45Z</time>
      </trkpt>
      <trkpt lat="46.61699" lon="5.32453">
        <ele>196.6</ele>
        <time>2021-10-07T12:58:47Z</time>
      </trkpt>
      <trkpt lat="46.61708" lon="5.32457">
        <ele>197</ele>
        <time>2021-10-07T12:58:49Z</time>
      </trkpt>
      <trkpt lat="46.61712" lon="5.32459">
        <ele>197.2</ele>
        <time>2021-10-07T12:58:50Z</time>
      </trkpt>
      <trkpt lat="46.61717" lon="5.32462">
        <ele>197.2</ele>
        <time>2021-10-07T12:58:51Z</time>
      </trkpt>
      <trkpt lat="46.61725" lon="5.32466">
        <ele>197.6</ele>
        <time>2021-10-07T12:58:53Z</time>
      </trkpt>
      <trkpt lat="46.61734" lon="5.32471">
        <ele>198</ele>
        <time>2021-10-07T12:58:55Z</time>
      </trkpt>
      <trkpt lat="46.61742" lon="5.32476">
        <ele>198.4</ele>
        <time>2021-10-07T12:58:57Z</time>
      </trkpt>
      <trkpt lat="46.61751" lon="5.3248">
        <ele>198.4</ele>
        <time>2021-10-07T12:58:59Z</time>
      </trkpt>
      <trkpt lat="46.61755" lon="5.32483">
        <ele>198.4</ele>
        <time>2021-10-07T12:59:00Z</time>
      </trkpt>
      <trkpt lat="46.61759" lon="5.32486">
        <ele>198.6</ele>
        <time>2021-10-07T12:59:01Z</time>
      </trkpt>
      <trkpt lat="46.61766" lon="5.32492">
        <ele>198.8</ele>
        <time>2021-10-07T12:59:03Z</time>
      </trkpt>
      <trkpt lat="46.61774" lon="5.32498">
        <ele>199.2</ele>
        <time>2021-10-07T12:59:05Z</time>
      </trkpt>
      <trkpt lat="46.61778" lon="5.32501">
        <ele>199.4</ele>
        <time>2021-10-07T12:59:06Z</time>
      </trkpt>
      <trkpt lat="46.61782" lon="5.32504">
        <ele>199.6</ele>
        <time>2021-10-07T12:59:07Z</time>
      </trkpt>
      <trkpt lat="46.6179" lon="5.32512">
        <ele>199.8</ele>
        <time>2021-10-07T12:59:09Z</time>
      </trkpt>
      <trkpt lat="46.61794" lon="5.32515">
        <ele>200</ele>
        <time>2021-10-07T12:59:10Z</time>
      </trkpt>
      <trkpt lat="46.61798" lon="5.32519">
        <ele>200.4</ele>
        <time>2021-10-07T12:59:11Z</time>
      </trkpt>
      <trkpt lat="46.61806" lon="5.32526">
        <ele>201.2</ele>
        <time>2021-10-07T12:59:13Z</time>
      </trkpt>
      <trkpt lat="46.61814" lon="5.32533">
        <ele>201.4</ele>
        <time>2021-10-07T12:59:15Z</time>
      </trkpt>
      <trkpt lat="46.61818" lon="5.32537">
        <ele>201.6</ele>
        <time>2021-10-07T12:59:16Z</time>
      </trkpt>
      <trkpt lat="46.61822" lon="5.3254">
        <ele>201.8</ele>
        <time>2021-10-07T12:59:17Z</time>
      </trkpt>
      <trkpt lat="46.6183" lon="5.32547">
        <ele>202</ele>
        <time>2021-10-07T12:59:19Z</time>
      </trkpt>
      <trkpt lat="46.61838" lon="5.32554">
        <ele>202.2</ele>
        <time>2021-10-07T12:59:21Z</time>
      </trkpt>
      <trkpt lat="46.61846" lon="5.3256">
        <ele>202.2</ele>
        <time>2021-10-07T12:59:23Z</time>
      </trkpt>
      <trkpt lat="46.61854" lon="5.32567">
        <ele>202.2</ele>
        <time>2021-10-07T12:59:25Z</time>
      </trkpt>
      <trkpt lat="46.61861" lon="5.32574">
        <ele>202.2</ele>
        <time>2021-10-07T12:59:27Z</time>
      </trkpt>
      <trkpt lat="46.61865" lon="5.32578">
        <ele>202.2</ele>
        <time>2021-10-07T12:59:28Z</time>
      </trkpt>
      <trkpt lat="46.61869" lon="5.32582">
        <ele>202.2</ele>
        <time>2021-10-07T12:59:29Z</time>
      </trkpt>
      <trkpt lat="46.61877" lon="5.3259">
        <ele>202.2</ele>
        <time>2021-10-07T12:59:31Z</time>
      </trkpt>
      <trkpt lat="46.61885" lon="5.32598">
        <ele>202.4</ele>
        <time>2021-10-07T12:59:33Z</time>
      </trkpt>
      <trkpt lat="46.61892" lon="5.32607">
        <ele>202.4</ele>
        <time>2021-10-07T12:59:35Z</time>
      </trkpt>
      <trkpt lat="46.619" lon="5.32617">
        <ele>202.4</ele>
        <time>2021-10-07T12:59:37Z</time>
      </trkpt>
      <trkpt lat="46.61908" lon="5.32627">
        <ele>202.2</ele>
        <time>2021-10-07T12:59:39Z</time>
      </trkpt>
      <trkpt lat="46.61915" lon="5.32637">
        <ele>202.4</ele>
        <time>2021-10-07T12:59:41Z</time>
      </trkpt>
      <trkpt lat="46.61923" lon="5.32647">
        <ele>202.6</ele>
        <time>2021-10-07T12:59:43Z</time>
      </trkpt>
      <trkpt lat="46.61927" lon="5.32653">
        <ele>202.6</ele>
        <time>2021-10-07T12:59:44Z</time>
      </trkpt>
      <trkpt lat="46.61931" lon="5.32658">
        <ele>202.6</ele>
        <time>2021-10-07T12:59:45Z</time>
      </trkpt>
      <trkpt lat="46.61939" lon="5.3267">
        <ele>202.8</ele>
        <time>2021-10-07T12:59:47Z</time>
      </trkpt>
      <trkpt lat="46.61947" lon="5.32681">
        <ele>202.8</ele>
        <time>2021-10-07T12:59:49Z</time>
      </trkpt>
      <trkpt lat="46.61956" lon="5.32693">
        <ele>203</ele>
        <time>2021-10-07T12:59:51Z</time>
      </trkpt>
      <trkpt lat="46.61964" lon="5.32706">
        <ele>203</ele>
        <time>2021-10-07T12:59:53Z</time>
      </trkpt>
      <trkpt lat="46.61972" lon="5.32719">
        <ele>203</ele>
        <time>2021-10-07T12:59:55Z</time>
      </trkpt>
      <trkpt lat="46.61981" lon="5.32732">
        <ele>203</ele>
        <time>2021-10-07T12:59:57Z</time>
      </trkpt>
      <trkpt lat="46.6199" lon="5.32745">
        <ele>203.2</ele>
        <time>2021-10-07T12:59:59Z</time>
      </trkpt>
      <trkpt lat="46.61998" lon="5.32759">
        <ele>203.2</ele>
        <time>2021-10-07T13:00:01Z</time>
      </trkpt>
      <trkpt lat="46.62005" lon="5.32771">
        <ele>203.4</ele>
        <time>2021-10-07T13:00:03Z</time>
      </trkpt>
      <trkpt lat="46.62013" lon="5.32783">
        <ele>203.4</ele>
        <time>2021-10-07T13:00:05Z</time>
      </trkpt>
      <trkpt lat="46.6202" lon="5.32794">
        <ele>203.4</ele>
        <time>2021-10-07T13:00:07Z</time>
      </trkpt>
      <trkpt lat="46.62028" lon="5.32806">
        <ele>203.4</ele>
        <time>2021-10-07T13:00:09Z</time>
      </trkpt>
      <trkpt lat="46.62036" lon="5.32818">
        <ele>203.6</ele>
        <time>2021-10-07T13:00:11Z</time>
      </trkpt>
      <trkpt lat="46.62039" lon="5.32824">
        <ele>203.6</ele>
        <time>2021-10-07T13:00:12Z</time>
      </trkpt>
      <trkpt lat="46.62044" lon="5.32831">
        <ele>204</ele>
        <time>2021-10-07T13:00:13Z</time>
      </trkpt>
      <trkpt lat="46.62052" lon="5.32843">
        <ele>204.6</ele>
        <time>2021-10-07T13:00:15Z</time>
      </trkpt>
      <trkpt lat="46.62056" lon="5.32849">
        <ele>204.6</ele>
        <time>2021-10-07T13:00:16Z</time>
      </trkpt>
      <trkpt lat="46.6206" lon="5.32856">
        <ele>204.8</ele>
        <time>2021-10-07T13:00:17Z</time>
      </trkpt>
      <trkpt lat="46.62068" lon="5.32869">
        <ele>205</ele>
        <time>2021-10-07T13:00:19Z</time>
      </trkpt>
      <trkpt lat="46.62077" lon="5.32881">
        <ele>205</ele>
        <time>2021-10-07T13:00:21Z</time>
      </trkpt>
      <trkpt lat="46.62087" lon="5.32891">
        <ele>205</ele>
        <time>2021-10-07T13:00:23Z</time>
      </trkpt>
      <trkpt lat="46.62093" lon="5.32896">
        <ele>205</ele>
        <time>2021-10-07T13:00:24Z</time>
      </trkpt>
      <trkpt lat="46.62098" lon="5.329">
        <ele>205</ele>
        <time>2021-10-07T13:00:25Z</time>
      </trkpt>
      <trkpt lat="46.62109" lon="5.32908">
        <ele>205</ele>
        <time>2021-10-07T13:00:27Z</time>
      </trkpt>
      <trkpt lat="46.6212" lon="5.32915">
        <ele>204.8</ele>
        <time>2021-10-07T13:00:29Z</time>
      </trkpt>
      <trkpt lat="46.62131" lon="5.32922">
        <ele>204.6</ele>
        <time>2021-10-07T13:00:31Z</time>
      </trkpt>
      <trkpt lat="46.62136" lon="5.32926">
        <ele>204.6</ele>
        <time>2021-10-07T13:00:32Z</time>
      </trkpt>
      <trkpt lat="46.62142" lon="5.3293">
        <ele>204.4</ele>
        <time>2021-10-07T13:00:33Z</time>
      </trkpt>
      <trkpt lat="46.62153" lon="5.32937">
        <ele>204.4</ele>
        <time>2021-10-07T13:00:35Z</time>
      </trkpt>
      <trkpt lat="46.62165" lon="5.3294">
        <ele>204.4</ele>
        <time>2021-10-07T13:00:37Z</time>
      </trkpt>
      <trkpt lat="46.62171" lon="5.32941">
        <ele>204.4</ele>
        <time>2021-10-07T13:00:38Z</time>
      </trkpt>
      <trkpt lat="46.62177" lon="5.3294">
        <ele>204.4</ele>
        <time>2021-10-07T13:00:39Z</time>
      </trkpt>
      <trkpt lat="46.62189" lon="5.32934">
        <ele>204.2</ele>
        <time>2021-10-07T13:00:41Z</time>
      </trkpt>
      <trkpt lat="46.62202" lon="5.32928">
        <ele>204.2</ele>
        <time>2021-10-07T13:00:43Z</time>
      </trkpt>
      <trkpt lat="46.62216" lon="5.32923">
        <ele>204</ele>
        <time>2021-10-07T13:00:45Z</time>
      </trkpt>
      <trkpt lat="46.62224" lon="5.32921">
        <ele>204</ele>
        <time>2021-10-07T13:00:46Z</time>
      </trkpt>
      <trkpt lat="46.62231" lon="5.3292">
        <ele>203.6</ele>
        <time>2021-10-07T13:00:47Z</time>
      </trkpt>
      <trkpt lat="46.62247" lon="5.3292">
        <ele>202.8</ele>
        <time>2021-10-07T13:00:49Z</time>
      </trkpt>
      <trkpt lat="46.62255" lon="5.32919">
        <ele>202.2</ele>
        <time>2021-10-07T13:00:50Z</time>
      </trkpt>
      <trkpt lat="46.62263" lon="5.32919">
        <ele>202</ele>
        <time>2021-10-07T13:00:51Z</time>
      </trkpt>
      <trkpt lat="46.6228" lon="5.32918">
        <ele>201.4</ele>
        <time>2021-10-07T13:00:53Z</time>
      </trkpt>
      <trkpt lat="46.62288" lon="5.32918">
        <ele>201</ele>
        <time>2021-10-07T13:00:54Z</time>
      </trkpt>
      <trkpt lat="46.62297" lon="5.32917">
        <ele>200.2</ele>
        <time>2021-10-07T13:00:55Z</time>
      </trkpt>
      <trkpt lat="46.62306" lon="5.32917">
        <ele>199.8</ele>
        <time>2021-10-07T13:00:56Z</time>
      </trkpt>
      <trkpt lat="46.62315" lon="5.32916">
        <ele>199.4</ele>
        <time>2021-10-07T13:00:57Z</time>
      </trkpt>
      <trkpt lat="46.62333" lon="5.32915">
        <ele>198.6</ele>
        <time>2021-10-07T13:00:59Z</time>
      </trkpt>
      <trkpt lat="46.62352" lon="5.32913">
        <ele>198</ele>
        <time>2021-10-07T13:01:01Z</time>
      </trkpt>
      <trkpt lat="46.62361" lon="5.32912">
        <ele>197.6</ele>
        <time>2021-10-07T13:01:02Z</time>
      </trkpt>
      <trkpt lat="46.62371" lon="5.32911">
        <ele>197.2</ele>
        <time>2021-10-07T13:01:03Z</time>
      </trkpt>
      <trkpt lat="46.6239" lon="5.32909">
        <ele>196.2</ele>
        <time>2021-10-07T13:01:05Z</time>
      </trkpt>
      <trkpt lat="46.62409" lon="5.32907">
        <ele>195</ele>
        <time>2021-10-07T13:01:07Z</time>
      </trkpt>
      <trkpt lat="46.62428" lon="5.32904">
        <ele>194</ele>
        <time>2021-10-07T13:01:09Z</time>
      </trkpt>
      <trkpt lat="46.62437" lon="5.32902">
        <ele>193.4</ele>
        <time>2021-10-07T13:01:10Z</time>
      </trkpt>
      <trkpt lat="46.62447" lon="5.329">
        <ele>192.8</ele>
        <time>2021-10-07T13:01:11Z</time>
      </trkpt>
      <trkpt lat="46.62456" lon="5.32899">
        <ele>192.4</ele>
        <time>2021-10-07T13:01:12Z</time>
      </trkpt>
      <trkpt lat="46.62465" lon="5.32898">
        <ele>192</ele>
        <time>2021-10-07T13:01:13Z</time>
      </trkpt>
      <trkpt lat="46.62482" lon="5.32895">
        <ele>190.8</ele>
        <time>2021-10-07T13:01:15Z</time>
      </trkpt>
      <trkpt lat="46.62499" lon="5.32892">
        <ele>189.2</ele>
        <time>2021-10-07T13:01:17Z</time>
      </trkpt>
      <trkpt lat="46.62515" lon="5.32889">
        <ele>188.8</ele>
        <time>2021-10-07T13:01:19Z</time>
      </trkpt>
      <trkpt lat="46.62531" lon="5.32886">
        <ele>188.6</ele>
        <time>2021-10-07T13:01:21Z</time>
      </trkpt>
      <trkpt lat="46.62546" lon="5.32883">
        <ele>188.6</ele>
        <time>2021-10-07T13:01:23Z</time>
      </trkpt>
      <trkpt lat="46.62561" lon="5.3288">
        <ele>188.6</ele>
        <time>2021-10-07T13:01:25Z</time>
      </trkpt>
      <trkpt lat="46.62576" lon="5.32877">
        <ele>188.6</ele>
        <time>2021-10-07T13:01:27Z</time>
      </trkpt>
      <trkpt lat="46.62591" lon="5.32876">
        <ele>189</ele>
        <time>2021-10-07T13:01:29Z</time>
      </trkpt>
      <trkpt lat="46.62598" lon="5.32877">
        <ele>189</ele>
        <time>2021-10-07T13:01:30Z</time>
      </trkpt>
      <trkpt lat="46.62605" lon="5.32879">
        <ele>189.2</ele>
        <time>2021-10-07T13:01:31Z</time>
      </trkpt>
      <trkpt lat="46.62611" lon="5.32883">
        <ele>189.2</ele>
        <time>2021-10-07T13:01:32Z</time>
      </trkpt>
      <trkpt lat="46.62616" lon="5.3289">
        <ele>189.2</ele>
        <time>2021-10-07T13:01:33Z</time>
      </trkpt>
      <trkpt lat="46.62624" lon="5.32908">
        <ele>189.4</ele>
        <time>2021-10-07T13:01:35Z</time>
      </trkpt>
      <trkpt lat="46.62627" lon="5.32917">
        <ele>189.4</ele>
        <time>2021-10-07T13:01:36Z</time>
      </trkpt>
      <trkpt lat="46.6263" lon="5.32925">
        <ele>189.6</ele>
        <time>2021-10-07T13:01:37Z</time>
      </trkpt>
      <trkpt lat="46.62636" lon="5.32941">
        <ele>190</ele>
        <time>2021-10-07T13:01:39Z</time>
      </trkpt>
      <trkpt lat="46.62642" lon="5.32955">
        <ele>190.2</ele>
        <time>2021-10-07T13:01:41Z</time>
      </trkpt>
      <trkpt lat="46.62648" lon="5.32968">
        <ele>190.2</ele>
        <time>2021-10-07T13:01:43Z</time>
      </trkpt>
      <trkpt lat="46.62651" lon="5.32973">
        <ele>190.2</ele>
        <time>2021-10-07T13:01:44Z</time>
      </trkpt>
      <trkpt lat="46.62655" lon="5.32978">
        <ele>190.8</ele>
        <time>2021-10-07T13:01:45Z</time>
      </trkpt>
      <trkpt lat="46.62662" lon="5.32988">
        <ele>191.8</ele>
        <time>2021-10-07T13:01:47Z</time>
      </trkpt>
      <trkpt lat="46.62667" lon="5.32991">
        <ele>192.2</ele>
        <time>2021-10-07T13:01:48Z</time>
      </trkpt>
      <trkpt lat="46.62671" lon="5.32994">
        <ele>192.4</ele>
        <time>2021-10-07T13:01:49Z</time>
      </trkpt>
      <trkpt lat="46.62675" lon="5.32997">
        <ele>192.8</ele>
        <time>2021-10-07T13:01:50Z</time>
      </trkpt>
      <trkpt lat="46.6268" lon="5.32999">
        <ele>193</ele>
        <time>2021-10-07T13:01:51Z</time>
      </trkpt>
      <trkpt lat="46.62684" lon="5.33">
        <ele>193.2</ele>
        <time>2021-10-07T13:01:52Z</time>
      </trkpt>
      <trkpt lat="46.62689" lon="5.33">
        <ele>193.4</ele>
        <time>2021-10-07T13:01:53Z</time>
      </trkpt>
      <trkpt lat="46.62698" lon="5.32999">
        <ele>193.4</ele>
        <time>2021-10-07T13:01:55Z</time>
      </trkpt>
      <trkpt lat="46.62703" lon="5.32998">
        <ele>193.6</ele>
        <time>2021-10-07T13:01:56Z</time>
      </trkpt>
      <trkpt lat="46.62707" lon="5.32997">
        <ele>193.6</ele>
        <time>2021-10-07T13:01:57Z</time>
      </trkpt>
      <trkpt lat="46.62712" lon="5.32997">
        <ele>194</ele>
        <time>2021-10-07T13:01:58Z</time>
      </trkpt>
      <trkpt lat="46.62717" lon="5.32997">
        <ele>194.6</ele>
        <time>2021-10-07T13:01:59Z</time>
      </trkpt>
      <trkpt lat="46.62721" lon="5.32997">
        <ele>195.4</ele>
        <time>2021-10-07T13:02:00Z</time>
      </trkpt>
      <trkpt lat="46.62726" lon="5.32998">
        <ele>196</ele>
        <time>2021-10-07T13:02:01Z</time>
      </trkpt>
      <trkpt lat="46.62735" lon="5.33">
        <ele>196.4</ele>
        <time>2021-10-07T13:02:03Z</time>
      </trkpt>
      <trkpt lat="46.6274" lon="5.33001">
        <ele>196.6</ele>
        <time>2021-10-07T13:02:04Z</time>
      </trkpt>
      <trkpt lat="46.62745" lon="5.33002">
        <ele>196.8</ele>
        <time>2021-10-07T13:02:05Z</time>
      </trkpt>
      <trkpt lat="46.62754" lon="5.33005">
        <ele>197.2</ele>
        <time>2021-10-07T13:02:07Z</time>
      </trkpt>
      <trkpt lat="46.62759" lon="5.33007">
        <ele>197.6</ele>
        <time>2021-10-07T13:02:08Z</time>
      </trkpt>
      <trkpt lat="46.62764" lon="5.33009">
        <ele>197.8</ele>
        <time>2021-10-07T13:02:09Z</time>
      </trkpt>
      <trkpt lat="46.62773" lon="5.33011">
        <ele>198</ele>
        <time>2021-10-07T13:02:11Z</time>
      </trkpt>
      <trkpt lat="46.62783" lon="5.33015">
        <ele>198.2</ele>
        <time>2021-10-07T13:02:13Z</time>
      </trkpt>
      <trkpt lat="46.62788" lon="5.33017">
        <ele>198.2</ele>
        <time>2021-10-07T13:02:14Z</time>
      </trkpt>
      <trkpt lat="46.62792" lon="5.33019">
        <ele>198.4</ele>
        <time>2021-10-07T13:02:15Z</time>
      </trkpt>
      <trkpt lat="46.62802" lon="5.33022">
        <ele>198.6</ele>
        <time>2021-10-07T13:02:17Z</time>
      </trkpt>
      <trkpt lat="46.62811" lon="5.33025">
        <ele>198.8</ele>
        <time>2021-10-07T13:02:19Z</time>
      </trkpt>
      <trkpt lat="46.6282" lon="5.33028">
        <ele>199</ele>
        <time>2021-10-07T13:02:21Z</time>
      </trkpt>
      <trkpt lat="46.6283" lon="5.33031">
        <ele>199.2</ele>
        <time>2021-10-07T13:02:23Z</time>
      </trkpt>
      <trkpt lat="46.6284" lon="5.33034">
        <ele>199.6</ele>
        <time>2021-10-07T13:02:25Z</time>
      </trkpt>
      <trkpt lat="46.62849" lon="5.33037">
        <ele>200</ele>
        <time>2021-10-07T13:02:27Z</time>
      </trkpt>
      <trkpt lat="46.62859" lon="5.33041">
        <ele>200</ele>
        <time>2021-10-07T13:02:29Z</time>
      </trkpt>
      <trkpt lat="46.62868" lon="5.33044">
        <ele>200</ele>
        <time>2021-10-07T13:02:31Z</time>
      </trkpt>
      <trkpt lat="46.62878" lon="5.33047">
        <ele>200.4</ele>
        <time>2021-10-07T13:02:33Z</time>
      </trkpt>
      <trkpt lat="46.62887" lon="5.33053">
        <ele>200.4</ele>
        <time>2021-10-07T13:02:35Z</time>
      </trkpt>
      <trkpt lat="46.62892" lon="5.33056">
        <ele>200.6</ele>
        <time>2021-10-07T13:02:36Z</time>
      </trkpt>
      <trkpt lat="46.62896" lon="5.3306">
        <ele>200.6</ele>
        <time>2021-10-07T13:02:37Z</time>
      </trkpt>
      <trkpt lat="46.629" lon="5.33064">
        <ele>200.6</ele>
        <time>2021-10-07T13:02:38Z</time>
      </trkpt>
      <trkpt lat="46.62904" lon="5.33069">
        <ele>200.6</ele>
        <time>2021-10-07T13:02:39Z</time>
      </trkpt>
      <trkpt lat="46.62912" lon="5.33079">
        <ele>200.6</ele>
        <time>2021-10-07T13:02:41Z</time>
      </trkpt>
      <trkpt lat="46.6292" lon="5.33089">
        <ele>200.6</ele>
        <time>2021-10-07T13:02:43Z</time>
      </trkpt>
      <trkpt lat="46.62928" lon="5.33098">
        <ele>200.6</ele>
        <time>2021-10-07T13:02:45Z</time>
      </trkpt>
      <trkpt lat="46.62933" lon="5.33101">
        <ele>200.6</ele>
        <time>2021-10-07T13:02:46Z</time>
      </trkpt>
      <trkpt lat="46.62937" lon="5.33105">
        <ele>200.6</ele>
        <time>2021-10-07T13:02:47Z</time>
      </trkpt>
      <trkpt lat="46.62946" lon="5.3311">
        <ele>200.8</ele>
        <time>2021-10-07T13:02:49Z</time>
      </trkpt>
      <trkpt lat="46.62956" lon="5.33113">
        <ele>201</ele>
        <time>2021-10-07T13:02:51Z</time>
      </trkpt>
      <trkpt lat="46.6296" lon="5.33114">
        <ele>201.2</ele>
        <time>2021-10-07T13:02:52Z</time>
      </trkpt>
      <trkpt lat="46.62965" lon="5.33116">
        <ele>201.6</ele>
        <time>2021-10-07T13:02:53Z</time>
      </trkpt>
      <trkpt lat="46.62969" lon="5.33117">
        <ele>201.8</ele>
        <time>2021-10-07T13:02:54Z</time>
      </trkpt>
      <trkpt lat="46.62974" lon="5.33118">
        <ele>202</ele>
        <time>2021-10-07T13:02:55Z</time>
      </trkpt>
      <trkpt lat="46.62983" lon="5.33121">
        <ele>202</ele>
        <time>2021-10-07T13:02:57Z</time>
      </trkpt>
      <trkpt lat="46.62992" lon="5.33123">
        <ele>202.2</ele>
        <time>2021-10-07T13:02:59Z</time>
      </trkpt>
      <trkpt lat="46.62996" lon="5.33124">
        <ele>202.4</ele>
        <time>2021-10-07T13:03:00Z</time>
      </trkpt>
      <trkpt lat="46.63" lon="5.33125">
        <ele>202.6</ele>
        <time>2021-10-07T13:03:01Z</time>
      </trkpt>
      <trkpt lat="46.63004" lon="5.33126">
        <ele>203</ele>
        <time>2021-10-07T13:03:02Z</time>
      </trkpt>
      <trkpt lat="46.63009" lon="5.33128">
        <ele>203.2</ele>
        <time>2021-10-07T13:03:03Z</time>
      </trkpt>
      <trkpt lat="46.63017" lon="5.33131">
        <ele>203.8</ele>
        <time>2021-10-07T13:03:05Z</time>
      </trkpt>
      <trkpt lat="46.63021" lon="5.33133">
        <ele>204.2</ele>
        <time>2021-10-07T13:03:06Z</time>
      </trkpt>
      <trkpt lat="46.63025" lon="5.33135">
        <ele>204.4</ele>
        <time>2021-10-07T13:03:07Z</time>
      </trkpt>
      <trkpt lat="46.63033" lon="5.33139">
        <ele>205.4</ele>
        <time>2021-10-07T13:03:09Z</time>
      </trkpt>
      <trkpt lat="46.63041" lon="5.33145">
        <ele>205.8</ele>
        <time>2021-10-07T13:03:11Z</time>
      </trkpt>
      <trkpt lat="46.63049" lon="5.33151">
        <ele>206.2</ele>
        <time>2021-10-07T13:03:13Z</time>
      </trkpt>
      <trkpt lat="46.63053" lon="5.33155">
        <ele>206.4</ele>
        <time>2021-10-07T13:03:14Z</time>
      </trkpt>
      <trkpt lat="46.63057" lon="5.33159">
        <ele>206.6</ele>
        <time>2021-10-07T13:03:15Z</time>
      </trkpt>
      <trkpt lat="46.63061" lon="5.33163">
        <ele>206.6</ele>
        <time>2021-10-07T13:03:16Z</time>
      </trkpt>
      <trkpt lat="46.63065" lon="5.33167">
        <ele>206.8</ele>
        <time>2021-10-07T13:03:17Z</time>
      </trkpt>
      <trkpt lat="46.63074" lon="5.33175">
        <ele>206.8</ele>
        <time>2021-10-07T13:03:19Z</time>
      </trkpt>
      <trkpt lat="46.63083" lon="5.33183">
        <ele>207</ele>
        <time>2021-10-07T13:03:21Z</time>
      </trkpt>
      <trkpt lat="46.63092" lon="5.33192">
        <ele>207.2</ele>
        <time>2021-10-07T13:03:23Z</time>
      </trkpt>
      <trkpt lat="46.63096" lon="5.33196">
        <ele>207.4</ele>
        <time>2021-10-07T13:03:24Z</time>
      </trkpt>
      <trkpt lat="46.631" lon="5.33201">
        <ele>207.4</ele>
        <time>2021-10-07T13:03:25Z</time>
      </trkpt>
      <trkpt lat="46.63105" lon="5.33205">
        <ele>207.6</ele>
        <time>2021-10-07T13:03:26Z</time>
      </trkpt>
      <trkpt lat="46.63109" lon="5.33209">
        <ele>207.6</ele>
        <time>2021-10-07T13:03:27Z</time>
      </trkpt>
      <trkpt lat="46.63118" lon="5.33218">
        <ele>207.6</ele>
        <time>2021-10-07T13:03:29Z</time>
      </trkpt>
      <trkpt lat="46.63127" lon="5.33226">
        <ele>207.6</ele>
        <time>2021-10-07T13:03:31Z</time>
      </trkpt>
      <trkpt lat="46.63136" lon="5.33234">
        <ele>207.6</ele>
        <time>2021-10-07T13:03:33Z</time>
      </trkpt>
      <trkpt lat="46.63145" lon="5.33243">
        <ele>207.8</ele>
        <time>2021-10-07T13:03:35Z</time>
      </trkpt>
      <trkpt lat="46.63155" lon="5.33252">
        <ele>207.8</ele>
        <time>2021-10-07T13:03:37Z</time>
      </trkpt>
      <trkpt lat="46.63165" lon="5.33261">
        <ele>207.6</ele>
        <time>2021-10-07T13:03:39Z</time>
      </trkpt>
      <trkpt lat="46.63175" lon="5.3327">
        <ele>207.8</ele>
        <time>2021-10-07T13:03:41Z</time>
      </trkpt>
      <trkpt lat="46.63185" lon="5.33279">
        <ele>207.8</ele>
        <time>2021-10-07T13:03:43Z</time>
      </trkpt>
      <trkpt lat="46.63195" lon="5.33288">
        <ele>208</ele>
        <time>2021-10-07T13:03:45Z</time>
      </trkpt>
      <trkpt lat="46.632" lon="5.33292">
        <ele>208</ele>
        <time>2021-10-07T13:03:46Z</time>
      </trkpt>
      <trkpt lat="46.63205" lon="5.33296">
        <ele>208</ele>
        <time>2021-10-07T13:03:47Z</time>
      </trkpt>
      <trkpt lat="46.63216" lon="5.33304">
        <ele>208</ele>
        <time>2021-10-07T13:03:49Z</time>
      </trkpt>
      <trkpt lat="46.63227" lon="5.33312">
        <ele>208</ele>
        <time>2021-10-07T13:03:51Z</time>
      </trkpt>
      <trkpt lat="46.63238" lon="5.33319">
        <ele>208</ele>
        <time>2021-10-07T13:03:53Z</time>
      </trkpt>
      <trkpt lat="46.63249" lon="5.33326">
        <ele>208.2</ele>
        <time>2021-10-07T13:03:55Z</time>
      </trkpt>
      <trkpt lat="46.63255" lon="5.33329">
        <ele>208.2</ele>
        <time>2021-10-07T13:03:56Z</time>
      </trkpt>
      <trkpt lat="46.63261" lon="5.33332">
        <ele>208.2</ele>
        <time>2021-10-07T13:03:57Z</time>
      </trkpt>
      <trkpt lat="46.63273" lon="5.33337">
        <ele>208.2</ele>
        <time>2021-10-07T13:03:59Z</time>
      </trkpt>
      <trkpt lat="46.63285" lon="5.33341">
        <ele>207.8</ele>
        <time>2021-10-07T13:04:01Z</time>
      </trkpt>
      <trkpt lat="46.63298" lon="5.33344">
        <ele>207.8</ele>
        <time>2021-10-07T13:04:03Z</time>
      </trkpt>
      <trkpt lat="46.63311" lon="5.33347">
        <ele>207.6</ele>
        <time>2021-10-07T13:04:05Z</time>
      </trkpt>
      <trkpt lat="46.63324" lon="5.3335">
        <ele>207.4</ele>
        <time>2021-10-07T13:04:07Z</time>
      </trkpt>
      <trkpt lat="46.63337" lon="5.33354">
        <ele>207.4</ele>
        <time>2021-10-07T13:04:09Z</time>
      </trkpt>
      <trkpt lat="46.6335" lon="5.33359">
        <ele>207.4</ele>
        <time>2021-10-07T13:04:11Z</time>
      </trkpt>
      <trkpt lat="46.63363" lon="5.33366">
        <ele>207.4</ele>
        <time>2021-10-07T13:04:13Z</time>
      </trkpt>
      <trkpt lat="46.63376" lon="5.33374">
        <ele>207.4</ele>
        <time>2021-10-07T13:04:15Z</time>
      </trkpt>
      <trkpt lat="46.63388" lon="5.33383">
        <ele>207.4</ele>
        <time>2021-10-07T13:04:17Z</time>
      </trkpt>
      <trkpt lat="46.634" lon="5.33392">
        <ele>207.4</ele>
        <time>2021-10-07T13:04:19Z</time>
      </trkpt>
      <trkpt lat="46.63412" lon="5.33402">
        <ele>207.4</ele>
        <time>2021-10-07T13:04:21Z</time>
      </trkpt>
      <trkpt lat="46.63423" lon="5.33412">
        <ele>207.2</ele>
        <time>2021-10-07T13:04:23Z</time>
      </trkpt>
      <trkpt lat="46.63435" lon="5.33422">
        <ele>207.2</ele>
        <time>2021-10-07T13:04:25Z</time>
      </trkpt>
      <trkpt lat="46.63447" lon="5.33432">
        <ele>207.2</ele>
        <time>2021-10-07T13:04:27Z</time>
      </trkpt>
      <trkpt lat="46.63458" lon="5.33442">
        <ele>207</ele>
        <time>2021-10-07T13:04:29Z</time>
      </trkpt>
      <trkpt lat="46.6347" lon="5.33452">
        <ele>207</ele>
        <time>2021-10-07T13:04:31Z</time>
      </trkpt>
      <trkpt lat="46.63482" lon="5.33462">
        <ele>207</ele>
        <time>2021-10-07T13:04:33Z</time>
      </trkpt>
      <trkpt lat="46.63494" lon="5.33472">
        <ele>207</ele>
        <time>2021-10-07T13:04:35Z</time>
      </trkpt>
      <trkpt lat="46.63506" lon="5.33482">
        <ele>207</ele>
        <time>2021-10-07T13:04:37Z</time>
      </trkpt>
      <trkpt lat="46.63512" lon="5.33488">
        <ele>207</ele>
        <time>2021-10-07T13:04:38Z</time>
      </trkpt>
      <trkpt lat="46.63518" lon="5.33492">
        <ele>207</ele>
        <time>2021-10-07T13:04:39Z</time>
      </trkpt>
      <trkpt lat="46.63531" lon="5.33501">
        <ele>207</ele>
        <time>2021-10-07T13:04:41Z</time>
      </trkpt>
      <trkpt lat="46.63543" lon="5.33507">
        <ele>207.2</ele>
        <time>2021-10-07T13:04:43Z</time>
      </trkpt>
      <trkpt lat="46.6355" lon="5.33509">
        <ele>207.2</ele>
        <time>2021-10-07T13:04:44Z</time>
      </trkpt>
      <trkpt lat="46.63557" lon="5.33511">
        <ele>207.2</ele>
        <time>2021-10-07T13:04:45Z</time>
      </trkpt>
      <trkpt lat="46.6357" lon="5.33513">
        <ele>207.2</ele>
        <time>2021-10-07T13:04:47Z</time>
      </trkpt>
      <trkpt lat="46.63584" lon="5.33515">
        <ele>207</ele>
        <time>2021-10-07T13:04:49Z</time>
      </trkpt>
      <trkpt lat="46.63597" lon="5.33517">
        <ele>207</ele>
        <time>2021-10-07T13:04:51Z</time>
      </trkpt>
      <trkpt lat="46.63611" lon="5.33518">
        <ele>207</ele>
        <time>2021-10-07T13:04:53Z</time>
      </trkpt>
      <trkpt lat="46.63625" lon="5.3352">
        <ele>207</ele>
        <time>2021-10-07T13:04:55Z</time>
      </trkpt>
      <trkpt lat="46.63639" lon="5.33522">
        <ele>207.2</ele>
        <time>2021-10-07T13:04:57Z</time>
      </trkpt>
      <trkpt lat="46.63653" lon="5.33525">
        <ele>207.2</ele>
        <time>2021-10-07T13:04:59Z</time>
      </trkpt>
      <trkpt lat="46.6366" lon="5.33527">
        <ele>207.2</ele>
        <time>2021-10-07T13:05:00Z</time>
      </trkpt>
      <trkpt lat="46.63667" lon="5.33529">
        <ele>207</ele>
        <time>2021-10-07T13:05:01Z</time>
      </trkpt>
      <trkpt lat="46.63681" lon="5.33536">
        <ele>206.8</ele>
        <time>2021-10-07T13:05:03Z</time>
      </trkpt>
      <trkpt lat="46.63695" lon="5.33543">
        <ele>206.6</ele>
        <time>2021-10-07T13:05:05Z</time>
      </trkpt>
      <trkpt lat="46.63703" lon="5.33546">
        <ele>206.6</ele>
        <time>2021-10-07T13:05:06Z</time>
      </trkpt>
      <trkpt lat="46.6371" lon="5.3355">
        <ele>206.6</ele>
        <time>2021-10-07T13:05:07Z</time>
      </trkpt>
      <trkpt lat="46.63724" lon="5.33556">
        <ele>206.6</ele>
        <time>2021-10-07T13:05:09Z</time>
      </trkpt>
      <trkpt lat="46.63738" lon="5.33564">
        <ele>206.4</ele>
        <time>2021-10-07T13:05:11Z</time>
      </trkpt>
      <trkpt lat="46.63745" lon="5.33567">
        <ele>206.4</ele>
        <time>2021-10-07T13:05:12Z</time>
      </trkpt>
      <trkpt lat="46.63752" lon="5.33571">
        <ele>206.2</ele>
        <time>2021-10-07T13:05:13Z</time>
      </trkpt>
      <trkpt lat="46.63766" lon="5.33578">
        <ele>206.2</ele>
        <time>2021-10-07T13:05:15Z</time>
      </trkpt>
      <trkpt lat="46.63779" lon="5.33585">
        <ele>206</ele>
        <time>2021-10-07T13:05:17Z</time>
      </trkpt>
      <trkpt lat="46.63792" lon="5.33591">
        <ele>206</ele>
        <time>2021-10-07T13:05:19Z</time>
      </trkpt>
      <trkpt lat="46.63805" lon="5.33598">
        <ele>205.8</ele>
        <time>2021-10-07T13:05:21Z</time>
      </trkpt>
      <trkpt lat="46.63818" lon="5.33605">
        <ele>205.6</ele>
        <time>2021-10-07T13:05:23Z</time>
      </trkpt>
      <trkpt lat="46.63825" lon="5.33609">
        <ele>205.4</ele>
        <time>2021-10-07T13:05:24Z</time>
      </trkpt>
      <trkpt lat="46.63832" lon="5.33612">
        <ele>205.2</ele>
        <time>2021-10-07T13:05:25Z</time>
      </trkpt>
      <trkpt lat="46.63846" lon="5.33619">
        <ele>204.8</ele>
        <time>2021-10-07T13:05:27Z</time>
      </trkpt>
      <trkpt lat="46.63861" lon="5.33627">
        <ele>204.4</ele>
        <time>2021-10-07T13:05:29Z</time>
      </trkpt>
      <trkpt lat="46.63869" lon="5.3363">
        <ele>204</ele>
        <time>2021-10-07T13:05:30Z</time>
      </trkpt>
      <trkpt lat="46.63876" lon="5.33634">
        <ele>204</ele>
        <time>2021-10-07T13:05:31Z</time>
      </trkpt>
      <trkpt lat="46.63891" lon="5.33641">
        <ele>203.2</ele>
        <time>2021-10-07T13:05:33Z</time>
      </trkpt>
      <trkpt lat="46.63898" lon="5.33644">
        <ele>202.8</ele>
        <time>2021-10-07T13:05:34Z</time>
      </trkpt>
      <trkpt lat="46.63905" lon="5.33648">
        <ele>202.6</ele>
        <time>2021-10-07T13:05:35Z</time>
      </trkpt>
      <trkpt lat="46.63921" lon="5.33655">
        <ele>202.2</ele>
        <time>2021-10-07T13:05:37Z</time>
      </trkpt>
      <trkpt lat="46.63928" lon="5.33659">
        <ele>202.2</ele>
        <time>2021-10-07T13:05:38Z</time>
      </trkpt>
      <trkpt lat="46.63936" lon="5.33662">
        <ele>202.2</ele>
        <time>2021-10-07T13:05:39Z</time>
      </trkpt>
      <trkpt lat="46.63951" lon="5.33669">
        <ele>202</ele>
        <time>2021-10-07T13:05:41Z</time>
      </trkpt>
      <trkpt lat="46.63965" lon="5.33677">
        <ele>201.6</ele>
        <time>2021-10-07T13:05:43Z</time>
      </trkpt>
      <trkpt lat="46.63981" lon="5.33684">
        <ele>201.2</ele>
        <time>2021-10-07T13:05:45Z</time>
      </trkpt>
      <trkpt lat="46.63998" lon="5.33692">
        <ele>201</ele>
        <time>2021-10-07T13:05:47Z</time>
      </trkpt>
      <trkpt lat="46.64006" lon="5.33696">
        <ele>200.8</ele>
        <time>2021-10-07T13:05:48Z</time>
      </trkpt>
      <trkpt lat="46.64015" lon="5.33699">
        <ele>200.6</ele>
        <time>2021-10-07T13:05:49Z</time>
      </trkpt>
      <trkpt lat="46.64024" lon="5.33703">
        <ele>200.4</ele>
        <time>2021-10-07T13:05:50Z</time>
      </trkpt>
      <trkpt lat="46.64033" lon="5.33707">
        <ele>200.2</ele>
        <time>2021-10-07T13:05:51Z</time>
      </trkpt>
      <trkpt lat="46.64051" lon="5.33716">
        <ele>199.6</ele>
        <time>2021-10-07T13:05:53Z</time>
      </trkpt>
      <trkpt lat="46.6406" lon="5.3372">
        <ele>199.4</ele>
        <time>2021-10-07T13:05:54Z</time>
      </trkpt>
      <trkpt lat="46.64069" lon="5.33724">
        <ele>199.2</ele>
        <time>2021-10-07T13:05:55Z</time>
      </trkpt>
      <trkpt lat="46.64078" lon="5.33728">
        <ele>198.4</ele>
        <time>2021-10-07T13:05:56Z</time>
      </trkpt>
      <trkpt lat="46.64087" lon="5.33732">
        <ele>197.8</ele>
        <time>2021-10-07T13:05:57Z</time>
      </trkpt>
      <trkpt lat="46.64105" lon="5.3374">
        <ele>197.2</ele>
        <time>2021-10-07T13:05:59Z</time>
      </trkpt>
      <trkpt lat="46.64114" lon="5.33744">
        <ele>196.8</ele>
        <time>2021-10-07T13:06:00Z</time>
      </trkpt>
      <trkpt lat="46.64123" lon="5.33749">
        <ele>196.4</ele>
        <time>2021-10-07T13:06:01Z</time>
      </trkpt>
      <trkpt lat="46.64132" lon="5.33753">
        <ele>195.8</ele>
        <time>2021-10-07T13:06:02Z</time>
      </trkpt>
      <trkpt lat="46.6414" lon="5.33757">
        <ele>195.2</ele>
        <time>2021-10-07T13:06:03Z</time>
      </trkpt>
      <trkpt lat="46.64149" lon="5.33761">
        <ele>194.6</ele>
        <time>2021-10-07T13:06:04Z</time>
      </trkpt>
      <trkpt lat="46.64158" lon="5.33765">
        <ele>194</ele>
        <time>2021-10-07T13:06:05Z</time>
      </trkpt>
      <trkpt lat="46.64167" lon="5.33769">
        <ele>193.4</ele>
        <time>2021-10-07T13:06:06Z</time>
      </trkpt>
      <trkpt lat="46.64175" lon="5.33773">
        <ele>192.8</ele>
        <time>2021-10-07T13:06:07Z</time>
      </trkpt>
      <trkpt lat="46.64184" lon="5.33777">
        <ele>192.2</ele>
        <time>2021-10-07T13:06:08Z</time>
      </trkpt>
      <trkpt lat="46.64193" lon="5.33781">
        <ele>191.8</ele>
        <time>2021-10-07T13:06:09Z</time>
      </trkpt>
      <trkpt lat="46.64209" lon="5.33789">
        <ele>191.2</ele>
        <time>2021-10-07T13:06:11Z</time>
      </trkpt>
      <trkpt lat="46.64218" lon="5.33793">
        <ele>191</ele>
        <time>2021-10-07T13:06:12Z</time>
      </trkpt>
      <trkpt lat="46.64226" lon="5.33797">
        <ele>191</ele>
        <time>2021-10-07T13:06:13Z</time>
      </trkpt>
      <trkpt lat="46.64233" lon="5.33801">
        <ele>190.6</ele>
        <time>2021-10-07T13:06:14Z</time>
      </trkpt>
      <trkpt lat="46.64241" lon="5.33804">
        <ele>190.2</ele>
        <time>2021-10-07T13:06:15Z</time>
      </trkpt>
      <trkpt lat="46.64249" lon="5.33808">
        <ele>189.8</ele>
        <time>2021-10-07T13:06:16Z</time>
      </trkpt>
      <trkpt lat="46.64256" lon="5.33811">
        <ele>189.6</ele>
        <time>2021-10-07T13:06:17Z</time>
      </trkpt>
      <trkpt lat="46.6427" lon="5.33817">
        <ele>189.2</ele>
        <time>2021-10-07T13:06:19Z</time>
      </trkpt>
      <trkpt lat="46.64276" lon="5.3382">
        <ele>189.2</ele>
        <time>2021-10-07T13:06:20Z</time>
      </trkpt>
      <trkpt lat="46.64282" lon="5.33823">
        <ele>189.2</ele>
        <time>2021-10-07T13:06:21Z</time>
      </trkpt>
      <trkpt lat="46.64292" lon="5.33828">
        <ele>189.2</ele>
        <time>2021-10-07T13:06:23Z</time>
      </trkpt>
      <trkpt lat="46.64297" lon="5.3383">
        <ele>189.2</ele>
        <time>2021-10-07T13:06:24Z</time>
      </trkpt>
      <trkpt lat="46.643" lon="5.33831">
        <ele>189.2</ele>
        <time>2021-10-07T13:06:25Z</time>
      </trkpt>
      <trkpt lat="46.64301" lon="5.33828">
        <ele>189.2</ele>
        <time>2021-10-07T13:06:27Z</time>
      </trkpt>
      <trkpt lat="46.64296" lon="5.33825">
        <ele>189.6</ele>
        <time>2021-10-07T13:06:29Z</time>
      </trkpt>
      <trkpt lat="46.64292" lon="5.33823">
        <ele>189.8</ele>
        <time>2021-10-07T13:06:30Z</time>
      </trkpt>
      <trkpt lat="46.64287" lon="5.3382">
        <ele>190</ele>
        <time>2021-10-07T13:06:31Z</time>
      </trkpt>
      <trkpt lat="46.64276" lon="5.33816">
        <ele>191</ele>
        <time>2021-10-07T13:06:33Z</time>
      </trkpt>
      <trkpt lat="46.64264" lon="5.33811">
        <ele>191.6</ele>
        <time>2021-10-07T13:06:35Z</time>
      </trkpt>
      <trkpt lat="46.64254" lon="5.33816">
        <ele>191.8</ele>
        <time>2021-10-07T13:06:37Z</time>
      </trkpt>
      <trkpt lat="46.64252" lon="5.33831">
        <ele>192</ele>
        <time>2021-10-07T13:06:39Z</time>
      </trkpt>
      <trkpt lat="46.64253" lon="5.33847">
        <ele>192</ele>
        <time>2021-10-07T13:06:41Z</time>
      </trkpt>
      <trkpt lat="46.64253" lon="5.33856">
        <ele>192</ele>
        <time>2021-10-07T13:06:42Z</time>
      </trkpt>
      <trkpt lat="46.64253" lon="5.33865">
        <ele>192</ele>
        <time>2021-10-07T13:06:43Z</time>
      </trkpt>
      <trkpt lat="46.64254" lon="5.33884">
        <ele>191.8</ele>
        <time>2021-10-07T13:06:45Z</time>
      </trkpt>
      <trkpt lat="46.64254" lon="5.33903">
        <ele>191.8</ele>
        <time>2021-10-07T13:06:47Z</time>
      </trkpt>
      <trkpt lat="46.64255" lon="5.33922">
        <ele>191.8</ele>
        <time>2021-10-07T13:06:49Z</time>
      </trkpt>
      <trkpt lat="46.64257" lon="5.33942">
        <ele>191.8</ele>
        <time>2021-10-07T13:06:51Z</time>
      </trkpt>
      <trkpt lat="46.64259" lon="5.33961">
        <ele>191.6</ele>
        <time>2021-10-07T13:06:53Z</time>
      </trkpt>
      <trkpt lat="46.6426" lon="5.3398">
        <ele>191.6</ele>
        <time>2021-10-07T13:06:55Z</time>
      </trkpt>
      <trkpt lat="46.64263" lon="5.33999">
        <ele>191.6</ele>
        <time>2021-10-07T13:06:57Z</time>
      </trkpt>
      <trkpt lat="46.64265" lon="5.34019">
        <ele>191.6</ele>
        <time>2021-10-07T13:06:59Z</time>
      </trkpt>
      <trkpt lat="46.64268" lon="5.34039">
        <ele>191.6</ele>
        <time>2021-10-07T13:07:01Z</time>
      </trkpt>
      <trkpt lat="46.64271" lon="5.34058">
        <ele>191.6</ele>
        <time>2021-10-07T13:07:03Z</time>
      </trkpt>
      <trkpt lat="46.64275" lon="5.34077">
        <ele>191.6</ele>
        <time>2021-10-07T13:07:05Z</time>
      </trkpt>
      <trkpt lat="46.64278" lon="5.34096">
        <ele>191.6</ele>
        <time>2021-10-07T13:07:07Z</time>
      </trkpt>
      <trkpt lat="46.64282" lon="5.34114">
        <ele>191.6</ele>
        <time>2021-10-07T13:07:09Z</time>
      </trkpt>
      <trkpt lat="46.64285" lon="5.34133">
        <ele>191.6</ele>
        <time>2021-10-07T13:07:11Z</time>
      </trkpt>
      <trkpt lat="46.6429" lon="5.34151">
        <ele>191.6</ele>
        <time>2021-10-07T13:07:13Z</time>
      </trkpt>
      <trkpt lat="46.64293" lon="5.34169">
        <ele>191.6</ele>
        <time>2021-10-07T13:07:15Z</time>
      </trkpt>
      <trkpt lat="46.64295" lon="5.34178">
        <ele>191.6</ele>
        <time>2021-10-07T13:07:16Z</time>
      </trkpt>
      <trkpt lat="46.64297" lon="5.34188">
        <ele>191.6</ele>
        <time>2021-10-07T13:07:17Z</time>
      </trkpt>
      <trkpt lat="46.64301" lon="5.34206">
        <ele>192</ele>
        <time>2021-10-07T13:07:19Z</time>
      </trkpt>
      <trkpt lat="46.64304" lon="5.34215">
        <ele>192.4</ele>
        <time>2021-10-07T13:07:20Z</time>
      </trkpt>
      <trkpt lat="46.64306" lon="5.34224">
        <ele>192.6</ele>
        <time>2021-10-07T13:07:21Z</time>
      </trkpt>
      <trkpt lat="46.64307" lon="5.34233">
        <ele>192.8</ele>
        <time>2021-10-07T13:07:22Z</time>
      </trkpt>
      <trkpt lat="46.64309" lon="5.34242">
        <ele>192.8</ele>
        <time>2021-10-07T13:07:23Z</time>
      </trkpt>
      <trkpt lat="46.64313" lon="5.34259">
        <ele>193.2</ele>
        <time>2021-10-07T13:07:25Z</time>
      </trkpt>
      <trkpt lat="46.64317" lon="5.34276">
        <ele>193.2</ele>
        <time>2021-10-07T13:07:27Z</time>
      </trkpt>
      <trkpt lat="46.64322" lon="5.34294">
        <ele>193.2</ele>
        <time>2021-10-07T13:07:29Z</time>
      </trkpt>
      <trkpt lat="46.64326" lon="5.34311">
        <ele>193.4</ele>
        <time>2021-10-07T13:07:31Z</time>
      </trkpt>
      <trkpt lat="46.6433" lon="5.34328">
        <ele>193.6</ele>
        <time>2021-10-07T13:07:33Z</time>
      </trkpt>
      <trkpt lat="46.64333" lon="5.34336">
        <ele>193.6</ele>
        <time>2021-10-07T13:07:34Z</time>
      </trkpt>
      <trkpt lat="46.64334" lon="5.34344">
        <ele>193.6</ele>
        <time>2021-10-07T13:07:35Z</time>
      </trkpt>
      <trkpt lat="46.64339" lon="5.3436">
        <ele>193.8</ele>
        <time>2021-10-07T13:07:37Z</time>
      </trkpt>
      <trkpt lat="46.64344" lon="5.34377">
        <ele>193.8</ele>
        <time>2021-10-07T13:07:39Z</time>
      </trkpt>
      <trkpt lat="46.64349" lon="5.34393">
        <ele>193.8</ele>
        <time>2021-10-07T13:07:41Z</time>
      </trkpt>
      <trkpt lat="46.64354" lon="5.34409">
        <ele>194</ele>
        <time>2021-10-07T13:07:43Z</time>
      </trkpt>
      <trkpt lat="46.6436" lon="5.34426">
        <ele>194.4</ele>
        <time>2021-10-07T13:07:45Z</time>
      </trkpt>
      <trkpt lat="46.64367" lon="5.34442">
        <ele>194.6</ele>
        <time>2021-10-07T13:07:47Z</time>
      </trkpt>
      <trkpt lat="46.6437" lon="5.3445">
        <ele>194.6</ele>
        <time>2021-10-07T13:07:48Z</time>
      </trkpt>
      <trkpt lat="46.64373" lon="5.34458">
        <ele>194.6</ele>
        <time>2021-10-07T13:07:49Z</time>
      </trkpt>
      <trkpt lat="46.6438" lon="5.34474">
        <ele>194.8</ele>
        <time>2021-10-07T13:07:51Z</time>
      </trkpt>
      <trkpt lat="46.64387" lon="5.3449">
        <ele>194.8</ele>
        <time>2021-10-07T13:07:53Z</time>
      </trkpt>
      <trkpt lat="46.64391" lon="5.34498">
        <ele>195</ele>
        <time>2021-10-07T13:07:54Z</time>
      </trkpt>
      <trkpt lat="46.64395" lon="5.34506">
        <ele>195</ele>
        <time>2021-10-07T13:07:55Z</time>
      </trkpt>
      <trkpt lat="46.64402" lon="5.34522">
        <ele>195</ele>
        <time>2021-10-07T13:07:57Z</time>
      </trkpt>
      <trkpt lat="46.6441" lon="5.34538">
        <ele>195</ele>
        <time>2021-10-07T13:07:59Z</time>
      </trkpt>
      <trkpt lat="46.64419" lon="5.34555">
        <ele>195.2</ele>
        <time>2021-10-07T13:08:01Z</time>
      </trkpt>
      <trkpt lat="46.64428" lon="5.34573">
        <ele>195.2</ele>
        <time>2021-10-07T13:08:03Z</time>
      </trkpt>
      <trkpt lat="46.64436" lon="5.34591">
        <ele>195.2</ele>
        <time>2021-10-07T13:08:05Z</time>
      </trkpt>
      <trkpt lat="46.64445" lon="5.34609">
        <ele>195.2</ele>
        <time>2021-10-07T13:08:07Z</time>
      </trkpt>
      <trkpt lat="46.64454" lon="5.34627">
        <ele>195.2</ele>
        <time>2021-10-07T13:08:09Z</time>
      </trkpt>
      <trkpt lat="46.64463" lon="5.34646">
        <ele>195</ele>
        <time>2021-10-07T13:08:11Z</time>
      </trkpt>
      <trkpt lat="46.64473" lon="5.34664">
        <ele>194.4</ele>
        <time>2021-10-07T13:08:13Z</time>
      </trkpt>
      <trkpt lat="46.64482" lon="5.34682">
        <ele>194</ele>
        <time>2021-10-07T13:08:15Z</time>
      </trkpt>
      <trkpt lat="46.64491" lon="5.34699">
        <ele>194</ele>
        <time>2021-10-07T13:08:17Z</time>
      </trkpt>
      <trkpt lat="46.645" lon="5.34717">
        <ele>193.8</ele>
        <time>2021-10-07T13:08:19Z</time>
      </trkpt>
      <trkpt lat="46.64509" lon="5.34735">
        <ele>193.8</ele>
        <time>2021-10-07T13:08:21Z</time>
      </trkpt>
      <trkpt lat="46.64517" lon="5.34754">
        <ele>193.8</ele>
        <time>2021-10-07T13:08:23Z</time>
      </trkpt>
      <trkpt lat="46.64525" lon="5.34773">
        <ele>193.8</ele>
        <time>2021-10-07T13:08:25Z</time>
      </trkpt>
      <trkpt lat="46.64533" lon="5.34793">
        <ele>193.6</ele>
        <time>2021-10-07T13:08:27Z</time>
      </trkpt>
      <trkpt lat="46.6454" lon="5.34813">
        <ele>193.6</ele>
        <time>2021-10-07T13:08:29Z</time>
      </trkpt>
      <trkpt lat="46.64547" lon="5.34834">
        <ele>193.2</ele>
        <time>2021-10-07T13:08:31Z</time>
      </trkpt>
      <trkpt lat="46.64553" lon="5.34855">
        <ele>192.6</ele>
        <time>2021-10-07T13:08:33Z</time>
      </trkpt>
      <trkpt lat="46.64556" lon="5.34865">
        <ele>192.6</ele>
        <time>2021-10-07T13:08:34Z</time>
      </trkpt>
      <trkpt lat="46.64559" lon="5.34876">
        <ele>192.4</ele>
        <time>2021-10-07T13:08:35Z</time>
      </trkpt>
      <trkpt lat="46.64564" lon="5.34897">
        <ele>192.2</ele>
        <time>2021-10-07T13:08:37Z</time>
      </trkpt>
      <trkpt lat="46.64569" lon="5.34918">
        <ele>192.2</ele>
        <time>2021-10-07T13:08:39Z</time>
      </trkpt>
      <trkpt lat="46.64573" lon="5.34939">
        <ele>192</ele>
        <time>2021-10-07T13:08:41Z</time>
      </trkpt>
      <trkpt lat="46.64578" lon="5.3496">
        <ele>192</ele>
        <time>2021-10-07T13:08:43Z</time>
      </trkpt>
      <trkpt lat="46.64583" lon="5.3498">
        <ele>192</ele>
        <time>2021-10-07T13:08:45Z</time>
      </trkpt>
      <trkpt lat="46.64588" lon="5.35">
        <ele>192</ele>
        <time>2021-10-07T13:08:47Z</time>
      </trkpt>
      <trkpt lat="46.64592" lon="5.35021">
        <ele>192</ele>
        <time>2021-10-07T13:08:49Z</time>
      </trkpt>
      <trkpt lat="46.64597" lon="5.3504">
        <ele>192</ele>
        <time>2021-10-07T13:08:51Z</time>
      </trkpt>
      <trkpt lat="46.64601" lon="5.3506">
        <ele>192</ele>
        <time>2021-10-07T13:08:53Z</time>
      </trkpt>
      <trkpt lat="46.64606" lon="5.35079">
        <ele>192</ele>
        <time>2021-10-07T13:08:55Z</time>
      </trkpt>
      <trkpt lat="46.6461" lon="5.35099">
        <ele>192</ele>
        <time>2021-10-07T13:08:57Z</time>
      </trkpt>
      <trkpt lat="46.64615" lon="5.35118">
        <ele>192.2</ele>
        <time>2021-10-07T13:08:59Z</time>
      </trkpt>
      <trkpt lat="46.64618" lon="5.35137">
        <ele>192.2</ele>
        <time>2021-10-07T13:09:01Z</time>
      </trkpt>
      <trkpt lat="46.64622" lon="5.35156">
        <ele>192.2</ele>
        <time>2021-10-07T13:09:03Z</time>
      </trkpt>
      <trkpt lat="46.64626" lon="5.35175">
        <ele>192.4</ele>
        <time>2021-10-07T13:09:05Z</time>
      </trkpt>
      <trkpt lat="46.6463" lon="5.35194">
        <ele>192.6</ele>
        <time>2021-10-07T13:09:07Z</time>
      </trkpt>
      <trkpt lat="46.64633" lon="5.35213">
        <ele>192.8</ele>
        <time>2021-10-07T13:09:09Z</time>
      </trkpt>
      <trkpt lat="46.64635" lon="5.35233">
        <ele>193</ele>
        <time>2021-10-07T13:09:11Z</time>
      </trkpt>
      <trkpt lat="46.64637" lon="5.35253">
        <ele>193</ele>
        <time>2021-10-07T13:09:13Z</time>
      </trkpt>
      <trkpt lat="46.64639" lon="5.35272">
        <ele>193</ele>
        <time>2021-10-07T13:09:15Z</time>
      </trkpt>
      <trkpt lat="46.64639" lon="5.35282">
        <ele>193</ele>
        <time>2021-10-07T13:09:16Z</time>
      </trkpt>
      <trkpt lat="46.6464" lon="5.35292">
        <ele>193</ele>
        <time>2021-10-07T13:09:17Z</time>
      </trkpt>
      <trkpt lat="46.64641" lon="5.35311">
        <ele>193</ele>
        <time>2021-10-07T13:09:19Z</time>
      </trkpt>
      <trkpt lat="46.64643" lon="5.3533">
        <ele>193.2</ele>
        <time>2021-10-07T13:09:21Z</time>
      </trkpt>
      <trkpt lat="46.64643" lon="5.35348">
        <ele>193.2</ele>
        <time>2021-10-07T13:09:23Z</time>
      </trkpt>
      <trkpt lat="46.64643" lon="5.35362">
        <ele>193.2</ele>
        <time>2021-10-07T13:09:25Z</time>
      </trkpt>
      <trkpt lat="46.64643" lon="5.35375">
        <ele>193.2</ele>
        <time>2021-10-07T13:09:27Z</time>
      </trkpt>
      <trkpt lat="46.64645" lon="5.35389">
        <ele>193.2</ele>
        <time>2021-10-07T13:09:29Z</time>
      </trkpt>
      <trkpt lat="46.64645" lon="5.35397">
        <ele>193.2</ele>
        <time>2021-10-07T13:09:30Z</time>
      </trkpt>
      <trkpt lat="46.64646" lon="5.35405">
        <ele>193</ele>
        <time>2021-10-07T13:09:31Z</time>
      </trkpt>
      <trkpt lat="46.64646" lon="5.35413">
        <ele>193</ele>
        <time>2021-10-07T13:09:32Z</time>
      </trkpt>
      <trkpt lat="46.64646" lon="5.35422">
        <ele>193</ele>
        <time>2021-10-07T13:09:33Z</time>
      </trkpt>
      <trkpt lat="46.64646" lon="5.3544">
        <ele>193</ele>
        <time>2021-10-07T13:09:35Z</time>
      </trkpt>
      <trkpt lat="46.64646" lon="5.3545">
        <ele>193</ele>
        <time>2021-10-07T13:09:36Z</time>
      </trkpt>
      <trkpt lat="46.64646" lon="5.3546">
        <ele>192.8</ele>
        <time>2021-10-07T13:09:37Z</time>
      </trkpt>
      <trkpt lat="46.64646" lon="5.3548">
        <ele>192.6</ele>
        <time>2021-10-07T13:09:39Z</time>
      </trkpt>
      <trkpt lat="46.64647" lon="5.355">
        <ele>192.6</ele>
        <time>2021-10-07T13:09:41Z</time>
      </trkpt>
      <trkpt lat="46.64647" lon="5.3551">
        <ele>192.6</ele>
        <time>2021-10-07T13:09:42Z</time>
      </trkpt>
      <trkpt lat="46.64648" lon="5.3552">
        <ele>192.6</ele>
        <time>2021-10-07T13:09:43Z</time>
      </trkpt>
      <trkpt lat="46.64648" lon="5.3554">
        <ele>192.6</ele>
        <time>2021-10-07T13:09:45Z</time>
      </trkpt>
      <trkpt lat="46.6465" lon="5.35559">
        <ele>192.8</ele>
        <time>2021-10-07T13:09:47Z</time>
      </trkpt>
      <trkpt lat="46.64652" lon="5.35579">
        <ele>193</ele>
        <time>2021-10-07T13:09:49Z</time>
      </trkpt>
      <trkpt lat="46.64654" lon="5.35598">
        <ele>193</ele>
        <time>2021-10-07T13:09:51Z</time>
      </trkpt>
      <trkpt lat="46.64657" lon="5.35617">
        <ele>193.2</ele>
        <time>2021-10-07T13:09:53Z</time>
      </trkpt>
      <trkpt lat="46.64659" lon="5.35636">
        <ele>193.2</ele>
        <time>2021-10-07T13:09:55Z</time>
      </trkpt>
      <trkpt lat="46.64663" lon="5.35655">
        <ele>193.2</ele>
        <time>2021-10-07T13:09:57Z</time>
      </trkpt>
      <trkpt lat="46.64665" lon="5.35664">
        <ele>193.4</ele>
        <time>2021-10-07T13:09:58Z</time>
      </trkpt>
      <trkpt lat="46.64667" lon="5.35674">
        <ele>193.4</ele>
        <time>2021-10-07T13:09:59Z</time>
      </trkpt>
      <trkpt lat="46.64671" lon="5.35693">
        <ele>193.4</ele>
        <time>2021-10-07T13:10:01Z</time>
      </trkpt>
      <trkpt lat="46.64676" lon="5.35711">
        <ele>193.6</ele>
        <time>2021-10-07T13:10:03Z</time>
      </trkpt>
      <trkpt lat="46.64681" lon="5.35729">
        <ele>193.6</ele>
        <time>2021-10-07T13:10:05Z</time>
      </trkpt>
      <trkpt lat="46.64686" lon="5.35746">
        <ele>194</ele>
        <time>2021-10-07T13:10:07Z</time>
      </trkpt>
      <trkpt lat="46.64688" lon="5.35755">
        <ele>194.2</ele>
        <time>2021-10-07T13:10:08Z</time>
      </trkpt>
      <trkpt lat="46.64691" lon="5.35764">
        <ele>194.2</ele>
        <time>2021-10-07T13:10:09Z</time>
      </trkpt>
      <trkpt lat="46.64697" lon="5.35781">
        <ele>194.4</ele>
        <time>2021-10-07T13:10:11Z</time>
      </trkpt>
      <trkpt lat="46.64704" lon="5.35798">
        <ele>194.4</ele>
        <time>2021-10-07T13:10:13Z</time>
      </trkpt>
      <trkpt lat="46.64707" lon="5.35807">
        <ele>194.6</ele>
        <time>2021-10-07T13:10:14Z</time>
      </trkpt>
      <trkpt lat="46.6471" lon="5.35815">
        <ele>194.6</ele>
        <time>2021-10-07T13:10:15Z</time>
      </trkpt>
      <trkpt lat="46.64718" lon="5.35833">
        <ele>194.8</ele>
        <time>2021-10-07T13:10:17Z</time>
      </trkpt>
      <trkpt lat="46.64725" lon="5.3585">
        <ele>194.8</ele>
        <time>2021-10-07T13:10:19Z</time>
      </trkpt>
      <trkpt lat="46.64732" lon="5.35869">
        <ele>195</ele>
        <time>2021-10-07T13:10:21Z</time>
      </trkpt>
      <trkpt lat="46.64735" lon="5.35878">
        <ele>195</ele>
        <time>2021-10-07T13:10:22Z</time>
      </trkpt>
      <trkpt lat="46.64738" lon="5.35887">
        <ele>195.2</ele>
        <time>2021-10-07T13:10:23Z</time>
      </trkpt>
      <trkpt lat="46.64743" lon="5.35906">
        <ele>195.4</ele>
        <time>2021-10-07T13:10:25Z</time>
      </trkpt>
      <trkpt lat="46.6475" lon="5.35924">
        <ele>195.4</ele>
        <time>2021-10-07T13:10:27Z</time>
      </trkpt>
      <trkpt lat="46.64757" lon="5.35943">
        <ele>195.4</ele>
        <time>2021-10-07T13:10:29Z</time>
      </trkpt>
      <trkpt lat="46.64764" lon="5.35962">
        <ele>195.4</ele>
        <time>2021-10-07T13:10:31Z</time>
      </trkpt>
      <trkpt lat="46.64771" lon="5.35981">
        <ele>195.4</ele>
        <time>2021-10-07T13:10:33Z</time>
      </trkpt>
      <trkpt lat="46.6478" lon="5.35999">
        <ele>195.2</ele>
        <time>2021-10-07T13:10:35Z</time>
      </trkpt>
      <trkpt lat="46.64788" lon="5.36017">
        <ele>195</ele>
        <time>2021-10-07T13:10:37Z</time>
      </trkpt>
      <trkpt lat="46.64796" lon="5.36038">
        <ele>194.8</ele>
        <time>2021-10-07T13:10:39Z</time>
      </trkpt>
      <trkpt lat="46.64804" lon="5.36058">
        <ele>194.6</ele>
        <time>2021-10-07T13:10:41Z</time>
      </trkpt>
      <trkpt lat="46.64812" lon="5.36078">
        <ele>194.6</ele>
        <time>2021-10-07T13:10:43Z</time>
      </trkpt>
      <trkpt lat="46.6482" lon="5.36098">
        <ele>194.4</ele>
        <time>2021-10-07T13:10:45Z</time>
      </trkpt>
      <trkpt lat="46.64828" lon="5.36118">
        <ele>194.2</ele>
        <time>2021-10-07T13:10:47Z</time>
      </trkpt>
      <trkpt lat="46.64835" lon="5.36136">
        <ele>194.2</ele>
        <time>2021-10-07T13:10:49Z</time>
      </trkpt>
      <trkpt lat="46.64842" lon="5.36156">
        <ele>194.2</ele>
        <time>2021-10-07T13:10:51Z</time>
      </trkpt>
      <trkpt lat="46.64849" lon="5.36174">
        <ele>194.2</ele>
        <time>2021-10-07T13:10:53Z</time>
      </trkpt>
      <trkpt lat="46.64852" lon="5.36184">
        <ele>194.2</ele>
        <time>2021-10-07T13:10:54Z</time>
      </trkpt>
      <trkpt lat="46.64855" lon="5.36193">
        <ele>194.2</ele>
        <time>2021-10-07T13:10:55Z</time>
      </trkpt>
      <trkpt lat="46.6486" lon="5.36212">
        <ele>194.2</ele>
        <time>2021-10-07T13:10:57Z</time>
      </trkpt>
      <trkpt lat="46.64866" lon="5.36229">
        <ele>194.2</ele>
        <time>2021-10-07T13:10:59Z</time>
      </trkpt>
      <trkpt lat="46.64871" lon="5.36247">
        <ele>194.6</ele>
        <time>2021-10-07T13:11:01Z</time>
      </trkpt>
      <trkpt lat="46.64875" lon="5.36263">
        <ele>194.8</ele>
        <time>2021-10-07T13:11:03Z</time>
      </trkpt>
      <trkpt lat="46.64879" lon="5.36278">
        <ele>195</ele>
        <time>2021-10-07T13:11:05Z</time>
      </trkpt>
      <trkpt lat="46.64881" lon="5.36287">
        <ele>195</ele>
        <time>2021-10-07T13:11:06Z</time>
      </trkpt>
      <trkpt lat="46.64883" lon="5.36295">
        <ele>195</ele>
        <time>2021-10-07T13:11:07Z</time>
      </trkpt>
      <trkpt lat="46.64886" lon="5.36312">
        <ele>195.4</ele>
        <time>2021-10-07T13:11:09Z</time>
      </trkpt>
      <trkpt lat="46.64889" lon="5.3633">
        <ele>195.4</ele>
        <time>2021-10-07T13:11:11Z</time>
      </trkpt>
      <trkpt lat="46.64891" lon="5.36338">
        <ele>195.4</ele>
        <time>2021-10-07T13:11:12Z</time>
      </trkpt>
      <trkpt lat="46.64893" lon="5.36347">
        <ele>195.4</ele>
        <time>2021-10-07T13:11:13Z</time>
      </trkpt>
      <trkpt lat="46.64896" lon="5.36365">
        <ele>195.6</ele>
        <time>2021-10-07T13:11:15Z</time>
      </trkpt>
      <trkpt lat="46.64901" lon="5.36383">
        <ele>195.6</ele>
        <time>2021-10-07T13:11:17Z</time>
      </trkpt>
      <trkpt lat="46.64903" lon="5.36392">
        <ele>195.6</ele>
        <time>2021-10-07T13:11:18Z</time>
      </trkpt>
      <trkpt lat="46.64906" lon="5.36402">
        <ele>195.6</ele>
        <time>2021-10-07T13:11:19Z</time>
      </trkpt>
      <trkpt lat="46.64913" lon="5.36423">
        <ele>195.4</ele>
        <time>2021-10-07T13:11:21Z</time>
      </trkpt>
      <trkpt lat="46.64918" lon="5.36433">
        <ele>195.4</ele>
        <time>2021-10-07T13:11:22Z</time>
      </trkpt>
      <trkpt lat="46.64923" lon="5.36443">
        <ele>195.4</ele>
        <time>2021-10-07T13:11:23Z</time>
      </trkpt>
      <trkpt lat="46.64931" lon="5.36464">
        <ele>195.2</ele>
        <time>2021-10-07T13:11:25Z</time>
      </trkpt>
      <trkpt lat="46.64939" lon="5.36486">
        <ele>195</ele>
        <time>2021-10-07T13:11:27Z</time>
      </trkpt>
      <trkpt lat="46.64945" lon="5.36508">
        <ele>195</ele>
        <time>2021-10-07T13:11:29Z</time>
      </trkpt>
      <trkpt lat="46.64948" lon="5.36519">
        <ele>194.6</ele>
        <time>2021-10-07T13:11:30Z</time>
      </trkpt>
      <trkpt lat="46.64951" lon="5.3653">
        <ele>194.6</ele>
        <time>2021-10-07T13:11:31Z</time>
      </trkpt>
      <trkpt lat="46.64957" lon="5.36552">
        <ele>194.4</ele>
        <time>2021-10-07T13:11:33Z</time>
      </trkpt>
      <trkpt lat="46.64963" lon="5.36574">
        <ele>194.2</ele>
        <time>2021-10-07T13:11:35Z</time>
      </trkpt>
      <trkpt lat="46.64969" lon="5.36595">
        <ele>194.2</ele>
        <time>2021-10-07T13:11:37Z</time>
      </trkpt>
      <trkpt lat="46.64974" lon="5.36616">
        <ele>194.2</ele>
        <time>2021-10-07T13:11:39Z</time>
      </trkpt>
      <trkpt lat="46.64977" lon="5.36626">
        <ele>194.2</ele>
        <time>2021-10-07T13:11:40Z</time>
      </trkpt>
      <trkpt lat="46.6498" lon="5.36637">
        <ele>194.2</ele>
        <time>2021-10-07T13:11:41Z</time>
      </trkpt>
      <trkpt lat="46.64986" lon="5.36658">
        <ele>194.2</ele>
        <time>2021-10-07T13:11:43Z</time>
      </trkpt>
      <trkpt lat="46.64991" lon="5.36678">
        <ele>194.2</ele>
        <time>2021-10-07T13:11:45Z</time>
      </trkpt>
      <trkpt lat="46.64996" lon="5.36697">
        <ele>194.2</ele>
        <time>2021-10-07T13:11:47Z</time>
      </trkpt>
      <trkpt lat="46.65001" lon="5.36714">
        <ele>194.2</ele>
        <time>2021-10-07T13:11:49Z</time>
      </trkpt>
      <trkpt lat="46.65005" lon="5.3673">
        <ele>194.2</ele>
        <time>2021-10-07T13:11:51Z</time>
      </trkpt>
      <trkpt lat="46.65007" lon="5.36745">
        <ele>194.4</ele>
        <time>2021-10-07T13:11:53Z</time>
      </trkpt>
      <trkpt lat="46.65009" lon="5.36753">
        <ele>194.4</ele>
        <time>2021-10-07T13:11:54Z</time>
      </trkpt>
      <trkpt lat="46.6501" lon="5.36761">
        <ele>194.4</ele>
        <time>2021-10-07T13:11:55Z</time>
      </trkpt>
      <trkpt lat="46.65014" lon="5.36777">
        <ele>194.6</ele>
        <time>2021-10-07T13:11:57Z</time>
      </trkpt>
      <trkpt lat="46.65019" lon="5.36794">
        <ele>194.6</ele>
        <time>2021-10-07T13:11:59Z</time>
      </trkpt>
      <trkpt lat="46.65022" lon="5.36802">
        <ele>194.6</ele>
        <time>2021-10-07T13:12:00Z</time>
      </trkpt>
      <trkpt lat="46.65024" lon="5.36811">
        <ele>194.8</ele>
        <time>2021-10-07T13:12:01Z</time>
      </trkpt>
      <trkpt lat="46.65029" lon="5.36828">
        <ele>194.8</ele>
        <time>2021-10-07T13:12:03Z</time>
      </trkpt>
      <trkpt lat="46.65033" lon="5.36847">
        <ele>194.8</ele>
        <time>2021-10-07T13:12:05Z</time>
      </trkpt>
      <trkpt lat="46.65036" lon="5.36857">
        <ele>194.8</ele>
        <time>2021-10-07T13:12:06Z</time>
      </trkpt>
      <trkpt lat="46.65039" lon="5.36866">
        <ele>195</ele>
        <time>2021-10-07T13:12:07Z</time>
      </trkpt>
      <trkpt lat="46.65044" lon="5.36887">
        <ele>195</ele>
        <time>2021-10-07T13:12:09Z</time>
      </trkpt>
      <trkpt lat="46.65049" lon="5.36909">
        <ele>195</ele>
        <time>2021-10-07T13:12:11Z</time>
      </trkpt>
      <trkpt lat="46.65054" lon="5.36929">
        <ele>195</ele>
        <time>2021-10-07T13:12:13Z</time>
      </trkpt>
      <trkpt lat="46.65057" lon="5.36938">
        <ele>195</ele>
        <time>2021-10-07T13:12:14Z</time>
      </trkpt>
      <trkpt lat="46.65059" lon="5.36948">
        <ele>195</ele>
        <time>2021-10-07T13:12:15Z</time>
      </trkpt>
      <trkpt lat="46.65065" lon="5.36967">
        <ele>195</ele>
        <time>2021-10-07T13:12:17Z</time>
      </trkpt>
      <trkpt lat="46.6507" lon="5.36988">
        <ele>195</ele>
        <time>2021-10-07T13:12:19Z</time>
      </trkpt>
      <trkpt lat="46.65076" lon="5.37007">
        <ele>195.2</ele>
        <time>2021-10-07T13:12:21Z</time>
      </trkpt>
      <trkpt lat="46.65078" lon="5.37017">
        <ele>195.2</ele>
        <time>2021-10-07T13:12:22Z</time>
      </trkpt>
      <trkpt lat="46.65081" lon="5.37026">
        <ele>195.2</ele>
        <time>2021-10-07T13:12:23Z</time>
      </trkpt>
      <trkpt lat="46.65086" lon="5.37046">
        <ele>195.4</ele>
        <time>2021-10-07T13:12:25Z</time>
      </trkpt>
      <trkpt lat="46.65088" lon="5.37056">
        <ele>195.4</ele>
        <time>2021-10-07T13:12:26Z</time>
      </trkpt>
      <trkpt lat="46.65091" lon="5.37066">
        <ele>195.6</ele>
        <time>2021-10-07T13:12:27Z</time>
      </trkpt>
      <trkpt lat="46.65096" lon="5.37086">
        <ele>195.6</ele>
        <time>2021-10-07T13:12:29Z</time>
      </trkpt>
      <trkpt lat="46.65102" lon="5.37105">
        <ele>195.6</ele>
        <time>2021-10-07T13:12:31Z</time>
      </trkpt>
      <trkpt lat="46.65104" lon="5.37115">
        <ele>195.6</ele>
        <time>2021-10-07T13:12:32Z</time>
      </trkpt>
      <trkpt lat="46.65107" lon="5.37124">
        <ele>195.6</ele>
        <time>2021-10-07T13:12:33Z</time>
      </trkpt>
      <trkpt lat="46.65112" lon="5.37144">
        <ele>195.6</ele>
        <time>2021-10-07T13:12:35Z</time>
      </trkpt>
      <trkpt lat="46.65116" lon="5.37163">
        <ele>195.4</ele>
        <time>2021-10-07T13:12:37Z</time>
      </trkpt>
      <trkpt lat="46.65121" lon="5.37181">
        <ele>195.2</ele>
        <time>2021-10-07T13:12:39Z</time>
      </trkpt>
      <trkpt lat="46.65125" lon="5.37199">
        <ele>195.2</ele>
        <time>2021-10-07T13:12:41Z</time>
      </trkpt>
      <trkpt lat="46.65129" lon="5.37217">
        <ele>195.2</ele>
        <time>2021-10-07T13:12:43Z</time>
      </trkpt>
      <trkpt lat="46.65133" lon="5.37235">
        <ele>195.2</ele>
        <time>2021-10-07T13:12:45Z</time>
      </trkpt>
      <trkpt lat="46.65136" lon="5.37252">
        <ele>195.2</ele>
        <time>2021-10-07T13:12:47Z</time>
      </trkpt>
      <trkpt lat="46.65139" lon="5.37271">
        <ele>195.2</ele>
        <time>2021-10-07T13:12:49Z</time>
      </trkpt>
      <trkpt lat="46.65142" lon="5.37289">
        <ele>195.2</ele>
        <time>2021-10-07T13:12:51Z</time>
      </trkpt>
      <trkpt lat="46.65144" lon="5.37308">
        <ele>195.4</ele>
        <time>2021-10-07T13:12:53Z</time>
      </trkpt>
      <trkpt lat="46.65147" lon="5.37328">
        <ele>196</ele>
        <time>2021-10-07T13:12:55Z</time>
      </trkpt>
      <trkpt lat="46.65148" lon="5.37347">
        <ele>196.4</ele>
        <time>2021-10-07T13:12:57Z</time>
      </trkpt>
      <trkpt lat="46.65149" lon="5.37357">
        <ele>196.4</ele>
        <time>2021-10-07T13:12:58Z</time>
      </trkpt>
      <trkpt lat="46.65149" lon="5.37366">
        <ele>196.6</ele>
        <time>2021-10-07T13:12:59Z</time>
      </trkpt>
      <trkpt lat="46.6515" lon="5.37386">
        <ele>196.6</ele>
        <time>2021-10-07T13:13:01Z</time>
      </trkpt>
      <trkpt lat="46.6515" lon="5.37406">
        <ele>196.8</ele>
        <time>2021-10-07T13:13:03Z</time>
      </trkpt>
      <trkpt lat="46.6515" lon="5.37426">
        <ele>196.8</ele>
        <time>2021-10-07T13:13:05Z</time>
      </trkpt>
      <trkpt lat="46.6515" lon="5.37436">
        <ele>197</ele>
        <time>2021-10-07T13:13:06Z</time>
      </trkpt>
      <trkpt lat="46.6515" lon="5.37446">
        <ele>197</ele>
        <time>2021-10-07T13:13:07Z</time>
      </trkpt>
      <trkpt lat="46.6515" lon="5.37466">
        <ele>196.8</ele>
        <time>2021-10-07T13:13:09Z</time>
      </trkpt>
      <trkpt lat="46.6515" lon="5.37486">
        <ele>197</ele>
        <time>2021-10-07T13:13:11Z</time>
      </trkpt>
      <trkpt lat="46.6515" lon="5.37507">
        <ele>197</ele>
        <time>2021-10-07T13:13:13Z</time>
      </trkpt>
      <trkpt lat="46.6515" lon="5.37526">
        <ele>197</ele>
        <time>2021-10-07T13:13:15Z</time>
      </trkpt>
      <trkpt lat="46.6515" lon="5.37546">
        <ele>196.8</ele>
        <time>2021-10-07T13:13:17Z</time>
      </trkpt>
      <trkpt lat="46.6515" lon="5.37566">
        <ele>196.8</ele>
        <time>2021-10-07T13:13:19Z</time>
      </trkpt>
      <trkpt lat="46.6515" lon="5.37585">
        <ele>197</ele>
        <time>2021-10-07T13:13:21Z</time>
      </trkpt>
      <trkpt lat="46.65149" lon="5.37605">
        <ele>197</ele>
        <time>2021-10-07T13:13:23Z</time>
      </trkpt>
      <trkpt lat="46.65149" lon="5.37615">
        <ele>197.2</ele>
        <time>2021-10-07T13:13:24Z</time>
      </trkpt>
      <trkpt lat="46.65148" lon="5.37625">
        <ele>197.2</ele>
        <time>2021-10-07T13:13:25Z</time>
      </trkpt>
      <trkpt lat="46.65149" lon="5.37645">
        <ele>197.2</ele>
        <time>2021-10-07T13:13:27Z</time>
      </trkpt>
      <trkpt lat="46.65148" lon="5.37664">
        <ele>197.2</ele>
        <time>2021-10-07T13:13:29Z</time>
      </trkpt>
      <trkpt lat="46.65148" lon="5.37684">
        <ele>197.4</ele>
        <time>2021-10-07T13:13:31Z</time>
      </trkpt>
      <trkpt lat="46.65148" lon="5.37703">
        <ele>197.4</ele>
        <time>2021-10-07T13:13:33Z</time>
      </trkpt>
      <trkpt lat="46.65149" lon="5.37722">
        <ele>197.4</ele>
        <time>2021-10-07T13:13:35Z</time>
      </trkpt>
      <trkpt lat="46.6515" lon="5.3774">
        <ele>197.4</ele>
        <time>2021-10-07T13:13:37Z</time>
      </trkpt>
      <trkpt lat="46.65151" lon="5.37749">
        <ele>197.4</ele>
        <time>2021-10-07T13:13:38Z</time>
      </trkpt>
      <trkpt lat="46.65152" lon="5.37759">
        <ele>197.4</ele>
        <time>2021-10-07T13:13:39Z</time>
      </trkpt>
      <trkpt lat="46.65154" lon="5.37778">
        <ele>197.4</ele>
        <time>2021-10-07T13:13:41Z</time>
      </trkpt>
      <trkpt lat="46.65156" lon="5.37797">
        <ele>197.4</ele>
        <time>2021-10-07T13:13:43Z</time>
      </trkpt>
      <trkpt lat="46.65159" lon="5.37815">
        <ele>197.4</ele>
        <time>2021-10-07T13:13:45Z</time>
      </trkpt>
      <trkpt lat="46.65161" lon="5.37825">
        <ele>197.4</ele>
        <time>2021-10-07T13:13:46Z</time>
      </trkpt>
      <trkpt lat="46.65163" lon="5.37834">
        <ele>197.4</ele>
        <time>2021-10-07T13:13:47Z</time>
      </trkpt>
      <trkpt lat="46.65167" lon="5.37852">
        <ele>197.4</ele>
        <time>2021-10-07T13:13:49Z</time>
      </trkpt>
      <trkpt lat="46.65171" lon="5.3787">
        <ele>197.4</ele>
        <time>2021-10-07T13:13:51Z</time>
      </trkpt>
      <trkpt lat="46.65176" lon="5.37888">
        <ele>197.4</ele>
        <time>2021-10-07T13:13:53Z</time>
      </trkpt>
      <trkpt lat="46.65182" lon="5.37905">
        <ele>197.6</ele>
        <time>2021-10-07T13:13:55Z</time>
      </trkpt>
      <trkpt lat="46.65187" lon="5.37923">
        <ele>197.6</ele>
        <time>2021-10-07T13:13:57Z</time>
      </trkpt>
      <trkpt lat="46.65193" lon="5.3794">
        <ele>198</ele>
        <time>2021-10-07T13:13:59Z</time>
      </trkpt>
      <trkpt lat="46.65199" lon="5.37957">
        <ele>198.2</ele>
        <time>2021-10-07T13:14:01Z</time>
      </trkpt>
      <trkpt lat="46.65205" lon="5.37973">
        <ele>198.2</ele>
        <time>2021-10-07T13:14:03Z</time>
      </trkpt>
      <trkpt lat="46.65211" lon="5.3799">
        <ele>198.4</ele>
        <time>2021-10-07T13:14:05Z</time>
      </trkpt>
      <trkpt lat="46.65214" lon="5.37999">
        <ele>198.4</ele>
        <time>2021-10-07T13:14:06Z</time>
      </trkpt>
      <trkpt lat="46.65217" lon="5.38007">
        <ele>198.4</ele>
        <time>2021-10-07T13:14:07Z</time>
      </trkpt>
      <trkpt lat="46.65223" lon="5.38024">
        <ele>198.6</ele>
        <time>2021-10-07T13:14:09Z</time>
      </trkpt>
      <trkpt lat="46.65228" lon="5.38041">
        <ele>198.6</ele>
        <time>2021-10-07T13:14:11Z</time>
      </trkpt>
      <trkpt lat="46.65233" lon="5.38058">
        <ele>198.8</ele>
        <time>2021-10-07T13:14:13Z</time>
      </trkpt>
      <trkpt lat="46.65238" lon="5.38077">
        <ele>198.8</ele>
        <time>2021-10-07T13:14:15Z</time>
      </trkpt>
      <trkpt lat="46.65243" lon="5.38095">
        <ele>198.8</ele>
        <time>2021-10-07T13:14:17Z</time>
      </trkpt>
      <trkpt lat="46.65248" lon="5.38114">
        <ele>198.8</ele>
        <time>2021-10-07T13:14:19Z</time>
      </trkpt>
      <trkpt lat="46.65252" lon="5.38132">
        <ele>198.8</ele>
        <time>2021-10-07T13:14:21Z</time>
      </trkpt>
      <trkpt lat="46.65256" lon="5.38151">
        <ele>198.6</ele>
        <time>2021-10-07T13:14:23Z</time>
      </trkpt>
      <trkpt lat="46.65258" lon="5.3816">
        <ele>198.4</ele>
        <time>2021-10-07T13:14:24Z</time>
      </trkpt>
      <trkpt lat="46.6526" lon="5.3817">
        <ele>198.4</ele>
        <time>2021-10-07T13:14:25Z</time>
      </trkpt>
      <trkpt lat="46.65263" lon="5.3819">
        <ele>198</ele>
        <time>2021-10-07T13:14:27Z</time>
      </trkpt>
      <trkpt lat="46.65266" lon="5.3821">
        <ele>198.2</ele>
        <time>2021-10-07T13:14:29Z</time>
      </trkpt>
      <trkpt lat="46.65269" lon="5.3823">
        <ele>198.2</ele>
        <time>2021-10-07T13:14:31Z</time>
      </trkpt>
      <trkpt lat="46.65271" lon="5.3825">
        <ele>198.2</ele>
        <time>2021-10-07T13:14:33Z</time>
      </trkpt>
      <trkpt lat="46.65272" lon="5.3826">
        <ele>198</ele>
        <time>2021-10-07T13:14:34Z</time>
      </trkpt>
      <trkpt lat="46.65273" lon="5.3827">
        <ele>198</ele>
        <time>2021-10-07T13:14:35Z</time>
      </trkpt>
      <trkpt lat="46.65275" lon="5.3829">
        <ele>198.2</ele>
        <time>2021-10-07T13:14:37Z</time>
      </trkpt>
      <trkpt lat="46.65276" lon="5.38309">
        <ele>198.2</ele>
        <time>2021-10-07T13:14:39Z</time>
      </trkpt>
      <trkpt lat="46.65276" lon="5.3833">
        <ele>198.2</ele>
        <time>2021-10-07T13:14:41Z</time>
      </trkpt>
      <trkpt lat="46.65275" lon="5.38353">
        <ele>198.2</ele>
        <time>2021-10-07T13:14:43Z</time>
      </trkpt>
      <trkpt lat="46.65275" lon="5.38375">
        <ele>198.2</ele>
        <time>2021-10-07T13:14:45Z</time>
      </trkpt>
      <trkpt lat="46.65274" lon="5.38397">
        <ele>198.2</ele>
        <time>2021-10-07T13:14:47Z</time>
      </trkpt>
      <trkpt lat="46.65274" lon="5.38408">
        <ele>198.2</ele>
        <time>2021-10-07T13:14:48Z</time>
      </trkpt>
      <trkpt lat="46.65273" lon="5.38418">
        <ele>198.2</ele>
        <time>2021-10-07T13:14:49Z</time>
      </trkpt>
      <trkpt lat="46.65272" lon="5.38438">
        <ele>198.4</ele>
        <time>2021-10-07T13:14:51Z</time>
      </trkpt>
      <trkpt lat="46.65271" lon="5.38457">
        <ele>198.4</ele>
        <time>2021-10-07T13:14:53Z</time>
      </trkpt>
      <trkpt lat="46.6527" lon="5.38466">
        <ele>198.6</ele>
        <time>2021-10-07T13:14:54Z</time>
      </trkpt>
      <trkpt lat="46.65269" lon="5.38474">
        <ele>198.8</ele>
        <time>2021-10-07T13:14:55Z</time>
      </trkpt>
      <trkpt lat="46.65267" lon="5.38488">
        <ele>199</ele>
        <time>2021-10-07T13:14:57Z</time>
      </trkpt>
      <trkpt lat="46.65266" lon="5.38494">
        <ele>199.2</ele>
        <time>2021-10-07T13:14:58Z</time>
      </trkpt>
      <trkpt lat="46.65265" lon="5.38499">
        <ele>199.4</ele>
        <time>2021-10-07T13:14:59Z</time>
      </trkpt>
      <trkpt lat="46.65263" lon="5.38513">
        <ele>199.6</ele>
        <time>2021-10-07T13:15:01Z</time>
      </trkpt>
      <trkpt lat="46.65262" lon="5.38521">
        <ele>199.8</ele>
        <time>2021-10-07T13:15:02Z</time>
      </trkpt>
      <trkpt lat="46.6526" lon="5.38529">
        <ele>200</ele>
        <time>2021-10-07T13:15:03Z</time>
      </trkpt>
      <trkpt lat="46.65258" lon="5.38537">
        <ele>200</ele>
        <time>2021-10-07T13:15:04Z</time>
      </trkpt>
      <trkpt lat="46.65256" lon="5.38545">
        <ele>200</ele>
        <time>2021-10-07T13:15:05Z</time>
      </trkpt>
      <trkpt lat="46.65253" lon="5.38558">
        <ele>200</ele>
        <time>2021-10-07T13:15:07Z</time>
      </trkpt>
      <trkpt lat="46.65248" lon="5.38574">
        <ele>200</ele>
        <time>2021-10-07T13:15:09Z</time>
      </trkpt>
      <trkpt lat="46.65243" lon="5.38591">
        <ele>200</ele>
        <time>2021-10-07T13:15:11Z</time>
      </trkpt>
      <trkpt lat="46.65238" lon="5.38607">
        <ele>200</ele>
        <time>2021-10-07T13:15:13Z</time>
      </trkpt>
      <trkpt lat="46.65236" lon="5.38616">
        <ele>200</ele>
        <time>2021-10-07T13:15:14Z</time>
      </trkpt>
      <trkpt lat="46.65232" lon="5.38632">
        <ele>200</ele>
        <time>2021-10-07T13:15:16Z</time>
      </trkpt>
      <trkpt lat="46.65228" lon="5.38647">
        <ele>199.8</ele>
        <time>2021-10-07T13:15:18Z</time>
      </trkpt>
      <trkpt lat="46.65225" lon="5.38656">
        <ele>199.8</ele>
        <time>2021-10-07T13:15:19Z</time>
      </trkpt>
      <trkpt lat="46.65223" lon="5.38664">
        <ele>199.8</ele>
        <time>2021-10-07T13:15:20Z</time>
      </trkpt>
      <trkpt lat="46.6522" lon="5.38672">
        <ele>199.8</ele>
        <time>2021-10-07T13:15:21Z</time>
      </trkpt>
      <trkpt lat="46.65218" lon="5.3868">
        <ele>199.8</ele>
        <time>2021-10-07T13:15:22Z</time>
      </trkpt>
      <trkpt lat="46.65215" lon="5.38689">
        <ele>199.8</ele>
        <time>2021-10-07T13:15:23Z</time>
      </trkpt>
      <trkpt lat="46.65209" lon="5.38709">
        <ele>199.8</ele>
        <time>2021-10-07T13:15:25Z</time>
      </trkpt>
      <trkpt lat="46.65206" lon="5.38718">
        <ele>199.8</ele>
        <time>2021-10-07T13:15:26Z</time>
      </trkpt>
      <trkpt lat="46.65203" lon="5.38728">
        <ele>199.8</ele>
        <time>2021-10-07T13:15:27Z</time>
      </trkpt>
      <trkpt lat="46.65197" lon="5.38748">
        <ele>200</ele>
        <time>2021-10-07T13:15:29Z</time>
      </trkpt>
      <trkpt lat="46.65191" lon="5.38767">
        <ele>200</ele>
        <time>2021-10-07T13:15:31Z</time>
      </trkpt>
      <trkpt lat="46.65185" lon="5.38785">
        <ele>200</ele>
        <time>2021-10-07T13:15:33Z</time>
      </trkpt>
      <trkpt lat="46.65182" lon="5.38795">
        <ele>200</ele>
        <time>2021-10-07T13:15:34Z</time>
      </trkpt>
      <trkpt lat="46.65179" lon="5.38803">
        <ele>200</ele>
        <time>2021-10-07T13:15:35Z</time>
      </trkpt>
      <trkpt lat="46.65174" lon="5.3882">
        <ele>200</ele>
        <time>2021-10-07T13:15:37Z</time>
      </trkpt>
      <trkpt lat="46.65168" lon="5.38837">
        <ele>200.2</ele>
        <time>2021-10-07T13:15:39Z</time>
      </trkpt>
      <trkpt lat="46.65165" lon="5.38846">
        <ele>200.4</ele>
        <time>2021-10-07T13:15:40Z</time>
      </trkpt>
      <trkpt lat="46.65162" lon="5.38855">
        <ele>200.4</ele>
        <time>2021-10-07T13:15:41Z</time>
      </trkpt>
      <trkpt lat="46.65157" lon="5.38872">
        <ele>200.4</ele>
        <time>2021-10-07T13:15:43Z</time>
      </trkpt>
      <trkpt lat="46.65152" lon="5.38888">
        <ele>200.8</ele>
        <time>2021-10-07T13:15:45Z</time>
      </trkpt>
      <trkpt lat="46.65148" lon="5.38904">
        <ele>201</ele>
        <time>2021-10-07T13:15:47Z</time>
      </trkpt>
      <trkpt lat="46.65144" lon="5.38918">
        <ele>201.2</ele>
        <time>2021-10-07T13:15:49Z</time>
      </trkpt>
      <trkpt lat="46.65141" lon="5.38926">
        <ele>201.4</ele>
        <time>2021-10-07T13:15:50Z</time>
      </trkpt>
      <trkpt lat="46.65138" lon="5.38934">
        <ele>201.4</ele>
        <time>2021-10-07T13:15:51Z</time>
      </trkpt>
      <trkpt lat="46.65133" lon="5.38951">
        <ele>201.6</ele>
        <time>2021-10-07T13:15:53Z</time>
      </trkpt>
      <trkpt lat="46.65127" lon="5.38968">
        <ele>201.6</ele>
        <time>2021-10-07T13:15:55Z</time>
      </trkpt>
      <trkpt lat="46.65124" lon="5.38977">
        <ele>201.6</ele>
        <time>2021-10-07T13:15:56Z</time>
      </trkpt>
      <trkpt lat="46.65121" lon="5.38986">
        <ele>201.6</ele>
        <time>2021-10-07T13:15:57Z</time>
      </trkpt>
      <trkpt lat="46.65115" lon="5.39003">
        <ele>201.8</ele>
        <time>2021-10-07T13:15:59Z</time>
      </trkpt>
      <trkpt lat="46.65109" lon="5.39019">
        <ele>201.8</ele>
        <time>2021-10-07T13:16:01Z</time>
      </trkpt>
      <trkpt lat="46.65102" lon="5.39036">
        <ele>201.8</ele>
        <time>2021-10-07T13:16:03Z</time>
      </trkpt>
      <trkpt lat="46.65095" lon="5.39052">
        <ele>201.8</ele>
        <time>2021-10-07T13:16:05Z</time>
      </trkpt>
      <trkpt lat="46.65087" lon="5.39067">
        <ele>201.6</ele>
        <time>2021-10-07T13:16:07Z</time>
      </trkpt>
      <trkpt lat="46.65079" lon="5.39082">
        <ele>201.6</ele>
        <time>2021-10-07T13:16:09Z</time>
      </trkpt>
      <trkpt lat="46.65071" lon="5.39096">
        <ele>201.4</ele>
        <time>2021-10-07T13:16:11Z</time>
      </trkpt>
      <trkpt lat="46.65064" lon="5.3911">
        <ele>201.2</ele>
        <time>2021-10-07T13:16:13Z</time>
      </trkpt>
      <trkpt lat="46.65054" lon="5.39127">
        <ele>201.2</ele>
        <time>2021-10-07T13:16:15Z</time>
      </trkpt>
      <trkpt lat="46.65044" lon="5.39143">
        <ele>201.2</ele>
        <time>2021-10-07T13:16:17Z</time>
      </trkpt>
      <trkpt lat="46.65039" lon="5.39151">
        <ele>201.2</ele>
        <time>2021-10-07T13:16:18Z</time>
      </trkpt>
      <trkpt lat="46.65034" lon="5.3916">
        <ele>201</ele>
        <time>2021-10-07T13:16:19Z</time>
      </trkpt>
      <trkpt lat="46.65025" lon="5.39175">
        <ele>201</ele>
        <time>2021-10-07T13:16:21Z</time>
      </trkpt>
      <trkpt lat="46.65015" lon="5.39191">
        <ele>200.8</ele>
        <time>2021-10-07T13:16:23Z</time>
      </trkpt>
      <trkpt lat="46.6501" lon="5.39198">
        <ele>200.8</ele>
        <time>2021-10-07T13:16:24Z</time>
      </trkpt>
      <trkpt lat="46.65006" lon="5.39208">
        <ele>200.8</ele>
        <time>2021-10-07T13:16:25Z</time>
      </trkpt>
      <trkpt lat="46.65001" lon="5.39215">
        <ele>200.8</ele>
        <time>2021-10-07T13:16:26Z</time>
      </trkpt>
      <trkpt lat="46.64997" lon="5.39223">
        <ele>200.6</ele>
        <time>2021-10-07T13:16:27Z</time>
      </trkpt>
      <trkpt lat="46.64989" lon="5.39239">
        <ele>200.6</ele>
        <time>2021-10-07T13:16:29Z</time>
      </trkpt>
      <trkpt lat="46.64984" lon="5.39246">
        <ele>200.6</ele>
        <time>2021-10-07T13:16:30Z</time>
      </trkpt>
      <trkpt lat="46.6498" lon="5.39255">
        <ele>200.6</ele>
        <time>2021-10-07T13:16:31Z</time>
      </trkpt>
      <trkpt lat="46.64972" lon="5.39273">
        <ele>200.4</ele>
        <time>2021-10-07T13:16:33Z</time>
      </trkpt>
      <trkpt lat="46.64964" lon="5.39292">
        <ele>200.4</ele>
        <time>2021-10-07T13:16:35Z</time>
      </trkpt>
      <trkpt lat="46.6496" lon="5.39301">
        <ele>200.6</ele>
        <time>2021-10-07T13:16:36Z</time>
      </trkpt>
      <trkpt lat="46.64956" lon="5.39311">
        <ele>200.6</ele>
        <time>2021-10-07T13:16:37Z</time>
      </trkpt>
      <trkpt lat="46.64949" lon="5.3933">
        <ele>200.6</ele>
        <time>2021-10-07T13:16:39Z</time>
      </trkpt>
      <trkpt lat="46.64946" lon="5.39341">
        <ele>200.6</ele>
        <time>2021-10-07T13:16:40Z</time>
      </trkpt>
      <trkpt lat="46.64944" lon="5.3935">
        <ele>200.6</ele>
        <time>2021-10-07T13:16:41Z</time>
      </trkpt>
      <trkpt lat="46.64938" lon="5.39367">
        <ele>200.6</ele>
        <time>2021-10-07T13:16:43Z</time>
      </trkpt>
      <trkpt lat="46.64933" lon="5.39383">
        <ele>200.6</ele>
        <time>2021-10-07T13:16:45Z</time>
      </trkpt>
      <trkpt lat="46.64931" lon="5.3939">
        <ele>200.6</ele>
        <time>2021-10-07T13:16:46Z</time>
      </trkpt>
      <trkpt lat="46.64929" lon="5.39399">
        <ele>200.6</ele>
        <time>2021-10-07T13:16:47Z</time>
      </trkpt>
      <trkpt lat="46.64924" lon="5.39418">
        <ele>200.6</ele>
        <time>2021-10-07T13:16:49Z</time>
      </trkpt>
      <trkpt lat="46.6492" lon="5.39438">
        <ele>200.6</ele>
        <time>2021-10-07T13:16:51Z</time>
      </trkpt>
      <trkpt lat="46.64916" lon="5.39459">
        <ele>200.8</ele>
        <time>2021-10-07T13:16:53Z</time>
      </trkpt>
      <trkpt lat="46.64912" lon="5.39478">
        <ele>200.8</ele>
        <time>2021-10-07T13:16:55Z</time>
      </trkpt>
      <trkpt lat="46.64909" lon="5.39496">
        <ele>200.8</ele>
        <time>2021-10-07T13:16:57Z</time>
      </trkpt>
      <trkpt lat="46.64906" lon="5.39513">
        <ele>200.8</ele>
        <time>2021-10-07T13:16:59Z</time>
      </trkpt>
      <trkpt lat="46.64905" lon="5.39529">
        <ele>200.8</ele>
        <time>2021-10-07T13:17:01Z</time>
      </trkpt>
      <trkpt lat="46.64903" lon="5.39545">
        <ele>201.2</ele>
        <time>2021-10-07T13:17:03Z</time>
      </trkpt>
      <trkpt lat="46.64902" lon="5.39553">
        <ele>201.4</ele>
        <time>2021-10-07T13:17:04Z</time>
      </trkpt>
      <trkpt lat="46.64902" lon="5.3956">
        <ele>201.4</ele>
        <time>2021-10-07T13:17:05Z</time>
      </trkpt>
      <trkpt lat="46.64901" lon="5.39575">
        <ele>201.6</ele>
        <time>2021-10-07T13:17:07Z</time>
      </trkpt>
      <trkpt lat="46.64901" lon="5.39583">
        <ele>201.6</ele>
        <time>2021-10-07T13:17:08Z</time>
      </trkpt>
      <trkpt lat="46.649" lon="5.39592">
        <ele>201.6</ele>
        <time>2021-10-07T13:17:09Z</time>
      </trkpt>
      <trkpt lat="46.649" lon="5.39602">
        <ele>201.8</ele>
        <time>2021-10-07T13:17:10Z</time>
      </trkpt>
      <trkpt lat="46.649" lon="5.39611">
        <ele>201.8</ele>
        <time>2021-10-07T13:17:11Z</time>
      </trkpt>
      <trkpt lat="46.64902" lon="5.39629">
        <ele>201.8</ele>
        <time>2021-10-07T13:17:13Z</time>
      </trkpt>
      <trkpt lat="46.64903" lon="5.39649">
        <ele>202</ele>
        <time>2021-10-07T13:17:15Z</time>
      </trkpt>
      <trkpt lat="46.64905" lon="5.39667">
        <ele>202</ele>
        <time>2021-10-07T13:17:17Z</time>
      </trkpt>
      <trkpt lat="46.64907" lon="5.3969">
        <ele>202</ele>
        <time>2021-10-07T13:17:19Z</time>
      </trkpt>
      <trkpt lat="46.6491" lon="5.39709">
        <ele>202</ele>
        <time>2021-10-07T13:17:21Z</time>
      </trkpt>
      <trkpt lat="46.64913" lon="5.39729">
        <ele>202.2</ele>
        <time>2021-10-07T13:17:23Z</time>
      </trkpt>
      <trkpt lat="46.64917" lon="5.39748">
        <ele>202.2</ele>
        <time>2021-10-07T13:17:25Z</time>
      </trkpt>
      <trkpt lat="46.6492" lon="5.39769">
        <ele>202.4</ele>
        <time>2021-10-07T13:17:27Z</time>
      </trkpt>
      <trkpt lat="46.64922" lon="5.3978">
        <ele>202.4</ele>
        <time>2021-10-07T13:17:28Z</time>
      </trkpt>
      <trkpt lat="46.64924" lon="5.39791">
        <ele>202.6</ele>
        <time>2021-10-07T13:17:29Z</time>
      </trkpt>
      <trkpt lat="46.64927" lon="5.39801">
        <ele>202.6</ele>
        <time>2021-10-07T13:17:30Z</time>
      </trkpt>
      <trkpt lat="46.6493" lon="5.39811">
        <ele>202.6</ele>
        <time>2021-10-07T13:17:31Z</time>
      </trkpt>
      <trkpt lat="46.64937" lon="5.39829">
        <ele>202.6</ele>
        <time>2021-10-07T13:17:33Z</time>
      </trkpt>
      <trkpt lat="46.64942" lon="5.39838">
        <ele>202.6</ele>
        <time>2021-10-07T13:17:34Z</time>
      </trkpt>
      <trkpt lat="46.64945" lon="5.39846">
        <ele>202.6</ele>
        <time>2021-10-07T13:17:35Z</time>
      </trkpt>
      <trkpt lat="46.64954" lon="5.39863">
        <ele>202.6</ele>
        <time>2021-10-07T13:17:37Z</time>
      </trkpt>
      <trkpt lat="46.64958" lon="5.39872">
        <ele>202.6</ele>
        <time>2021-10-07T13:17:38Z</time>
      </trkpt>
      <trkpt lat="46.64962" lon="5.39881">
        <ele>202.6</ele>
        <time>2021-10-07T13:17:39Z</time>
      </trkpt>
      <trkpt lat="46.64967" lon="5.3989">
        <ele>202.6</ele>
        <time>2021-10-07T13:17:40Z</time>
      </trkpt>
      <trkpt lat="46.64972" lon="5.39899">
        <ele>202.4</ele>
        <time>2021-10-07T13:17:41Z</time>
      </trkpt>
      <trkpt lat="46.64981" lon="5.39916">
        <ele>202.4</ele>
        <time>2021-10-07T13:17:43Z</time>
      </trkpt>
      <trkpt lat="46.64986" lon="5.39924">
        <ele>202.4</ele>
        <time>2021-10-07T13:17:44Z</time>
      </trkpt>
      <trkpt lat="46.64991" lon="5.39933">
        <ele>202.4</ele>
        <time>2021-10-07T13:17:45Z</time>
      </trkpt>
      <trkpt lat="46.64996" lon="5.3994">
        <ele>202.4</ele>
        <time>2021-10-07T13:17:46Z</time>
      </trkpt>
      <trkpt lat="46.65001" lon="5.39948">
        <ele>202.4</ele>
        <time>2021-10-07T13:17:47Z</time>
      </trkpt>
      <trkpt lat="46.65014" lon="5.39963">
        <ele>202.4</ele>
        <time>2021-10-07T13:17:49Z</time>
      </trkpt>
      <trkpt lat="46.6502" lon="5.39971">
        <ele>202.4</ele>
        <time>2021-10-07T13:17:50Z</time>
      </trkpt>
      <trkpt lat="46.65025" lon="5.39979">
        <ele>202.4</ele>
        <time>2021-10-07T13:17:51Z</time>
      </trkpt>
      <trkpt lat="46.65038" lon="5.39992">
        <ele>202.4</ele>
        <time>2021-10-07T13:17:53Z</time>
      </trkpt>
      <trkpt lat="46.6505" lon="5.40004">
        <ele>202.6</ele>
        <time>2021-10-07T13:17:55Z</time>
      </trkpt>
      <trkpt lat="46.65061" lon="5.40016">
        <ele>202.6</ele>
        <time>2021-10-07T13:17:57Z</time>
      </trkpt>
      <trkpt lat="46.65073" lon="5.40028">
        <ele>202.6</ele>
        <time>2021-10-07T13:17:59Z</time>
      </trkpt>
      <trkpt lat="46.65086" lon="5.40039">
        <ele>202.6</ele>
        <time>2021-10-07T13:18:01Z</time>
      </trkpt>
      <trkpt lat="46.65098" lon="5.40051">
        <ele>202.6</ele>
        <time>2021-10-07T13:18:03Z</time>
      </trkpt>
      <trkpt lat="46.65109" lon="5.40063">
        <ele>202.6</ele>
        <time>2021-10-07T13:18:05Z</time>
      </trkpt>
      <trkpt lat="46.65121" lon="5.40075">
        <ele>202.4</ele>
        <time>2021-10-07T13:18:07Z</time>
      </trkpt>
      <trkpt lat="46.65127" lon="5.40081">
        <ele>202.4</ele>
        <time>2021-10-07T13:18:08Z</time>
      </trkpt>
      <trkpt lat="46.65134" lon="5.40086">
        <ele>202.2</ele>
        <time>2021-10-07T13:18:09Z</time>
      </trkpt>
      <trkpt lat="46.6514" lon="5.40092">
        <ele>202.2</ele>
        <time>2021-10-07T13:18:10Z</time>
      </trkpt>
      <trkpt lat="46.65145" lon="5.40098">
        <ele>202</ele>
        <time>2021-10-07T13:18:11Z</time>
      </trkpt>
      <trkpt lat="46.65157" lon="5.4011">
        <ele>202</ele>
        <time>2021-10-07T13:18:13Z</time>
      </trkpt>
      <trkpt lat="46.65169" lon="5.40122">
        <ele>201.8</ele>
        <time>2021-10-07T13:18:15Z</time>
      </trkpt>
      <trkpt lat="46.65181" lon="5.40134">
        <ele>201.8</ele>
        <time>2021-10-07T13:18:17Z</time>
      </trkpt>
      <trkpt lat="46.65191" lon="5.40147">
        <ele>201.6</ele>
        <time>2021-10-07T13:18:19Z</time>
      </trkpt>
      <trkpt lat="46.65202" lon="5.4016">
        <ele>201.4</ele>
        <time>2021-10-07T13:18:21Z</time>
      </trkpt>
      <trkpt lat="46.65207" lon="5.40167">
        <ele>201.4</ele>
        <time>2021-10-07T13:18:22Z</time>
      </trkpt>
      <trkpt lat="46.65213" lon="5.40173">
        <ele>201.2</ele>
        <time>2021-10-07T13:18:23Z</time>
      </trkpt>
      <trkpt lat="46.65223" lon="5.40188">
        <ele>201.2</ele>
        <time>2021-10-07T13:18:25Z</time>
      </trkpt>
      <trkpt lat="46.65232" lon="5.40203">
        <ele>201</ele>
        <time>2021-10-07T13:18:27Z</time>
      </trkpt>
      <trkpt lat="46.65241" lon="5.40218">
        <ele>201</ele>
        <time>2021-10-07T13:18:29Z</time>
      </trkpt>
      <trkpt lat="46.6525" lon="5.40234">
        <ele>200.8</ele>
        <time>2021-10-07T13:18:31Z</time>
      </trkpt>
      <trkpt lat="46.65259" lon="5.40251">
        <ele>200.8</ele>
        <time>2021-10-07T13:18:33Z</time>
      </trkpt>
      <trkpt lat="46.65267" lon="5.40268">
        <ele>201</ele>
        <time>2021-10-07T13:18:35Z</time>
      </trkpt>
      <trkpt lat="46.65275" lon="5.40285">
        <ele>201</ele>
        <time>2021-10-07T13:18:37Z</time>
      </trkpt>
      <trkpt lat="46.65283" lon="5.40303">
        <ele>201</ele>
        <time>2021-10-07T13:18:39Z</time>
      </trkpt>
      <trkpt lat="46.65287" lon="5.40312">
        <ele>201</ele>
        <time>2021-10-07T13:18:40Z</time>
      </trkpt>
      <trkpt lat="46.6529" lon="5.40321">
        <ele>201</ele>
        <time>2021-10-07T13:18:41Z</time>
      </trkpt>
      <trkpt lat="46.65297" lon="5.4034">
        <ele>200.8</ele>
        <time>2021-10-07T13:18:43Z</time>
      </trkpt>
      <trkpt lat="46.65303" lon="5.40358">
        <ele>200.8</ele>
        <time>2021-10-07T13:18:45Z</time>
      </trkpt>
      <trkpt lat="46.65309" lon="5.40377">
        <ele>200.8</ele>
        <time>2021-10-07T13:18:47Z</time>
      </trkpt>
      <trkpt lat="46.65311" lon="5.40387">
        <ele>201</ele>
        <time>2021-10-07T13:18:48Z</time>
      </trkpt>
      <trkpt lat="46.65313" lon="5.40396">
        <ele>201</ele>
        <time>2021-10-07T13:18:49Z</time>
      </trkpt>
      <trkpt lat="46.65317" lon="5.40416">
        <ele>201</ele>
        <time>2021-10-07T13:18:51Z</time>
      </trkpt>
      <trkpt lat="46.6532" lon="5.40436">
        <ele>201</ele>
        <time>2021-10-07T13:18:53Z</time>
      </trkpt>
      <trkpt lat="46.65323" lon="5.40456">
        <ele>201</ele>
        <time>2021-10-07T13:18:55Z</time>
      </trkpt>
      <trkpt lat="46.65325" lon="5.40474">
        <ele>201.2</ele>
        <time>2021-10-07T13:18:57Z</time>
      </trkpt>
      <trkpt lat="46.65326" lon="5.40492">
        <ele>201.4</ele>
        <time>2021-10-07T13:18:59Z</time>
      </trkpt>
      <trkpt lat="46.65327" lon="5.40511">
        <ele>201.6</ele>
        <time>2021-10-07T13:19:01Z</time>
      </trkpt>
      <trkpt lat="46.65329" lon="5.40531">
        <ele>201.8</ele>
        <time>2021-10-07T13:19:03Z</time>
      </trkpt>
      <trkpt lat="46.65331" lon="5.40554">
        <ele>201.8</ele>
        <time>2021-10-07T13:19:05Z</time>
      </trkpt>
      <trkpt lat="46.65332" lon="5.40566">
        <ele>201.8</ele>
        <time>2021-10-07T13:19:06Z</time>
      </trkpt>
      <trkpt lat="46.65332" lon="5.40577">
        <ele>201.8</ele>
        <time>2021-10-07T13:19:07Z</time>
      </trkpt>
      <trkpt lat="46.65333" lon="5.406">
        <ele>201.8</ele>
        <time>2021-10-07T13:19:09Z</time>
      </trkpt>
      <trkpt lat="46.65334" lon="5.40623">
        <ele>201.8</ele>
        <time>2021-10-07T13:19:11Z</time>
      </trkpt>
      <trkpt lat="46.65335" lon="5.40646">
        <ele>201.8</ele>
        <time>2021-10-07T13:19:13Z</time>
      </trkpt>
      <trkpt lat="46.65336" lon="5.40668">
        <ele>201.8</ele>
        <time>2021-10-07T13:19:15Z</time>
      </trkpt>
      <trkpt lat="46.65336" lon="5.4069">
        <ele>201.6</ele>
        <time>2021-10-07T13:19:17Z</time>
      </trkpt>
      <trkpt lat="46.65337" lon="5.40712">
        <ele>201.6</ele>
        <time>2021-10-07T13:19:19Z</time>
      </trkpt>
      <trkpt lat="46.65337" lon="5.40734">
        <ele>201.4</ele>
        <time>2021-10-07T13:19:21Z</time>
      </trkpt>
      <trkpt lat="46.65338" lon="5.40756">
        <ele>201.6</ele>
        <time>2021-10-07T13:19:23Z</time>
      </trkpt>
      <trkpt lat="46.65338" lon="5.40777">
        <ele>201.6</ele>
        <time>2021-10-07T13:19:25Z</time>
      </trkpt>
      <trkpt lat="46.65338" lon="5.40788">
        <ele>201.6</ele>
        <time>2021-10-07T13:19:26Z</time>
      </trkpt>
      <trkpt lat="46.65339" lon="5.40799">
        <ele>201.6</ele>
        <time>2021-10-07T13:19:27Z</time>
      </trkpt>
      <trkpt lat="46.65339" lon="5.4082">
        <ele>201.6</ele>
        <time>2021-10-07T13:19:29Z</time>
      </trkpt>
      <trkpt lat="46.65339" lon="5.40841">
        <ele>201.6</ele>
        <time>2021-10-07T13:19:31Z</time>
      </trkpt>
      <trkpt lat="46.65339" lon="5.40862">
        <ele>201.6</ele>
        <time>2021-10-07T13:19:33Z</time>
      </trkpt>
      <trkpt lat="46.65339" lon="5.40873">
        <ele>201.6</ele>
        <time>2021-10-07T13:19:34Z</time>
      </trkpt>
      <trkpt lat="46.65339" lon="5.40884">
        <ele>201.6</ele>
        <time>2021-10-07T13:19:35Z</time>
      </trkpt>
      <trkpt lat="46.65339" lon="5.40905">
        <ele>201.6</ele>
        <time>2021-10-07T13:19:37Z</time>
      </trkpt>
      <trkpt lat="46.65339" lon="5.40926">
        <ele>201.6</ele>
        <time>2021-10-07T13:19:39Z</time>
      </trkpt>
      <trkpt lat="46.65339" lon="5.40936">
        <ele>201.6</ele>
        <time>2021-10-07T13:19:40Z</time>
      </trkpt>
      <trkpt lat="46.65339" lon="5.40946">
        <ele>201.6</ele>
        <time>2021-10-07T13:19:41Z</time>
      </trkpt>
      <trkpt lat="46.6534" lon="5.40966">
        <ele>201.6</ele>
        <time>2021-10-07T13:19:43Z</time>
      </trkpt>
      <trkpt lat="46.65342" lon="5.40985">
        <ele>201.8</ele>
        <time>2021-10-07T13:19:45Z</time>
      </trkpt>
      <trkpt lat="46.65344" lon="5.40994">
        <ele>201.8</ele>
        <time>2021-10-07T13:19:46Z</time>
      </trkpt>
      <trkpt lat="46.65346" lon="5.41003">
        <ele>201.8</ele>
        <time>2021-10-07T13:19:47Z</time>
      </trkpt>
      <trkpt lat="46.6535" lon="5.41023">
        <ele>201.8</ele>
        <time>2021-10-07T13:19:49Z</time>
      </trkpt>
      <trkpt lat="46.65354" lon="5.41044">
        <ele>202</ele>
        <time>2021-10-07T13:19:51Z</time>
      </trkpt>
      <trkpt lat="46.65357" lon="5.41064">
        <ele>202</ele>
        <time>2021-10-07T13:19:53Z</time>
      </trkpt>
      <trkpt lat="46.65361" lon="5.41084">
        <ele>202</ele>
        <time>2021-10-07T13:19:55Z</time>
      </trkpt>
      <trkpt lat="46.65365" lon="5.41104">
        <ele>202.2</ele>
        <time>2021-10-07T13:19:57Z</time>
      </trkpt>
      <trkpt lat="46.65369" lon="5.41123">
        <ele>202.4</ele>
        <time>2021-10-07T13:19:59Z</time>
      </trkpt>
      <trkpt lat="46.65375" lon="5.41142">
        <ele>202.6</ele>
        <time>2021-10-07T13:20:01Z</time>
      </trkpt>
      <trkpt lat="46.65381" lon="5.41159">
        <ele>202.6</ele>
        <time>2021-10-07T13:20:03Z</time>
      </trkpt>
      <trkpt lat="46.65388" lon="5.41176">
        <ele>202.8</ele>
        <time>2021-10-07T13:20:05Z</time>
      </trkpt>
      <trkpt lat="46.65396" lon="5.41192">
        <ele>202.8</ele>
        <time>2021-10-07T13:20:07Z</time>
      </trkpt>
      <trkpt lat="46.65403" lon="5.41208">
        <ele>202.8</ele>
        <time>2021-10-07T13:20:09Z</time>
      </trkpt>
      <trkpt lat="46.65412" lon="5.41223">
        <ele>203</ele>
        <time>2021-10-07T13:20:11Z</time>
      </trkpt>
      <trkpt lat="46.65417" lon="5.41231">
        <ele>203</ele>
        <time>2021-10-07T13:20:12Z</time>
      </trkpt>
      <trkpt lat="46.65422" lon="5.41239">
        <ele>203.2</ele>
        <time>2021-10-07T13:20:13Z</time>
      </trkpt>
      <trkpt lat="46.65432" lon="5.41254">
        <ele>203.2</ele>
        <time>2021-10-07T13:20:15Z</time>
      </trkpt>
      <trkpt lat="46.65443" lon="5.41268">
        <ele>203.2</ele>
        <time>2021-10-07T13:20:17Z</time>
      </trkpt>
      <trkpt lat="46.65449" lon="5.41275">
        <ele>203.4</ele>
        <time>2021-10-07T13:20:18Z</time>
      </trkpt>
      <trkpt lat="46.65456" lon="5.41279">
        <ele>203.4</ele>
        <time>2021-10-07T13:20:19Z</time>
      </trkpt>
      <trkpt lat="46.65471" lon="5.41279">
        <ele>203.4</ele>
        <time>2021-10-07T13:20:21Z</time>
      </trkpt>
      <trkpt lat="46.65478" lon="5.41277">
        <ele>203.4</ele>
        <time>2021-10-07T13:20:22Z</time>
      </trkpt>
      <trkpt lat="46.65486" lon="5.41274">
        <ele>203.4</ele>
        <time>2021-10-07T13:20:23Z</time>
      </trkpt>
      <trkpt lat="46.65499" lon="5.4127">
        <ele>203.6</ele>
        <time>2021-10-07T13:20:25Z</time>
      </trkpt>
      <trkpt lat="46.65513" lon="5.41267">
        <ele>203.6</ele>
        <time>2021-10-07T13:20:27Z</time>
      </trkpt>
      <trkpt lat="46.65525" lon="5.41263">
        <ele>204</ele>
        <time>2021-10-07T13:20:29Z</time>
      </trkpt>
      <trkpt lat="46.65529" lon="5.41261">
        <ele>204.4</ele>
        <time>2021-10-07T13:20:30Z</time>
      </trkpt>
      <trkpt lat="46.65534" lon="5.41259">
        <ele>204.8</ele>
        <time>2021-10-07T13:20:31Z</time>
      </trkpt>
      <trkpt lat="46.65544" lon="5.41256">
        <ele>205.4</ele>
        <time>2021-10-07T13:20:33Z</time>
      </trkpt>
      <trkpt lat="46.65548" lon="5.41255">
        <ele>205.6</ele>
        <time>2021-10-07T13:20:34Z</time>
      </trkpt>
      <trkpt lat="46.65552" lon="5.41255">
        <ele>206</ele>
        <time>2021-10-07T13:20:35Z</time>
      </trkpt>
      <trkpt lat="46.65559" lon="5.41258">
        <ele>206.6</ele>
        <time>2021-10-07T13:20:37Z</time>
      </trkpt>
      <trkpt lat="46.65563" lon="5.41261">
        <ele>207</ele>
        <time>2021-10-07T13:20:38Z</time>
      </trkpt>
      <trkpt lat="46.65566" lon="5.41265">
        <ele>207.2</ele>
        <time>2021-10-07T13:20:39Z</time>
      </trkpt>
      <trkpt lat="46.65573" lon="5.41275">
        <ele>208.2</ele>
        <time>2021-10-07T13:20:41Z</time>
      </trkpt>
      <trkpt lat="46.6558" lon="5.41286">
        <ele>208.8</ele>
        <time>2021-10-07T13:20:43Z</time>
      </trkpt>
      <trkpt lat="46.65583" lon="5.41291">
        <ele>209.2</ele>
        <time>2021-10-07T13:20:44Z</time>
      </trkpt>
      <trkpt lat="46.65586" lon="5.41296">
        <ele>209.6</ele>
        <time>2021-10-07T13:20:45Z</time>
      </trkpt>
      <trkpt lat="46.65589" lon="5.41301">
        <ele>210.2</ele>
        <time>2021-10-07T13:20:46Z</time>
      </trkpt>
      <trkpt lat="46.65593" lon="5.41306">
        <ele>210.4</ele>
        <time>2021-10-07T13:20:47Z</time>
      </trkpt>
      <trkpt lat="46.656" lon="5.41317">
        <ele>210.8</ele>
        <time>2021-10-07T13:20:49Z</time>
      </trkpt>
      <trkpt lat="46.65607" lon="5.41327">
        <ele>211.2</ele>
        <time>2021-10-07T13:20:51Z</time>
      </trkpt>
      <trkpt lat="46.6561" lon="5.41332">
        <ele>211.4</ele>
        <time>2021-10-07T13:20:52Z</time>
      </trkpt>
      <trkpt lat="46.65614" lon="5.41338">
        <ele>211.4</ele>
        <time>2021-10-07T13:20:53Z</time>
      </trkpt>
      <trkpt lat="46.65622" lon="5.41348">
        <ele>211.8</ele>
        <time>2021-10-07T13:20:55Z</time>
      </trkpt>
      <trkpt lat="46.65629" lon="5.41359">
        <ele>212</ele>
        <time>2021-10-07T13:20:57Z</time>
      </trkpt>
      <trkpt lat="46.65636" lon="5.4137">
        <ele>212.2</ele>
        <time>2021-10-07T13:20:59Z</time>
      </trkpt>
      <trkpt lat="46.65641" lon="5.41375">
        <ele>212.4</ele>
        <time>2021-10-07T13:21:00Z</time>
      </trkpt>
      <trkpt lat="46.65645" lon="5.4138">
        <ele>212.4</ele>
        <time>2021-10-07T13:21:01Z</time>
      </trkpt>
      <trkpt lat="46.65653" lon="5.4139">
        <ele>212.8</ele>
        <time>2021-10-07T13:21:03Z</time>
      </trkpt>
      <trkpt lat="46.65661" lon="5.414">
        <ele>213</ele>
        <time>2021-10-07T13:21:05Z</time>
      </trkpt>
      <trkpt lat="46.65669" lon="5.41409">
        <ele>213.4</ele>
        <time>2021-10-07T13:21:07Z</time>
      </trkpt>
      <trkpt lat="46.65673" lon="5.41414">
        <ele>213.6</ele>
        <time>2021-10-07T13:21:08Z</time>
      </trkpt>
      <trkpt lat="46.65677" lon="5.41418">
        <ele>213.6</ele>
        <time>2021-10-07T13:21:09Z</time>
      </trkpt>
      <trkpt lat="46.65686" lon="5.41428">
        <ele>213.6</ele>
        <time>2021-10-07T13:21:11Z</time>
      </trkpt>
      <trkpt lat="46.65693" lon="5.41439">
        <ele>213.8</ele>
        <time>2021-10-07T13:21:13Z</time>
      </trkpt>
      <trkpt lat="46.65699" lon="5.41452">
        <ele>213.8</ele>
        <time>2021-10-07T13:21:15Z</time>
      </trkpt>
      <trkpt lat="46.65704" lon="5.41464">
        <ele>213.8</ele>
        <time>2021-10-07T13:21:17Z</time>
      </trkpt>
      <trkpt lat="46.65709" lon="5.41478">
        <ele>214</ele>
        <time>2021-10-07T13:21:19Z</time>
      </trkpt>
      <trkpt lat="46.65712" lon="5.41492">
        <ele>214.2</ele>
        <time>2021-10-07T13:21:21Z</time>
      </trkpt>
      <trkpt lat="46.65714" lon="5.415">
        <ele>214.2</ele>
        <time>2021-10-07T13:21:22Z</time>
      </trkpt>
      <trkpt lat="46.65716" lon="5.41508">
        <ele>214.4</ele>
        <time>2021-10-07T13:21:23Z</time>
      </trkpt>
      <trkpt lat="46.65719" lon="5.41525">
        <ele>214.6</ele>
        <time>2021-10-07T13:21:25Z</time>
      </trkpt>
      <trkpt lat="46.6572" lon="5.41533">
        <ele>214.6</ele>
        <time>2021-10-07T13:21:26Z</time>
      </trkpt>
      <trkpt lat="46.65722" lon="5.41542">
        <ele>214.6</ele>
        <time>2021-10-07T13:21:27Z</time>
      </trkpt>
      <trkpt lat="46.65724" lon="5.41559">
        <ele>214.8</ele>
        <time>2021-10-07T13:21:29Z</time>
      </trkpt>
      <trkpt lat="46.65728" lon="5.41576">
        <ele>214.8</ele>
        <time>2021-10-07T13:21:31Z</time>
      </trkpt>
      <trkpt lat="46.65733" lon="5.41593">
        <ele>215</ele>
        <time>2021-10-07T13:21:33Z</time>
      </trkpt>
      <trkpt lat="46.65739" lon="5.4161">
        <ele>215.2</ele>
        <time>2021-10-07T13:21:35Z</time>
      </trkpt>
      <trkpt lat="46.65746" lon="5.41626">
        <ele>215.6</ele>
        <time>2021-10-07T13:21:37Z</time>
      </trkpt>
      <trkpt lat="46.65749" lon="5.41634">
        <ele>215.6</ele>
        <time>2021-10-07T13:21:38Z</time>
      </trkpt>
      <trkpt lat="46.65753" lon="5.41643">
        <ele>215.8</ele>
        <time>2021-10-07T13:21:39Z</time>
      </trkpt>
      <trkpt lat="46.6576" lon="5.41659">
        <ele>215.8</ele>
        <time>2021-10-07T13:21:41Z</time>
      </trkpt>
      <trkpt lat="46.65767" lon="5.41675">
        <ele>215.8</ele>
        <time>2021-10-07T13:21:43Z</time>
      </trkpt>
      <trkpt lat="46.65771" lon="5.41683">
        <ele>215.8</ele>
        <time>2021-10-07T13:21:44Z</time>
      </trkpt>
      <trkpt lat="46.65775" lon="5.41689">
        <ele>215.8</ele>
        <time>2021-10-07T13:21:45Z</time>
      </trkpt>
      <trkpt lat="46.6578" lon="5.41694">
        <ele>215.8</ele>
        <time>2021-10-07T13:21:46Z</time>
      </trkpt>
      <trkpt lat="46.65785" lon="5.41698">
        <ele>216</ele>
        <time>2021-10-07T13:21:47Z</time>
      </trkpt>
      <trkpt lat="46.65791" lon="5.41701">
        <ele>216</ele>
        <time>2021-10-07T13:21:48Z</time>
      </trkpt>
      <trkpt lat="46.65796" lon="5.41705">
        <ele>216</ele>
        <time>2021-10-07T13:21:49Z</time>
      </trkpt>
      <trkpt lat="46.65807" lon="5.41713">
        <ele>216</ele>
        <time>2021-10-07T13:21:51Z</time>
      </trkpt>
      <trkpt lat="46.65813" lon="5.41717">
        <ele>216</ele>
        <time>2021-10-07T13:21:52Z</time>
      </trkpt>
      <trkpt lat="46.65818" lon="5.41722">
        <ele>216.2</ele>
        <time>2021-10-07T13:21:53Z</time>
      </trkpt>
      <trkpt lat="46.65827" lon="5.41733">
        <ele>216.4</ele>
        <time>2021-10-07T13:21:55Z</time>
      </trkpt>
      <trkpt lat="46.65829" lon="5.41739">
        <ele>216.6</ele>
        <time>2021-10-07T13:21:56Z</time>
      </trkpt>
      <trkpt lat="46.65831" lon="5.41746">
        <ele>217</ele>
        <time>2021-10-07T13:21:57Z</time>
      </trkpt>
      <trkpt lat="46.65829" lon="5.41761">
        <ele>217.4</ele>
        <time>2021-10-07T13:21:59Z</time>
      </trkpt>
      <trkpt lat="46.65823" lon="5.41775">
        <ele>217.6</ele>
        <time>2021-10-07T13:22:01Z</time>
      </trkpt>
      <trkpt lat="46.6582" lon="5.41782">
        <ele>217.8</ele>
        <time>2021-10-07T13:22:02Z</time>
      </trkpt>
      <trkpt lat="46.65817" lon="5.4179">
        <ele>217.8</ele>
        <time>2021-10-07T13:22:03Z</time>
      </trkpt>
      <trkpt lat="46.6581" lon="5.41805">
        <ele>217.8</ele>
        <time>2021-10-07T13:22:05Z</time>
      </trkpt>
      <trkpt lat="46.65803" lon="5.41823">
        <ele>217.8</ele>
        <time>2021-10-07T13:22:07Z</time>
      </trkpt>
      <trkpt lat="46.65795" lon="5.41841">
        <ele>217.8</ele>
        <time>2021-10-07T13:22:09Z</time>
      </trkpt>
      <trkpt lat="46.65786" lon="5.41861">
        <ele>217.6</ele>
        <time>2021-10-07T13:22:11Z</time>
      </trkpt>
      <trkpt lat="46.65778" lon="5.41878">
        <ele>216.8</ele>
        <time>2021-10-07T13:22:13Z</time>
      </trkpt>
      <trkpt lat="46.6577" lon="5.41886">
        <ele>216</ele>
        <time>2021-10-07T13:22:15Z</time>
      </trkpt>
      <trkpt lat="46.65766" lon="5.41884">
        <ele>215.6</ele>
        <time>2021-10-07T13:22:16Z</time>
      </trkpt>
      <trkpt lat="46.65761" lon="5.4188">
        <ele>215.4</ele>
        <time>2021-10-07T13:22:17Z</time>
      </trkpt>
      <trkpt lat="46.65757" lon="5.41874">
        <ele>214.4</ele>
        <time>2021-10-07T13:22:18Z</time>
      </trkpt>
      <trkpt lat="46.65752" lon="5.41867">
        <ele>213.2</ele>
        <time>2021-10-07T13:22:19Z</time>
      </trkpt>
      <trkpt lat="46.65742" lon="5.41853">
        <ele>212</ele>
        <time>2021-10-07T13:22:21Z</time>
      </trkpt>
      <trkpt lat="46.65732" lon="5.41837">
        <ele>211.6</ele>
        <time>2021-10-07T13:22:23Z</time>
      </trkpt>
      <trkpt lat="46.65722" lon="5.41819">
        <ele>211.4</ele>
        <time>2021-10-07T13:22:25Z</time>
      </trkpt>
      <trkpt lat="46.65712" lon="5.41801">
        <ele>211.2</ele>
        <time>2021-10-07T13:22:27Z</time>
      </trkpt>
      <trkpt lat="46.65702" lon="5.41783">
        <ele>211</ele>
        <time>2021-10-07T13:22:29Z</time>
      </trkpt>
      <trkpt lat="46.65692" lon="5.41765">
        <ele>210.6</ele>
        <time>2021-10-07T13:22:31Z</time>
      </trkpt>
      <trkpt lat="46.65683" lon="5.41748">
        <ele>210.4</ele>
        <time>2021-10-07T13:22:33Z</time>
      </trkpt>
      <trkpt lat="46.65673" lon="5.4173">
        <ele>210</ele>
        <time>2021-10-07T13:22:35Z</time>
      </trkpt>
      <trkpt lat="46.65669" lon="5.41721">
        <ele>209.8</ele>
        <time>2021-10-07T13:22:36Z</time>
      </trkpt>
      <trkpt lat="46.65664" lon="5.41713">
        <ele>209.6</ele>
        <time>2021-10-07T13:22:37Z</time>
      </trkpt>
      <trkpt lat="46.65654" lon="5.41696">
        <ele>209.4</ele>
        <time>2021-10-07T13:22:39Z</time>
      </trkpt>
      <trkpt lat="46.65645" lon="5.41683">
        <ele>209.2</ele>
        <time>2021-10-07T13:22:41Z</time>
      </trkpt>
      <trkpt lat="46.65642" lon="5.41682">
        <ele>209.2</ele>
        <time>2021-10-07T13:22:42Z</time>
      </trkpt>
      <trkpt lat="46.65639" lon="5.41685">
        <ele>209</ele>
        <time>2021-10-07T13:22:43Z</time>
      </trkpt>
      <trkpt lat="46.65638" lon="5.41692">
        <ele>208.8</ele>
        <time>2021-10-07T13:22:44Z</time>
      </trkpt>
      <trkpt lat="46.6564" lon="5.41699">
        <ele>208.8</ele>
        <time>2021-10-07T13:22:45Z</time>
      </trkpt>
      <trkpt lat="46.65642" lon="5.41707">
        <ele>208.6</ele>
        <time>2021-10-07T13:22:46Z</time>
      </trkpt>
      <trkpt lat="46.65644" lon="5.41715">
        <ele>208.6</ele>
        <time>2021-10-07T13:22:47Z</time>
      </trkpt>
      <trkpt lat="46.65648" lon="5.4173">
        <ele>208.6</ele>
        <time>2021-10-07T13:22:49Z</time>
      </trkpt>
      <trkpt lat="46.65653" lon="5.41746">
        <ele>208.4</ele>
        <time>2021-10-07T13:22:51Z</time>
      </trkpt>
      <trkpt lat="46.65655" lon="5.41753">
        <ele>208.2</ele>
        <time>2021-10-07T13:22:52Z</time>
      </trkpt>
      <trkpt lat="46.65658" lon="5.4176">
        <ele>207.6</ele>
        <time>2021-10-07T13:22:53Z</time>
      </trkpt>
      <trkpt lat="46.65663" lon="5.41775">
        <ele>207</ele>
        <time>2021-10-07T13:22:55Z</time>
      </trkpt>
      <trkpt lat="46.6567" lon="5.4179">
        <ele>206.8</ele>
        <time>2021-10-07T13:22:57Z</time>
      </trkpt>
      <trkpt lat="46.65673" lon="5.41799">
        <ele>206.4</ele>
        <time>2021-10-07T13:22:58Z</time>
      </trkpt>
      <trkpt lat="46.65678" lon="5.41807">
        <ele>206.4</ele>
        <time>2021-10-07T13:22:59Z</time>
      </trkpt>
      <trkpt lat="46.65688" lon="5.41823">
        <ele>206.4</ele>
        <time>2021-10-07T13:23:01Z</time>
      </trkpt>
      <trkpt lat="46.65693" lon="5.41831">
        <ele>206.4</ele>
        <time>2021-10-07T13:23:02Z</time>
      </trkpt>
      <trkpt lat="46.65698" lon="5.4184">
        <ele>206.4</ele>
        <time>2021-10-07T13:23:03Z</time>
      </trkpt>
      <trkpt lat="46.6571" lon="5.41857">
        <ele>206.6</ele>
        <time>2021-10-07T13:23:05Z</time>
      </trkpt>
      <trkpt lat="46.65723" lon="5.41874">
        <ele>206.6</ele>
        <time>2021-10-07T13:23:07Z</time>
      </trkpt>
      <trkpt lat="46.65729" lon="5.41882">
        <ele>206.6</ele>
        <time>2021-10-07T13:23:08Z</time>
      </trkpt>
      <trkpt lat="46.65735" lon="5.41891">
        <ele>206.6</ele>
        <time>2021-10-07T13:23:09Z</time>
      </trkpt>
      <trkpt lat="46.65747" lon="5.41907">
        <ele>206.6</ele>
        <time>2021-10-07T13:23:11Z</time>
      </trkpt>
      <trkpt lat="46.65759" lon="5.41922">
        <ele>206.6</ele>
        <time>2021-10-07T13:23:13Z</time>
      </trkpt>
      <trkpt lat="46.6577" lon="5.41938">
        <ele>206.6</ele>
        <time>2021-10-07T13:23:15Z</time>
      </trkpt>
      <trkpt lat="46.65782" lon="5.41954">
        <ele>206.6</ele>
        <time>2021-10-07T13:23:17Z</time>
      </trkpt>
      <trkpt lat="46.65787" lon="5.41961">
        <ele>206.6</ele>
        <time>2021-10-07T13:23:18Z</time>
      </trkpt>
      <trkpt lat="46.65793" lon="5.41969">
        <ele>206.6</ele>
        <time>2021-10-07T13:23:19Z</time>
      </trkpt>
      <trkpt lat="46.65804" lon="5.41984">
        <ele>206.6</ele>
        <time>2021-10-07T13:23:21Z</time>
      </trkpt>
      <trkpt lat="46.65815" lon="5.42">
        <ele>206.6</ele>
        <time>2021-10-07T13:23:23Z</time>
      </trkpt>
      <trkpt lat="46.65826" lon="5.42016">
        <ele>206.4</ele>
        <time>2021-10-07T13:23:25Z</time>
      </trkpt>
      <trkpt lat="46.65836" lon="5.42033">
        <ele>206.4</ele>
        <time>2021-10-07T13:23:27Z</time>
      </trkpt>
      <trkpt lat="46.65841" lon="5.42042">
        <ele>206.4</ele>
        <time>2021-10-07T13:23:28Z</time>
      </trkpt>
      <trkpt lat="46.65845" lon="5.4205">
        <ele>206.4</ele>
        <time>2021-10-07T13:23:29Z</time>
      </trkpt>
      <trkpt lat="46.65854" lon="5.42069">
        <ele>206.4</ele>
        <time>2021-10-07T13:23:31Z</time>
      </trkpt>
      <trkpt lat="46.65862" lon="5.42088">
        <ele>206.4</ele>
        <time>2021-10-07T13:23:33Z</time>
      </trkpt>
      <trkpt lat="46.6587" lon="5.42107">
        <ele>206.4</ele>
        <time>2021-10-07T13:23:35Z</time>
      </trkpt>
      <trkpt lat="46.65877" lon="5.42127">
        <ele>206.4</ele>
        <time>2021-10-07T13:23:37Z</time>
      </trkpt>
      <trkpt lat="46.65884" lon="5.42146">
        <ele>206.2</ele>
        <time>2021-10-07T13:23:39Z</time>
      </trkpt>
      <trkpt lat="46.6589" lon="5.42166">
        <ele>206.2</ele>
        <time>2021-10-07T13:23:41Z</time>
      </trkpt>
      <trkpt lat="46.65895" lon="5.42186">
        <ele>206</ele>
        <time>2021-10-07T13:23:43Z</time>
      </trkpt>
      <trkpt lat="46.659" lon="5.42205">
        <ele>206</ele>
        <time>2021-10-07T13:23:45Z</time>
      </trkpt>
      <trkpt lat="46.65904" lon="5.42225">
        <ele>205.8</ele>
        <time>2021-10-07T13:23:47Z</time>
      </trkpt>
      <trkpt lat="46.65908" lon="5.42244">
        <ele>205.8</ele>
        <time>2021-10-07T13:23:49Z</time>
      </trkpt>
      <trkpt lat="46.65909" lon="5.42254">
        <ele>205.8</ele>
        <time>2021-10-07T13:23:50Z</time>
      </trkpt>
      <trkpt lat="46.65911" lon="5.42264">
        <ele>205.8</ele>
        <time>2021-10-07T13:23:51Z</time>
      </trkpt>
      <trkpt lat="46.65914" lon="5.42284">
        <ele>205.8</ele>
        <time>2021-10-07T13:23:53Z</time>
      </trkpt>
      <trkpt lat="46.65916" lon="5.42303">
        <ele>206</ele>
        <time>2021-10-07T13:23:55Z</time>
      </trkpt>
      <trkpt lat="46.65919" lon="5.42323">
        <ele>206.2</ele>
        <time>2021-10-07T13:23:57Z</time>
      </trkpt>
      <trkpt lat="46.65922" lon="5.42342">
        <ele>206.2</ele>
        <time>2021-10-07T13:23:59Z</time>
      </trkpt>
      <trkpt lat="46.65924" lon="5.42352">
        <ele>206.2</ele>
        <time>2021-10-07T13:24:00Z</time>
      </trkpt>
      <trkpt lat="46.65926" lon="5.42362">
        <ele>206.4</ele>
        <time>2021-10-07T13:24:01Z</time>
      </trkpt>
      <trkpt lat="46.65929" lon="5.42381">
        <ele>206.4</ele>
        <time>2021-10-07T13:24:03Z</time>
      </trkpt>
      <trkpt lat="46.65934" lon="5.424">
        <ele>206.6</ele>
        <time>2021-10-07T13:24:05Z</time>
      </trkpt>
      <trkpt lat="46.65939" lon="5.42419">
        <ele>206.6</ele>
        <time>2021-10-07T13:24:07Z</time>
      </trkpt>
      <trkpt lat="46.65944" lon="5.42437">
        <ele>206.6</ele>
        <time>2021-10-07T13:24:09Z</time>
      </trkpt>
      <trkpt lat="46.6595" lon="5.42456">
        <ele>206.6</ele>
        <time>2021-10-07T13:24:11Z</time>
      </trkpt>
      <trkpt lat="46.65956" lon="5.42474">
        <ele>206.6</ele>
        <time>2021-10-07T13:24:13Z</time>
      </trkpt>
      <trkpt lat="46.65963" lon="5.42491">
        <ele>206.6</ele>
        <time>2021-10-07T13:24:15Z</time>
      </trkpt>
      <trkpt lat="46.6597" lon="5.42509">
        <ele>206.6</ele>
        <time>2021-10-07T13:24:17Z</time>
      </trkpt>
      <trkpt lat="46.65974" lon="5.42517">
        <ele>206.6</ele>
        <time>2021-10-07T13:24:18Z</time>
      </trkpt>
      <trkpt lat="46.65978" lon="5.42525">
        <ele>206.6</ele>
        <time>2021-10-07T13:24:19Z</time>
      </trkpt>
      <trkpt lat="46.65986" lon="5.42542">
        <ele>206.6</ele>
        <time>2021-10-07T13:24:21Z</time>
      </trkpt>
      <trkpt lat="46.65995" lon="5.42558">
        <ele>206.6</ele>
        <time>2021-10-07T13:24:23Z</time>
      </trkpt>
      <trkpt lat="46.66004" lon="5.42573">
        <ele>206.6</ele>
        <time>2021-10-07T13:24:25Z</time>
      </trkpt>
      <trkpt lat="46.66013" lon="5.42589">
        <ele>206.8</ele>
        <time>2021-10-07T13:24:27Z</time>
      </trkpt>
      <trkpt lat="46.66022" lon="5.42604">
        <ele>207</ele>
        <time>2021-10-07T13:24:29Z</time>
      </trkpt>
      <trkpt lat="46.66032" lon="5.4262">
        <ele>207</ele>
        <time>2021-10-07T13:24:31Z</time>
      </trkpt>
      <trkpt lat="46.66041" lon="5.42634">
        <ele>207</ele>
        <time>2021-10-07T13:24:33Z</time>
      </trkpt>
      <trkpt lat="46.6605" lon="5.42648">
        <ele>207</ele>
        <time>2021-10-07T13:24:35Z</time>
      </trkpt>
      <trkpt lat="46.66053" lon="5.42654">
        <ele>207</ele>
        <time>2021-10-07T13:24:36Z</time>
      </trkpt>
      <trkpt lat="46.66056" lon="5.42659">
        <ele>207</ele>
        <time>2021-10-07T13:24:37Z</time>
      </trkpt>
      <trkpt lat="46.66059" lon="5.42664">
        <ele>207.2</ele>
        <time>2021-10-07T13:24:38Z</time>
      </trkpt>
      <trkpt lat="46.66062" lon="5.42669">
        <ele>207.2</ele>
        <time>2021-10-07T13:24:39Z</time>
      </trkpt>
      <trkpt lat="46.6607" lon="5.4268">
        <ele>207.2</ele>
        <time>2021-10-07T13:24:41Z</time>
      </trkpt>
      <trkpt lat="46.66077" lon="5.42693">
        <ele>207.2</ele>
        <time>2021-10-07T13:24:43Z</time>
      </trkpt>
      <trkpt lat="46.66085" lon="5.42708">
        <ele>207.2</ele>
        <time>2021-10-07T13:24:45Z</time>
      </trkpt>
      <trkpt lat="46.66089" lon="5.42716">
        <ele>207.2</ele>
        <time>2021-10-07T13:24:46Z</time>
      </trkpt>
      <trkpt lat="46.66094" lon="5.42724">
        <ele>207</ele>
        <time>2021-10-07T13:24:47Z</time>
      </trkpt>
      <trkpt lat="46.66103" lon="5.4274">
        <ele>207.2</ele>
        <time>2021-10-07T13:24:49Z</time>
      </trkpt>
      <trkpt lat="46.66112" lon="5.42756">
        <ele>207.2</ele>
        <time>2021-10-07T13:24:51Z</time>
      </trkpt>
      <trkpt lat="46.66121" lon="5.42771">
        <ele>207.2</ele>
        <time>2021-10-07T13:24:53Z</time>
      </trkpt>
      <trkpt lat="46.66126" lon="5.42779">
        <ele>207.2</ele>
        <time>2021-10-07T13:24:54Z</time>
      </trkpt>
      <trkpt lat="46.66131" lon="5.42787">
        <ele>207.2</ele>
        <time>2021-10-07T13:24:55Z</time>
      </trkpt>
      <trkpt lat="46.66141" lon="5.42802">
        <ele>207.2</ele>
        <time>2021-10-07T13:24:57Z</time>
      </trkpt>
      <trkpt lat="46.66151" lon="5.42818">
        <ele>207</ele>
        <time>2021-10-07T13:24:59Z</time>
      </trkpt>
      <trkpt lat="46.6616" lon="5.42833">
        <ele>207</ele>
        <time>2021-10-07T13:25:01Z</time>
      </trkpt>
      <trkpt lat="46.66165" lon="5.42841">
        <ele>207</ele>
        <time>2021-10-07T13:25:02Z</time>
      </trkpt>
      <trkpt lat="46.6617" lon="5.42848">
        <ele>207</ele>
        <time>2021-10-07T13:25:03Z</time>
      </trkpt>
      <trkpt lat="46.66179" lon="5.42863">
        <ele>207</ele>
        <time>2021-10-07T13:25:05Z</time>
      </trkpt>
      <trkpt lat="46.66187" lon="5.42878">
        <ele>207</ele>
        <time>2021-10-07T13:25:07Z</time>
      </trkpt>
      <trkpt lat="46.66196" lon="5.42893">
        <ele>206.8</ele>
        <time>2021-10-07T13:25:09Z</time>
      </trkpt>
      <trkpt lat="46.662" lon="5.42901">
        <ele>206.8</ele>
        <time>2021-10-07T13:25:10Z</time>
      </trkpt>
      <trkpt lat="46.66204" lon="5.42908">
        <ele>206.8</ele>
        <time>2021-10-07T13:25:11Z</time>
      </trkpt>
      <trkpt lat="46.66211" lon="5.42924">
        <ele>206.8</ele>
        <time>2021-10-07T13:25:13Z</time>
      </trkpt>
      <trkpt lat="46.66218" lon="5.42941">
        <ele>206.8</ele>
        <time>2021-10-07T13:25:15Z</time>
      </trkpt>
      <trkpt lat="46.66225" lon="5.42957">
        <ele>206.8</ele>
        <time>2021-10-07T13:25:17Z</time>
      </trkpt>
      <trkpt lat="46.66228" lon="5.42966">
        <ele>206.8</ele>
        <time>2021-10-07T13:25:18Z</time>
      </trkpt>
      <trkpt lat="46.66231" lon="5.42975">
        <ele>206.8</ele>
        <time>2021-10-07T13:25:19Z</time>
      </trkpt>
      <trkpt lat="46.66237" lon="5.42992">
        <ele>206.6</ele>
        <time>2021-10-07T13:25:21Z</time>
      </trkpt>
      <trkpt lat="46.66242" lon="5.43009">
        <ele>206.8</ele>
        <time>2021-10-07T13:25:23Z</time>
      </trkpt>
      <trkpt lat="46.66247" lon="5.43027">
        <ele>206.8</ele>
        <time>2021-10-07T13:25:25Z</time>
      </trkpt>
      <trkpt lat="46.66251" lon="5.43046">
        <ele>206.8</ele>
        <time>2021-10-07T13:25:27Z</time>
      </trkpt>
      <trkpt lat="46.66255" lon="5.43064">
        <ele>206.8</ele>
        <time>2021-10-07T13:25:29Z</time>
      </trkpt>
      <trkpt lat="46.66258" lon="5.43083">
        <ele>207</ele>
        <time>2021-10-07T13:25:31Z</time>
      </trkpt>
      <trkpt lat="46.66261" lon="5.43101">
        <ele>207.2</ele>
        <time>2021-10-07T13:25:33Z</time>
      </trkpt>
      <trkpt lat="46.66264" lon="5.4312">
        <ele>207.2</ele>
        <time>2021-10-07T13:25:35Z</time>
      </trkpt>
      <trkpt lat="46.66267" lon="5.4314">
        <ele>207.4</ele>
        <time>2021-10-07T13:25:37Z</time>
      </trkpt>
      <trkpt lat="46.66269" lon="5.4316">
        <ele>207.4</ele>
        <time>2021-10-07T13:25:39Z</time>
      </trkpt>
      <trkpt lat="46.6627" lon="5.4318">
        <ele>207.4</ele>
        <time>2021-10-07T13:25:41Z</time>
      </trkpt>
      <trkpt lat="46.6627" lon="5.4319">
        <ele>207.4</ele>
        <time>2021-10-07T13:25:42Z</time>
      </trkpt>
      <trkpt lat="46.66271" lon="5.432">
        <ele>207.4</ele>
        <time>2021-10-07T13:25:43Z</time>
      </trkpt>
      <trkpt lat="46.6627" lon="5.43221">
        <ele>207.4</ele>
        <time>2021-10-07T13:25:45Z</time>
      </trkpt>
      <trkpt lat="46.6627" lon="5.43241">
        <ele>207.4</ele>
        <time>2021-10-07T13:25:47Z</time>
      </trkpt>
      <trkpt lat="46.66268" lon="5.43261">
        <ele>207.4</ele>
        <time>2021-10-07T13:25:49Z</time>
      </trkpt>
      <trkpt lat="46.66266" lon="5.4328">
        <ele>207.4</ele>
        <time>2021-10-07T13:25:51Z</time>
      </trkpt>
      <trkpt lat="46.66265" lon="5.43298">
        <ele>207.4</ele>
        <time>2021-10-07T13:25:53Z</time>
      </trkpt>
      <trkpt lat="46.66264" lon="5.43317">
        <ele>207.4</ele>
        <time>2021-10-07T13:25:55Z</time>
      </trkpt>
      <trkpt lat="46.66262" lon="5.43335">
        <ele>207.4</ele>
        <time>2021-10-07T13:25:57Z</time>
      </trkpt>
      <trkpt lat="46.66261" lon="5.43352">
        <ele>207.4</ele>
        <time>2021-10-07T13:25:59Z</time>
      </trkpt>
      <trkpt lat="46.6626" lon="5.43369">
        <ele>207.6</ele>
        <time>2021-10-07T13:26:01Z</time>
      </trkpt>
      <trkpt lat="46.6626" lon="5.43377">
        <ele>207.8</ele>
        <time>2021-10-07T13:26:02Z</time>
      </trkpt>
      <trkpt lat="46.66259" lon="5.43386">
        <ele>207.8</ele>
        <time>2021-10-07T13:26:03Z</time>
      </trkpt>
      <trkpt lat="46.66258" lon="5.43405">
        <ele>208</ele>
        <time>2021-10-07T13:26:05Z</time>
      </trkpt>
      <trkpt lat="46.66258" lon="5.43426">
        <ele>208.2</ele>
        <time>2021-10-07T13:26:07Z</time>
      </trkpt>
      <trkpt lat="46.66257" lon="5.43446">
        <ele>208.2</ele>
        <time>2021-10-07T13:26:09Z</time>
      </trkpt>
      <trkpt lat="46.66257" lon="5.43465">
        <ele>208.4</ele>
        <time>2021-10-07T13:26:11Z</time>
      </trkpt>
      <trkpt lat="46.66256" lon="5.43485">
        <ele>208.6</ele>
        <time>2021-10-07T13:26:13Z</time>
      </trkpt>
      <trkpt lat="46.66255" lon="5.43504">
        <ele>208.8</ele>
        <time>2021-10-07T13:26:15Z</time>
      </trkpt>
      <trkpt lat="46.66254" lon="5.43514">
        <ele>208.8</ele>
        <time>2021-10-07T13:26:16Z</time>
      </trkpt>
      <trkpt lat="46.66254" lon="5.43523">
        <ele>209</ele>
        <time>2021-10-07T13:26:17Z</time>
      </trkpt>
      <trkpt lat="46.66253" lon="5.43542">
        <ele>209</ele>
        <time>2021-10-07T13:26:19Z</time>
      </trkpt>
      <trkpt lat="46.66251" lon="5.43561">
        <ele>209.2</ele>
        <time>2021-10-07T13:26:21Z</time>
      </trkpt>
      <trkpt lat="46.6625" lon="5.4358">
        <ele>209.2</ele>
        <time>2021-10-07T13:26:23Z</time>
      </trkpt>
      <trkpt lat="46.6625" lon="5.4359">
        <ele>209.4</ele>
        <time>2021-10-07T13:26:24Z</time>
      </trkpt>
      <trkpt lat="46.66249" lon="5.43599">
        <ele>209.4</ele>
        <time>2021-10-07T13:26:25Z</time>
      </trkpt>
      <trkpt lat="46.66249" lon="5.43618">
        <ele>209.4</ele>
        <time>2021-10-07T13:26:27Z</time>
      </trkpt>
      <trkpt lat="46.66248" lon="5.43636">
        <ele>209.6</ele>
        <time>2021-10-07T13:26:29Z</time>
      </trkpt>
      <trkpt lat="46.66248" lon="5.43656">
        <ele>210</ele>
        <time>2021-10-07T13:26:31Z</time>
      </trkpt>
      <trkpt lat="46.66249" lon="5.43665">
        <ele>210.2</ele>
        <time>2021-10-07T13:26:32Z</time>
      </trkpt>
      <trkpt lat="46.66249" lon="5.43675">
        <ele>210.2</ele>
        <time>2021-10-07T13:26:33Z</time>
      </trkpt>
      <trkpt lat="46.6625" lon="5.43693">
        <ele>210.2</ele>
        <time>2021-10-07T13:26:35Z</time>
      </trkpt>
      <trkpt lat="46.66251" lon="5.43712">
        <ele>210.2</ele>
        <time>2021-10-07T13:26:37Z</time>
      </trkpt>
      <trkpt lat="46.66253" lon="5.4373">
        <ele>210.4</ele>
        <time>2021-10-07T13:26:39Z</time>
      </trkpt>
      <trkpt lat="46.66256" lon="5.43749">
        <ele>210.4</ele>
        <time>2021-10-07T13:26:41Z</time>
      </trkpt>
      <trkpt lat="46.66259" lon="5.43766">
        <ele>210.4</ele>
        <time>2021-10-07T13:26:43Z</time>
      </trkpt>
      <trkpt lat="46.66262" lon="5.43782">
        <ele>210.4</ele>
        <time>2021-10-07T13:26:45Z</time>
      </trkpt>
      <trkpt lat="46.66263" lon="5.4379">
        <ele>210.4</ele>
        <time>2021-10-07T13:26:46Z</time>
      </trkpt>
      <trkpt lat="46.66264" lon="5.43797">
        <ele>210.4</ele>
        <time>2021-10-07T13:26:47Z</time>
      </trkpt>
      <trkpt lat="46.66265" lon="5.43804">
        <ele>210.4</ele>
        <time>2021-10-07T13:26:48Z</time>
      </trkpt>
      <trkpt lat="46.66267" lon="5.4381">
        <ele>210.6</ele>
        <time>2021-10-07T13:26:49Z</time>
      </trkpt>
      <trkpt lat="46.6627" lon="5.43823">
        <ele>210.6</ele>
        <time>2021-10-07T13:26:51Z</time>
      </trkpt>
      <trkpt lat="46.66273" lon="5.43831">
        <ele>210.6</ele>
        <time>2021-10-07T13:26:52Z</time>
      </trkpt>
      <trkpt lat="46.66274" lon="5.43839">
        <ele>210.6</ele>
        <time>2021-10-07T13:26:53Z</time>
      </trkpt>
      <trkpt lat="46.66278" lon="5.43857">
        <ele>210.6</ele>
        <time>2021-10-07T13:26:55Z</time>
      </trkpt>
      <trkpt lat="46.66282" lon="5.43875">
        <ele>210.8</ele>
        <time>2021-10-07T13:26:57Z</time>
      </trkpt>
      <trkpt lat="46.66286" lon="5.43892">
        <ele>210.8</ele>
        <time>2021-10-07T13:26:59Z</time>
      </trkpt>
      <trkpt lat="46.66289" lon="5.4391">
        <ele>210.8</ele>
        <time>2021-10-07T13:27:01Z</time>
      </trkpt>
      <trkpt lat="46.66294" lon="5.4393">
        <ele>210.8</ele>
        <time>2021-10-07T13:27:03Z</time>
      </trkpt>
      <trkpt lat="46.66299" lon="5.4395">
        <ele>210.8</ele>
        <time>2021-10-07T13:27:05Z</time>
      </trkpt>
      <trkpt lat="46.66306" lon="5.4397">
        <ele>210.8</ele>
        <time>2021-10-07T13:27:07Z</time>
      </trkpt>
      <trkpt lat="46.66312" lon="5.43989">
        <ele>210.8</ele>
        <time>2021-10-07T13:27:09Z</time>
      </trkpt>
      <trkpt lat="46.6632" lon="5.44007">
        <ele>210.8</ele>
        <time>2021-10-07T13:27:11Z</time>
      </trkpt>
      <trkpt lat="46.66327" lon="5.44025">
        <ele>210.8</ele>
        <time>2021-10-07T13:27:13Z</time>
      </trkpt>
      <trkpt lat="46.66331" lon="5.44034">
        <ele>210.8</ele>
        <time>2021-10-07T13:27:14Z</time>
      </trkpt>
      <trkpt lat="46.66336" lon="5.44042">
        <ele>210.8</ele>
        <time>2021-10-07T13:27:15Z</time>
      </trkpt>
      <trkpt lat="46.66344" lon="5.44059">
        <ele>210.6</ele>
        <time>2021-10-07T13:27:17Z</time>
      </trkpt>
      <trkpt lat="46.66352" lon="5.44075">
        <ele>210.6</ele>
        <time>2021-10-07T13:27:19Z</time>
      </trkpt>
      <trkpt lat="46.66361" lon="5.44091">
        <ele>210.6</ele>
        <time>2021-10-07T13:27:21Z</time>
      </trkpt>
      <trkpt lat="46.66366" lon="5.44099">
        <ele>210.6</ele>
        <time>2021-10-07T13:27:22Z</time>
      </trkpt>
      <trkpt lat="46.6637" lon="5.44107">
        <ele>210.6</ele>
        <time>2021-10-07T13:27:23Z</time>
      </trkpt>
      <trkpt lat="46.66379" lon="5.44123">
        <ele>210.6</ele>
        <time>2021-10-07T13:27:25Z</time>
      </trkpt>
      <trkpt lat="46.66387" lon="5.44138">
        <ele>210.6</ele>
        <time>2021-10-07T13:27:27Z</time>
      </trkpt>
      <trkpt lat="46.66394" lon="5.44153">
        <ele>210.6</ele>
        <time>2021-10-07T13:27:29Z</time>
      </trkpt>
      <trkpt lat="46.66402" lon="5.44168">
        <ele>210.6</ele>
        <time>2021-10-07T13:27:31Z</time>
      </trkpt>
      <trkpt lat="46.66405" lon="5.44175">
        <ele>210.6</ele>
        <time>2021-10-07T13:27:32Z</time>
      </trkpt>
      <trkpt lat="46.66409" lon="5.44183">
        <ele>210.8</ele>
        <time>2021-10-07T13:27:33Z</time>
      </trkpt>
      <trkpt lat="46.66417" lon="5.44199">
        <ele>211</ele>
        <time>2021-10-07T13:27:35Z</time>
      </trkpt>
      <trkpt lat="46.66424" lon="5.44214">
        <ele>211</ele>
        <time>2021-10-07T13:27:37Z</time>
      </trkpt>
      <trkpt lat="46.66431" lon="5.44231">
        <ele>211</ele>
        <time>2021-10-07T13:27:39Z</time>
      </trkpt>
      <trkpt lat="46.66437" lon="5.44249">
        <ele>211</ele>
        <time>2021-10-07T13:27:41Z</time>
      </trkpt>
      <trkpt lat="46.66441" lon="5.44258">
        <ele>211</ele>
        <time>2021-10-07T13:27:42Z</time>
      </trkpt>
      <trkpt lat="46.66444" lon="5.44267">
        <ele>211.2</ele>
        <time>2021-10-07T13:27:43Z</time>
      </trkpt>
      <trkpt lat="46.6645" lon="5.44287">
        <ele>211.4</ele>
        <time>2021-10-07T13:27:45Z</time>
      </trkpt>
      <trkpt lat="46.66455" lon="5.44307">
        <ele>211.4</ele>
        <time>2021-10-07T13:27:47Z</time>
      </trkpt>
      <trkpt lat="46.6646" lon="5.44326">
        <ele>211.6</ele>
        <time>2021-10-07T13:27:49Z</time>
      </trkpt>
      <trkpt lat="46.66464" lon="5.44346">
        <ele>211.6</ele>
        <time>2021-10-07T13:27:51Z</time>
      </trkpt>
      <trkpt lat="46.66466" lon="5.44357">
        <ele>211.6</ele>
        <time>2021-10-07T13:27:52Z</time>
      </trkpt>
      <trkpt lat="46.66468" lon="5.44367">
        <ele>211.6</ele>
        <time>2021-10-07T13:27:53Z</time>
      </trkpt>
      <trkpt lat="46.66472" lon="5.44387">
        <ele>211.6</ele>
        <time>2021-10-07T13:27:55Z</time>
      </trkpt>
      <trkpt lat="46.66475" lon="5.44407">
        <ele>211.6</ele>
        <time>2021-10-07T13:27:57Z</time>
      </trkpt>
      <trkpt lat="46.66477" lon="5.44417">
        <ele>211.6</ele>
        <time>2021-10-07T13:27:58Z</time>
      </trkpt>
      <trkpt lat="46.66479" lon="5.44426">
        <ele>211.8</ele>
        <time>2021-10-07T13:27:59Z</time>
      </trkpt>
      <trkpt lat="46.66481" lon="5.44446">
        <ele>211.8</ele>
        <time>2021-10-07T13:28:01Z</time>
      </trkpt>
      <trkpt lat="46.66483" lon="5.44466">
        <ele>211.8</ele>
        <time>2021-10-07T13:28:03Z</time>
      </trkpt>
      <trkpt lat="46.66484" lon="5.44487">
        <ele>211.8</ele>
        <time>2021-10-07T13:28:05Z</time>
      </trkpt>
      <trkpt lat="46.66486" lon="5.44507">
        <ele>211.8</ele>
        <time>2021-10-07T13:28:07Z</time>
      </trkpt>
      <trkpt lat="46.66488" lon="5.44528">
        <ele>211.8</ele>
        <time>2021-10-07T13:28:09Z</time>
      </trkpt>
      <trkpt lat="46.6649" lon="5.44549">
        <ele>211.8</ele>
        <time>2021-10-07T13:28:11Z</time>
      </trkpt>
      <trkpt lat="46.66491" lon="5.4457">
        <ele>211.8</ele>
        <time>2021-10-07T13:28:13Z</time>
      </trkpt>
      <trkpt lat="46.66492" lon="5.44591">
        <ele>211.8</ele>
        <time>2021-10-07T13:28:15Z</time>
      </trkpt>
      <trkpt lat="46.66493" lon="5.44612">
        <ele>211.8</ele>
        <time>2021-10-07T13:28:17Z</time>
      </trkpt>
      <trkpt lat="46.66494" lon="5.44633">
        <ele>211.8</ele>
        <time>2021-10-07T13:28:19Z</time>
      </trkpt>
      <trkpt lat="46.66495" lon="5.44653">
        <ele>211.8</ele>
        <time>2021-10-07T13:28:21Z</time>
      </trkpt>
      <trkpt lat="46.66496" lon="5.44673">
        <ele>211.8</ele>
        <time>2021-10-07T13:28:23Z</time>
      </trkpt>
      <trkpt lat="46.66497" lon="5.44693">
        <ele>211.8</ele>
        <time>2021-10-07T13:28:25Z</time>
      </trkpt>
      <trkpt lat="46.66498" lon="5.44713">
        <ele>211.8</ele>
        <time>2021-10-07T13:28:27Z</time>
      </trkpt>
      <trkpt lat="46.66499" lon="5.44731">
        <ele>211.8</ele>
        <time>2021-10-07T13:28:29Z</time>
      </trkpt>
      <trkpt lat="46.665" lon="5.44741">
        <ele>211.8</ele>
        <time>2021-10-07T13:28:30Z</time>
      </trkpt>
      <trkpt lat="46.66501" lon="5.4475">
        <ele>211.8</ele>
        <time>2021-10-07T13:28:31Z</time>
      </trkpt>
      <trkpt lat="46.66502" lon="5.4477">
        <ele>211.8</ele>
        <time>2021-10-07T13:28:33Z</time>
      </trkpt>
      <trkpt lat="46.66504" lon="5.44789">
        <ele>212</ele>
        <time>2021-10-07T13:28:35Z</time>
      </trkpt>
      <trkpt lat="46.66504" lon="5.44809">
        <ele>212.2</ele>
        <time>2021-10-07T13:28:37Z</time>
      </trkpt>
      <trkpt lat="46.66505" lon="5.44819">
        <ele>212.4</ele>
        <time>2021-10-07T13:28:38Z</time>
      </trkpt>
      <trkpt lat="46.66505" lon="5.44829">
        <ele>212.4</ele>
        <time>2021-10-07T13:28:39Z</time>
      </trkpt>
      <trkpt lat="46.66505" lon="5.44849">
        <ele>212.8</ele>
        <time>2021-10-07T13:28:41Z</time>
      </trkpt>
      <trkpt lat="46.66505" lon="5.44869">
        <ele>212.8</ele>
        <time>2021-10-07T13:28:43Z</time>
      </trkpt>
      <trkpt lat="46.66504" lon="5.44889">
        <ele>213</ele>
        <time>2021-10-07T13:28:45Z</time>
      </trkpt>
      <trkpt lat="46.66503" lon="5.4491">
        <ele>213</ele>
        <time>2021-10-07T13:28:47Z</time>
      </trkpt>
      <trkpt lat="46.66501" lon="5.44931">
        <ele>213.2</ele>
        <time>2021-10-07T13:28:49Z</time>
      </trkpt>
      <trkpt lat="46.66499" lon="5.44953">
        <ele>213.2</ele>
        <time>2021-10-07T13:28:51Z</time>
      </trkpt>
      <trkpt lat="46.66497" lon="5.44974">
        <ele>213.2</ele>
        <time>2021-10-07T13:28:53Z</time>
      </trkpt>
      <trkpt lat="46.66495" lon="5.44995">
        <ele>213.4</ele>
        <time>2021-10-07T13:28:55Z</time>
      </trkpt>
      <trkpt lat="46.66494" lon="5.45016">
        <ele>213.6</ele>
        <time>2021-10-07T13:28:57Z</time>
      </trkpt>
      <trkpt lat="46.66492" lon="5.45035">
        <ele>213.6</ele>
        <time>2021-10-07T13:28:59Z</time>
      </trkpt>
      <trkpt lat="46.6649" lon="5.45055">
        <ele>213.8</ele>
        <time>2021-10-07T13:29:01Z</time>
      </trkpt>
      <trkpt lat="46.66488" lon="5.45074">
        <ele>214</ele>
        <time>2021-10-07T13:29:03Z</time>
      </trkpt>
      <trkpt lat="46.66486" lon="5.45093">
        <ele>214.2</ele>
        <time>2021-10-07T13:29:05Z</time>
      </trkpt>
      <trkpt lat="46.66485" lon="5.45112">
        <ele>214.6</ele>
        <time>2021-10-07T13:29:07Z</time>
      </trkpt>
      <trkpt lat="46.66483" lon="5.45131">
        <ele>214.8</ele>
        <time>2021-10-07T13:29:09Z</time>
      </trkpt>
      <trkpt lat="46.66481" lon="5.4515">
        <ele>215</ele>
        <time>2021-10-07T13:29:11Z</time>
      </trkpt>
      <trkpt lat="46.6648" lon="5.45169">
        <ele>215.2</ele>
        <time>2021-10-07T13:29:13Z</time>
      </trkpt>
      <trkpt lat="46.66478" lon="5.45187">
        <ele>215.2</ele>
        <time>2021-10-07T13:29:15Z</time>
      </trkpt>
      <trkpt lat="46.66477" lon="5.45206">
        <ele>215.4</ele>
        <time>2021-10-07T13:29:17Z</time>
      </trkpt>
      <trkpt lat="46.66476" lon="5.45224">
        <ele>215.6</ele>
        <time>2021-10-07T13:29:19Z</time>
      </trkpt>
      <trkpt lat="46.66475" lon="5.45242">
        <ele>215.8</ele>
        <time>2021-10-07T13:29:21Z</time>
      </trkpt>
      <trkpt lat="46.66474" lon="5.4526">
        <ele>215.8</ele>
        <time>2021-10-07T13:29:23Z</time>
      </trkpt>
      <trkpt lat="46.66473" lon="5.45279">
        <ele>215.8</ele>
        <time>2021-10-07T13:29:25Z</time>
      </trkpt>
      <trkpt lat="46.66472" lon="5.45288">
        <ele>216</ele>
        <time>2021-10-07T13:29:26Z</time>
      </trkpt>
      <trkpt lat="46.66472" lon="5.45297">
        <ele>216</ele>
        <time>2021-10-07T13:29:27Z</time>
      </trkpt>
      <trkpt lat="46.6647" lon="5.45315">
        <ele>216</ele>
        <time>2021-10-07T13:29:29Z</time>
      </trkpt>
      <trkpt lat="46.66469" lon="5.45334">
        <ele>216</ele>
        <time>2021-10-07T13:29:31Z</time>
      </trkpt>
      <trkpt lat="46.66468" lon="5.45353">
        <ele>216.2</ele>
        <time>2021-10-07T13:29:33Z</time>
      </trkpt>
      <trkpt lat="46.66467" lon="5.45372">
        <ele>216.4</ele>
        <time>2021-10-07T13:29:35Z</time>
      </trkpt>
      <trkpt lat="46.66466" lon="5.4539">
        <ele>216.6</ele>
        <time>2021-10-07T13:29:37Z</time>
      </trkpt>
      <trkpt lat="46.66464" lon="5.45409">
        <ele>216.6</ele>
        <time>2021-10-07T13:29:39Z</time>
      </trkpt>
      <trkpt lat="46.66463" lon="5.45427">
        <ele>216.8</ele>
        <time>2021-10-07T13:29:41Z</time>
      </trkpt>
      <trkpt lat="46.66462" lon="5.45446">
        <ele>217</ele>
        <time>2021-10-07T13:29:43Z</time>
      </trkpt>
      <trkpt lat="46.6646" lon="5.45464">
        <ele>217</ele>
        <time>2021-10-07T13:29:45Z</time>
      </trkpt>
      <trkpt lat="46.66459" lon="5.45483">
        <ele>217.2</ele>
        <time>2021-10-07T13:29:47Z</time>
      </trkpt>
      <trkpt lat="46.66457" lon="5.45501">
        <ele>217.4</ele>
        <time>2021-10-07T13:29:49Z</time>
      </trkpt>
      <trkpt lat="46.66456" lon="5.4552">
        <ele>217.6</ele>
        <time>2021-10-07T13:29:51Z</time>
      </trkpt>
      <trkpt lat="46.66455" lon="5.45539">
        <ele>217.8</ele>
        <time>2021-10-07T13:29:53Z</time>
      </trkpt>
      <trkpt lat="46.66454" lon="5.45558">
        <ele>218</ele>
        <time>2021-10-07T13:29:55Z</time>
      </trkpt>
      <trkpt lat="46.66453" lon="5.45577">
        <ele>218.2</ele>
        <time>2021-10-07T13:29:57Z</time>
      </trkpt>
      <trkpt lat="46.66452" lon="5.45597">
        <ele>218.6</ele>
        <time>2021-10-07T13:29:59Z</time>
      </trkpt>
      <trkpt lat="46.66452" lon="5.45607">
        <ele>218.8</ele>
        <time>2021-10-07T13:30:00Z</time>
      </trkpt>
      <trkpt lat="46.66451" lon="5.45617">
        <ele>219</ele>
        <time>2021-10-07T13:30:01Z</time>
      </trkpt>
      <trkpt lat="46.66449" lon="5.45636">
        <ele>219.2</ele>
        <time>2021-10-07T13:30:03Z</time>
      </trkpt>
      <trkpt lat="46.66448" lon="5.45656">
        <ele>219.2</ele>
        <time>2021-10-07T13:30:05Z</time>
      </trkpt>
      <trkpt lat="46.66446" lon="5.45675">
        <ele>219.2</ele>
        <time>2021-10-07T13:30:07Z</time>
      </trkpt>
      <trkpt lat="46.66445" lon="5.45694">
        <ele>219.2</ele>
        <time>2021-10-07T13:30:09Z</time>
      </trkpt>
      <trkpt lat="46.66444" lon="5.45712">
        <ele>219.2</ele>
        <time>2021-10-07T13:30:11Z</time>
      </trkpt>
      <trkpt lat="46.66443" lon="5.45731">
        <ele>219.4</ele>
        <time>2021-10-07T13:30:13Z</time>
      </trkpt>
      <trkpt lat="46.66442" lon="5.45741">
        <ele>219.4</ele>
        <time>2021-10-07T13:30:14Z</time>
      </trkpt>
      <trkpt lat="46.66442" lon="5.4575">
        <ele>219.4</ele>
        <time>2021-10-07T13:30:15Z</time>
      </trkpt>
      <trkpt lat="46.66441" lon="5.45768">
        <ele>219.4</ele>
        <time>2021-10-07T13:30:17Z</time>
      </trkpt>
      <trkpt lat="46.66441" lon="5.45784">
        <ele>219.4</ele>
        <time>2021-10-07T13:30:19Z</time>
      </trkpt>
      <trkpt lat="46.6644" lon="5.45799">
        <ele>219.6</ele>
        <time>2021-10-07T13:30:21Z</time>
      </trkpt>
      <trkpt lat="46.6644" lon="5.45813">
        <ele>219.8</ele>
        <time>2021-10-07T13:30:23Z</time>
      </trkpt>
      <trkpt lat="46.66438" lon="5.45817">
        <ele>219.8</ele>
        <time>2021-10-07T13:30:24Z</time>
      </trkpt>
      <trkpt lat="46.66435" lon="5.45816">
        <ele>220</ele>
        <time>2021-10-07T13:30:25Z</time>
      </trkpt>
      <trkpt lat="46.66432" lon="5.45813">
        <ele>220</ele>
        <time>2021-10-07T13:30:26Z</time>
      </trkpt>
      <trkpt lat="46.6643" lon="5.45808">
        <ele>220</ele>
        <time>2021-10-07T13:30:27Z</time>
      </trkpt>
      <trkpt lat="46.66427" lon="5.45801">
        <ele>220</ele>
        <time>2021-10-07T13:30:28Z</time>
      </trkpt>
      <trkpt lat="46.66424" lon="5.45794">
        <ele>220.2</ele>
        <time>2021-10-07T13:30:29Z</time>
      </trkpt>
      <trkpt lat="46.6642" lon="5.45787">
        <ele>220.2</ele>
        <time>2021-10-07T13:30:30Z</time>
      </trkpt>
      <trkpt lat="46.66416" lon="5.45779">
        <ele>220.2</ele>
        <time>2021-10-07T13:30:31Z</time>
      </trkpt>
      <trkpt lat="46.66408" lon="5.45761">
        <ele>220.2</ele>
        <time>2021-10-07T13:30:33Z</time>
      </trkpt>
      <trkpt lat="46.664" lon="5.45744">
        <ele>220.2</ele>
        <time>2021-10-07T13:30:35Z</time>
      </trkpt>
      <trkpt lat="46.66396" lon="5.45735">
        <ele>220.2</ele>
        <time>2021-10-07T13:30:36Z</time>
      </trkpt>
      <trkpt lat="46.66391" lon="5.45727">
        <ele>220.2</ele>
        <time>2021-10-07T13:30:37Z</time>
      </trkpt>
      <trkpt lat="46.66383" lon="5.4571">
        <ele>220.2</ele>
        <time>2021-10-07T13:30:39Z</time>
      </trkpt>
      <trkpt lat="46.66376" lon="5.45693">
        <ele>220.2</ele>
        <time>2021-10-07T13:30:41Z</time>
      </trkpt>
      <trkpt lat="46.66368" lon="5.45678">
        <ele>220.2</ele>
        <time>2021-10-07T13:30:43Z</time>
      </trkpt>
      <trkpt lat="46.6636" lon="5.45663">
        <ele>220.2</ele>
        <time>2021-10-07T13:30:45Z</time>
      </trkpt>
      <trkpt lat="46.66352" lon="5.45647">
        <ele>220.2</ele>
        <time>2021-10-07T13:30:47Z</time>
      </trkpt>
      <trkpt lat="46.66343" lon="5.45632">
        <ele>220.2</ele>
        <time>2021-10-07T13:30:49Z</time>
      </trkpt>
      <trkpt lat="46.66335" lon="5.45618">
        <ele>220.4</ele>
        <time>2021-10-07T13:30:51Z</time>
      </trkpt>
      <trkpt lat="46.66326" lon="5.45605">
        <ele>220.8</ele>
        <time>2021-10-07T13:30:53Z</time>
      </trkpt>
      <trkpt lat="46.66321" lon="5.45599">
        <ele>221</ele>
        <time>2021-10-07T13:30:54Z</time>
      </trkpt>
      <trkpt lat="46.66316" lon="5.45594">
        <ele>221</ele>
        <time>2021-10-07T13:30:55Z</time>
      </trkpt>
      <trkpt lat="46.66305" lon="5.45581">
        <ele>221.2</ele>
        <time>2021-10-07T13:30:57Z</time>
      </trkpt>
      <trkpt lat="46.66293" lon="5.45569">
        <ele>221.6</ele>
        <time>2021-10-07T13:30:59Z</time>
      </trkpt>
      <trkpt lat="46.66282" lon="5.45558">
        <ele>221.8</ele>
        <time>2021-10-07T13:31:01Z</time>
      </trkpt>
      <trkpt lat="46.6627" lon="5.45547">
        <ele>221.8</ele>
        <time>2021-10-07T13:31:03Z</time>
      </trkpt>
      <trkpt lat="46.66259" lon="5.45537">
        <ele>222</ele>
        <time>2021-10-07T13:31:05Z</time>
      </trkpt>
      <trkpt lat="46.66247" lon="5.45528">
        <ele>222</ele>
        <time>2021-10-07T13:31:07Z</time>
      </trkpt>
      <trkpt lat="46.66235" lon="5.45521">
        <ele>222</ele>
        <time>2021-10-07T13:31:09Z</time>
      </trkpt>
      <trkpt lat="46.66222" lon="5.45515">
        <ele>222</ele>
        <time>2021-10-07T13:31:11Z</time>
      </trkpt>
      <trkpt lat="46.66208" lon="5.4551">
        <ele>222</ele>
        <time>2021-10-07T13:31:13Z</time>
      </trkpt>
      <trkpt lat="46.66195" lon="5.45504">
        <ele>222</ele>
        <time>2021-10-07T13:31:15Z</time>
      </trkpt>
      <trkpt lat="46.66183" lon="5.45498">
        <ele>222</ele>
        <time>2021-10-07T13:31:17Z</time>
      </trkpt>
      <trkpt lat="46.6617" lon="5.45493">
        <ele>222</ele>
        <time>2021-10-07T13:31:19Z</time>
      </trkpt>
      <trkpt lat="46.66157" lon="5.45488">
        <ele>222.2</ele>
        <time>2021-10-07T13:31:21Z</time>
      </trkpt>
      <trkpt lat="46.66145" lon="5.45483">
        <ele>222.2</ele>
        <time>2021-10-07T13:31:23Z</time>
      </trkpt>
      <trkpt lat="46.66133" lon="5.45477">
        <ele>222.2</ele>
        <time>2021-10-07T13:31:25Z</time>
      </trkpt>
      <trkpt lat="46.6612" lon="5.45471">
        <ele>222.4</ele>
        <time>2021-10-07T13:31:27Z</time>
      </trkpt>
      <trkpt lat="46.66114" lon="5.45467">
        <ele>222.6</ele>
        <time>2021-10-07T13:31:28Z</time>
      </trkpt>
      <trkpt lat="46.66108" lon="5.45463">
        <ele>222.8</ele>
        <time>2021-10-07T13:31:29Z</time>
      </trkpt>
      <trkpt lat="46.66098" lon="5.45453">
        <ele>223</ele>
        <time>2021-10-07T13:31:31Z</time>
      </trkpt>
      <trkpt lat="46.66087" lon="5.45442">
        <ele>223.2</ele>
        <time>2021-10-07T13:31:33Z</time>
      </trkpt>
      <trkpt lat="46.66078" lon="5.4543">
        <ele>223.2</ele>
        <time>2021-10-07T13:31:35Z</time>
      </trkpt>
      <trkpt lat="46.66069" lon="5.45418">
        <ele>223.4</ele>
        <time>2021-10-07T13:31:37Z</time>
      </trkpt>
      <trkpt lat="46.66061" lon="5.45404">
        <ele>223.6</ele>
        <time>2021-10-07T13:31:39Z</time>
      </trkpt>
      <trkpt lat="46.66057" lon="5.45398">
        <ele>223.8</ele>
        <time>2021-10-07T13:31:40Z</time>
      </trkpt>
      <trkpt lat="46.66052" lon="5.45391">
        <ele>224</ele>
        <time>2021-10-07T13:31:41Z</time>
      </trkpt>
      <trkpt lat="46.66044" lon="5.45378">
        <ele>224.4</ele>
        <time>2021-10-07T13:31:43Z</time>
      </trkpt>
      <trkpt lat="46.66036" lon="5.45364">
        <ele>224.8</ele>
        <time>2021-10-07T13:31:45Z</time>
      </trkpt>
      <trkpt lat="46.66027" lon="5.4535">
        <ele>225.2</ele>
        <time>2021-10-07T13:31:47Z</time>
      </trkpt>
      <trkpt lat="46.66019" lon="5.45336">
        <ele>225.4</ele>
        <time>2021-10-07T13:31:49Z</time>
      </trkpt>
      <trkpt lat="46.66011" lon="5.45321">
        <ele>225.6</ele>
        <time>2021-10-07T13:31:51Z</time>
      </trkpt>
      <trkpt lat="46.66003" lon="5.45305">
        <ele>225.6</ele>
        <time>2021-10-07T13:31:53Z</time>
      </trkpt>
      <trkpt lat="46.65996" lon="5.45287">
        <ele>225.6</ele>
        <time>2021-10-07T13:31:55Z</time>
      </trkpt>
      <trkpt lat="46.65993" lon="5.45278">
        <ele>225.6</ele>
        <time>2021-10-07T13:31:56Z</time>
      </trkpt>
      <trkpt lat="46.6599" lon="5.4527">
        <ele>225.6</ele>
        <time>2021-10-07T13:31:57Z</time>
      </trkpt>
      <trkpt lat="46.65987" lon="5.45261">
        <ele>225.6</ele>
        <time>2021-10-07T13:31:58Z</time>
      </trkpt>
      <trkpt lat="46.65983" lon="5.45253">
        <ele>225.6</ele>
        <time>2021-10-07T13:31:59Z</time>
      </trkpt>
      <trkpt lat="46.65975" lon="5.45238">
        <ele>225.6</ele>
        <time>2021-10-07T13:32:01Z</time>
      </trkpt>
      <trkpt lat="46.6597" lon="5.45231">
        <ele>225.6</ele>
        <time>2021-10-07T13:32:02Z</time>
      </trkpt>
      <trkpt lat="46.65965" lon="5.45225">
        <ele>225.8</ele>
        <time>2021-10-07T13:32:03Z</time>
      </trkpt>
      <trkpt lat="46.65953" lon="5.45214">
        <ele>225.8</ele>
        <time>2021-10-07T13:32:05Z</time>
      </trkpt>
      <trkpt lat="46.65942" lon="5.45204">
        <ele>226</ele>
        <time>2021-10-07T13:32:07Z</time>
      </trkpt>
      <trkpt lat="46.65936" lon="5.45198">
        <ele>226.2</ele>
        <time>2021-10-07T13:32:08Z</time>
      </trkpt>
      <trkpt lat="46.6593" lon="5.45192">
        <ele>226.4</ele>
        <time>2021-10-07T13:32:09Z</time>
      </trkpt>
      <trkpt lat="46.65919" lon="5.45181">
        <ele>226.6</ele>
        <time>2021-10-07T13:32:11Z</time>
      </trkpt>
      <trkpt lat="46.65909" lon="5.45169">
        <ele>226.8</ele>
        <time>2021-10-07T13:32:13Z</time>
      </trkpt>
      <trkpt lat="46.65904" lon="5.45163">
        <ele>227</ele>
        <time>2021-10-07T13:32:14Z</time>
      </trkpt>
      <trkpt lat="46.659" lon="5.45157">
        <ele>227</ele>
        <time>2021-10-07T13:32:15Z</time>
      </trkpt>
      <trkpt lat="46.65891" lon="5.45143">
        <ele>227</ele>
        <time>2021-10-07T13:32:17Z</time>
      </trkpt>
      <trkpt lat="46.65882" lon="5.45129">
        <ele>227</ele>
        <time>2021-10-07T13:32:19Z</time>
      </trkpt>
      <trkpt lat="46.65876" lon="5.45122">
        <ele>227</ele>
        <time>2021-10-07T13:32:20Z</time>
      </trkpt>
      <trkpt lat="46.65871" lon="5.45116">
        <ele>227</ele>
        <time>2021-10-07T13:32:21Z</time>
      </trkpt>
      <trkpt lat="46.65859" lon="5.45103">
        <ele>227</ele>
        <time>2021-10-07T13:32:23Z</time>
      </trkpt>
      <trkpt lat="46.65845" lon="5.45089">
        <ele>226.8</ele>
        <time>2021-10-07T13:32:25Z</time>
      </trkpt>
      <trkpt lat="46.6583" lon="5.45074">
        <ele>226.4</ele>
        <time>2021-10-07T13:32:27Z</time>
      </trkpt>
      <trkpt lat="46.65815" lon="5.45059">
        <ele>226.4</ele>
        <time>2021-10-07T13:32:29Z</time>
      </trkpt>
      <trkpt lat="46.65801" lon="5.45043">
        <ele>225.8</ele>
        <time>2021-10-07T13:32:31Z</time>
      </trkpt>
      <trkpt lat="46.65787" lon="5.45026">
        <ele>225</ele>
        <time>2021-10-07T13:32:33Z</time>
      </trkpt>
      <trkpt lat="46.65781" lon="5.45017">
        <ele>225</ele>
        <time>2021-10-07T13:32:34Z</time>
      </trkpt>
      <trkpt lat="46.65777" lon="5.45006">
        <ele>224.8</ele>
        <time>2021-10-07T13:32:35Z</time>
      </trkpt>
      <trkpt lat="46.65771" lon="5.44984">
        <ele>224.8</ele>
        <time>2021-10-07T13:32:37Z</time>
      </trkpt>
      <trkpt lat="46.65769" lon="5.44962">
        <ele>224.8</ele>
        <time>2021-10-07T13:32:39Z</time>
      </trkpt>
      <trkpt lat="46.65769" lon="5.44951">
        <ele>224.8</ele>
        <time>2021-10-07T13:32:40Z</time>
      </trkpt>
      <trkpt lat="46.65768" lon="5.44939">
        <ele>224.8</ele>
        <time>2021-10-07T13:32:41Z</time>
      </trkpt>
      <trkpt lat="46.65768" lon="5.44917">
        <ele>224.8</ele>
        <time>2021-10-07T13:32:43Z</time>
      </trkpt>
      <trkpt lat="46.65767" lon="5.44895">
        <ele>225</ele>
        <time>2021-10-07T13:32:45Z</time>
      </trkpt>
      <trkpt lat="46.65765" lon="5.44873">
        <ele>225.2</ele>
        <time>2021-10-07T13:32:47Z</time>
      </trkpt>
      <trkpt lat="46.65763" lon="5.44863">
        <ele>225.4</ele>
        <time>2021-10-07T13:32:48Z</time>
      </trkpt>
      <trkpt lat="46.6576" lon="5.44852">
        <ele>225.6</ele>
        <time>2021-10-07T13:32:49Z</time>
      </trkpt>
      <trkpt lat="46.65755" lon="5.44831">
        <ele>226</ele>
        <time>2021-10-07T13:32:51Z</time>
      </trkpt>
      <trkpt lat="46.65752" lon="5.44821">
        <ele>226.2</ele>
        <time>2021-10-07T13:32:52Z</time>
      </trkpt>
      <trkpt lat="46.65749" lon="5.44811">
        <ele>226.2</ele>
        <time>2021-10-07T13:32:53Z</time>
      </trkpt>
      <trkpt lat="46.65744" lon="5.4479">
        <ele>226.2</ele>
        <time>2021-10-07T13:32:55Z</time>
      </trkpt>
      <trkpt lat="46.6574" lon="5.44769">
        <ele>226.4</ele>
        <time>2021-10-07T13:32:57Z</time>
      </trkpt>
      <trkpt lat="46.65737" lon="5.44747">
        <ele>226.4</ele>
        <time>2021-10-07T13:32:59Z</time>
      </trkpt>
      <trkpt lat="46.65734" lon="5.44726">
        <ele>226.4</ele>
        <time>2021-10-07T13:33:01Z</time>
      </trkpt>
      <trkpt lat="46.65732" lon="5.44716">
        <ele>226.4</ele>
        <time>2021-10-07T13:33:02Z</time>
      </trkpt>
      <trkpt lat="46.65729" lon="5.44705">
        <ele>226.4</ele>
        <time>2021-10-07T13:33:03Z</time>
      </trkpt>
      <trkpt lat="46.65726" lon="5.44696">
        <ele>226.4</ele>
        <time>2021-10-07T13:33:04Z</time>
      </trkpt>
      <trkpt lat="46.65722" lon="5.44687">
        <ele>226.4</ele>
        <time>2021-10-07T13:33:05Z</time>
      </trkpt>
      <trkpt lat="46.65718" lon="5.44678">
        <ele>226.4</ele>
        <time>2021-10-07T13:33:06Z</time>
      </trkpt>
      <trkpt lat="46.65713" lon="5.4467">
        <ele>226.4</ele>
        <time>2021-10-07T13:33:07Z</time>
      </trkpt>
      <trkpt lat="46.65701" lon="5.44654">
        <ele>226.4</ele>
        <time>2021-10-07T13:33:09Z</time>
      </trkpt>
      <trkpt lat="46.6569" lon="5.44638">
        <ele>226.4</ele>
        <time>2021-10-07T13:33:11Z</time>
      </trkpt>
      <trkpt lat="46.65678" lon="5.44622">
        <ele>226.2</ele>
        <time>2021-10-07T13:33:13Z</time>
      </trkpt>
      <trkpt lat="46.65667" lon="5.44606">
        <ele>226.2</ele>
        <time>2021-10-07T13:33:15Z</time>
      </trkpt>
      <trkpt lat="46.65655" lon="5.44591">
        <ele>226.2</ele>
        <time>2021-10-07T13:33:17Z</time>
      </trkpt>
      <trkpt lat="46.65643" lon="5.44576">
        <ele>226</ele>
        <time>2021-10-07T13:33:19Z</time>
      </trkpt>
      <trkpt lat="46.6563" lon="5.44562">
        <ele>226</ele>
        <time>2021-10-07T13:33:21Z</time>
      </trkpt>
      <trkpt lat="46.65624" lon="5.44555">
        <ele>226</ele>
        <time>2021-10-07T13:33:22Z</time>
      </trkpt>
      <trkpt lat="46.65618" lon="5.44548">
        <ele>226</ele>
        <time>2021-10-07T13:33:23Z</time>
      </trkpt>
      <trkpt lat="46.65612" lon="5.44541">
        <ele>226</ele>
        <time>2021-10-07T13:33:24Z</time>
      </trkpt>
      <trkpt lat="46.65599" lon="5.44527">
        <ele>226</ele>
        <time>2021-10-07T13:33:26Z</time>
      </trkpt>
      <trkpt lat="46.65586" lon="5.44513">
        <ele>226</ele>
        <time>2021-10-07T13:33:28Z</time>
      </trkpt>
      <trkpt lat="46.6558" lon="5.44507">
        <ele>226</ele>
        <time>2021-10-07T13:33:29Z</time>
      </trkpt>
      <trkpt lat="46.65572" lon="5.44502">
        <ele>226</ele>
        <time>2021-10-07T13:33:30Z</time>
      </trkpt>
      <trkpt lat="46.65564" lon="5.44498">
        <ele>226</ele>
        <time>2021-10-07T13:33:31Z</time>
      </trkpt>
      <trkpt lat="46.65547" lon="5.44494">
        <ele>226</ele>
        <time>2021-10-07T13:33:33Z</time>
      </trkpt>
      <trkpt lat="46.65539" lon="5.44493">
        <ele>226</ele>
        <time>2021-10-07T13:33:34Z</time>
      </trkpt>
      <trkpt lat="46.6553" lon="5.44491">
        <ele>226</ele>
        <time>2021-10-07T13:33:35Z</time>
      </trkpt>
      <trkpt lat="46.65522" lon="5.44488">
        <ele>226</ele>
        <time>2021-10-07T13:33:36Z</time>
      </trkpt>
      <trkpt lat="46.65513" lon="5.44484">
        <ele>226</ele>
        <time>2021-10-07T13:33:37Z</time>
      </trkpt>
      <trkpt lat="46.65497" lon="5.44475">
        <ele>225.6</ele>
        <time>2021-10-07T13:33:39Z</time>
      </trkpt>
      <trkpt lat="46.65481" lon="5.44465">
        <ele>225.2</ele>
        <time>2021-10-07T13:33:41Z</time>
      </trkpt>
      <trkpt lat="46.65465" lon="5.44454">
        <ele>224.8</ele>
        <time>2021-10-07T13:33:43Z</time>
      </trkpt>
      <trkpt lat="46.65457" lon="5.44447">
        <ele>224.4</ele>
        <time>2021-10-07T13:33:44Z</time>
      </trkpt>
      <trkpt lat="46.6545" lon="5.44439">
        <ele>224.2</ele>
        <time>2021-10-07T13:33:45Z</time>
      </trkpt>
      <trkpt lat="46.65438" lon="5.44421">
        <ele>223.8</ele>
        <time>2021-10-07T13:33:47Z</time>
      </trkpt>
      <trkpt lat="46.65427" lon="5.44403">
        <ele>223.8</ele>
        <time>2021-10-07T13:33:49Z</time>
      </trkpt>
      <trkpt lat="46.65422" lon="5.44394">
        <ele>223.8</ele>
        <time>2021-10-07T13:33:50Z</time>
      </trkpt>
      <trkpt lat="46.65416" lon="5.44385">
        <ele>223.8</ele>
        <time>2021-10-07T13:33:51Z</time>
      </trkpt>
      <trkpt lat="46.65405" lon="5.44369">
        <ele>223.8</ele>
        <time>2021-10-07T13:33:53Z</time>
      </trkpt>
      <trkpt lat="46.65393" lon="5.44354">
        <ele>223.8</ele>
        <time>2021-10-07T13:33:55Z</time>
      </trkpt>
      <trkpt lat="46.6538" lon="5.4434">
        <ele>224</ele>
        <time>2021-10-07T13:33:57Z</time>
      </trkpt>
      <trkpt lat="46.65368" lon="5.44326">
        <ele>224.2</ele>
        <time>2021-10-07T13:33:59Z</time>
      </trkpt>
      <trkpt lat="46.65355" lon="5.44313">
        <ele>224.2</ele>
        <time>2021-10-07T13:34:01Z</time>
      </trkpt>
      <trkpt lat="46.65341" lon="5.443">
        <ele>224.4</ele>
        <time>2021-10-07T13:34:03Z</time>
      </trkpt>
      <trkpt lat="46.65328" lon="5.44289">
        <ele>224.6</ele>
        <time>2021-10-07T13:34:05Z</time>
      </trkpt>
      <trkpt lat="46.65313" lon="5.44278">
        <ele>224.8</ele>
        <time>2021-10-07T13:34:07Z</time>
      </trkpt>
      <trkpt lat="46.65298" lon="5.44268">
        <ele>225</ele>
        <time>2021-10-07T13:34:09Z</time>
      </trkpt>
      <trkpt lat="46.65283" lon="5.44258">
        <ele>225</ele>
        <time>2021-10-07T13:34:11Z</time>
      </trkpt>
      <trkpt lat="46.65276" lon="5.44253">
        <ele>225</ele>
        <time>2021-10-07T13:34:12Z</time>
      </trkpt>
      <trkpt lat="46.65269" lon="5.44248">
        <ele>225</ele>
        <time>2021-10-07T13:34:13Z</time>
      </trkpt>
      <trkpt lat="46.65255" lon="5.44235">
        <ele>225</ele>
        <time>2021-10-07T13:34:15Z</time>
      </trkpt>
      <trkpt lat="46.65242" lon="5.44221">
        <ele>225</ele>
        <time>2021-10-07T13:34:17Z</time>
      </trkpt>
      <trkpt lat="46.6523" lon="5.44205">
        <ele>224.8</ele>
        <time>2021-10-07T13:34:19Z</time>
      </trkpt>
      <trkpt lat="46.65219" lon="5.44189">
        <ele>224.4</ele>
        <time>2021-10-07T13:34:21Z</time>
      </trkpt>
      <trkpt lat="46.65208" lon="5.44171">
        <ele>224.4</ele>
        <time>2021-10-07T13:34:23Z</time>
      </trkpt>
      <trkpt lat="46.65203" lon="5.44163">
        <ele>224.2</ele>
        <time>2021-10-07T13:34:24Z</time>
      </trkpt>
      <trkpt lat="46.65198" lon="5.44154">
        <ele>224.2</ele>
        <time>2021-10-07T13:34:25Z</time>
      </trkpt>
      <trkpt lat="46.65188" lon="5.44136">
        <ele>224.2</ele>
        <time>2021-10-07T13:34:27Z</time>
      </trkpt>
      <trkpt lat="46.65178" lon="5.44119">
        <ele>224.2</ele>
        <time>2021-10-07T13:34:29Z</time>
      </trkpt>
      <trkpt lat="46.65173" lon="5.4411">
        <ele>224.2</ele>
        <time>2021-10-07T13:34:30Z</time>
      </trkpt>
      <trkpt lat="46.65167" lon="5.44102">
        <ele>224.2</ele>
        <time>2021-10-07T13:34:31Z</time>
      </trkpt>
      <trkpt lat="46.65157" lon="5.44086">
        <ele>224.2</ele>
        <time>2021-10-07T13:34:33Z</time>
      </trkpt>
      <trkpt lat="46.65146" lon="5.4407">
        <ele>224.2</ele>
        <time>2021-10-07T13:34:35Z</time>
      </trkpt>
      <trkpt lat="46.65135" lon="5.44055">
        <ele>224.2</ele>
        <time>2021-10-07T13:34:37Z</time>
      </trkpt>
      <trkpt lat="46.65124" lon="5.4404">
        <ele>224.2</ele>
        <time>2021-10-07T13:34:39Z</time>
      </trkpt>
      <trkpt lat="46.65112" lon="5.44025">
        <ele>224.4</ele>
        <time>2021-10-07T13:34:41Z</time>
      </trkpt>
      <trkpt lat="46.65106" lon="5.44019">
        <ele>224.4</ele>
        <time>2021-10-07T13:34:42Z</time>
      </trkpt>
      <trkpt lat="46.65099" lon="5.44014">
        <ele>224.6</ele>
        <time>2021-10-07T13:34:43Z</time>
      </trkpt>
      <trkpt lat="46.65083" lon="5.44009">
        <ele>224.8</ele>
        <time>2021-10-07T13:34:45Z</time>
      </trkpt>
      <trkpt lat="46.65075" lon="5.44008">
        <ele>224.8</ele>
        <time>2021-10-07T13:34:46Z</time>
      </trkpt>
      <trkpt lat="46.65067" lon="5.44008">
        <ele>224.8</ele>
        <time>2021-10-07T13:34:47Z</time>
      </trkpt>
      <trkpt lat="46.65059" lon="5.44008">
        <ele>224.8</ele>
        <time>2021-10-07T13:34:48Z</time>
      </trkpt>
      <trkpt lat="46.65051" lon="5.44008">
        <ele>225</ele>
        <time>2021-10-07T13:34:49Z</time>
      </trkpt>
      <trkpt lat="46.65043" lon="5.44006">
        <ele>225</ele>
        <time>2021-10-07T13:34:50Z</time>
      </trkpt>
      <trkpt lat="46.65035" lon="5.44003">
        <ele>225</ele>
        <time>2021-10-07T13:34:51Z</time>
      </trkpt>
      <trkpt lat="46.65021" lon="5.43992">
        <ele>225</ele>
        <time>2021-10-07T13:34:53Z</time>
      </trkpt>
      <trkpt lat="46.65014" lon="5.43986">
        <ele>224.8</ele>
        <time>2021-10-07T13:34:54Z</time>
      </trkpt>
      <trkpt lat="46.65007" lon="5.43979">
        <ele>224.4</ele>
        <time>2021-10-07T13:34:55Z</time>
      </trkpt>
      <trkpt lat="46.64993" lon="5.43964">
        <ele>224</ele>
        <time>2021-10-07T13:34:57Z</time>
      </trkpt>
      <trkpt lat="46.64979" lon="5.4395">
        <ele>223.8</ele>
        <time>2021-10-07T13:34:59Z</time>
      </trkpt>
      <trkpt lat="46.64966" lon="5.43937">
        <ele>223.6</ele>
        <time>2021-10-07T13:35:01Z</time>
      </trkpt>
      <trkpt lat="46.64952" lon="5.43922">
        <ele>223.4</ele>
        <time>2021-10-07T13:35:03Z</time>
      </trkpt>
      <trkpt lat="46.64945" lon="5.43915">
        <ele>223.2</ele>
        <time>2021-10-07T13:35:04Z</time>
      </trkpt>
      <trkpt lat="46.64938" lon="5.43908">
        <ele>223</ele>
        <time>2021-10-07T13:35:05Z</time>
      </trkpt>
      <trkpt lat="46.64924" lon="5.43895">
        <ele>222.6</ele>
        <time>2021-10-07T13:35:07Z</time>
      </trkpt>
      <trkpt lat="46.64911" lon="5.43883">
        <ele>222.6</ele>
        <time>2021-10-07T13:35:09Z</time>
      </trkpt>
      <trkpt lat="46.64905" lon="5.43879">
        <ele>222.2</ele>
        <time>2021-10-07T13:35:10Z</time>
      </trkpt>
      <trkpt lat="46.64899" lon="5.43875">
        <ele>222</ele>
        <time>2021-10-07T13:35:11Z</time>
      </trkpt>
      <trkpt lat="46.64885" lon="5.43863">
        <ele>221.4</ele>
        <time>2021-10-07T13:35:13Z</time>
      </trkpt>
      <trkpt lat="46.64879" lon="5.43856">
        <ele>221.2</ele>
        <time>2021-10-07T13:35:14Z</time>
      </trkpt>
      <trkpt lat="46.64872" lon="5.4385">
        <ele>221.2</ele>
        <time>2021-10-07T13:35:15Z</time>
      </trkpt>
      <trkpt lat="46.64858" lon="5.43838">
        <ele>221.2</ele>
        <time>2021-10-07T13:35:17Z</time>
      </trkpt>
      <trkpt lat="46.64844" lon="5.43826">
        <ele>221.2</ele>
        <time>2021-10-07T13:35:19Z</time>
      </trkpt>
      <trkpt lat="46.64831" lon="5.43812">
        <ele>221.2</ele>
        <time>2021-10-07T13:35:21Z</time>
      </trkpt>
      <trkpt lat="46.64821" lon="5.43794">
        <ele>221.2</ele>
        <time>2021-10-07T13:35:23Z</time>
      </trkpt>
      <trkpt lat="46.64813" lon="5.43772">
        <ele>221.2</ele>
        <time>2021-10-07T13:35:25Z</time>
      </trkpt>
      <trkpt lat="46.64808" lon="5.4375">
        <ele>221.6</ele>
        <time>2021-10-07T13:35:27Z</time>
      </trkpt>
      <trkpt lat="46.64804" lon="5.43729">
        <ele>222</ele>
        <time>2021-10-07T13:35:29Z</time>
      </trkpt>
      <trkpt lat="46.64801" lon="5.43719">
        <ele>222.2</ele>
        <time>2021-10-07T13:35:30Z</time>
      </trkpt>
      <trkpt lat="46.64797" lon="5.4371">
        <ele>222.4</ele>
        <time>2021-10-07T13:35:31Z</time>
      </trkpt>
      <trkpt lat="46.64788" lon="5.43694">
        <ele>222.6</ele>
        <time>2021-10-07T13:35:33Z</time>
      </trkpt>
      <trkpt lat="46.64783" lon="5.43687">
        <ele>222.8</ele>
        <time>2021-10-07T13:35:34Z</time>
      </trkpt>
      <trkpt lat="46.64777" lon="5.43681">
        <ele>222.8</ele>
        <time>2021-10-07T13:35:35Z</time>
      </trkpt>
      <trkpt lat="46.64765" lon="5.43671">
        <ele>223</ele>
        <time>2021-10-07T13:35:37Z</time>
      </trkpt>
      <trkpt lat="46.64758" lon="5.43668">
        <ele>223.4</ele>
        <time>2021-10-07T13:35:38Z</time>
      </trkpt>
      <trkpt lat="46.64751" lon="5.43664">
        <ele>223.8</ele>
        <time>2021-10-07T13:35:39Z</time>
      </trkpt>
      <trkpt lat="46.64738" lon="5.43657">
        <ele>224.2</ele>
        <time>2021-10-07T13:35:41Z</time>
      </trkpt>
      <trkpt lat="46.64723" lon="5.4365">
        <ele>224.2</ele>
        <time>2021-10-07T13:35:43Z</time>
      </trkpt>
      <trkpt lat="46.64708" lon="5.43642">
        <ele>224.2</ele>
        <time>2021-10-07T13:35:45Z</time>
      </trkpt>
      <trkpt lat="46.647" lon="5.43638">
        <ele>224.2</ele>
        <time>2021-10-07T13:35:46Z</time>
      </trkpt>
      <trkpt lat="46.64693" lon="5.43633">
        <ele>224.2</ele>
        <time>2021-10-07T13:35:47Z</time>
      </trkpt>
      <trkpt lat="46.64677" lon="5.43622">
        <ele>224.2</ele>
        <time>2021-10-07T13:35:49Z</time>
      </trkpt>
      <trkpt lat="46.64661" lon="5.4361">
        <ele>224</ele>
        <time>2021-10-07T13:35:51Z</time>
      </trkpt>
      <trkpt lat="46.64653" lon="5.43604">
        <ele>223.8</ele>
        <time>2021-10-07T13:35:52Z</time>
      </trkpt>
      <trkpt lat="46.64645" lon="5.43597">
        <ele>223.4</ele>
        <time>2021-10-07T13:35:53Z</time>
      </trkpt>
      <trkpt lat="46.64629" lon="5.43584">
        <ele>222.2</ele>
        <time>2021-10-07T13:35:55Z</time>
      </trkpt>
      <trkpt lat="46.64621" lon="5.43578">
        <ele>221.8</ele>
        <time>2021-10-07T13:35:56Z</time>
      </trkpt>
      <trkpt lat="46.64612" lon="5.43574">
        <ele>221.2</ele>
        <time>2021-10-07T13:35:57Z</time>
      </trkpt>
      <trkpt lat="46.64594" lon="5.43568">
        <ele>220.6</ele>
        <time>2021-10-07T13:35:59Z</time>
      </trkpt>
      <trkpt lat="46.64575" lon="5.43561">
        <ele>220.4</ele>
        <time>2021-10-07T13:36:01Z</time>
      </trkpt>
      <trkpt lat="46.64566" lon="5.43556">
        <ele>220.2</ele>
        <time>2021-10-07T13:36:02Z</time>
      </trkpt>
      <trkpt lat="46.64558" lon="5.4355">
        <ele>220</ele>
        <time>2021-10-07T13:36:03Z</time>
      </trkpt>
      <trkpt lat="46.64542" lon="5.43535">
        <ele>219.2</ele>
        <time>2021-10-07T13:36:05Z</time>
      </trkpt>
      <trkpt lat="46.64534" lon="5.43526">
        <ele>219</ele>
        <time>2021-10-07T13:36:06Z</time>
      </trkpt>
      <trkpt lat="46.64527" lon="5.43517">
        <ele>218.6</ele>
        <time>2021-10-07T13:36:07Z</time>
      </trkpt>
      <trkpt lat="46.64511" lon="5.43502">
        <ele>218.2</ele>
        <time>2021-10-07T13:36:09Z</time>
      </trkpt>
      <trkpt lat="46.64503" lon="5.43495">
        <ele>217.8</ele>
        <time>2021-10-07T13:36:10Z</time>
      </trkpt>
      <trkpt lat="46.64496" lon="5.43487">
        <ele>217.6</ele>
        <time>2021-10-07T13:36:11Z</time>
      </trkpt>
      <trkpt lat="46.64488" lon="5.4348">
        <ele>217.4</ele>
        <time>2021-10-07T13:36:12Z</time>
      </trkpt>
      <trkpt lat="46.64481" lon="5.43472">
        <ele>217.2</ele>
        <time>2021-10-07T13:36:13Z</time>
      </trkpt>
      <trkpt lat="46.64466" lon="5.43458">
        <ele>217</ele>
        <time>2021-10-07T13:36:15Z</time>
      </trkpt>
      <trkpt lat="46.6445" lon="5.43446">
        <ele>217</ele>
        <time>2021-10-07T13:36:17Z</time>
      </trkpt>
      <trkpt lat="46.64442" lon="5.43442">
        <ele>217</ele>
        <time>2021-10-07T13:36:18Z</time>
      </trkpt>
      <trkpt lat="46.64433" lon="5.43438">
        <ele>217</ele>
        <time>2021-10-07T13:36:19Z</time>
      </trkpt>
      <trkpt lat="46.64424" lon="5.43434">
        <ele>216.8</ele>
        <time>2021-10-07T13:36:20Z</time>
      </trkpt>
      <trkpt lat="46.64415" lon="5.43431">
        <ele>216.8</ele>
        <time>2021-10-07T13:36:21Z</time>
      </trkpt>
      <trkpt lat="46.64397" lon="5.43425">
        <ele>216.8</ele>
        <time>2021-10-07T13:36:23Z</time>
      </trkpt>
      <trkpt lat="46.64387" lon="5.43422">
        <ele>216.8</ele>
        <time>2021-10-07T13:36:24Z</time>
      </trkpt>
      <trkpt lat="46.64378" lon="5.43419">
        <ele>216.8</ele>
        <time>2021-10-07T13:36:25Z</time>
      </trkpt>
      <trkpt lat="46.64361" lon="5.4341">
        <ele>216.8</ele>
        <time>2021-10-07T13:36:27Z</time>
      </trkpt>
      <trkpt lat="46.64344" lon="5.434">
        <ele>216.4</ele>
        <time>2021-10-07T13:36:29Z</time>
      </trkpt>
      <trkpt lat="46.64336" lon="5.43394">
        <ele>216.2</ele>
        <time>2021-10-07T13:36:30Z</time>
      </trkpt>
      <trkpt lat="46.64328" lon="5.43387">
        <ele>215.8</ele>
        <time>2021-10-07T13:36:31Z</time>
      </trkpt>
      <trkpt lat="46.64314" lon="5.43371">
        <ele>215.6</ele>
        <time>2021-10-07T13:36:33Z</time>
      </trkpt>
      <trkpt lat="46.64301" lon="5.43353">
        <ele>215.4</ele>
        <time>2021-10-07T13:36:35Z</time>
      </trkpt>
      <trkpt lat="46.6429" lon="5.43336">
        <ele>215.4</ele>
        <time>2021-10-07T13:36:37Z</time>
      </trkpt>
      <trkpt lat="46.6428" lon="5.43319">
        <ele>215.4</ele>
        <time>2021-10-07T13:36:39Z</time>
      </trkpt>
      <trkpt lat="46.64269" lon="5.43302">
        <ele>215.4</ele>
        <time>2021-10-07T13:36:41Z</time>
      </trkpt>
      <trkpt lat="46.64264" lon="5.43294">
        <ele>215.4</ele>
        <time>2021-10-07T13:36:42Z</time>
      </trkpt>
      <trkpt lat="46.64259" lon="5.43285">
        <ele>215.6</ele>
        <time>2021-10-07T13:36:43Z</time>
      </trkpt>
      <trkpt lat="46.64249" lon="5.43269">
        <ele>216.4</ele>
        <time>2021-10-07T13:36:45Z</time>
      </trkpt>
      <trkpt lat="46.6424" lon="5.43252">
        <ele>217.2</ele>
        <time>2021-10-07T13:36:47Z</time>
      </trkpt>
      <trkpt lat="46.6423" lon="5.43235">
        <ele>217.6</ele>
        <time>2021-10-07T13:36:49Z</time>
      </trkpt>
      <trkpt lat="46.64222" lon="5.43219">
        <ele>218</ele>
        <time>2021-10-07T13:36:51Z</time>
      </trkpt>
      <trkpt lat="46.64218" lon="5.43211">
        <ele>218.2</ele>
        <time>2021-10-07T13:36:52Z</time>
      </trkpt>
      <trkpt lat="46.64214" lon="5.43203">
        <ele>218.4</ele>
        <time>2021-10-07T13:36:53Z</time>
      </trkpt>
      <trkpt lat="46.64207" lon="5.43186">
        <ele>218.8</ele>
        <time>2021-10-07T13:36:55Z</time>
      </trkpt>
      <trkpt lat="46.64201" lon="5.43169">
        <ele>219</ele>
        <time>2021-10-07T13:36:57Z</time>
      </trkpt>
      <trkpt lat="46.64198" lon="5.43161">
        <ele>219.6</ele>
        <time>2021-10-07T13:36:58Z</time>
      </trkpt>
      <trkpt lat="46.64195" lon="5.43152">
        <ele>220</ele>
        <time>2021-10-07T13:36:59Z</time>
      </trkpt>
      <trkpt lat="46.6419" lon="5.43133">
        <ele>221</ele>
        <time>2021-10-07T13:37:01Z</time>
      </trkpt>
      <trkpt lat="46.64188" lon="5.43113">
        <ele>221.8</ele>
        <time>2021-10-07T13:37:03Z</time>
      </trkpt>
      <trkpt lat="46.64189" lon="5.43091">
        <ele>222</ele>
        <time>2021-10-07T13:37:05Z</time>
      </trkpt>
      <trkpt lat="46.64193" lon="5.4307">
        <ele>222</ele>
        <time>2021-10-07T13:37:07Z</time>
      </trkpt>
      <trkpt lat="46.64199" lon="5.43049">
        <ele>222</ele>
        <time>2021-10-07T13:37:09Z</time>
      </trkpt>
      <trkpt lat="46.64205" lon="5.43028">
        <ele>221.8</ele>
        <time>2021-10-07T13:37:11Z</time>
      </trkpt>
      <trkpt lat="46.6421" lon="5.43006">
        <ele>221.2</ele>
        <time>2021-10-07T13:37:13Z</time>
      </trkpt>
      <trkpt lat="46.64212" lon="5.42995">
        <ele>221</ele>
        <time>2021-10-07T13:37:14Z</time>
      </trkpt>
      <trkpt lat="46.64212" lon="5.42983">
        <ele>220.8</ele>
        <time>2021-10-07T13:37:15Z</time>
      </trkpt>
      <trkpt lat="46.64211" lon="5.42972">
        <ele>220.6</ele>
        <time>2021-10-07T13:37:16Z</time>
      </trkpt>
      <trkpt lat="46.64209" lon="5.42961">
        <ele>220.2</ele>
        <time>2021-10-07T13:37:17Z</time>
      </trkpt>
      <trkpt lat="46.64205" lon="5.4295">
        <ele>219.8</ele>
        <time>2021-10-07T13:37:18Z</time>
      </trkpt>
      <trkpt lat="46.64201" lon="5.4294">
        <ele>219.6</ele>
        <time>2021-10-07T13:37:19Z</time>
      </trkpt>
      <trkpt lat="46.64193" lon="5.42918">
        <ele>219.2</ele>
        <time>2021-10-07T13:37:21Z</time>
      </trkpt>
      <trkpt lat="46.64186" lon="5.42897">
        <ele>218.8</ele>
        <time>2021-10-07T13:37:23Z</time>
      </trkpt>
      <trkpt lat="46.64183" lon="5.42886">
        <ele>218.6</ele>
        <time>2021-10-07T13:37:24Z</time>
      </trkpt>
      <trkpt lat="46.6418" lon="5.42875">
        <ele>218.6</ele>
        <time>2021-10-07T13:37:25Z</time>
      </trkpt>
      <trkpt lat="46.64171" lon="5.42854">
        <ele>218.4</ele>
        <time>2021-10-07T13:37:27Z</time>
      </trkpt>
      <trkpt lat="46.64163" lon="5.42834">
        <ele>218.4</ele>
        <time>2021-10-07T13:37:29Z</time>
      </trkpt>
      <trkpt lat="46.64153" lon="5.42816">
        <ele>218.4</ele>
        <time>2021-10-07T13:37:31Z</time>
      </trkpt>
      <trkpt lat="46.64147" lon="5.42808">
        <ele>218.6</ele>
        <time>2021-10-07T13:37:32Z</time>
      </trkpt>
      <trkpt lat="46.64141" lon="5.42801">
        <ele>218.6</ele>
        <time>2021-10-07T13:37:33Z</time>
      </trkpt>
      <trkpt lat="46.64127" lon="5.4279">
        <ele>218.6</ele>
        <time>2021-10-07T13:37:35Z</time>
      </trkpt>
      <trkpt lat="46.64119" lon="5.42786">
        <ele>218.6</ele>
        <time>2021-10-07T13:37:36Z</time>
      </trkpt>
      <trkpt lat="46.64111" lon="5.42783">
        <ele>218.6</ele>
        <time>2021-10-07T13:37:37Z</time>
      </trkpt>
      <trkpt lat="46.64096" lon="5.42774">
        <ele>218.6</ele>
        <time>2021-10-07T13:37:39Z</time>
      </trkpt>
      <trkpt lat="46.64081" lon="5.42762">
        <ele>218.8</ele>
        <time>2021-10-07T13:37:41Z</time>
      </trkpt>
      <trkpt lat="46.64075" lon="5.42755">
        <ele>218.8</ele>
        <time>2021-10-07T13:37:42Z</time>
      </trkpt>
      <trkpt lat="46.64068" lon="5.42748">
        <ele>218.8</ele>
        <time>2021-10-07T13:37:43Z</time>
      </trkpt>
      <trkpt lat="46.64057" lon="5.42732">
        <ele>218.8</ele>
        <time>2021-10-07T13:37:45Z</time>
      </trkpt>
      <trkpt lat="46.64045" lon="5.42716">
        <ele>218.8</ele>
        <time>2021-10-07T13:37:47Z</time>
      </trkpt>
      <trkpt lat="46.6404" lon="5.42708">
        <ele>218.8</ele>
        <time>2021-10-07T13:37:48Z</time>
      </trkpt>
      <trkpt lat="46.64035" lon="5.427">
        <ele>218.8</ele>
        <time>2021-10-07T13:37:49Z</time>
      </trkpt>
      <trkpt lat="46.64025" lon="5.42683">
        <ele>218.8</ele>
        <time>2021-10-07T13:37:51Z</time>
      </trkpt>
      <trkpt lat="46.64017" lon="5.42664">
        <ele>219</ele>
        <time>2021-10-07T13:37:53Z</time>
      </trkpt>
      <trkpt lat="46.64013" lon="5.42655">
        <ele>219</ele>
        <time>2021-10-07T13:37:54Z</time>
      </trkpt>
      <trkpt lat="46.64009" lon="5.42646">
        <ele>219</ele>
        <time>2021-10-07T13:37:55Z</time>
      </trkpt>
      <trkpt lat="46.64005" lon="5.42638">
        <ele>219.2</ele>
        <time>2021-10-07T13:37:56Z</time>
      </trkpt>
      <trkpt lat="46.64" lon="5.4263">
        <ele>219.2</ele>
        <time>2021-10-07T13:37:57Z</time>
      </trkpt>
      <trkpt lat="46.63994" lon="5.42624">
        <ele>219.2</ele>
        <time>2021-10-07T13:37:58Z</time>
      </trkpt>
      <trkpt lat="46.63988" lon="5.42618">
        <ele>219.2</ele>
        <time>2021-10-07T13:37:59Z</time>
      </trkpt>
      <trkpt lat="46.63976" lon="5.42608">
        <ele>219.4</ele>
        <time>2021-10-07T13:38:01Z</time>
      </trkpt>
      <trkpt lat="46.63965" lon="5.42596">
        <ele>219.8</ele>
        <time>2021-10-07T13:38:03Z</time>
      </trkpt>
      <trkpt lat="46.63959" lon="5.4259">
        <ele>220</ele>
        <time>2021-10-07T13:38:04Z</time>
      </trkpt>
      <trkpt lat="46.63954" lon="5.42583">
        <ele>220</ele>
        <time>2021-10-07T13:38:05Z</time>
      </trkpt>
      <trkpt lat="46.63943" lon="5.42571">
        <ele>220.4</ele>
        <time>2021-10-07T13:38:07Z</time>
      </trkpt>
      <trkpt lat="46.63932" lon="5.42558">
        <ele>220.6</ele>
        <time>2021-10-07T13:38:09Z</time>
      </trkpt>
      <trkpt lat="46.63922" lon="5.42545">
        <ele>220.8</ele>
        <time>2021-10-07T13:38:11Z</time>
      </trkpt>
      <trkpt lat="46.63917" lon="5.42539">
        <ele>220.8</ele>
        <time>2021-10-07T13:38:12Z</time>
      </trkpt>
      <trkpt lat="46.63912" lon="5.42533">
        <ele>221</ele>
        <time>2021-10-07T13:38:13Z</time>
      </trkpt>
      <trkpt lat="46.63907" lon="5.42526">
        <ele>221</ele>
        <time>2021-10-07T13:38:14Z</time>
      </trkpt>
      <trkpt lat="46.63902" lon="5.42519">
        <ele>221</ele>
        <time>2021-10-07T13:38:15Z</time>
      </trkpt>
      <trkpt lat="46.63899" lon="5.42511">
        <ele>221</ele>
        <time>2021-10-07T13:38:16Z</time>
      </trkpt>
      <trkpt lat="46.63895" lon="5.42503">
        <ele>221.2</ele>
        <time>2021-10-07T13:38:17Z</time>
      </trkpt>
      <trkpt lat="46.63893" lon="5.42494">
        <ele>221.4</ele>
        <time>2021-10-07T13:38:18Z</time>
      </trkpt>
      <trkpt lat="46.63891" lon="5.42485">
        <ele>221.6</ele>
        <time>2021-10-07T13:38:19Z</time>
      </trkpt>
      <trkpt lat="46.63887" lon="5.42468">
        <ele>221.8</ele>
        <time>2021-10-07T13:38:21Z</time>
      </trkpt>
      <trkpt lat="46.6388" lon="5.42453">
        <ele>222</ele>
        <time>2021-10-07T13:38:23Z</time>
      </trkpt>
      <trkpt lat="46.63873" lon="5.42438">
        <ele>222.4</ele>
        <time>2021-10-07T13:38:25Z</time>
      </trkpt>
      <trkpt lat="46.63865" lon="5.42424">
        <ele>223</ele>
        <time>2021-10-07T13:38:27Z</time>
      </trkpt>
      <trkpt lat="46.63861" lon="5.42417">
        <ele>223.2</ele>
        <time>2021-10-07T13:38:28Z</time>
      </trkpt>
      <trkpt lat="46.63857" lon="5.42409">
        <ele>223.4</ele>
        <time>2021-10-07T13:38:29Z</time>
      </trkpt>
      <trkpt lat="46.63849" lon="5.42395">
        <ele>223.6</ele>
        <time>2021-10-07T13:38:31Z</time>
      </trkpt>
      <trkpt lat="46.63845" lon="5.42387">
        <ele>223.8</ele>
        <time>2021-10-07T13:38:32Z</time>
      </trkpt>
      <trkpt lat="46.6384" lon="5.42379">
        <ele>223.8</ele>
        <time>2021-10-07T13:38:33Z</time>
      </trkpt>
      <trkpt lat="46.63831" lon="5.42364">
        <ele>224</ele>
        <time>2021-10-07T13:38:35Z</time>
      </trkpt>
      <trkpt lat="46.63821" lon="5.42348">
        <ele>224</ele>
        <time>2021-10-07T13:38:37Z</time>
      </trkpt>
      <trkpt lat="46.63816" lon="5.42341">
        <ele>224</ele>
        <time>2021-10-07T13:38:38Z</time>
      </trkpt>
      <trkpt lat="46.6381" lon="5.42334">
        <ele>224</ele>
        <time>2021-10-07T13:38:39Z</time>
      </trkpt>
      <trkpt lat="46.63804" lon="5.42327">
        <ele>224</ele>
        <time>2021-10-07T13:38:40Z</time>
      </trkpt>
      <trkpt lat="46.63798" lon="5.42321">
        <ele>224</ele>
        <time>2021-10-07T13:38:41Z</time>
      </trkpt>
      <trkpt lat="46.63786" lon="5.42308">
        <ele>224</ele>
        <time>2021-10-07T13:38:43Z</time>
      </trkpt>
      <trkpt lat="46.63773" lon="5.42296">
        <ele>223.8</ele>
        <time>2021-10-07T13:38:45Z</time>
      </trkpt>
      <trkpt lat="46.63767" lon="5.42289">
        <ele>223.6</ele>
        <time>2021-10-07T13:38:46Z</time>
      </trkpt>
      <trkpt lat="46.63761" lon="5.42281">
        <ele>223.4</ele>
        <time>2021-10-07T13:38:47Z</time>
      </trkpt>
      <trkpt lat="46.63757" lon="5.42272">
        <ele>223.4</ele>
        <time>2021-10-07T13:38:48Z</time>
      </trkpt>
      <trkpt lat="46.63754" lon="5.42262">
        <ele>223.4</ele>
        <time>2021-10-07T13:38:49Z</time>
      </trkpt>
      <trkpt lat="46.63753" lon="5.4224">
        <ele>223</ele>
        <time>2021-10-07T13:38:51Z</time>
      </trkpt>
      <trkpt lat="46.63749" lon="5.42221">
        <ele>223</ele>
        <time>2021-10-07T13:38:53Z</time>
      </trkpt>
      <trkpt lat="46.63744" lon="5.42214">
        <ele>223</ele>
        <time>2021-10-07T13:38:54Z</time>
      </trkpt>
      <trkpt lat="46.63738" lon="5.42208">
        <ele>223</ele>
        <time>2021-10-07T13:38:55Z</time>
      </trkpt>
      <trkpt lat="46.63731" lon="5.42202">
        <ele>223</ele>
        <time>2021-10-07T13:38:56Z</time>
      </trkpt>
      <trkpt lat="46.63725" lon="5.42196">
        <ele>222.8</ele>
        <time>2021-10-07T13:38:57Z</time>
      </trkpt>
      <trkpt lat="46.63711" lon="5.42185">
        <ele>222.8</ele>
        <time>2021-10-07T13:38:59Z</time>
      </trkpt>
      <trkpt lat="46.63697" lon="5.42174">
        <ele>222.6</ele>
        <time>2021-10-07T13:39:01Z</time>
      </trkpt>
      <trkpt lat="46.63682" lon="5.42164">
        <ele>222.6</ele>
        <time>2021-10-07T13:39:03Z</time>
      </trkpt>
      <trkpt lat="46.63668" lon="5.42155">
        <ele>222.8</ele>
        <time>2021-10-07T13:39:05Z</time>
      </trkpt>
      <trkpt lat="46.63653" lon="5.42147">
        <ele>222.8</ele>
        <time>2021-10-07T13:39:07Z</time>
      </trkpt>
      <trkpt lat="46.63645" lon="5.42144">
        <ele>222.8</ele>
        <time>2021-10-07T13:39:08Z</time>
      </trkpt>
      <trkpt lat="46.63637" lon="5.42142">
        <ele>222.8</ele>
        <time>2021-10-07T13:39:09Z</time>
      </trkpt>
      <trkpt lat="46.6362" lon="5.42135">
        <ele>222.6</ele>
        <time>2021-10-07T13:39:11Z</time>
      </trkpt>
      <trkpt lat="46.63604" lon="5.42122">
        <ele>222.4</ele>
        <time>2021-10-07T13:39:13Z</time>
      </trkpt>
      <trkpt lat="46.63594" lon="5.42101">
        <ele>222.2</ele>
        <time>2021-10-07T13:39:15Z</time>
      </trkpt>
      <trkpt lat="46.6359" lon="5.42089">
        <ele>222</ele>
        <time>2021-10-07T13:39:16Z</time>
      </trkpt>
      <trkpt lat="46.63586" lon="5.42078">
        <ele>222</ele>
        <time>2021-10-07T13:39:17Z</time>
      </trkpt>
      <trkpt lat="46.63576" lon="5.42058">
        <ele>221.2</ele>
        <time>2021-10-07T13:39:19Z</time>
      </trkpt>
      <trkpt lat="46.63562" lon="5.42044">
        <ele>220.6</ele>
        <time>2021-10-07T13:39:21Z</time>
      </trkpt>
      <trkpt lat="46.63555" lon="5.42037">
        <ele>220.2</ele>
        <time>2021-10-07T13:39:22Z</time>
      </trkpt>
      <trkpt lat="46.63548" lon="5.42031">
        <ele>220</ele>
        <time>2021-10-07T13:39:23Z</time>
      </trkpt>
      <trkpt lat="46.63532" lon="5.42022">
        <ele>220</ele>
        <time>2021-10-07T13:39:25Z</time>
      </trkpt>
      <trkpt lat="46.63517" lon="5.42014">
        <ele>220</ele>
        <time>2021-10-07T13:39:27Z</time>
      </trkpt>
      <trkpt lat="46.63502" lon="5.42004">
        <ele>219.8</ele>
        <time>2021-10-07T13:39:29Z</time>
      </trkpt>
      <trkpt lat="46.63487" lon="5.41992">
        <ele>219.8</ele>
        <time>2021-10-07T13:39:31Z</time>
      </trkpt>
      <trkpt lat="46.6348" lon="5.41985">
        <ele>219.8</ele>
        <time>2021-10-07T13:39:32Z</time>
      </trkpt>
      <trkpt lat="46.63473" lon="5.41979">
        <ele>219.8</ele>
        <time>2021-10-07T13:39:33Z</time>
      </trkpt>
      <trkpt lat="46.63466" lon="5.41973">
        <ele>219.8</ele>
        <time>2021-10-07T13:39:34Z</time>
      </trkpt>
      <trkpt lat="46.63458" lon="5.41968">
        <ele>219.8</ele>
        <time>2021-10-07T13:39:35Z</time>
      </trkpt>
      <trkpt lat="46.63443" lon="5.41958">
        <ele>219.6</ele>
        <time>2021-10-07T13:39:37Z</time>
      </trkpt>
      <trkpt lat="46.63427" lon="5.4195">
        <ele>219.6</ele>
        <time>2021-10-07T13:39:39Z</time>
      </trkpt>
      <trkpt lat="46.63412" lon="5.41942">
        <ele>219.4</ele>
        <time>2021-10-07T13:39:41Z</time>
      </trkpt>
      <trkpt lat="46.63396" lon="5.4193">
        <ele>219.2</ele>
        <time>2021-10-07T13:39:43Z</time>
      </trkpt>
      <trkpt lat="46.63381" lon="5.41918">
        <ele>219.2</ele>
        <time>2021-10-07T13:39:45Z</time>
      </trkpt>
      <trkpt lat="46.63366" lon="5.41904">
        <ele>219.2</ele>
        <time>2021-10-07T13:39:47Z</time>
      </trkpt>
      <trkpt lat="46.63352" lon="5.41888">
        <ele>219</ele>
        <time>2021-10-07T13:39:49Z</time>
      </trkpt>
      <trkpt lat="46.63339" lon="5.41869">
        <ele>219</ele>
        <time>2021-10-07T13:39:51Z</time>
      </trkpt>
      <trkpt lat="46.63327" lon="5.41851">
        <ele>218.6</ele>
        <time>2021-10-07T13:39:53Z</time>
      </trkpt>
      <trkpt lat="46.63314" lon="5.41833">
        <ele>218.4</ele>
        <time>2021-10-07T13:39:55Z</time>
      </trkpt>
      <trkpt lat="46.63303" lon="5.41816">
        <ele>218.4</ele>
        <time>2021-10-07T13:39:57Z</time>
      </trkpt>
      <trkpt lat="46.63291" lon="5.41799">
        <ele>218.2</ele>
        <time>2021-10-07T13:39:59Z</time>
      </trkpt>
      <trkpt lat="46.6328" lon="5.41784">
        <ele>218.2</ele>
        <time>2021-10-07T13:40:01Z</time>
      </trkpt>
      <trkpt lat="46.63269" lon="5.41768">
        <ele>218.2</ele>
        <time>2021-10-07T13:40:03Z</time>
      </trkpt>
      <trkpt lat="46.63258" lon="5.41752">
        <ele>218.4</ele>
        <time>2021-10-07T13:40:05Z</time>
      </trkpt>
      <trkpt lat="46.63246" lon="5.41737">
        <ele>218.8</ele>
        <time>2021-10-07T13:40:07Z</time>
      </trkpt>
      <trkpt lat="46.63234" lon="5.41721">
        <ele>219</ele>
        <time>2021-10-07T13:40:09Z</time>
      </trkpt>
      <trkpt lat="46.63223" lon="5.41703">
        <ele>219.2</ele>
        <time>2021-10-07T13:40:11Z</time>
      </trkpt>
      <trkpt lat="46.63212" lon="5.41683">
        <ele>219.2</ele>
        <time>2021-10-07T13:40:13Z</time>
      </trkpt>
      <trkpt lat="46.63203" lon="5.41662">
        <ele>219.2</ele>
        <time>2021-10-07T13:40:15Z</time>
      </trkpt>
      <trkpt lat="46.63194" lon="5.41641">
        <ele>219.2</ele>
        <time>2021-10-07T13:40:17Z</time>
      </trkpt>
      <trkpt lat="46.63185" lon="5.4162">
        <ele>219.2</ele>
        <time>2021-10-07T13:40:19Z</time>
      </trkpt>
      <trkpt lat="46.63176" lon="5.416">
        <ele>219</ele>
        <time>2021-10-07T13:40:21Z</time>
      </trkpt>
      <trkpt lat="46.63166" lon="5.41581">
        <ele>218.8</ele>
        <time>2021-10-07T13:40:23Z</time>
      </trkpt>
      <trkpt lat="46.63156" lon="5.41561">
        <ele>218.8</ele>
        <time>2021-10-07T13:40:25Z</time>
      </trkpt>
      <trkpt lat="46.63147" lon="5.41541">
        <ele>218.8</ele>
        <time>2021-10-07T13:40:27Z</time>
      </trkpt>
      <trkpt lat="46.63138" lon="5.41521">
        <ele>218.6</ele>
        <time>2021-10-07T13:40:29Z</time>
      </trkpt>
      <trkpt lat="46.63129" lon="5.41501">
        <ele>218.6</ele>
        <time>2021-10-07T13:40:31Z</time>
      </trkpt>
      <trkpt lat="46.6312" lon="5.41481">
        <ele>218.6</ele>
        <time>2021-10-07T13:40:33Z</time>
      </trkpt>
      <trkpt lat="46.6311" lon="5.41464">
        <ele>218.8</ele>
        <time>2021-10-07T13:40:35Z</time>
      </trkpt>
      <trkpt lat="46.63099" lon="5.41447">
        <ele>219</ele>
        <time>2021-10-07T13:40:37Z</time>
      </trkpt>
      <trkpt lat="46.63087" lon="5.41432">
        <ele>219</ele>
        <time>2021-10-07T13:40:39Z</time>
      </trkpt>
      <trkpt lat="46.63075" lon="5.41417">
        <ele>219.2</ele>
        <time>2021-10-07T13:40:41Z</time>
      </trkpt>
      <trkpt lat="46.63064" lon="5.41401">
        <ele>219.4</ele>
        <time>2021-10-07T13:40:43Z</time>
      </trkpt>
      <trkpt lat="46.63051" lon="5.41387">
        <ele>219.6</ele>
        <time>2021-10-07T13:40:45Z</time>
      </trkpt>
      <trkpt lat="46.63044" lon="5.4138">
        <ele>219.6</ele>
        <time>2021-10-07T13:40:46Z</time>
      </trkpt>
      <trkpt lat="46.63037" lon="5.41373">
        <ele>219.8</ele>
        <time>2021-10-07T13:40:47Z</time>
      </trkpt>
      <trkpt lat="46.63022" lon="5.41361">
        <ele>219.8</ele>
        <time>2021-10-07T13:40:49Z</time>
      </trkpt>
      <trkpt lat="46.63005" lon="5.41352">
        <ele>219.8</ele>
        <time>2021-10-07T13:40:51Z</time>
      </trkpt>
      <trkpt lat="46.62986" lon="5.41344">
        <ele>219.8</ele>
        <time>2021-10-07T13:40:53Z</time>
      </trkpt>
      <trkpt lat="46.62966" lon="5.41336">
        <ele>219.6</ele>
        <time>2021-10-07T13:40:55Z</time>
      </trkpt>
      <trkpt lat="46.62946" lon="5.41327">
        <ele>218.8</ele>
        <time>2021-10-07T13:40:57Z</time>
      </trkpt>
      <trkpt lat="46.62925" lon="5.41318">
        <ele>218</ele>
        <time>2021-10-07T13:40:59Z</time>
      </trkpt>
      <trkpt lat="46.62904" lon="5.41309">
        <ele>216.6</ele>
        <time>2021-10-07T13:41:01Z</time>
      </trkpt>
      <trkpt lat="46.62883" lon="5.413">
        <ele>215.4</ele>
        <time>2021-10-07T13:41:03Z</time>
      </trkpt>
      <trkpt lat="46.62861" lon="5.4129">
        <ele>213.8</ele>
        <time>2021-10-07T13:41:05Z</time>
      </trkpt>
      <trkpt lat="46.62838" lon="5.41281">
        <ele>212.6</ele>
        <time>2021-10-07T13:41:07Z</time>
      </trkpt>
      <trkpt lat="46.62815" lon="5.4127">
        <ele>211.8</ele>
        <time>2021-10-07T13:41:09Z</time>
      </trkpt>
      <trkpt lat="46.62804" lon="5.41265">
        <ele>210.6</ele>
        <time>2021-10-07T13:41:10Z</time>
      </trkpt>
      <trkpt lat="46.62793" lon="5.4126">
        <ele>209.8</ele>
        <time>2021-10-07T13:41:11Z</time>
      </trkpt>
      <trkpt lat="46.62781" lon="5.41256">
        <ele>209.4</ele>
        <time>2021-10-07T13:41:12Z</time>
      </trkpt>
      <trkpt lat="46.6277" lon="5.41251">
        <ele>208.8</ele>
        <time>2021-10-07T13:41:13Z</time>
      </trkpt>
      <trkpt lat="46.62759" lon="5.41246">
        <ele>207.8</ele>
        <time>2021-10-07T13:41:14Z</time>
      </trkpt>
      <trkpt lat="46.62748" lon="5.41241">
        <ele>207.2</ele>
        <time>2021-10-07T13:41:15Z</time>
      </trkpt>
      <trkpt lat="46.62737" lon="5.41236">
        <ele>206.4</ele>
        <time>2021-10-07T13:41:16Z</time>
      </trkpt>
      <trkpt lat="46.62726" lon="5.41231">
        <ele>206.2</ele>
        <time>2021-10-07T13:41:17Z</time>
      </trkpt>
      <trkpt lat="46.62704" lon="5.41222">
        <ele>205.4</ele>
        <time>2021-10-07T13:41:19Z</time>
      </trkpt>
      <trkpt lat="46.62682" lon="5.41212">
        <ele>204.6</ele>
        <time>2021-10-07T13:41:21Z</time>
      </trkpt>
      <trkpt lat="46.62671" lon="5.41208">
        <ele>204.2</ele>
        <time>2021-10-07T13:41:22Z</time>
      </trkpt>
      <trkpt lat="46.6266" lon="5.41203">
        <ele>204</ele>
        <time>2021-10-07T13:41:23Z</time>
      </trkpt>
      <trkpt lat="46.62649" lon="5.41198">
        <ele>204</ele>
        <time>2021-10-07T13:41:24Z</time>
      </trkpt>
      <trkpt lat="46.62638" lon="5.41194">
        <ele>203.8</ele>
        <time>2021-10-07T13:41:25Z</time>
      </trkpt>
      <trkpt lat="46.62617" lon="5.41184">
        <ele>203.4</ele>
        <time>2021-10-07T13:41:27Z</time>
      </trkpt>
      <trkpt lat="46.62606" lon="5.4118">
        <ele>203</ele>
        <time>2021-10-07T13:41:28Z</time>
      </trkpt>
      <trkpt lat="46.62595" lon="5.41175">
        <ele>202.8</ele>
        <time>2021-10-07T13:41:29Z</time>
      </trkpt>
      <trkpt lat="46.62573" lon="5.41166">
        <ele>202.4</ele>
        <time>2021-10-07T13:41:31Z</time>
      </trkpt>
      <trkpt lat="46.62552" lon="5.41157">
        <ele>202</ele>
        <time>2021-10-07T13:41:33Z</time>
      </trkpt>
      <trkpt lat="46.62541" lon="5.41152">
        <ele>201.8</ele>
        <time>2021-10-07T13:41:34Z</time>
      </trkpt>
      <trkpt lat="46.6253" lon="5.41148">
        <ele>201.6</ele>
        <time>2021-10-07T13:41:35Z</time>
      </trkpt>
      <trkpt lat="46.62519" lon="5.41143">
        <ele>201.6</ele>
        <time>2021-10-07T13:41:36Z</time>
      </trkpt>
      <trkpt lat="46.62508" lon="5.41138">
        <ele>201.4</ele>
        <time>2021-10-07T13:41:37Z</time>
      </trkpt>
      <trkpt lat="46.62498" lon="5.41132">
        <ele>201</ele>
        <time>2021-10-07T13:41:38Z</time>
      </trkpt>
      <trkpt lat="46.62488" lon="5.41124">
        <ele>200.8</ele>
        <time>2021-10-07T13:41:39Z</time>
      </trkpt>
      <trkpt lat="46.62479" lon="5.41115">
        <ele>200.6</ele>
        <time>2021-10-07T13:41:40Z</time>
      </trkpt>
      <trkpt lat="46.6247" lon="5.41104">
        <ele>200.6</ele>
        <time>2021-10-07T13:41:41Z</time>
      </trkpt>
      <trkpt lat="46.62456" lon="5.4108">
        <ele>199.6</ele>
        <time>2021-10-07T13:41:43Z</time>
      </trkpt>
      <trkpt lat="46.62445" lon="5.41054">
        <ele>199.2</ele>
        <time>2021-10-07T13:41:45Z</time>
      </trkpt>
      <trkpt lat="46.6244" lon="5.4104">
        <ele>199</ele>
        <time>2021-10-07T13:41:46Z</time>
      </trkpt>
      <trkpt lat="46.62435" lon="5.41027">
        <ele>198.8</ele>
        <time>2021-10-07T13:41:47Z</time>
      </trkpt>
      <trkpt lat="46.6243" lon="5.41014">
        <ele>198.4</ele>
        <time>2021-10-07T13:41:48Z</time>
      </trkpt>
      <trkpt lat="46.62425" lon="5.41001">
        <ele>198.2</ele>
        <time>2021-10-07T13:41:49Z</time>
      </trkpt>
      <trkpt lat="46.62415" lon="5.40975">
        <ele>197.8</ele>
        <time>2021-10-07T13:41:51Z</time>
      </trkpt>
      <trkpt lat="46.62404" lon="5.4095">
        <ele>197.8</ele>
        <time>2021-10-07T13:41:53Z</time>
      </trkpt>
      <trkpt lat="46.62398" lon="5.40938">
        <ele>197.6</ele>
        <time>2021-10-07T13:41:54Z</time>
      </trkpt>
      <trkpt lat="46.62391" lon="5.40927">
        <ele>197.4</ele>
        <time>2021-10-07T13:41:55Z</time>
      </trkpt>
      <trkpt lat="46.62376" lon="5.40909">
        <ele>197.4</ele>
        <time>2021-10-07T13:41:57Z</time>
      </trkpt>
      <trkpt lat="46.62367" lon="5.40902">
        <ele>197.2</ele>
        <time>2021-10-07T13:41:58Z</time>
      </trkpt>
      <trkpt lat="46.62359" lon="5.40894">
        <ele>197.2</ele>
        <time>2021-10-07T13:41:59Z</time>
      </trkpt>
      <trkpt lat="46.62343" lon="5.40879">
        <ele>197.2</ele>
        <time>2021-10-07T13:42:01Z</time>
      </trkpt>
      <trkpt lat="46.62328" lon="5.40862">
        <ele>197.2</ele>
        <time>2021-10-07T13:42:03Z</time>
      </trkpt>
      <trkpt lat="46.62322" lon="5.40852">
        <ele>197</ele>
        <time>2021-10-07T13:42:04Z</time>
      </trkpt>
      <trkpt lat="46.62316" lon="5.40841">
        <ele>197</ele>
        <time>2021-10-07T13:42:05Z</time>
      </trkpt>
      <trkpt lat="46.62304" lon="5.40821">
        <ele>197</ele>
        <time>2021-10-07T13:42:07Z</time>
      </trkpt>
      <trkpt lat="46.62291" lon="5.40803">
        <ele>197</ele>
        <time>2021-10-07T13:42:09Z</time>
      </trkpt>
      <trkpt lat="46.62284" lon="5.40795">
        <ele>197</ele>
        <time>2021-10-07T13:42:10Z</time>
      </trkpt>
      <trkpt lat="46.62277" lon="5.40787">
        <ele>197</ele>
        <time>2021-10-07T13:42:11Z</time>
      </trkpt>
      <trkpt lat="46.62263" lon="5.40772">
        <ele>197</ele>
        <time>2021-10-07T13:42:13Z</time>
      </trkpt>
      <trkpt lat="46.62249" lon="5.40758">
        <ele>197</ele>
        <time>2021-10-07T13:42:15Z</time>
      </trkpt>
      <trkpt lat="46.62234" lon="5.40744">
        <ele>197.2</ele>
        <time>2021-10-07T13:42:17Z</time>
      </trkpt>
      <trkpt lat="46.62227" lon="5.40737">
        <ele>197.2</ele>
        <time>2021-10-07T13:42:18Z</time>
      </trkpt>
      <trkpt lat="46.6222" lon="5.4073">
        <ele>197.2</ele>
        <time>2021-10-07T13:42:19Z</time>
      </trkpt>
      <trkpt lat="46.62205" lon="5.40716">
        <ele>197.2</ele>
        <time>2021-10-07T13:42:21Z</time>
      </trkpt>
      <trkpt lat="46.62198" lon="5.40711">
        <ele>197.2</ele>
        <time>2021-10-07T13:42:22Z</time>
      </trkpt>
      <trkpt lat="46.6219" lon="5.40707">
        <ele>197.2</ele>
        <time>2021-10-07T13:42:23Z</time>
      </trkpt>
      <trkpt lat="46.62181" lon="5.40705">
        <ele>197.2</ele>
        <time>2021-10-07T13:42:24Z</time>
      </trkpt>
      <trkpt lat="46.62173" lon="5.40704">
        <ele>197.2</ele>
        <time>2021-10-07T13:42:25Z</time>
      </trkpt>
      <trkpt lat="46.62157" lon="5.40706">
        <ele>197.2</ele>
        <time>2021-10-07T13:42:27Z</time>
      </trkpt>
      <trkpt lat="46.62149" lon="5.40709">
        <ele>197.2</ele>
        <time>2021-10-07T13:42:28Z</time>
      </trkpt>
      <trkpt lat="46.62141" lon="5.40713">
        <ele>197.2</ele>
        <time>2021-10-07T13:42:29Z</time>
      </trkpt>
      <trkpt lat="46.62127" lon="5.40726">
        <ele>197.4</ele>
        <time>2021-10-07T13:42:31Z</time>
      </trkpt>
      <trkpt lat="46.62115" lon="5.40742">
        <ele>197.4</ele>
        <time>2021-10-07T13:42:33Z</time>
      </trkpt>
      <trkpt lat="46.62107" lon="5.40761">
        <ele>197.4</ele>
        <time>2021-10-07T13:42:35Z</time>
      </trkpt>
      <trkpt lat="46.62103" lon="5.40771">
        <ele>197.6</ele>
        <time>2021-10-07T13:42:36Z</time>
      </trkpt>
      <trkpt lat="46.62099" lon="5.40781">
        <ele>197.6</ele>
        <time>2021-10-07T13:42:37Z</time>
      </trkpt>
      <trkpt lat="46.62091" lon="5.40801">
        <ele>197.6</ele>
        <time>2021-10-07T13:42:39Z</time>
      </trkpt>
      <trkpt lat="46.62087" lon="5.40812">
        <ele>197.6</ele>
        <time>2021-10-07T13:42:40Z</time>
      </trkpt>
      <trkpt lat="46.62084" lon="5.40823">
        <ele>197.6</ele>
        <time>2021-10-07T13:42:41Z</time>
      </trkpt>
      <trkpt lat="46.62076" lon="5.40844">
        <ele>197.6</ele>
        <time>2021-10-07T13:42:43Z</time>
      </trkpt>
      <trkpt lat="46.62068" lon="5.40865">
        <ele>197.6</ele>
        <time>2021-10-07T13:42:45Z</time>
      </trkpt>
      <trkpt lat="46.6206" lon="5.40887">
        <ele>197.6</ele>
        <time>2021-10-07T13:42:47Z</time>
      </trkpt>
      <trkpt lat="46.62053" lon="5.40909">
        <ele>197.6</ele>
        <time>2021-10-07T13:42:49Z</time>
      </trkpt>
      <trkpt lat="46.6205" lon="5.40919">
        <ele>197.6</ele>
        <time>2021-10-07T13:42:50Z</time>
      </trkpt>
      <trkpt lat="46.62047" lon="5.4093">
        <ele>197.4</ele>
        <time>2021-10-07T13:42:51Z</time>
      </trkpt>
      <trkpt lat="46.6204" lon="5.40951">
        <ele>197.4</ele>
        <time>2021-10-07T13:42:53Z</time>
      </trkpt>
      <trkpt lat="46.62033" lon="5.40972">
        <ele>197.2</ele>
        <time>2021-10-07T13:42:55Z</time>
      </trkpt>
      <trkpt lat="46.62027" lon="5.40992">
        <ele>197</ele>
        <time>2021-10-07T13:42:57Z</time>
      </trkpt>
      <trkpt lat="46.6202" lon="5.41012">
        <ele>197</ele>
        <time>2021-10-07T13:42:59Z</time>
      </trkpt>
      <trkpt lat="46.62017" lon="5.41022">
        <ele>196.8</ele>
        <time>2021-10-07T13:43:00Z</time>
      </trkpt>
      <trkpt lat="46.62013" lon="5.41032">
        <ele>196.6</ele>
        <time>2021-10-07T13:43:01Z</time>
      </trkpt>
      <trkpt lat="46.62004" lon="5.41051">
        <ele>196.6</ele>
        <time>2021-10-07T13:43:03Z</time>
      </trkpt>
      <trkpt lat="46.61994" lon="5.41067">
        <ele>196.6</ele>
        <time>2021-10-07T13:43:05Z</time>
      </trkpt>
      <trkpt lat="46.61983" lon="5.41083">
        <ele>196.4</ele>
        <time>2021-10-07T13:43:07Z</time>
      </trkpt>
      <trkpt lat="46.61972" lon="5.41098">
        <ele>196.4</ele>
        <time>2021-10-07T13:43:09Z</time>
      </trkpt>
      <trkpt lat="46.61961" lon="5.41114">
        <ele>196.4</ele>
        <time>2021-10-07T13:43:11Z</time>
      </trkpt>
      <trkpt lat="46.61949" lon="5.4113">
        <ele>196.6</ele>
        <time>2021-10-07T13:43:13Z</time>
      </trkpt>
      <trkpt lat="46.61938" lon="5.41145">
        <ele>196.6</ele>
        <time>2021-10-07T13:43:15Z</time>
      </trkpt>
      <trkpt lat="46.61927" lon="5.41161">
        <ele>196.8</ele>
        <time>2021-10-07T13:43:17Z</time>
      </trkpt>
      <trkpt lat="46.61915" lon="5.41177">
        <ele>197</ele>
        <time>2021-10-07T13:43:19Z</time>
      </trkpt>
      <trkpt lat="46.61903" lon="5.41193">
        <ele>197</ele>
        <time>2021-10-07T13:43:21Z</time>
      </trkpt>
      <trkpt lat="46.61892" lon="5.41209">
        <ele>197</ele>
        <time>2021-10-07T13:43:23Z</time>
      </trkpt>
      <trkpt lat="46.6188" lon="5.41224">
        <ele>197</ele>
        <time>2021-10-07T13:43:25Z</time>
      </trkpt>
      <trkpt lat="46.61869" lon="5.4124">
        <ele>197</ele>
        <time>2021-10-07T13:43:27Z</time>
      </trkpt>
      <trkpt lat="46.61858" lon="5.41257">
        <ele>197</ele>
        <time>2021-10-07T13:43:29Z</time>
      </trkpt>
      <trkpt lat="46.61853" lon="5.41266">
        <ele>197</ele>
        <time>2021-10-07T13:43:30Z</time>
      </trkpt>
      <trkpt lat="46.61848" lon="5.41275">
        <ele>197</ele>
        <time>2021-10-07T13:43:31Z</time>
      </trkpt>
      <trkpt lat="46.61838" lon="5.41292">
        <ele>197.2</ele>
        <time>2021-10-07T13:43:33Z</time>
      </trkpt>
      <trkpt lat="46.61828" lon="5.4131">
        <ele>197.2</ele>
        <time>2021-10-07T13:43:35Z</time>
      </trkpt>
      <trkpt lat="46.61818" lon="5.41328">
        <ele>197.2</ele>
        <time>2021-10-07T13:43:37Z</time>
      </trkpt>
      <trkpt lat="46.61808" lon="5.41346">
        <ele>197.4</ele>
        <time>2021-10-07T13:43:39Z</time>
      </trkpt>
      <trkpt lat="46.61798" lon="5.41364">
        <ele>197.4</ele>
        <time>2021-10-07T13:43:41Z</time>
      </trkpt>
      <trkpt lat="46.61788" lon="5.41381">
        <ele>197.4</ele>
        <time>2021-10-07T13:43:43Z</time>
      </trkpt>
      <trkpt lat="46.61777" lon="5.41398">
        <ele>197.4</ele>
        <time>2021-10-07T13:43:45Z</time>
      </trkpt>
      <trkpt lat="46.61765" lon="5.41413">
        <ele>197.6</ele>
        <time>2021-10-07T13:43:47Z</time>
      </trkpt>
      <trkpt lat="46.61758" lon="5.4142">
        <ele>197.6</ele>
        <time>2021-10-07T13:43:48Z</time>
      </trkpt>
      <trkpt lat="46.61751" lon="5.41425">
        <ele>197.6</ele>
        <time>2021-10-07T13:43:49Z</time>
      </trkpt>
      <trkpt lat="46.61736" lon="5.41434">
        <ele>197.4</ele>
        <time>2021-10-07T13:43:51Z</time>
      </trkpt>
      <trkpt lat="46.61729" lon="5.41436">
        <ele>197.4</ele>
        <time>2021-10-07T13:43:52Z</time>
      </trkpt>
      <trkpt lat="46.61721" lon="5.41438">
        <ele>197.6</ele>
        <time>2021-10-07T13:43:53Z</time>
      </trkpt>
      <trkpt lat="46.61704" lon="5.41438">
        <ele>197.6</ele>
        <time>2021-10-07T13:43:55Z</time>
      </trkpt>
      <trkpt lat="46.61696" lon="5.41436">
        <ele>197.4</ele>
        <time>2021-10-07T13:43:56Z</time>
      </trkpt>
      <trkpt lat="46.61688" lon="5.41433">
        <ele>197.4</ele>
        <time>2021-10-07T13:43:57Z</time>
      </trkpt>
      <trkpt lat="46.61673" lon="5.41424">
        <ele>197.2</ele>
        <time>2021-10-07T13:43:59Z</time>
      </trkpt>
      <trkpt lat="46.61666" lon="5.41418">
        <ele>197.4</ele>
        <time>2021-10-07T13:44:00Z</time>
      </trkpt>
      <trkpt lat="46.61659" lon="5.41412">
        <ele>197.6</ele>
        <time>2021-10-07T13:44:01Z</time>
      </trkpt>
      <trkpt lat="46.61645" lon="5.41397">
        <ele>197.6</ele>
        <time>2021-10-07T13:44:03Z</time>
      </trkpt>
      <trkpt lat="46.61632" lon="5.41381">
        <ele>197.6</ele>
        <time>2021-10-07T13:44:05Z</time>
      </trkpt>
      <trkpt lat="46.61619" lon="5.41366">
        <ele>197.6</ele>
        <time>2021-10-07T13:44:07Z</time>
      </trkpt>
      <trkpt lat="46.61605" lon="5.41351">
        <ele>197.6</ele>
        <time>2021-10-07T13:44:09Z</time>
      </trkpt>
      <trkpt lat="46.61591" lon="5.41339">
        <ele>197.6</ele>
        <time>2021-10-07T13:44:11Z</time>
      </trkpt>
      <trkpt lat="46.61583" lon="5.41333">
        <ele>197.6</ele>
        <time>2021-10-07T13:44:12Z</time>
      </trkpt>
      <trkpt lat="46.61575" lon="5.41328">
        <ele>197.8</ele>
        <time>2021-10-07T13:44:13Z</time>
      </trkpt>
      <trkpt lat="46.61559" lon="5.41317">
        <ele>197.8</ele>
        <time>2021-10-07T13:44:15Z</time>
      </trkpt>
      <trkpt lat="46.61544" lon="5.41306">
        <ele>197.8</ele>
        <time>2021-10-07T13:44:17Z</time>
      </trkpt>
      <trkpt lat="46.61528" lon="5.41296">
        <ele>197.6</ele>
        <time>2021-10-07T13:44:19Z</time>
      </trkpt>
      <trkpt lat="46.61512" lon="5.41286">
        <ele>197.6</ele>
        <time>2021-10-07T13:44:21Z</time>
      </trkpt>
      <trkpt lat="46.61495" lon="5.41277">
        <ele>197.6</ele>
        <time>2021-10-07T13:44:23Z</time>
      </trkpt>
      <trkpt lat="46.61478" lon="5.41271">
        <ele>197.6</ele>
        <time>2021-10-07T13:44:25Z</time>
      </trkpt>
      <trkpt lat="46.6146" lon="5.41265">
        <ele>197.6</ele>
        <time>2021-10-07T13:44:27Z</time>
      </trkpt>
      <trkpt lat="46.61442" lon="5.4126">
        <ele>197.6</ele>
        <time>2021-10-07T13:44:29Z</time>
      </trkpt>
      <trkpt lat="46.61424" lon="5.41255">
        <ele>197.6</ele>
        <time>2021-10-07T13:44:31Z</time>
      </trkpt>
      <trkpt lat="46.61406" lon="5.4125">
        <ele>197.6</ele>
        <time>2021-10-07T13:44:33Z</time>
      </trkpt>
      <trkpt lat="46.61388" lon="5.41245">
        <ele>197.6</ele>
        <time>2021-10-07T13:44:35Z</time>
      </trkpt>
      <trkpt lat="46.6137" lon="5.4124">
        <ele>197.4</ele>
        <time>2021-10-07T13:44:37Z</time>
      </trkpt>
      <trkpt lat="46.61353" lon="5.41235">
        <ele>197.4</ele>
        <time>2021-10-07T13:44:39Z</time>
      </trkpt>
      <trkpt lat="46.61335" lon="5.41231">
        <ele>197.4</ele>
        <time>2021-10-07T13:44:41Z</time>
      </trkpt>
      <trkpt lat="46.61317" lon="5.41226">
        <ele>197.2</ele>
        <time>2021-10-07T13:44:43Z</time>
      </trkpt>
      <trkpt lat="46.613" lon="5.41221">
        <ele>197.2</ele>
        <time>2021-10-07T13:44:45Z</time>
      </trkpt>
      <trkpt lat="46.61282" lon="5.41217">
        <ele>197</ele>
        <time>2021-10-07T13:44:47Z</time>
      </trkpt>
      <trkpt lat="46.61265" lon="5.41211">
        <ele>197</ele>
        <time>2021-10-07T13:44:49Z</time>
      </trkpt>
      <trkpt lat="46.61247" lon="5.41207">
        <ele>197</ele>
        <time>2021-10-07T13:44:51Z</time>
      </trkpt>
      <trkpt lat="46.6123" lon="5.41201">
        <ele>196.8</ele>
        <time>2021-10-07T13:44:53Z</time>
      </trkpt>
      <trkpt lat="46.61212" lon="5.41197">
        <ele>196.8</ele>
        <time>2021-10-07T13:44:55Z</time>
      </trkpt>
      <trkpt lat="46.61204" lon="5.41194">
        <ele>196.8</ele>
        <time>2021-10-07T13:44:56Z</time>
      </trkpt>
      <trkpt lat="46.61195" lon="5.41192">
        <ele>196.8</ele>
        <time>2021-10-07T13:44:57Z</time>
      </trkpt>
      <trkpt lat="46.61178" lon="5.41188">
        <ele>196.8</ele>
        <time>2021-10-07T13:44:59Z</time>
      </trkpt>
      <trkpt lat="46.61161" lon="5.41183">
        <ele>196.8</ele>
        <time>2021-10-07T13:45:01Z</time>
      </trkpt>
      <trkpt lat="46.61144" lon="5.41178">
        <ele>196.8</ele>
        <time>2021-10-07T13:45:03Z</time>
      </trkpt>
      <trkpt lat="46.61127" lon="5.41173">
        <ele>196.8</ele>
        <time>2021-10-07T13:45:05Z</time>
      </trkpt>
      <trkpt lat="46.6111" lon="5.41169">
        <ele>196.8</ele>
        <time>2021-10-07T13:45:07Z</time>
      </trkpt>
      <trkpt lat="46.61093" lon="5.41163">
        <ele>196.8</ele>
        <time>2021-10-07T13:45:09Z</time>
      </trkpt>
      <trkpt lat="46.61076" lon="5.41158">
        <ele>196.8</ele>
        <time>2021-10-07T13:45:11Z</time>
      </trkpt>
      <trkpt lat="46.61059" lon="5.41154">
        <ele>196.8</ele>
        <time>2021-10-07T13:45:13Z</time>
      </trkpt>
      <trkpt lat="46.61051" lon="5.41152">
        <ele>196.8</ele>
        <time>2021-10-07T13:45:14Z</time>
      </trkpt>
      <trkpt lat="46.61043" lon="5.41151">
        <ele>197</ele>
        <time>2021-10-07T13:45:15Z</time>
      </trkpt>
      <trkpt lat="46.61026" lon="5.41151">
        <ele>197.2</ele>
        <time>2021-10-07T13:45:17Z</time>
      </trkpt>
      <trkpt lat="46.61018" lon="5.41153">
        <ele>197.2</ele>
        <time>2021-10-07T13:45:18Z</time>
      </trkpt>
      <trkpt lat="46.6101" lon="5.41156">
        <ele>197.2</ele>
        <time>2021-10-07T13:45:19Z</time>
      </trkpt>
      <trkpt lat="46.60995" lon="5.41166">
        <ele>197.2</ele>
        <time>2021-10-07T13:45:21Z</time>
      </trkpt>
      <trkpt lat="46.60981" lon="5.41179">
        <ele>197.2</ele>
        <time>2021-10-07T13:45:23Z</time>
      </trkpt>
      <trkpt lat="46.60967" lon="5.41192">
        <ele>197.2</ele>
        <time>2021-10-07T13:45:25Z</time>
      </trkpt>
      <trkpt lat="46.60961" lon="5.41198">
        <ele>197.2</ele>
        <time>2021-10-07T13:45:26Z</time>
      </trkpt>
      <trkpt lat="46.60955" lon="5.41204">
        <ele>197.2</ele>
        <time>2021-10-07T13:45:27Z</time>
      </trkpt>
      <trkpt lat="46.60942" lon="5.41217">
        <ele>197.2</ele>
        <time>2021-10-07T13:45:29Z</time>
      </trkpt>
      <trkpt lat="46.60931" lon="5.41229">
        <ele>197.2</ele>
        <time>2021-10-07T13:45:31Z</time>
      </trkpt>
      <trkpt lat="46.6092" lon="5.41242">
        <ele>197.2</ele>
        <time>2021-10-07T13:45:33Z</time>
      </trkpt>
      <trkpt lat="46.60914" lon="5.41248">
        <ele>197.2</ele>
        <time>2021-10-07T13:45:34Z</time>
      </trkpt>
      <trkpt lat="46.60909" lon="5.41255">
        <ele>197.2</ele>
        <time>2021-10-07T13:45:35Z</time>
      </trkpt>
      <trkpt lat="46.60899" lon="5.41267">
        <ele>197.4</ele>
        <time>2021-10-07T13:45:37Z</time>
      </trkpt>
      <trkpt lat="46.60889" lon="5.41279">
        <ele>197.6</ele>
        <time>2021-10-07T13:45:39Z</time>
      </trkpt>
      <trkpt lat="46.60879" lon="5.41292">
        <ele>197.8</ele>
        <time>2021-10-07T13:45:41Z</time>
      </trkpt>
      <trkpt lat="46.60875" lon="5.41298">
        <ele>197.8</ele>
        <time>2021-10-07T13:45:42Z</time>
      </trkpt>
      <trkpt lat="46.6087" lon="5.41304">
        <ele>197.8</ele>
        <time>2021-10-07T13:45:43Z</time>
      </trkpt>
      <trkpt lat="46.60861" lon="5.41315">
        <ele>198</ele>
        <time>2021-10-07T13:45:45Z</time>
      </trkpt>
      <trkpt lat="46.60851" lon="5.41326">
        <ele>198.4</ele>
        <time>2021-10-07T13:45:47Z</time>
      </trkpt>
      <trkpt lat="46.6084" lon="5.41332">
        <ele>198.8</ele>
        <time>2021-10-07T13:45:49Z</time>
      </trkpt>
      <trkpt lat="46.60828" lon="5.41332">
        <ele>199.2</ele>
        <time>2021-10-07T13:45:51Z</time>
      </trkpt>
      <trkpt lat="46.60817" lon="5.41328">
        <ele>199.6</ele>
        <time>2021-10-07T13:45:53Z</time>
      </trkpt>
      <trkpt lat="46.60812" lon="5.41324">
        <ele>199.8</ele>
        <time>2021-10-07T13:45:54Z</time>
      </trkpt>
      <trkpt lat="46.60807" lon="5.41319">
        <ele>200.2</ele>
        <time>2021-10-07T13:45:55Z</time>
      </trkpt>
      <trkpt lat="46.60798" lon="5.4131">
        <ele>200.8</ele>
        <time>2021-10-07T13:45:57Z</time>
      </trkpt>
      <trkpt lat="46.60793" lon="5.41305">
        <ele>200.8</ele>
        <time>2021-10-07T13:45:58Z</time>
      </trkpt>
      <trkpt lat="46.60789" lon="5.41301">
        <ele>201</ele>
        <time>2021-10-07T13:45:59Z</time>
      </trkpt>
      <trkpt lat="46.60785" lon="5.41296">
        <ele>201</ele>
        <time>2021-10-07T13:46:00Z</time>
      </trkpt>
      <trkpt lat="46.60781" lon="5.41292">
        <ele>201.4</ele>
        <time>2021-10-07T13:46:01Z</time>
      </trkpt>
      <trkpt lat="46.60774" lon="5.41284">
        <ele>201.8</ele>
        <time>2021-10-07T13:46:03Z</time>
      </trkpt>
      <trkpt lat="46.6077" lon="5.4128">
        <ele>202.4</ele>
        <time>2021-10-07T13:46:04Z</time>
      </trkpt>
      <trkpt lat="46.60766" lon="5.41276">
        <ele>202.8</ele>
        <time>2021-10-07T13:46:05Z</time>
      </trkpt>
      <trkpt lat="46.60758" lon="5.41267">
        <ele>203.6</ele>
        <time>2021-10-07T13:46:07Z</time>
      </trkpt>
      <trkpt lat="46.60753" lon="5.41263">
        <ele>203.8</ele>
        <time>2021-10-07T13:46:08Z</time>
      </trkpt>
      <trkpt lat="46.60749" lon="5.41258">
        <ele>204.2</ele>
        <time>2021-10-07T13:46:09Z</time>
      </trkpt>
      <trkpt lat="46.6074" lon="5.41247">
        <ele>204.8</ele>
        <time>2021-10-07T13:46:11Z</time>
      </trkpt>
      <trkpt lat="46.60736" lon="5.41241">
        <ele>205.2</ele>
        <time>2021-10-07T13:46:12Z</time>
      </trkpt>
      <trkpt lat="46.60731" lon="5.41235">
        <ele>205.2</ele>
        <time>2021-10-07T13:46:13Z</time>
      </trkpt>
      <trkpt lat="46.60721" lon="5.41221">
        <ele>205.4</ele>
        <time>2021-10-07T13:46:15Z</time>
      </trkpt>
      <trkpt lat="46.60711" lon="5.41208">
        <ele>205.4</ele>
        <time>2021-10-07T13:46:17Z</time>
      </trkpt>
      <trkpt lat="46.60705" lon="5.41202">
        <ele>205.4</ele>
        <time>2021-10-07T13:46:18Z</time>
      </trkpt>
      <trkpt lat="46.607" lon="5.41195">
        <ele>205.4</ele>
        <time>2021-10-07T13:46:19Z</time>
      </trkpt>
      <trkpt lat="46.60688" lon="5.41184">
        <ele>205.4</ele>
        <time>2021-10-07T13:46:21Z</time>
      </trkpt>
      <trkpt lat="46.60675" lon="5.41177">
        <ele>205.2</ele>
        <time>2021-10-07T13:46:23Z</time>
      </trkpt>
      <trkpt lat="46.60662" lon="5.41172">
        <ele>204.8</ele>
        <time>2021-10-07T13:46:25Z</time>
      </trkpt>
      <trkpt lat="46.60648" lon="5.41167">
        <ele>204.8</ele>
        <time>2021-10-07T13:46:27Z</time>
      </trkpt>
      <trkpt lat="46.60635" lon="5.41162">
        <ele>204.8</ele>
        <time>2021-10-07T13:46:29Z</time>
      </trkpt>
      <trkpt lat="46.60622" lon="5.41158">
        <ele>204.8</ele>
        <time>2021-10-07T13:46:31Z</time>
      </trkpt>
      <trkpt lat="46.60615" lon="5.41156">
        <ele>204.8</ele>
        <time>2021-10-07T13:46:32Z</time>
      </trkpt>
      <trkpt lat="46.60609" lon="5.41154">
        <ele>205</ele>
        <time>2021-10-07T13:46:33Z</time>
      </trkpt>
      <trkpt lat="46.60595" lon="5.41149">
        <ele>205</ele>
        <time>2021-10-07T13:46:35Z</time>
      </trkpt>
      <trkpt lat="46.60582" lon="5.41145">
        <ele>205.2</ele>
        <time>2021-10-07T13:46:37Z</time>
      </trkpt>
      <trkpt lat="46.60569" lon="5.41142">
        <ele>205.6</ele>
        <time>2021-10-07T13:46:39Z</time>
      </trkpt>
      <trkpt lat="46.60555" lon="5.4114">
        <ele>206.2</ele>
        <time>2021-10-07T13:46:41Z</time>
      </trkpt>
      <trkpt lat="46.60542" lon="5.41138">
        <ele>206.4</ele>
        <time>2021-10-07T13:46:43Z</time>
      </trkpt>
      <trkpt lat="46.60529" lon="5.41137">
        <ele>206.8</ele>
        <time>2021-10-07T13:46:45Z</time>
      </trkpt>
      <trkpt lat="46.60515" lon="5.41136">
        <ele>207.2</ele>
        <time>2021-10-07T13:46:47Z</time>
      </trkpt>
      <trkpt lat="46.60502" lon="5.41136">
        <ele>207.8</ele>
        <time>2021-10-07T13:46:49Z</time>
      </trkpt>
      <trkpt lat="46.6049" lon="5.41136">
        <ele>208.2</ele>
        <time>2021-10-07T13:46:51Z</time>
      </trkpt>
      <trkpt lat="46.60477" lon="5.41135">
        <ele>208.4</ele>
        <time>2021-10-07T13:46:53Z</time>
      </trkpt>
      <trkpt lat="46.60465" lon="5.41132">
        <ele>208.8</ele>
        <time>2021-10-07T13:46:55Z</time>
      </trkpt>
      <trkpt lat="46.60459" lon="5.41129">
        <ele>209</ele>
        <time>2021-10-07T13:46:56Z</time>
      </trkpt>
      <trkpt lat="46.60454" lon="5.41127">
        <ele>209.4</ele>
        <time>2021-10-07T13:46:57Z</time>
      </trkpt>
      <trkpt lat="46.60448" lon="5.41123">
        <ele>209.6</ele>
        <time>2021-10-07T13:46:58Z</time>
      </trkpt>
      <trkpt lat="46.60443" lon="5.41119">
        <ele>209.6</ele>
        <time>2021-10-07T13:46:59Z</time>
      </trkpt>
      <trkpt lat="46.60438" lon="5.41114">
        <ele>210</ele>
        <time>2021-10-07T13:47:00Z</time>
      </trkpt>
      <trkpt lat="46.60434" lon="5.41108">
        <ele>210.4</ele>
        <time>2021-10-07T13:47:01Z</time>
      </trkpt>
      <trkpt lat="46.6043" lon="5.41102">
        <ele>211</ele>
        <time>2021-10-07T13:47:02Z</time>
      </trkpt>
      <trkpt lat="46.60427" lon="5.41095">
        <ele>211.4</ele>
        <time>2021-10-07T13:47:03Z</time>
      </trkpt>
      <trkpt lat="46.60424" lon="5.41088">
        <ele>211.6</ele>
        <time>2021-10-07T13:47:04Z</time>
      </trkpt>
      <trkpt lat="46.60421" lon="5.41082">
        <ele>211.8</ele>
        <time>2021-10-07T13:47:05Z</time>
      </trkpt>
      <trkpt lat="46.60417" lon="5.41068">
        <ele>212</ele>
        <time>2021-10-07T13:47:07Z</time>
      </trkpt>
      <trkpt lat="46.60412" lon="5.41054">
        <ele>212.2</ele>
        <time>2021-10-07T13:47:09Z</time>
      </trkpt>
      <trkpt lat="46.60408" lon="5.41047">
        <ele>212.4</ele>
        <time>2021-10-07T13:47:10Z</time>
      </trkpt>
      <trkpt lat="46.60404" lon="5.4104">
        <ele>212.6</ele>
        <time>2021-10-07T13:47:11Z</time>
      </trkpt>
      <trkpt lat="46.604" lon="5.41033">
        <ele>212.8</ele>
        <time>2021-10-07T13:47:12Z</time>
      </trkpt>
      <trkpt lat="46.60395" lon="5.41027">
        <ele>212.8</ele>
        <time>2021-10-07T13:47:13Z</time>
      </trkpt>
      <trkpt lat="46.60389" lon="5.41021">
        <ele>212.8</ele>
        <time>2021-10-07T13:47:14Z</time>
      </trkpt>
      <trkpt lat="46.60383" lon="5.41016">
        <ele>212.8</ele>
        <time>2021-10-07T13:47:15Z</time>
      </trkpt>
      <trkpt lat="46.60369" lon="5.41007">
        <ele>212.8</ele>
        <time>2021-10-07T13:47:17Z</time>
      </trkpt>
      <trkpt lat="46.60362" lon="5.41003">
        <ele>212.8</ele>
        <time>2021-10-07T13:47:18Z</time>
      </trkpt>
      <trkpt lat="46.60354" lon="5.40997">
        <ele>212.8</ele>
        <time>2021-10-07T13:47:19Z</time>
      </trkpt>
      <trkpt lat="46.60346" lon="5.40991">
        <ele>212.8</ele>
        <time>2021-10-07T13:47:20Z</time>
      </trkpt>
      <trkpt lat="46.60339" lon="5.40983">
        <ele>212.6</ele>
        <time>2021-10-07T13:47:21Z</time>
      </trkpt>
      <trkpt lat="46.60332" lon="5.40973">
        <ele>212.2</ele>
        <time>2021-10-07T13:47:22Z</time>
      </trkpt>
      <trkpt lat="46.60326" lon="5.40961">
        <ele>211.8</ele>
        <time>2021-10-07T13:47:23Z</time>
      </trkpt>
      <trkpt lat="46.6032" lon="5.40949">
        <ele>211.4</ele>
        <time>2021-10-07T13:47:24Z</time>
      </trkpt>
      <trkpt lat="46.60314" lon="5.40937">
        <ele>210.8</ele>
        <time>2021-10-07T13:47:25Z</time>
      </trkpt>
      <trkpt lat="46.60307" lon="5.40924">
        <ele>210.2</ele>
        <time>2021-10-07T13:47:26Z</time>
      </trkpt>
      <trkpt lat="46.603" lon="5.40912">
        <ele>209.6</ele>
        <time>2021-10-07T13:47:27Z</time>
      </trkpt>
      <trkpt lat="46.60292" lon="5.40901">
        <ele>209</ele>
        <time>2021-10-07T13:47:28Z</time>
      </trkpt>
      <trkpt lat="46.60283" lon="5.40892">
        <ele>208.2</ele>
        <time>2021-10-07T13:47:29Z</time>
      </trkpt>
      <trkpt lat="46.60263" lon="5.40875">
        <ele>206.4</ele>
        <time>2021-10-07T13:47:31Z</time>
      </trkpt>
      <trkpt lat="46.60253" lon="5.40868">
        <ele>205.4</ele>
        <time>2021-10-07T13:47:32Z</time>
      </trkpt>
      <trkpt lat="46.60244" lon="5.4086">
        <ele>204.2</ele>
        <time>2021-10-07T13:47:33Z</time>
      </trkpt>
      <trkpt lat="46.60234" lon="5.40853">
        <ele>203.4</ele>
        <time>2021-10-07T13:47:34Z</time>
      </trkpt>
      <trkpt lat="46.60224" lon="5.40845">
        <ele>202.4</ele>
        <time>2021-10-07T13:47:35Z</time>
      </trkpt>
      <trkpt lat="46.60206" lon="5.40829">
        <ele>200.6</ele>
        <time>2021-10-07T13:47:37Z</time>
      </trkpt>
      <trkpt lat="46.60189" lon="5.4081">
        <ele>199.4</ele>
        <time>2021-10-07T13:47:39Z</time>
      </trkpt>
      <trkpt lat="46.60183" lon="5.40798">
        <ele>199</ele>
        <time>2021-10-07T13:47:40Z</time>
      </trkpt>
      <trkpt lat="46.60178" lon="5.40786">
        <ele>198.6</ele>
        <time>2021-10-07T13:47:41Z</time>
      </trkpt>
      <trkpt lat="46.60173" lon="5.40757">
        <ele>198.2</ele>
        <time>2021-10-07T13:47:43Z</time>
      </trkpt>
      <trkpt lat="46.60175" lon="5.40729">
        <ele>198</ele>
        <time>2021-10-07T13:47:45Z</time>
      </trkpt>
      <trkpt lat="46.60178" lon="5.40716">
        <ele>198</ele>
        <time>2021-10-07T13:47:46Z</time>
      </trkpt>
      <trkpt lat="46.60182" lon="5.40703">
        <ele>198</ele>
        <time>2021-10-07T13:47:47Z</time>
      </trkpt>
      <trkpt lat="46.60193" lon="5.40682">
        <ele>197.8</ele>
        <time>2021-10-07T13:47:49Z</time>
      </trkpt>
      <trkpt lat="46.60199" lon="5.40672">
        <ele>197.8</ele>
        <time>2021-10-07T13:47:50Z</time>
      </trkpt>
      <trkpt lat="46.60205" lon="5.40662">
        <ele>197.8</ele>
        <time>2021-10-07T13:47:51Z</time>
      </trkpt>
      <trkpt lat="46.60216" lon="5.40643">
        <ele>197.8</ele>
        <time>2021-10-07T13:47:53Z</time>
      </trkpt>
      <trkpt lat="46.60227" lon="5.40623">
        <ele>197.8</ele>
        <time>2021-10-07T13:47:55Z</time>
      </trkpt>
      <trkpt lat="46.60231" lon="5.40613">
        <ele>197.8</ele>
        <time>2021-10-07T13:47:56Z</time>
      </trkpt>
      <trkpt lat="46.60234" lon="5.40602">
        <ele>197.8</ele>
        <time>2021-10-07T13:47:57Z</time>
      </trkpt>
      <trkpt lat="46.60238" lon="5.40579">
        <ele>197.8</ele>
        <time>2021-10-07T13:47:59Z</time>
      </trkpt>
      <trkpt lat="46.60236" lon="5.40556">
        <ele>198</ele>
        <time>2021-10-07T13:48:01Z</time>
      </trkpt>
      <trkpt lat="46.60234" lon="5.40545">
        <ele>198</ele>
        <time>2021-10-07T13:48:02Z</time>
      </trkpt>
      <trkpt lat="46.60232" lon="5.40533">
        <ele>198.2</ele>
        <time>2021-10-07T13:48:03Z</time>
      </trkpt>
      <trkpt lat="46.60227" lon="5.40511">
        <ele>198.6</ele>
        <time>2021-10-07T13:48:05Z</time>
      </trkpt>
      <trkpt lat="46.60223" lon="5.40489">
        <ele>199</ele>
        <time>2021-10-07T13:48:07Z</time>
      </trkpt>
      <trkpt lat="46.60221" lon="5.40478">
        <ele>199.4</ele>
        <time>2021-10-07T13:48:08Z</time>
      </trkpt>
      <trkpt lat="46.6022" lon="5.40467">
        <ele>199.6</ele>
        <time>2021-10-07T13:48:09Z</time>
      </trkpt>
      <trkpt lat="46.6022" lon="5.40446">
        <ele>200.2</ele>
        <time>2021-10-07T13:48:11Z</time>
      </trkpt>
      <trkpt lat="46.6022" lon="5.40437">
        <ele>200.4</ele>
        <time>2021-10-07T13:48:12Z</time>
      </trkpt>
      <trkpt lat="46.60221" lon="5.40427">
        <ele>200.6</ele>
        <time>2021-10-07T13:48:13Z</time>
      </trkpt>
      <trkpt lat="46.60222" lon="5.4041">
        <ele>201</ele>
        <time>2021-10-07T13:48:15Z</time>
      </trkpt>
      <trkpt lat="46.60223" lon="5.40394">
        <ele>201.2</ele>
        <time>2021-10-07T13:48:17Z</time>
      </trkpt>
      <trkpt lat="46.60223" lon="5.40386">
        <ele>201.6</ele>
        <time>2021-10-07T13:48:18Z</time>
      </trkpt>
      <trkpt lat="46.60223" lon="5.40379">
        <ele>201.8</ele>
        <time>2021-10-07T13:48:19Z</time>
      </trkpt>
      <trkpt lat="46.60222" lon="5.40371">
        <ele>202</ele>
        <time>2021-10-07T13:48:20Z</time>
      </trkpt>
      <trkpt lat="46.60222" lon="5.40364">
        <ele>202.2</ele>
        <time>2021-10-07T13:48:21Z</time>
      </trkpt>
      <trkpt lat="46.60219" lon="5.40349">
        <ele>203</ele>
        <time>2021-10-07T13:48:23Z</time>
      </trkpt>
      <trkpt lat="46.60216" lon="5.40333">
        <ele>204.2</ele>
        <time>2021-10-07T13:48:25Z</time>
      </trkpt>
      <trkpt lat="46.60211" lon="5.40316">
        <ele>205.2</ele>
        <time>2021-10-07T13:48:27Z</time>
      </trkpt>
      <trkpt lat="46.60208" lon="5.40307">
        <ele>205.4</ele>
        <time>2021-10-07T13:48:28Z</time>
      </trkpt>
      <trkpt lat="46.60205" lon="5.40298">
        <ele>205.6</ele>
        <time>2021-10-07T13:48:29Z</time>
      </trkpt>
      <trkpt lat="46.60198" lon="5.4028">
        <ele>205.6</ele>
        <time>2021-10-07T13:48:31Z</time>
      </trkpt>
      <trkpt lat="46.6019" lon="5.40262">
        <ele>205.6</ele>
        <time>2021-10-07T13:48:33Z</time>
      </trkpt>
      <trkpt lat="46.60182" lon="5.40242">
        <ele>205.6</ele>
        <time>2021-10-07T13:48:35Z</time>
      </trkpt>
      <trkpt lat="46.60179" lon="5.40232">
        <ele>205.6</ele>
        <time>2021-10-07T13:48:36Z</time>
      </trkpt>
      <trkpt lat="46.60177" lon="5.40221">
        <ele>205.6</ele>
        <time>2021-10-07T13:48:37Z</time>
      </trkpt>
      <trkpt lat="46.60177" lon="5.40198">
        <ele>205.6</ele>
        <time>2021-10-07T13:48:39Z</time>
      </trkpt>
      <trkpt lat="46.60178" lon="5.40187">
        <ele>205.6</ele>
        <time>2021-10-07T13:48:40Z</time>
      </trkpt>
      <trkpt lat="46.6018" lon="5.40176">
        <ele>205.4</ele>
        <time>2021-10-07T13:48:41Z</time>
      </trkpt>
      <trkpt lat="46.60183" lon="5.40166">
        <ele>205.4</ele>
        <time>2021-10-07T13:48:42Z</time>
      </trkpt>
      <trkpt lat="46.60185" lon="5.40156">
        <ele>205.4</ele>
        <time>2021-10-07T13:48:43Z</time>
      </trkpt>
      <trkpt lat="46.60189" lon="5.40136">
        <ele>205.4</ele>
        <time>2021-10-07T13:48:45Z</time>
      </trkpt>
      <trkpt lat="46.60191" lon="5.40126">
        <ele>205.4</ele>
        <time>2021-10-07T13:48:46Z</time>
      </trkpt>
      <trkpt lat="46.60192" lon="5.40116">
        <ele>205.4</ele>
        <time>2021-10-07T13:48:47Z</time>
      </trkpt>
      <trkpt lat="46.60194" lon="5.40094">
        <ele>205.2</ele>
        <time>2021-10-07T13:48:49Z</time>
      </trkpt>
      <trkpt lat="46.60194" lon="5.40082">
        <ele>205.2</ele>
        <time>2021-10-07T13:48:50Z</time>
      </trkpt>
      <trkpt lat="46.60193" lon="5.4007">
        <ele>205.2</ele>
        <time>2021-10-07T13:48:51Z</time>
      </trkpt>
      <trkpt lat="46.60192" lon="5.40046">
        <ele>205</ele>
        <time>2021-10-07T13:48:53Z</time>
      </trkpt>
      <trkpt lat="46.60191" lon="5.4002">
        <ele>205</ele>
        <time>2021-10-07T13:48:55Z</time>
      </trkpt>
      <trkpt lat="46.60189" lon="5.39995">
        <ele>204.4</ele>
        <time>2021-10-07T13:48:57Z</time>
      </trkpt>
      <trkpt lat="46.60189" lon="5.39983">
        <ele>204.2</ele>
        <time>2021-10-07T13:48:58Z</time>
      </trkpt>
      <trkpt lat="46.60189" lon="5.3997">
        <ele>204</ele>
        <time>2021-10-07T13:48:59Z</time>
      </trkpt>
      <trkpt lat="46.60188" lon="5.39944">
        <ele>203.2</ele>
        <time>2021-10-07T13:49:01Z</time>
      </trkpt>
      <trkpt lat="46.60187" lon="5.39931">
        <ele>203</ele>
        <time>2021-10-07T13:49:02Z</time>
      </trkpt>
      <trkpt lat="46.60185" lon="5.39919">
        <ele>202.6</ele>
        <time>2021-10-07T13:49:03Z</time>
      </trkpt>
      <trkpt lat="46.60176" lon="5.39896">
        <ele>202.4</ele>
        <time>2021-10-07T13:49:05Z</time>
      </trkpt>
      <trkpt lat="46.60169" lon="5.39886">
        <ele>202.2</ele>
        <time>2021-10-07T13:49:06Z</time>
      </trkpt>
      <trkpt lat="46.60162" lon="5.39877">
        <ele>202</ele>
        <time>2021-10-07T13:49:07Z</time>
      </trkpt>
      <trkpt lat="46.60146" lon="5.39863">
        <ele>201.8</ele>
        <time>2021-10-07T13:49:09Z</time>
      </trkpt>
      <trkpt lat="46.60137" lon="5.39855">
        <ele>201.6</ele>
        <time>2021-10-07T13:49:10Z</time>
      </trkpt>
      <trkpt lat="46.60129" lon="5.39848">
        <ele>201.4</ele>
        <time>2021-10-07T13:49:11Z</time>
      </trkpt>
      <trkpt lat="46.60113" lon="5.39834">
        <ele>201</ele>
        <time>2021-10-07T13:49:13Z</time>
      </trkpt>
      <trkpt lat="46.60105" lon="5.39826">
        <ele>200.6</ele>
        <time>2021-10-07T13:49:14Z</time>
      </trkpt>
      <trkpt lat="46.60098" lon="5.39818">
        <ele>200.4</ele>
        <time>2021-10-07T13:49:15Z</time>
      </trkpt>
      <trkpt lat="46.60092" lon="5.39809">
        <ele>200.4</ele>
        <time>2021-10-07T13:49:16Z</time>
      </trkpt>
      <trkpt lat="46.60086" lon="5.39798">
        <ele>200.2</ele>
        <time>2021-10-07T13:49:17Z</time>
      </trkpt>
      <trkpt lat="46.60078" lon="5.39777">
        <ele>200.2</ele>
        <time>2021-10-07T13:49:19Z</time>
      </trkpt>
      <trkpt lat="46.60074" lon="5.39767">
        <ele>200.2</ele>
        <time>2021-10-07T13:49:20Z</time>
      </trkpt>
      <trkpt lat="46.6007" lon="5.39756">
        <ele>200.2</ele>
        <time>2021-10-07T13:49:21Z</time>
      </trkpt>
      <trkpt lat="46.60067" lon="5.39746">
        <ele>200.2</ele>
        <time>2021-10-07T13:49:22Z</time>
      </trkpt>
      <trkpt lat="46.60065" lon="5.39735">
        <ele>200.2</ele>
        <time>2021-10-07T13:49:23Z</time>
      </trkpt>
      <trkpt lat="46.60064" lon="5.39724">
        <ele>200.2</ele>
        <time>2021-10-07T13:49:24Z</time>
      </trkpt>
      <trkpt lat="46.60066" lon="5.39713">
        <ele>200.2</ele>
        <time>2021-10-07T13:49:25Z</time>
      </trkpt>
      <trkpt lat="46.60073" lon="5.39695">
        <ele>200.2</ele>
        <time>2021-10-07T13:49:27Z</time>
      </trkpt>
      <trkpt lat="46.60076" lon="5.39686">
        <ele>200.2</ele>
        <time>2021-10-07T13:49:28Z</time>
      </trkpt>
      <trkpt lat="46.6008" lon="5.39678">
        <ele>200.2</ele>
        <time>2021-10-07T13:49:29Z</time>
      </trkpt>
      <trkpt lat="46.60086" lon="5.39662">
        <ele>200.4</ele>
        <time>2021-10-07T13:49:31Z</time>
      </trkpt>
      <trkpt lat="46.60088" lon="5.39653">
        <ele>200.4</ele>
        <time>2021-10-07T13:49:32Z</time>
      </trkpt>
      <trkpt lat="46.60089" lon="5.39644">
        <ele>200.4</ele>
        <time>2021-10-07T13:49:33Z</time>
      </trkpt>
      <trkpt lat="46.6009" lon="5.39628">
        <ele>200.8</ele>
        <time>2021-10-07T13:49:35Z</time>
      </trkpt>
      <trkpt lat="46.6009" lon="5.3962">
        <ele>200.8</ele>
        <time>2021-10-07T13:49:36Z</time>
      </trkpt>
      <trkpt lat="46.60089" lon="5.39612">
        <ele>201.2</ele>
        <time>2021-10-07T13:49:37Z</time>
      </trkpt>
      <trkpt lat="46.60087" lon="5.39598">
        <ele>202</ele>
        <time>2021-10-07T13:49:39Z</time>
      </trkpt>
      <trkpt lat="46.60082" lon="5.39584">
        <ele>203.2</ele>
        <time>2021-10-07T13:49:41Z</time>
      </trkpt>
      <trkpt lat="46.60077" lon="5.3957">
        <ele>203.8</ele>
        <time>2021-10-07T13:49:43Z</time>
      </trkpt>
      <trkpt lat="46.60072" lon="5.39558">
        <ele>204.6</ele>
        <time>2021-10-07T13:49:45Z</time>
      </trkpt>
      <trkpt lat="46.60066" lon="5.39546">
        <ele>205</ele>
        <time>2021-10-07T13:49:47Z</time>
      </trkpt>
      <trkpt lat="46.6006" lon="5.39533">
        <ele>205.6</ele>
        <time>2021-10-07T13:49:49Z</time>
      </trkpt>
      <trkpt lat="46.60054" lon="5.39521">
        <ele>206.2</ele>
        <time>2021-10-07T13:49:51Z</time>
      </trkpt>
      <trkpt lat="46.60048" lon="5.3951">
        <ele>206.6</ele>
        <time>2021-10-07T13:49:53Z</time>
      </trkpt>
      <trkpt lat="46.60046" lon="5.39503">
        <ele>206.6</ele>
        <time>2021-10-07T13:49:54Z</time>
      </trkpt>
      <trkpt lat="46.60044" lon="5.39497">
        <ele>207</ele>
        <time>2021-10-07T13:49:55Z</time>
      </trkpt>
      <trkpt lat="46.60043" lon="5.39491">
        <ele>207.4</ele>
        <time>2021-10-07T13:49:56Z</time>
      </trkpt>
      <trkpt lat="46.60041" lon="5.39484">
        <ele>207.8</ele>
        <time>2021-10-07T13:49:57Z</time>
      </trkpt>
      <trkpt lat="46.60039" lon="5.39471">
        <ele>208.6</ele>
        <time>2021-10-07T13:49:59Z</time>
      </trkpt>
      <trkpt lat="46.60039" lon="5.39464">
        <ele>209</ele>
        <time>2021-10-07T13:50:00Z</time>
      </trkpt>
      <trkpt lat="46.60038" lon="5.39457">
        <ele>209.2</ele>
        <time>2021-10-07T13:50:01Z</time>
      </trkpt>
      <trkpt lat="46.60038" lon="5.39442">
        <ele>209.6</ele>
        <time>2021-10-07T13:50:03Z</time>
      </trkpt>
      <trkpt lat="46.6004" lon="5.39427">
        <ele>209.8</ele>
        <time>2021-10-07T13:50:05Z</time>
      </trkpt>
      <trkpt lat="46.60041" lon="5.39419">
        <ele>210</ele>
        <time>2021-10-07T13:50:06Z</time>
      </trkpt>
      <trkpt lat="46.60042" lon="5.3941">
        <ele>210</ele>
        <time>2021-10-07T13:50:07Z</time>
      </trkpt>
      <trkpt lat="46.60044" lon="5.39401">
        <ele>210</ele>
        <time>2021-10-07T13:50:08Z</time>
      </trkpt>
      <trkpt lat="46.60045" lon="5.39392">
        <ele>210</ele>
        <time>2021-10-07T13:50:09Z</time>
      </trkpt>
      <trkpt lat="46.60049" lon="5.39373">
        <ele>210</ele>
        <time>2021-10-07T13:50:11Z</time>
      </trkpt>
      <trkpt lat="46.60052" lon="5.39354">
        <ele>210</ele>
        <time>2021-10-07T13:50:13Z</time>
      </trkpt>
      <trkpt lat="46.60055" lon="5.39334">
        <ele>209.8</ele>
        <time>2021-10-07T13:50:15Z</time>
      </trkpt>
      <trkpt lat="46.60056" lon="5.39315">
        <ele>209.4</ele>
        <time>2021-10-07T13:50:17Z</time>
      </trkpt>
      <trkpt lat="46.60056" lon="5.39297">
        <ele>209.4</ele>
        <time>2021-10-07T13:50:19Z</time>
      </trkpt>
      <trkpt lat="46.60055" lon="5.39288">
        <ele>209.4</ele>
        <time>2021-10-07T13:50:20Z</time>
      </trkpt>
      <trkpt lat="46.60054" lon="5.3928">
        <ele>209.2</ele>
        <time>2021-10-07T13:50:21Z</time>
      </trkpt>
      <trkpt lat="46.60052" lon="5.39265">
        <ele>209.2</ele>
        <time>2021-10-07T13:50:23Z</time>
      </trkpt>
      <trkpt lat="46.6005" lon="5.39258">
        <ele>209.2</ele>
        <time>2021-10-07T13:50:24Z</time>
      </trkpt>
      <trkpt lat="46.60048" lon="5.39251">
        <ele>209.2</ele>
        <time>2021-10-07T13:50:25Z</time>
      </trkpt>
      <trkpt lat="46.60043" lon="5.39239">
        <ele>209.8</ele>
        <time>2021-10-07T13:50:27Z</time>
      </trkpt>
      <trkpt lat="46.60038" lon="5.39227">
        <ele>210.6</ele>
        <time>2021-10-07T13:50:29Z</time>
      </trkpt>
      <trkpt lat="46.60031" lon="5.39217">
        <ele>211.2</ele>
        <time>2021-10-07T13:50:31Z</time>
      </trkpt>
      <trkpt lat="46.60028" lon="5.39212">
        <ele>211.8</ele>
        <time>2021-10-07T13:50:32Z</time>
      </trkpt>
      <trkpt lat="46.60024" lon="5.39208">
        <ele>212.8</ele>
        <time>2021-10-07T13:50:33Z</time>
      </trkpt>
      <trkpt lat="46.60015" lon="5.392">
        <ele>213.2</ele>
        <time>2021-10-07T13:50:35Z</time>
      </trkpt>
      <trkpt lat="46.60006" lon="5.39193">
        <ele>214</ele>
        <time>2021-10-07T13:50:37Z</time>
      </trkpt>
      <trkpt lat="46.59995" lon="5.39188">
        <ele>214.6</ele>
        <time>2021-10-07T13:50:39Z</time>
      </trkpt>
      <trkpt lat="46.59984" lon="5.39184">
        <ele>215.2</ele>
        <time>2021-10-07T13:50:41Z</time>
      </trkpt>
      <trkpt lat="46.59972" lon="5.39182">
        <ele>215.4</ele>
        <time>2021-10-07T13:50:43Z</time>
      </trkpt>
      <trkpt lat="46.5996" lon="5.39181">
        <ele>215.8</ele>
        <time>2021-10-07T13:50:45Z</time>
      </trkpt>
      <trkpt lat="46.59948" lon="5.39181">
        <ele>216</ele>
        <time>2021-10-07T13:50:47Z</time>
      </trkpt>
      <trkpt lat="46.59937" lon="5.3918">
        <ele>216.2</ele>
        <time>2021-10-07T13:50:49Z</time>
      </trkpt>
      <trkpt lat="46.59932" lon="5.39179">
        <ele>216.2</ele>
        <time>2021-10-07T13:50:50Z</time>
      </trkpt>
      <trkpt lat="46.59926" lon="5.39178">
        <ele>216.2</ele>
        <time>2021-10-07T13:50:51Z</time>
      </trkpt>
      <trkpt lat="46.59916" lon="5.39178">
        <ele>216.6</ele>
        <time>2021-10-07T13:50:53Z</time>
      </trkpt>
      <trkpt lat="46.59905" lon="5.39182">
        <ele>217</ele>
        <time>2021-10-07T13:50:55Z</time>
      </trkpt>
      <trkpt lat="46.59893" lon="5.39187">
        <ele>217.2</ele>
        <time>2021-10-07T13:50:57Z</time>
      </trkpt>
      <trkpt lat="46.59882" lon="5.39191">
        <ele>217.8</ele>
        <time>2021-10-07T13:50:59Z</time>
      </trkpt>
      <trkpt lat="46.5987" lon="5.39193">
        <ele>218.4</ele>
        <time>2021-10-07T13:51:01Z</time>
      </trkpt>
      <trkpt lat="46.59863" lon="5.39193">
        <ele>218.4</ele>
        <time>2021-10-07T13:51:02Z</time>
      </trkpt>
      <trkpt lat="46.59857" lon="5.39193">
        <ele>218.6</ele>
        <time>2021-10-07T13:51:03Z</time>
      </trkpt>
      <trkpt lat="46.59845" lon="5.39192">
        <ele>218.6</ele>
        <time>2021-10-07T13:51:05Z</time>
      </trkpt>
      <trkpt lat="46.59833" lon="5.3919">
        <ele>218.6</ele>
        <time>2021-10-07T13:51:07Z</time>
      </trkpt>
      <trkpt lat="46.59826" lon="5.39189">
        <ele>218.8</ele>
        <time>2021-10-07T13:51:08Z</time>
      </trkpt>
      <trkpt lat="46.5982" lon="5.39187">
        <ele>218.8</ele>
        <time>2021-10-07T13:51:09Z</time>
      </trkpt>
      <trkpt lat="46.59807" lon="5.39186">
        <ele>218.8</ele>
        <time>2021-10-07T13:51:11Z</time>
      </trkpt>
      <trkpt lat="46.59794" lon="5.39189">
        <ele>218.8</ele>
        <time>2021-10-07T13:51:13Z</time>
      </trkpt>
      <trkpt lat="46.59782" lon="5.39192">
        <ele>218.8</ele>
        <time>2021-10-07T13:51:15Z</time>
      </trkpt>
      <trkpt lat="46.59769" lon="5.39198">
        <ele>218.8</ele>
        <time>2021-10-07T13:51:17Z</time>
      </trkpt>
      <trkpt lat="46.59757" lon="5.39204">
        <ele>218.8</ele>
        <time>2021-10-07T13:51:19Z</time>
      </trkpt>
      <trkpt lat="46.59751" lon="5.39207">
        <ele>218.8</ele>
        <time>2021-10-07T13:51:20Z</time>
      </trkpt>
      <trkpt lat="46.59744" lon="5.39208">
        <ele>218.8</ele>
        <time>2021-10-07T13:51:21Z</time>
      </trkpt>
      <trkpt lat="46.59738" lon="5.39207">
        <ele>218.8</ele>
        <time>2021-10-07T13:51:22Z</time>
      </trkpt>
      <trkpt lat="46.59732" lon="5.39205">
        <ele>219</ele>
        <time>2021-10-07T13:51:23Z</time>
      </trkpt>
      <trkpt lat="46.59719" lon="5.392">
        <ele>219</ele>
        <time>2021-10-07T13:51:25Z</time>
      </trkpt>
      <trkpt lat="46.59706" lon="5.39196">
        <ele>219</ele>
        <time>2021-10-07T13:51:27Z</time>
      </trkpt>
      <trkpt lat="46.59693" lon="5.39193">
        <ele>219.2</ele>
        <time>2021-10-07T13:51:29Z</time>
      </trkpt>
      <trkpt lat="46.59687" lon="5.39192">
        <ele>219.6</ele>
        <time>2021-10-07T13:51:30Z</time>
      </trkpt>
      <trkpt lat="46.5968" lon="5.39191">
        <ele>219.8</ele>
        <time>2021-10-07T13:51:31Z</time>
      </trkpt>
      <trkpt lat="46.59666" lon="5.39188">
        <ele>220</ele>
        <time>2021-10-07T13:51:33Z</time>
      </trkpt>
      <trkpt lat="46.59652" lon="5.39186">
        <ele>220</ele>
        <time>2021-10-07T13:51:35Z</time>
      </trkpt>
      <trkpt lat="46.59638" lon="5.39183">
        <ele>220</ele>
        <time>2021-10-07T13:51:37Z</time>
      </trkpt>
      <trkpt lat="46.59624" lon="5.39182">
        <ele>220</ele>
        <time>2021-10-07T13:51:39Z</time>
      </trkpt>
      <trkpt lat="46.59609" lon="5.39185">
        <ele>219.8</ele>
        <time>2021-10-07T13:51:41Z</time>
      </trkpt>
      <trkpt lat="46.59594" lon="5.39192">
        <ele>219.6</ele>
        <time>2021-10-07T13:51:43Z</time>
      </trkpt>
      <trkpt lat="46.59577" lon="5.39199">
        <ele>219.4</ele>
        <time>2021-10-07T13:51:45Z</time>
      </trkpt>
      <trkpt lat="46.59569" lon="5.39202">
        <ele>219.4</ele>
        <time>2021-10-07T13:51:46Z</time>
      </trkpt>
      <trkpt lat="46.5956" lon="5.39204">
        <ele>219.4</ele>
        <time>2021-10-07T13:51:47Z</time>
      </trkpt>
      <trkpt lat="46.59543" lon="5.39206">
        <ele>219.2</ele>
        <time>2021-10-07T13:51:49Z</time>
      </trkpt>
      <trkpt lat="46.59535" lon="5.39205">
        <ele>219</ele>
        <time>2021-10-07T13:51:50Z</time>
      </trkpt>
      <trkpt lat="46.59527" lon="5.39202">
        <ele>218.8</ele>
        <time>2021-10-07T13:51:51Z</time>
      </trkpt>
      <trkpt lat="46.59512" lon="5.39188">
        <ele>218.6</ele>
        <time>2021-10-07T13:51:53Z</time>
      </trkpt>
      <trkpt lat="46.59507" lon="5.39177">
        <ele>218.6</ele>
        <time>2021-10-07T13:51:54Z</time>
      </trkpt>
      <trkpt lat="46.59504" lon="5.39166">
        <ele>218.4</ele>
        <time>2021-10-07T13:51:55Z</time>
      </trkpt>
      <trkpt lat="46.59501" lon="5.39154">
        <ele>218.2</ele>
        <time>2021-10-07T13:51:56Z</time>
      </trkpt>
      <trkpt lat="46.595" lon="5.39141">
        <ele>218</ele>
        <time>2021-10-07T13:51:57Z</time>
      </trkpt>
      <trkpt lat="46.59498" lon="5.39129">
        <ele>218</ele>
        <time>2021-10-07T13:51:58Z</time>
      </trkpt>
      <trkpt lat="46.59497" lon="5.39116">
        <ele>217.8</ele>
        <time>2021-10-07T13:51:59Z</time>
      </trkpt>
      <trkpt lat="46.59494" lon="5.39091">
        <ele>217.4</ele>
        <time>2021-10-07T13:52:01Z</time>
      </trkpt>
      <trkpt lat="46.59491" lon="5.39066">
        <ele>217.2</ele>
        <time>2021-10-07T13:52:03Z</time>
      </trkpt>
      <trkpt lat="46.59488" lon="5.39042">
        <ele>217.2</ele>
        <time>2021-10-07T13:52:05Z</time>
      </trkpt>
      <trkpt lat="46.59485" lon="5.39017">
        <ele>217</ele>
        <time>2021-10-07T13:52:07Z</time>
      </trkpt>
      <trkpt lat="46.59482" lon="5.38992">
        <ele>216.8</ele>
        <time>2021-10-07T13:52:09Z</time>
      </trkpt>
      <trkpt lat="46.59479" lon="5.38969">
        <ele>216.4</ele>
        <time>2021-10-07T13:52:11Z</time>
      </trkpt>
      <trkpt lat="46.59477" lon="5.38957">
        <ele>216.4</ele>
        <time>2021-10-07T13:52:12Z</time>
      </trkpt>
      <trkpt lat="46.59474" lon="5.38946">
        <ele>216.4</ele>
        <time>2021-10-07T13:52:13Z</time>
      </trkpt>
      <trkpt lat="46.59466" lon="5.38924">
        <ele>216.4</ele>
        <time>2021-10-07T13:52:15Z</time>
      </trkpt>
      <trkpt lat="46.59461" lon="5.38914">
        <ele>216.4</ele>
        <time>2021-10-07T13:52:16Z</time>
      </trkpt>
      <trkpt lat="46.59458" lon="5.38904">
        <ele>216.4</ele>
        <time>2021-10-07T13:52:17Z</time>
      </trkpt>
      <trkpt lat="46.59452" lon="5.38881">
        <ele>216.4</ele>
        <time>2021-10-07T13:52:19Z</time>
      </trkpt>
      <trkpt lat="46.59451" lon="5.3887">
        <ele>216.4</ele>
        <time>2021-10-07T13:52:20Z</time>
      </trkpt>
      <trkpt lat="46.5945" lon="5.38858">
        <ele>216.4</ele>
        <time>2021-10-07T13:52:21Z</time>
      </trkpt>
      <trkpt lat="46.59448" lon="5.38836">
        <ele>216.6</ele>
        <time>2021-10-07T13:52:23Z</time>
      </trkpt>
      <trkpt lat="46.59445" lon="5.38813">
        <ele>216.6</ele>
        <time>2021-10-07T13:52:25Z</time>
      </trkpt>
      <trkpt lat="46.59442" lon="5.38802">
        <ele>216.8</ele>
        <time>2021-10-07T13:52:26Z</time>
      </trkpt>
      <trkpt lat="46.59439" lon="5.38791">
        <ele>216.6</ele>
        <time>2021-10-07T13:52:27Z</time>
      </trkpt>
      <trkpt lat="46.59429" lon="5.38773">
        <ele>216.8</ele>
        <time>2021-10-07T13:52:29Z</time>
      </trkpt>
      <trkpt lat="46.59416" lon="5.38758">
        <ele>216.8</ele>
        <time>2021-10-07T13:52:31Z</time>
      </trkpt>
      <trkpt lat="46.59402" lon="5.38744">
        <ele>217</ele>
        <time>2021-10-07T13:52:33Z</time>
      </trkpt>
      <trkpt lat="46.59389" lon="5.3873">
        <ele>217</ele>
        <time>2021-10-07T13:52:35Z</time>
      </trkpt>
      <trkpt lat="46.59376" lon="5.38716">
        <ele>216.8</ele>
        <time>2021-10-07T13:52:37Z</time>
      </trkpt>
      <trkpt lat="46.59362" lon="5.38701">
        <ele>216.8</ele>
        <time>2021-10-07T13:52:39Z</time>
      </trkpt>
      <trkpt lat="46.59349" lon="5.38687">
        <ele>216.8</ele>
        <time>2021-10-07T13:52:41Z</time>
      </trkpt>
      <trkpt lat="46.59336" lon="5.38672">
        <ele>216.6</ele>
        <time>2021-10-07T13:52:43Z</time>
      </trkpt>
      <trkpt lat="46.59323" lon="5.38658">
        <ele>216.6</ele>
        <time>2021-10-07T13:52:45Z</time>
      </trkpt>
      <trkpt lat="46.59309" lon="5.38643">
        <ele>216.4</ele>
        <time>2021-10-07T13:52:47Z</time>
      </trkpt>
      <trkpt lat="46.59296" lon="5.38629">
        <ele>216.4</ele>
        <time>2021-10-07T13:52:49Z</time>
      </trkpt>
      <trkpt lat="46.59282" lon="5.38614">
        <ele>216.4</ele>
        <time>2021-10-07T13:52:51Z</time>
      </trkpt>
      <trkpt lat="46.59269" lon="5.386">
        <ele>216.2</ele>
        <time>2021-10-07T13:52:53Z</time>
      </trkpt>
      <trkpt lat="46.59256" lon="5.38586">
        <ele>216.2</ele>
        <time>2021-10-07T13:52:55Z</time>
      </trkpt>
      <trkpt lat="46.59243" lon="5.38572">
        <ele>216.4</ele>
        <time>2021-10-07T13:52:57Z</time>
      </trkpt>
      <trkpt lat="46.59231" lon="5.38558">
        <ele>216.4</ele>
        <time>2021-10-07T13:52:59Z</time>
      </trkpt>
      <trkpt lat="46.59219" lon="5.38545">
        <ele>216.4</ele>
        <time>2021-10-07T13:53:01Z</time>
      </trkpt>
      <trkpt lat="46.59206" lon="5.38532">
        <ele>216.6</ele>
        <time>2021-10-07T13:53:03Z</time>
      </trkpt>
      <trkpt lat="46.59194" lon="5.38518">
        <ele>216.6</ele>
        <time>2021-10-07T13:53:05Z</time>
      </trkpt>
      <trkpt lat="46.59181" lon="5.38503">
        <ele>216.8</ele>
        <time>2021-10-07T13:53:07Z</time>
      </trkpt>
      <trkpt lat="46.59168" lon="5.38486">
        <ele>216.8</ele>
        <time>2021-10-07T13:53:09Z</time>
      </trkpt>
      <trkpt lat="46.59156" lon="5.38467">
        <ele>216.8</ele>
        <time>2021-10-07T13:53:11Z</time>
      </trkpt>
      <trkpt lat="46.59145" lon="5.38447">
        <ele>216.8</ele>
        <time>2021-10-07T13:53:13Z</time>
      </trkpt>
      <trkpt lat="46.59134" lon="5.38428">
        <ele>216.6</ele>
        <time>2021-10-07T13:53:15Z</time>
      </trkpt>
      <trkpt lat="46.5912" lon="5.3841">
        <ele>215.6</ele>
        <time>2021-10-07T13:53:17Z</time>
      </trkpt>
      <trkpt lat="46.59104" lon="5.38394">
        <ele>214.6</ele>
        <time>2021-10-07T13:53:19Z</time>
      </trkpt>
      <trkpt lat="46.59095" lon="5.38387">
        <ele>214.4</ele>
        <time>2021-10-07T13:53:20Z</time>
      </trkpt>
      <trkpt lat="46.59086" lon="5.38379">
        <ele>214.2</ele>
        <time>2021-10-07T13:53:21Z</time>
      </trkpt>
      <trkpt lat="46.59069" lon="5.38365">
        <ele>214</ele>
        <time>2021-10-07T13:53:23Z</time>
      </trkpt>
      <trkpt lat="46.5906" lon="5.38357">
        <ele>213.2</ele>
        <time>2021-10-07T13:53:24Z</time>
      </trkpt>
      <trkpt lat="46.59051" lon="5.3835">
        <ele>212.6</ele>
        <time>2021-10-07T13:53:25Z</time>
      </trkpt>
      <trkpt lat="46.59042" lon="5.38343">
        <ele>212</ele>
        <time>2021-10-07T13:53:26Z</time>
      </trkpt>
      <trkpt lat="46.59033" lon="5.38336">
        <ele>211.6</ele>
        <time>2021-10-07T13:53:27Z</time>
      </trkpt>
      <trkpt lat="46.59016" lon="5.38321">
        <ele>210.8</ele>
        <time>2021-10-07T13:53:29Z</time>
      </trkpt>
      <trkpt lat="46.58998" lon="5.38307">
        <ele>210.2</ele>
        <time>2021-10-07T13:53:31Z</time>
      </trkpt>
      <trkpt lat="46.5899" lon="5.38299">
        <ele>209.6</ele>
        <time>2021-10-07T13:53:32Z</time>
      </trkpt>
      <trkpt lat="46.58981" lon="5.38292">
        <ele>209.2</ele>
        <time>2021-10-07T13:53:33Z</time>
      </trkpt>
      <trkpt lat="46.58965" lon="5.38278">
        <ele>208.4</ele>
        <time>2021-10-07T13:53:35Z</time>
      </trkpt>
      <trkpt lat="46.5895" lon="5.38265">
        <ele>208.2</ele>
        <time>2021-10-07T13:53:37Z</time>
      </trkpt>
      <trkpt lat="46.58942" lon="5.38259">
        <ele>208.2</ele>
        <time>2021-10-07T13:53:38Z</time>
      </trkpt>
      <trkpt lat="46.58935" lon="5.38252">
        <ele>208.2</ele>
        <time>2021-10-07T13:53:39Z</time>
      </trkpt>
      <trkpt lat="46.58923" lon="5.38237">
        <ele>208.2</ele>
        <time>2021-10-07T13:53:41Z</time>
      </trkpt>
      <trkpt lat="46.58911" lon="5.38222">
        <ele>208.2</ele>
        <time>2021-10-07T13:53:43Z</time>
      </trkpt>
      <trkpt lat="46.58899" lon="5.38207">
        <ele>208.6</ele>
        <time>2021-10-07T13:53:45Z</time>
      </trkpt>
      <trkpt lat="46.58886" lon="5.38193">
        <ele>209.2</ele>
        <time>2021-10-07T13:53:47Z</time>
      </trkpt>
      <trkpt lat="46.5888" lon="5.38185">
        <ele>210.2</ele>
        <time>2021-10-07T13:53:48Z</time>
      </trkpt>
      <trkpt lat="46.58874" lon="5.38178">
        <ele>210.8</ele>
        <time>2021-10-07T13:53:49Z</time>
      </trkpt>
      <trkpt lat="46.58868" lon="5.3817">
        <ele>211.4</ele>
        <time>2021-10-07T13:53:50Z</time>
      </trkpt>
      <trkpt lat="46.58862" lon="5.38162">
        <ele>211.8</ele>
        <time>2021-10-07T13:53:51Z</time>
      </trkpt>
      <trkpt lat="46.5885" lon="5.38147">
        <ele>212.4</ele>
        <time>2021-10-07T13:53:53Z</time>
      </trkpt>
      <trkpt lat="46.58844" lon="5.38139">
        <ele>212.6</ele>
        <time>2021-10-07T13:53:54Z</time>
      </trkpt>
      <trkpt lat="46.58838" lon="5.38132">
        <ele>213</ele>
        <time>2021-10-07T13:53:55Z</time>
      </trkpt>
      <trkpt lat="46.58825" lon="5.38117">
        <ele>213.4</ele>
        <time>2021-10-07T13:53:57Z</time>
      </trkpt>
      <trkpt lat="46.58813" lon="5.38101">
        <ele>213.6</ele>
        <time>2021-10-07T13:53:59Z</time>
      </trkpt>
      <trkpt lat="46.58801" lon="5.38086">
        <ele>213.8</ele>
        <time>2021-10-07T13:54:01Z</time>
      </trkpt>
      <trkpt lat="46.58787" lon="5.38072">
        <ele>214</ele>
        <time>2021-10-07T13:54:03Z</time>
      </trkpt>
      <trkpt lat="46.5878" lon="5.38066">
        <ele>214</ele>
        <time>2021-10-07T13:54:04Z</time>
      </trkpt>
      <trkpt lat="46.58772" lon="5.38061">
        <ele>214</ele>
        <time>2021-10-07T13:54:05Z</time>
      </trkpt>
      <trkpt lat="46.58755" lon="5.38055">
        <ele>214</ele>
        <time>2021-10-07T13:54:07Z</time>
      </trkpt>
      <trkpt lat="46.58747" lon="5.38054">
        <ele>214</ele>
        <time>2021-10-07T13:54:08Z</time>
      </trkpt>
      <trkpt lat="46.58738" lon="5.38053">
        <ele>214</ele>
        <time>2021-10-07T13:54:09Z</time>
      </trkpt>
      <trkpt lat="46.5872" lon="5.38052">
        <ele>213.8</ele>
        <time>2021-10-07T13:54:11Z</time>
      </trkpt>
      <trkpt lat="46.58703" lon="5.38051">
        <ele>213.6</ele>
        <time>2021-10-07T13:54:13Z</time>
      </trkpt>
      <trkpt lat="46.58685" lon="5.3805">
        <ele>213.6</ele>
        <time>2021-10-07T13:54:15Z</time>
      </trkpt>
      <trkpt lat="46.58667" lon="5.38049">
        <ele>213.4</ele>
        <time>2021-10-07T13:54:17Z</time>
      </trkpt>
      <trkpt lat="46.5865" lon="5.38047">
        <ele>213.2</ele>
        <time>2021-10-07T13:54:19Z</time>
      </trkpt>
      <trkpt lat="46.58633" lon="5.38043">
        <ele>212.6</ele>
        <time>2021-10-07T13:54:21Z</time>
      </trkpt>
      <trkpt lat="46.58624" lon="5.3804">
        <ele>212.6</ele>
        <time>2021-10-07T13:54:22Z</time>
      </trkpt>
      <trkpt lat="46.58616" lon="5.38035">
        <ele>212.2</ele>
        <time>2021-10-07T13:54:23Z</time>
      </trkpt>
      <trkpt lat="46.58601" lon="5.38023">
        <ele>211.4</ele>
        <time>2021-10-07T13:54:25Z</time>
      </trkpt>
      <trkpt lat="46.58594" lon="5.38016">
        <ele>211.2</ele>
        <time>2021-10-07T13:54:26Z</time>
      </trkpt>
      <trkpt lat="46.58587" lon="5.38009">
        <ele>211</ele>
        <time>2021-10-07T13:54:27Z</time>
      </trkpt>
      <trkpt lat="46.58579" lon="5.38002">
        <ele>210.8</ele>
        <time>2021-10-07T13:54:28Z</time>
      </trkpt>
      <trkpt lat="46.58571" lon="5.37998">
        <ele>210.6</ele>
        <time>2021-10-07T13:54:29Z</time>
      </trkpt>
      <trkpt lat="46.58563" lon="5.37997">
        <ele>210.6</ele>
        <time>2021-10-07T13:54:30Z</time>
      </trkpt>
      <trkpt lat="46.58554" lon="5.37999">
        <ele>210.4</ele>
        <time>2021-10-07T13:54:31Z</time>
      </trkpt>
      <trkpt lat="46.58546" lon="5.38003">
        <ele>210.4</ele>
        <time>2021-10-07T13:54:32Z</time>
      </trkpt>
      <trkpt lat="46.58538" lon="5.38008">
        <ele>210.4</ele>
        <time>2021-10-07T13:54:33Z</time>
      </trkpt>
      <trkpt lat="46.58523" lon="5.38018">
        <ele>210.2</ele>
        <time>2021-10-07T13:54:35Z</time>
      </trkpt>
      <trkpt lat="46.58515" lon="5.38022">
        <ele>210.2</ele>
        <time>2021-10-07T13:54:36Z</time>
      </trkpt>
      <trkpt lat="46.58507" lon="5.38025">
        <ele>210.2</ele>
        <time>2021-10-07T13:54:37Z</time>
      </trkpt>
      <trkpt lat="46.58499" lon="5.38026">
        <ele>210.2</ele>
        <time>2021-10-07T13:54:38Z</time>
      </trkpt>
      <trkpt lat="46.58491" lon="5.38026">
        <ele>210.2</ele>
        <time>2021-10-07T13:54:39Z</time>
      </trkpt>
      <trkpt lat="46.58473" lon="5.38021">
        <ele>210.2</ele>
        <time>2021-10-07T13:54:41Z</time>
      </trkpt>
      <trkpt lat="46.58456" lon="5.38015">
        <ele>210.2</ele>
        <time>2021-10-07T13:54:43Z</time>
      </trkpt>
      <trkpt lat="46.58437" lon="5.38008">
        <ele>210</ele>
        <time>2021-10-07T13:54:45Z</time>
      </trkpt>
      <trkpt lat="46.58418" lon="5.38001">
        <ele>209.8</ele>
        <time>2021-10-07T13:54:47Z</time>
      </trkpt>
      <trkpt lat="46.58398" lon="5.37994">
        <ele>209.8</ele>
        <time>2021-10-07T13:54:49Z</time>
      </trkpt>
      <trkpt lat="46.58378" lon="5.37986">
        <ele>209</ele>
        <time>2021-10-07T13:54:51Z</time>
      </trkpt>
      <trkpt lat="46.58357" lon="5.37979">
        <ele>207.6</ele>
        <time>2021-10-07T13:54:53Z</time>
      </trkpt>
      <trkpt lat="46.58336" lon="5.3797">
        <ele>206.6</ele>
        <time>2021-10-07T13:54:55Z</time>
      </trkpt>
      <trkpt lat="46.58316" lon="5.3796">
        <ele>205.6</ele>
        <time>2021-10-07T13:54:57Z</time>
      </trkpt>
      <trkpt lat="46.58306" lon="5.37954">
        <ele>205.4</ele>
        <time>2021-10-07T13:54:58Z</time>
      </trkpt>
      <trkpt lat="46.58297" lon="5.37948">
        <ele>205.4</ele>
        <time>2021-10-07T13:54:59Z</time>
      </trkpt>
      <trkpt lat="46.58277" lon="5.37935">
        <ele>204.6</ele>
        <time>2021-10-07T13:55:01Z</time>
      </trkpt>
      <trkpt lat="46.58267" lon="5.37929">
        <ele>204</ele>
        <time>2021-10-07T13:55:02Z</time>
      </trkpt>
      <trkpt lat="46.58257" lon="5.37923">
        <ele>203.6</ele>
        <time>2021-10-07T13:55:03Z</time>
      </trkpt>
      <trkpt lat="46.58237" lon="5.37911">
        <ele>202.8</ele>
        <time>2021-10-07T13:55:05Z</time>
      </trkpt>
      <trkpt lat="46.58218" lon="5.37898">
        <ele>202.4</ele>
        <time>2021-10-07T13:55:07Z</time>
      </trkpt>
      <trkpt lat="46.58198" lon="5.37885">
        <ele>202.2</ele>
        <time>2021-10-07T13:55:09Z</time>
      </trkpt>
      <trkpt lat="46.58177" lon="5.37875">
        <ele>201.6</ele>
        <time>2021-10-07T13:55:11Z</time>
      </trkpt>
      <trkpt lat="46.58155" lon="5.37876">
        <ele>201</ele>
        <time>2021-10-07T13:55:13Z</time>
      </trkpt>
      <trkpt lat="46.58145" lon="5.37881">
        <ele>200.8</ele>
        <time>2021-10-07T13:55:14Z</time>
      </trkpt>
      <trkpt lat="46.58136" lon="5.37888">
        <ele>200.6</ele>
        <time>2021-10-07T13:55:15Z</time>
      </trkpt>
      <trkpt lat="46.58127" lon="5.37896">
        <ele>200</ele>
        <time>2021-10-07T13:55:16Z</time>
      </trkpt>
      <trkpt lat="46.58118" lon="5.37902">
        <ele>199.6</ele>
        <time>2021-10-07T13:55:17Z</time>
      </trkpt>
      <trkpt lat="46.58109" lon="5.37907">
        <ele>199.2</ele>
        <time>2021-10-07T13:55:18Z</time>
      </trkpt>
      <trkpt lat="46.58099" lon="5.3791">
        <ele>199</ele>
        <time>2021-10-07T13:55:19Z</time>
      </trkpt>
      <trkpt lat="46.5808" lon="5.37917">
        <ele>198.8</ele>
        <time>2021-10-07T13:55:21Z</time>
      </trkpt>
      <trkpt lat="46.58061" lon="5.37923">
        <ele>198.6</ele>
        <time>2021-10-07T13:55:23Z</time>
      </trkpt>
      <trkpt lat="46.58042" lon="5.37929">
        <ele>198.2</ele>
        <time>2021-10-07T13:55:25Z</time>
      </trkpt>
      <trkpt lat="46.58033" lon="5.37932">
        <ele>198.2</ele>
        <time>2021-10-07T13:55:26Z</time>
      </trkpt>
      <trkpt lat="46.58025" lon="5.37935">
        <ele>198.2</ele>
        <time>2021-10-07T13:55:27Z</time>
      </trkpt>
      <trkpt lat="46.58008" lon="5.37942">
        <ele>198.2</ele>
        <time>2021-10-07T13:55:29Z</time>
      </trkpt>
      <trkpt lat="46.57992" lon="5.37952">
        <ele>198.2</ele>
        <time>2021-10-07T13:55:31Z</time>
      </trkpt>
      <trkpt lat="46.57978" lon="5.37964">
        <ele>198.2</ele>
        <time>2021-10-07T13:55:33Z</time>
      </trkpt>
      <trkpt lat="46.57963" lon="5.37975">
        <ele>198.6</ele>
        <time>2021-10-07T13:55:35Z</time>
      </trkpt>
      <trkpt lat="46.57956" lon="5.37979">
        <ele>198.8</ele>
        <time>2021-10-07T13:55:36Z</time>
      </trkpt>
      <trkpt lat="46.5795" lon="5.37983">
        <ele>198.8</ele>
        <time>2021-10-07T13:55:37Z</time>
      </trkpt>
      <trkpt lat="46.57936" lon="5.37992">
        <ele>199.2</ele>
        <time>2021-10-07T13:55:39Z</time>
      </trkpt>
      <trkpt lat="46.57924" lon="5.38002">
        <ele>199.2</ele>
        <time>2021-10-07T13:55:41Z</time>
      </trkpt>
      <trkpt lat="46.57919" lon="5.38009">
        <ele>199.2</ele>
        <time>2021-10-07T13:55:42Z</time>
      </trkpt>
      <trkpt lat="46.57914" lon="5.38016">
        <ele>199.6</ele>
        <time>2021-10-07T13:55:43Z</time>
      </trkpt>
      <trkpt lat="46.57905" lon="5.38031">
        <ele>200.2</ele>
        <time>2021-10-07T13:55:45Z</time>
      </trkpt>
      <trkpt lat="46.57902" lon="5.38039">
        <ele>200.6</ele>
        <time>2021-10-07T13:55:46Z</time>
      </trkpt>
      <trkpt lat="46.57898" lon="5.38048">
        <ele>201</ele>
        <time>2021-10-07T13:55:47Z</time>
      </trkpt>
      <trkpt lat="46.57895" lon="5.38056">
        <ele>201.6</ele>
        <time>2021-10-07T13:55:48Z</time>
      </trkpt>
      <trkpt lat="46.57892" lon="5.38065">
        <ele>201.8</ele>
        <time>2021-10-07T13:55:49Z</time>
      </trkpt>
      <trkpt lat="46.57887" lon="5.38085">
        <ele>202.2</ele>
        <time>2021-10-07T13:55:51Z</time>
      </trkpt>
      <trkpt lat="46.57881" lon="5.38105">
        <ele>202.8</ele>
        <time>2021-10-07T13:55:53Z</time>
      </trkpt>
      <trkpt lat="46.57874" lon="5.38125">
        <ele>203</ele>
        <time>2021-10-07T13:55:55Z</time>
      </trkpt>
      <trkpt lat="46.57867" lon="5.38144">
        <ele>203.2</ele>
        <time>2021-10-07T13:55:57Z</time>
      </trkpt>
      <trkpt lat="46.5786" lon="5.38163">
        <ele>203.4</ele>
        <time>2021-10-07T13:55:59Z</time>
      </trkpt>
      <trkpt lat="46.57856" lon="5.38172">
        <ele>203.4</ele>
        <time>2021-10-07T13:56:00Z</time>
      </trkpt>
      <trkpt lat="46.57852" lon="5.38181">
        <ele>203.2</ele>
        <time>2021-10-07T13:56:01Z</time>
      </trkpt>
      <trkpt lat="46.57848" lon="5.3819">
        <ele>203.4</ele>
        <time>2021-10-07T13:56:02Z</time>
      </trkpt>
      <trkpt lat="46.57843" lon="5.38198">
        <ele>203.4</ele>
        <time>2021-10-07T13:56:03Z</time>
      </trkpt>
      <trkpt lat="46.57837" lon="5.38204">
        <ele>203.4</ele>
        <time>2021-10-07T13:56:04Z</time>
      </trkpt>
      <trkpt lat="46.57831" lon="5.38211">
        <ele>203.4</ele>
        <time>2021-10-07T13:56:05Z</time>
      </trkpt>
      <trkpt lat="46.57824" lon="5.38216">
        <ele>203.2</ele>
        <time>2021-10-07T13:56:06Z</time>
      </trkpt>
      <trkpt lat="46.57818" lon="5.38222">
        <ele>203.2</ele>
        <time>2021-10-07T13:56:07Z</time>
      </trkpt>
      <trkpt lat="46.57805" lon="5.38233">
        <ele>203.2</ele>
        <time>2021-10-07T13:56:09Z</time>
      </trkpt>
      <trkpt lat="46.57793" lon="5.38245">
        <ele>203.2</ele>
        <time>2021-10-07T13:56:11Z</time>
      </trkpt>
      <trkpt lat="46.57782" lon="5.38258">
        <ele>203.4</ele>
        <time>2021-10-07T13:56:13Z</time>
      </trkpt>
      <trkpt lat="46.5777" lon="5.3827">
        <ele>203.4</ele>
        <time>2021-10-07T13:56:15Z</time>
      </trkpt>
      <trkpt lat="46.57758" lon="5.38281">
        <ele>203.6</ele>
        <time>2021-10-07T13:56:17Z</time>
      </trkpt>
      <trkpt lat="46.57745" lon="5.38291">
        <ele>203.8</ele>
        <time>2021-10-07T13:56:19Z</time>
      </trkpt>
      <trkpt lat="46.57739" lon="5.38294">
        <ele>204</ele>
        <time>2021-10-07T13:56:20Z</time>
      </trkpt>
      <trkpt lat="46.57732" lon="5.38297">
        <ele>204.2</ele>
        <time>2021-10-07T13:56:21Z</time>
      </trkpt>
      <trkpt lat="46.57719" lon="5.38302">
        <ele>204.4</ele>
        <time>2021-10-07T13:56:23Z</time>
      </trkpt>
      <trkpt lat="46.57705" lon="5.38307">
        <ele>204.4</ele>
        <time>2021-10-07T13:56:25Z</time>
      </trkpt>
      <trkpt lat="46.57691" lon="5.3831">
        <ele>204.8</ele>
        <time>2021-10-07T13:56:27Z</time>
      </trkpt>
      <trkpt lat="46.57676" lon="5.38313">
        <ele>205.2</ele>
        <time>2021-10-07T13:56:29Z</time>
      </trkpt>
      <trkpt lat="46.57661" lon="5.38315">
        <ele>205.2</ele>
        <time>2021-10-07T13:56:31Z</time>
      </trkpt>
      <trkpt lat="46.57653" lon="5.38316">
        <ele>205.2</ele>
        <time>2021-10-07T13:56:32Z</time>
      </trkpt>
      <trkpt lat="46.57646" lon="5.38319">
        <ele>205.2</ele>
        <time>2021-10-07T13:56:33Z</time>
      </trkpt>
      <trkpt lat="46.57632" lon="5.38323">
        <ele>205.2</ele>
        <time>2021-10-07T13:56:35Z</time>
      </trkpt>
      <trkpt lat="46.57619" lon="5.38311">
        <ele>205.2</ele>
        <time>2021-10-07T13:56:37Z</time>
      </trkpt>
      <trkpt lat="46.5761" lon="5.3829">
        <ele>204.8</ele>
        <time>2021-10-07T13:56:39Z</time>
      </trkpt>
      <trkpt lat="46.57605" lon="5.38279">
        <ele>204.6</ele>
        <time>2021-10-07T13:56:40Z</time>
      </trkpt>
      <trkpt lat="46.576" lon="5.38268">
        <ele>204.4</ele>
        <time>2021-10-07T13:56:41Z</time>
      </trkpt>
      <trkpt lat="46.57587" lon="5.38247">
        <ele>204</ele>
        <time>2021-10-07T13:56:43Z</time>
      </trkpt>
      <trkpt lat="46.5758" lon="5.38238">
        <ele>203.6</ele>
        <time>2021-10-07T13:56:44Z</time>
      </trkpt>
      <trkpt lat="46.57573" lon="5.38229">
        <ele>203.2</ele>
        <time>2021-10-07T13:56:45Z</time>
      </trkpt>
      <trkpt lat="46.57565" lon="5.38221">
        <ele>202.8</ele>
        <time>2021-10-07T13:56:46Z</time>
      </trkpt>
      <trkpt lat="46.57557" lon="5.38213">
        <ele>202.2</ele>
        <time>2021-10-07T13:56:47Z</time>
      </trkpt>
      <trkpt lat="46.57549" lon="5.38207">
        <ele>201.6</ele>
        <time>2021-10-07T13:56:48Z</time>
      </trkpt>
      <trkpt lat="46.57541" lon="5.382">
        <ele>201</ele>
        <time>2021-10-07T13:56:49Z</time>
      </trkpt>
      <trkpt lat="46.57533" lon="5.38194">
        <ele>200.4</ele>
        <time>2021-10-07T13:56:50Z</time>
      </trkpt>
      <trkpt lat="46.57525" lon="5.38188">
        <ele>199.8</ele>
        <time>2021-10-07T13:56:51Z</time>
      </trkpt>
      <trkpt lat="46.57509" lon="5.38176">
        <ele>199.2</ele>
        <time>2021-10-07T13:56:53Z</time>
      </trkpt>
      <trkpt lat="46.57494" lon="5.38164">
        <ele>199</ele>
        <time>2021-10-07T13:56:55Z</time>
      </trkpt>
      <trkpt lat="46.57487" lon="5.38158">
        <ele>199</ele>
        <time>2021-10-07T13:56:56Z</time>
      </trkpt>
      <trkpt lat="46.57479" lon="5.38152">
        <ele>199</ele>
        <time>2021-10-07T13:56:57Z</time>
      </trkpt>
      <trkpt lat="46.57465" lon="5.38141">
        <ele>199</ele>
        <time>2021-10-07T13:56:59Z</time>
      </trkpt>
      <trkpt lat="46.57451" lon="5.3813">
        <ele>199</ele>
        <time>2021-10-07T13:57:01Z</time>
      </trkpt>
      <trkpt lat="46.57437" lon="5.38119">
        <ele>199.2</ele>
        <time>2021-10-07T13:57:03Z</time>
      </trkpt>
      <trkpt lat="46.57422" lon="5.38107">
        <ele>199.4</ele>
        <time>2021-10-07T13:57:05Z</time>
      </trkpt>
      <trkpt lat="46.57408" lon="5.38097">
        <ele>199.8</ele>
        <time>2021-10-07T13:57:07Z</time>
      </trkpt>
      <trkpt lat="46.57394" lon="5.38085">
        <ele>200</ele>
        <time>2021-10-07T13:57:09Z</time>
      </trkpt>
      <trkpt lat="46.57388" lon="5.38078">
        <ele>200.2</ele>
        <time>2021-10-07T13:57:10Z</time>
      </trkpt>
      <trkpt lat="46.57382" lon="5.3807">
        <ele>200.2</ele>
        <time>2021-10-07T13:57:11Z</time>
      </trkpt>
      <trkpt lat="46.57377" lon="5.38062">
        <ele>200.2</ele>
        <time>2021-10-07T13:57:12Z</time>
      </trkpt>
      <trkpt lat="46.57373" lon="5.38053">
        <ele>200.4</ele>
        <time>2021-10-07T13:57:13Z</time>
      </trkpt>
      <trkpt lat="46.57365" lon="5.38037">
        <ele>200.4</ele>
        <time>2021-10-07T13:57:15Z</time>
      </trkpt>
      <trkpt lat="46.57358" lon="5.3802">
        <ele>200.6</ele>
        <time>2021-10-07T13:57:17Z</time>
      </trkpt>
      <trkpt lat="46.57351" lon="5.38004">
        <ele>200.8</ele>
        <time>2021-10-07T13:57:19Z</time>
      </trkpt>
      <trkpt lat="46.57347" lon="5.37996">
        <ele>201.2</ele>
        <time>2021-10-07T13:57:20Z</time>
      </trkpt>
      <trkpt lat="46.57343" lon="5.37988">
        <ele>201.6</ele>
        <time>2021-10-07T13:57:21Z</time>
      </trkpt>
      <trkpt lat="46.57336" lon="5.37972">
        <ele>202.4</ele>
        <time>2021-10-07T13:57:23Z</time>
      </trkpt>
      <trkpt lat="46.57329" lon="5.37957">
        <ele>203</ele>
        <time>2021-10-07T13:57:25Z</time>
      </trkpt>
      <trkpt lat="46.57322" lon="5.37942">
        <ele>203.6</ele>
        <time>2021-10-07T13:57:27Z</time>
      </trkpt>
      <trkpt lat="46.57314" lon="5.37926">
        <ele>204.6</ele>
        <time>2021-10-07T13:57:29Z</time>
      </trkpt>
      <trkpt lat="46.57311" lon="5.37919">
        <ele>205</ele>
        <time>2021-10-07T13:57:30Z</time>
      </trkpt>
      <trkpt lat="46.57307" lon="5.37911">
        <ele>205.6</ele>
        <time>2021-10-07T13:57:31Z</time>
      </trkpt>
      <trkpt lat="46.57299" lon="5.37896">
        <ele>206.4</ele>
        <time>2021-10-07T13:57:33Z</time>
      </trkpt>
      <trkpt lat="46.57291" lon="5.37881">
        <ele>206.8</ele>
        <time>2021-10-07T13:57:35Z</time>
      </trkpt>
      <trkpt lat="46.57284" lon="5.37866">
        <ele>207</ele>
        <time>2021-10-07T13:57:37Z</time>
      </trkpt>
      <trkpt lat="46.57276" lon="5.37852">
        <ele>207.2</ele>
        <time>2021-10-07T13:57:39Z</time>
      </trkpt>
      <trkpt lat="46.57269" lon="5.37839">
        <ele>207.4</ele>
        <time>2021-10-07T13:57:41Z</time>
      </trkpt>
      <trkpt lat="46.57263" lon="5.37826">
        <ele>207.8</ele>
        <time>2021-10-07T13:57:43Z</time>
      </trkpt>
      <trkpt lat="46.57257" lon="5.37813">
        <ele>208.4</ele>
        <time>2021-10-07T13:57:45Z</time>
      </trkpt>
      <trkpt lat="46.57253" lon="5.37807">
        <ele>209</ele>
        <time>2021-10-07T13:57:46Z</time>
      </trkpt>
      <trkpt lat="46.5725" lon="5.378">
        <ele>209.6</ele>
        <time>2021-10-07T13:57:47Z</time>
      </trkpt>
      <trkpt lat="46.57244" lon="5.37788">
        <ele>210.2</ele>
        <time>2021-10-07T13:57:49Z</time>
      </trkpt>
      <trkpt lat="46.57241" lon="5.37782">
        <ele>210.6</ele>
        <time>2021-10-07T13:57:50Z</time>
      </trkpt>
      <trkpt lat="46.57238" lon="5.37776">
        <ele>211.2</ele>
        <time>2021-10-07T13:57:51Z</time>
      </trkpt>
      <trkpt lat="46.57233" lon="5.37764">
        <ele>212</ele>
        <time>2021-10-07T13:57:53Z</time>
      </trkpt>
      <trkpt lat="46.57231" lon="5.37759">
        <ele>212.4</ele>
        <time>2021-10-07T13:57:54Z</time>
      </trkpt>
      <trkpt lat="46.5723" lon="5.37753">
        <ele>212.6</ele>
        <time>2021-10-07T13:57:55Z</time>
      </trkpt>
      <trkpt lat="46.57229" lon="5.37743">
        <ele>213</ele>
        <time>2021-10-07T13:57:57Z</time>
      </trkpt>
      <trkpt lat="46.57226" lon="5.37741">
        <ele>213.2</ele>
        <time>2021-10-07T13:57:58Z</time>
      </trkpt>
      <trkpt lat="46.57222" lon="5.37742">
        <ele>213.4</ele>
        <time>2021-10-07T13:57:59Z</time>
      </trkpt>
      <trkpt lat="46.57216" lon="5.37749">
        <ele>213.8</ele>
        <time>2021-10-07T13:58:01Z</time>
      </trkpt>
      <trkpt lat="46.57211" lon="5.37754">
        <ele>214</ele>
        <time>2021-10-07T13:58:02Z</time>
      </trkpt>
      <trkpt lat="46.57207" lon="5.37759">
        <ele>214.2</ele>
        <time>2021-10-07T13:58:03Z</time>
      </trkpt>
      <trkpt lat="46.57198" lon="5.3777">
        <ele>214.2</ele>
        <time>2021-10-07T13:58:05Z</time>
      </trkpt>
      <trkpt lat="46.57188" lon="5.37782">
        <ele>214.4</ele>
        <time>2021-10-07T13:58:07Z</time>
      </trkpt>
      <trkpt lat="46.57178" lon="5.37795">
        <ele>214.4</ele>
        <time>2021-10-07T13:58:09Z</time>
      </trkpt>
      <trkpt lat="46.57166" lon="5.37808">
        <ele>214.4</ele>
        <time>2021-10-07T13:58:11Z</time>
      </trkpt>
      <trkpt lat="46.57154" lon="5.37822">
        <ele>214.2</ele>
        <time>2021-10-07T13:58:13Z</time>
      </trkpt>
      <trkpt lat="46.5714" lon="5.37835">
        <ele>214.2</ele>
        <time>2021-10-07T13:58:15Z</time>
      </trkpt>
      <trkpt lat="46.57125" lon="5.37849">
        <ele>213.8</ele>
        <time>2021-10-07T13:58:17Z</time>
      </trkpt>
      <trkpt lat="46.5711" lon="5.37864">
        <ele>213.4</ele>
        <time>2021-10-07T13:58:19Z</time>
      </trkpt>
      <trkpt lat="46.57102" lon="5.37871">
        <ele>213</ele>
        <time>2021-10-07T13:58:20Z</time>
      </trkpt>
      <trkpt lat="46.57093" lon="5.37878">
        <ele>212.8</ele>
        <time>2021-10-07T13:58:21Z</time>
      </trkpt>
      <trkpt lat="46.57078" lon="5.37891">
        <ele>212</ele>
        <time>2021-10-07T13:58:23Z</time>
      </trkpt>
      <trkpt lat="46.5707" lon="5.37898">
        <ele>211.6</ele>
        <time>2021-10-07T13:58:24Z</time>
      </trkpt>
      <trkpt lat="46.57062" lon="5.37904">
        <ele>211</ele>
        <time>2021-10-07T13:58:25Z</time>
      </trkpt>
      <trkpt lat="46.57055" lon="5.3791">
        <ele>210.2</ele>
        <time>2021-10-07T13:58:26Z</time>
      </trkpt>
      <trkpt lat="46.57047" lon="5.37917">
        <ele>210</ele>
        <time>2021-10-07T13:58:27Z</time>
      </trkpt>
      <trkpt lat="46.57032" lon="5.37929">
        <ele>209.6</ele>
        <time>2021-10-07T13:58:29Z</time>
      </trkpt>
      <trkpt lat="46.57018" lon="5.3794">
        <ele>209.4</ele>
        <time>2021-10-07T13:58:31Z</time>
      </trkpt>
      <trkpt lat="46.57004" lon="5.3795">
        <ele>209.4</ele>
        <time>2021-10-07T13:58:33Z</time>
      </trkpt>
      <trkpt lat="46.56997" lon="5.37955">
        <ele>209.4</ele>
        <time>2021-10-07T13:58:34Z</time>
      </trkpt>
      <trkpt lat="46.5699" lon="5.37959">
        <ele>209.4</ele>
        <time>2021-10-07T13:58:35Z</time>
      </trkpt>
      <trkpt lat="46.56977" lon="5.37969">
        <ele>209.4</ele>
        <time>2021-10-07T13:58:37Z</time>
      </trkpt>
      <trkpt lat="46.56963" lon="5.37978">
        <ele>209.8</ele>
        <time>2021-10-07T13:58:39Z</time>
      </trkpt>
      <trkpt lat="46.5695" lon="5.37984">
        <ele>210.2</ele>
        <time>2021-10-07T13:58:41Z</time>
      </trkpt>
      <trkpt lat="46.56943" lon="5.37986">
        <ele>210.2</ele>
        <time>2021-10-07T13:58:42Z</time>
      </trkpt>
      <trkpt lat="46.56936" lon="5.37987">
        <ele>210.4</ele>
        <time>2021-10-07T13:58:43Z</time>
      </trkpt>
      <trkpt lat="46.56923" lon="5.37987">
        <ele>211.2</ele>
        <time>2021-10-07T13:58:45Z</time>
      </trkpt>
      <trkpt lat="46.56916" lon="5.37986">
        <ele>211.4</ele>
        <time>2021-10-07T13:58:46Z</time>
      </trkpt>
      <trkpt lat="46.5691" lon="5.37985">
        <ele>211.6</ele>
        <time>2021-10-07T13:58:47Z</time>
      </trkpt>
      <trkpt lat="46.56898" lon="5.37981">
        <ele>212.2</ele>
        <time>2021-10-07T13:58:49Z</time>
      </trkpt>
      <trkpt lat="46.56886" lon="5.37979">
        <ele>212.4</ele>
        <time>2021-10-07T13:58:51Z</time>
      </trkpt>
      <trkpt lat="46.5688" lon="5.37978">
        <ele>212.6</ele>
        <time>2021-10-07T13:58:52Z</time>
      </trkpt>
      <trkpt lat="46.56874" lon="5.37977">
        <ele>213</ele>
        <time>2021-10-07T13:58:53Z</time>
      </trkpt>
      <trkpt lat="46.56862" lon="5.37975">
        <ele>213.8</ele>
        <time>2021-10-07T13:58:55Z</time>
      </trkpt>
      <trkpt lat="46.56849" lon="5.37972">
        <ele>214.2</ele>
        <time>2021-10-07T13:58:57Z</time>
      </trkpt>
      <trkpt lat="46.56835" lon="5.37969">
        <ele>215</ele>
        <time>2021-10-07T13:58:59Z</time>
      </trkpt>
      <trkpt lat="46.56819" lon="5.37965">
        <ele>215.4</ele>
        <time>2021-10-07T13:59:01Z</time>
      </trkpt>
      <trkpt lat="46.56803" lon="5.3796">
        <ele>215.6</ele>
        <time>2021-10-07T13:59:03Z</time>
      </trkpt>
      <trkpt lat="46.56788" lon="5.37956">
        <ele>215.8</ele>
        <time>2021-10-07T13:59:05Z</time>
      </trkpt>
      <trkpt lat="46.56772" lon="5.37952">
        <ele>216</ele>
        <time>2021-10-07T13:59:07Z</time>
      </trkpt>
      <trkpt lat="46.56764" lon="5.3795">
        <ele>216</ele>
        <time>2021-10-07T13:59:08Z</time>
      </trkpt>
      <trkpt lat="46.56757" lon="5.37947">
        <ele>216</ele>
        <time>2021-10-07T13:59:09Z</time>
      </trkpt>
      <trkpt lat="46.56741" lon="5.37943">
        <ele>216.2</ele>
        <time>2021-10-07T13:59:11Z</time>
      </trkpt>
      <trkpt lat="46.56726" lon="5.37939">
        <ele>216.2</ele>
        <time>2021-10-07T13:59:13Z</time>
      </trkpt>
      <trkpt lat="46.56719" lon="5.37937">
        <ele>216.2</ele>
        <time>2021-10-07T13:59:14Z</time>
      </trkpt>
      <trkpt lat="46.56712" lon="5.37935">
        <ele>216.2</ele>
        <time>2021-10-07T13:59:15Z</time>
      </trkpt>
      <trkpt lat="46.56697" lon="5.37932">
        <ele>216.2</ele>
        <time>2021-10-07T13:59:17Z</time>
      </trkpt>
      <trkpt lat="46.56682" lon="5.37929">
        <ele>216.2</ele>
        <time>2021-10-07T13:59:19Z</time>
      </trkpt>
      <trkpt lat="46.56668" lon="5.37925">
        <ele>216.4</ele>
        <time>2021-10-07T13:59:21Z</time>
      </trkpt>
      <trkpt lat="46.56661" lon="5.37923">
        <ele>216.4</ele>
        <time>2021-10-07T13:59:22Z</time>
      </trkpt>
      <trkpt lat="46.56654" lon="5.37921">
        <ele>216.8</ele>
        <time>2021-10-07T13:59:23Z</time>
      </trkpt>
      <trkpt lat="46.56639" lon="5.37918">
        <ele>217.2</ele>
        <time>2021-10-07T13:59:25Z</time>
      </trkpt>
      <trkpt lat="46.56625" lon="5.37915">
        <ele>217.4</ele>
        <time>2021-10-07T13:59:27Z</time>
      </trkpt>
      <trkpt lat="46.56617" lon="5.37914">
        <ele>217.4</ele>
        <time>2021-10-07T13:59:28Z</time>
      </trkpt>
      <trkpt lat="46.5661" lon="5.37913">
        <ele>217.4</ele>
        <time>2021-10-07T13:59:29Z</time>
      </trkpt>
      <trkpt lat="46.56595" lon="5.37912">
        <ele>217.6</ele>
        <time>2021-10-07T13:59:31Z</time>
      </trkpt>
      <trkpt lat="46.5658" lon="5.37912">
        <ele>217.6</ele>
        <time>2021-10-07T13:59:33Z</time>
      </trkpt>
      <trkpt lat="46.56565" lon="5.37915">
        <ele>217.8</ele>
        <time>2021-10-07T13:59:35Z</time>
      </trkpt>
      <trkpt lat="46.56549" lon="5.37923">
        <ele>217.8</ele>
        <time>2021-10-07T13:59:37Z</time>
      </trkpt>
      <trkpt lat="46.56534" lon="5.37934">
        <ele>217.8</ele>
        <time>2021-10-07T13:59:39Z</time>
      </trkpt>
      <trkpt lat="46.56518" lon="5.37943">
        <ele>217.8</ele>
        <time>2021-10-07T13:59:41Z</time>
      </trkpt>
      <trkpt lat="46.56501" lon="5.37948">
        <ele>217.8</ele>
        <time>2021-10-07T13:59:43Z</time>
      </trkpt>
      <trkpt lat="46.56484" lon="5.37946">
        <ele>217.8</ele>
        <time>2021-10-07T13:59:45Z</time>
      </trkpt>
      <trkpt lat="46.56475" lon="5.37944">
        <ele>217.6</ele>
        <time>2021-10-07T13:59:46Z</time>
      </trkpt>
      <trkpt lat="46.56466" lon="5.37942">
        <ele>217.6</ele>
        <time>2021-10-07T13:59:47Z</time>
      </trkpt>
      <trkpt lat="46.56447" lon="5.37937">
        <ele>217.2</ele>
        <time>2021-10-07T13:59:49Z</time>
      </trkpt>
      <trkpt lat="46.56429" lon="5.37932">
        <ele>216.8</ele>
        <time>2021-10-07T13:59:51Z</time>
      </trkpt>
      <trkpt lat="46.5641" lon="5.37928">
        <ele>216.6</ele>
        <time>2021-10-07T13:59:53Z</time>
      </trkpt>
      <trkpt lat="46.564" lon="5.37927">
        <ele>216.4</ele>
        <time>2021-10-07T13:59:54Z</time>
      </trkpt>
      <trkpt lat="46.56391" lon="5.37927">
        <ele>216.4</ele>
        <time>2021-10-07T13:59:55Z</time>
      </trkpt>
      <trkpt lat="46.56371" lon="5.37934">
        <ele>216.2</ele>
        <time>2021-10-07T13:59:57Z</time>
      </trkpt>
      <trkpt lat="46.56362" lon="5.37939">
        <ele>216</ele>
        <time>2021-10-07T13:59:58Z</time>
      </trkpt>
      <trkpt lat="46.56352" lon="5.37944">
        <ele>215.6</ele>
        <time>2021-10-07T13:59:59Z</time>
      </trkpt>
      <trkpt lat="46.56342" lon="5.37948">
        <ele>215.2</ele>
        <time>2021-10-07T14:00:00Z</time>
      </trkpt>
      <trkpt lat="46.56332" lon="5.3795">
        <ele>215</ele>
        <time>2021-10-07T14:00:01Z</time>
      </trkpt>
      <trkpt lat="46.56321" lon="5.37949">
        <ele>214.8</ele>
        <time>2021-10-07T14:00:02Z</time>
      </trkpt>
      <trkpt lat="46.56311" lon="5.37948">
        <ele>214.6</ele>
        <time>2021-10-07T14:00:03Z</time>
      </trkpt>
      <trkpt lat="46.5629" lon="5.37948">
        <ele>214.4</ele>
        <time>2021-10-07T14:00:05Z</time>
      </trkpt>
      <trkpt lat="46.56269" lon="5.37955">
        <ele>214</ele>
        <time>2021-10-07T14:00:07Z</time>
      </trkpt>
      <trkpt lat="46.56259" lon="5.3796">
        <ele>213.8</ele>
        <time>2021-10-07T14:00:08Z</time>
      </trkpt>
      <trkpt lat="46.5625" lon="5.37964">
        <ele>213.8</ele>
        <time>2021-10-07T14:00:09Z</time>
      </trkpt>
      <trkpt lat="46.5623" lon="5.37974">
        <ele>213.6</ele>
        <time>2021-10-07T14:00:11Z</time>
      </trkpt>
      <trkpt lat="46.56212" lon="5.37986">
        <ele>213.2</ele>
        <time>2021-10-07T14:00:13Z</time>
      </trkpt>
      <trkpt lat="46.56197" lon="5.38004">
        <ele>213.2</ele>
        <time>2021-10-07T14:00:15Z</time>
      </trkpt>
      <trkpt lat="46.5619" lon="5.38014">
        <ele>213</ele>
        <time>2021-10-07T14:00:16Z</time>
      </trkpt>
      <trkpt lat="46.56185" lon="5.38025">
        <ele>213</ele>
        <time>2021-10-07T14:00:17Z</time>
      </trkpt>
      <trkpt lat="46.56173" lon="5.38047">
        <ele>212.8</ele>
        <time>2021-10-07T14:00:19Z</time>
      </trkpt>
      <trkpt lat="46.56161" lon="5.3807">
        <ele>212.8</ele>
        <time>2021-10-07T14:00:21Z</time>
      </trkpt>
      <trkpt lat="46.56155" lon="5.3808">
        <ele>212.8</ele>
        <time>2021-10-07T14:00:22Z</time>
      </trkpt>
      <trkpt lat="46.56147" lon="5.3809">
        <ele>212.8</ele>
        <time>2021-10-07T14:00:23Z</time>
      </trkpt>
      <trkpt lat="46.56131" lon="5.38107">
        <ele>212.8</ele>
        <time>2021-10-07T14:00:25Z</time>
      </trkpt>
      <trkpt lat="46.56122" lon="5.38114">
        <ele>212.8</ele>
        <time>2021-10-07T14:00:26Z</time>
      </trkpt>
      <trkpt lat="46.56114" lon="5.38121">
        <ele>213.2</ele>
        <time>2021-10-07T14:00:27Z</time>
      </trkpt>
      <trkpt lat="46.56097" lon="5.38133">
        <ele>213.4</ele>
        <time>2021-10-07T14:00:29Z</time>
      </trkpt>
      <trkpt lat="46.5608" lon="5.38145">
        <ele>213.6</ele>
        <time>2021-10-07T14:00:31Z</time>
      </trkpt>
      <trkpt lat="46.56072" lon="5.38151">
        <ele>213.6</ele>
        <time>2021-10-07T14:00:32Z</time>
      </trkpt>
      <trkpt lat="46.56065" lon="5.38156">
        <ele>213.8</ele>
        <time>2021-10-07T14:00:33Z</time>
      </trkpt>
      <trkpt lat="46.56057" lon="5.38162">
        <ele>214.2</ele>
        <time>2021-10-07T14:00:34Z</time>
      </trkpt>
      <trkpt lat="46.5605" lon="5.38167">
        <ele>214.4</ele>
        <time>2021-10-07T14:00:35Z</time>
      </trkpt>
      <trkpt lat="46.56035" lon="5.38178">
        <ele>215</ele>
        <time>2021-10-07T14:00:37Z</time>
      </trkpt>
      <trkpt lat="46.56028" lon="5.38184">
        <ele>215</ele>
        <time>2021-10-07T14:00:38Z</time>
      </trkpt>
      <trkpt lat="46.56021" lon="5.38192">
        <ele>215.2</ele>
        <time>2021-10-07T14:00:39Z</time>
      </trkpt>
      <trkpt lat="46.56015" lon="5.382">
        <ele>215.2</ele>
        <time>2021-10-07T14:00:40Z</time>
      </trkpt>
      <trkpt lat="46.5601" lon="5.38209">
        <ele>215.2</ele>
        <time>2021-10-07T14:00:41Z</time>
      </trkpt>
      <trkpt lat="46.56007" lon="5.3822">
        <ele>215.4</ele>
        <time>2021-10-07T14:00:42Z</time>
      </trkpt>
      <trkpt lat="46.56004" lon="5.38231">
        <ele>215.4</ele>
        <time>2021-10-07T14:00:43Z</time>
      </trkpt>
      <trkpt lat="46.56002" lon="5.38243">
        <ele>215.4</ele>
        <time>2021-10-07T14:00:44Z</time>
      </trkpt>
      <trkpt lat="46.56001" lon="5.38254">
        <ele>215.4</ele>
        <time>2021-10-07T14:00:45Z</time>
      </trkpt>
      <trkpt lat="46.55998" lon="5.38277">
        <ele>215.4</ele>
        <time>2021-10-07T14:00:47Z</time>
      </trkpt>
      <trkpt lat="46.55995" lon="5.38299">
        <ele>215.6</ele>
        <time>2021-10-07T14:00:49Z</time>
      </trkpt>
      <trkpt lat="46.55992" lon="5.3832">
        <ele>215.6</ele>
        <time>2021-10-07T14:00:51Z</time>
      </trkpt>
      <trkpt lat="46.55988" lon="5.3834">
        <ele>215.6</ele>
        <time>2021-10-07T14:00:53Z</time>
      </trkpt>
      <trkpt lat="46.55987" lon="5.3835">
        <ele>215.6</ele>
        <time>2021-10-07T14:00:54Z</time>
      </trkpt>
      <trkpt lat="46.55985" lon="5.3836">
        <ele>215.6</ele>
        <time>2021-10-07T14:00:55Z</time>
      </trkpt>
      <trkpt lat="46.55983" lon="5.3838">
        <ele>215.8</ele>
        <time>2021-10-07T14:00:57Z</time>
      </trkpt>
      <trkpt lat="46.5598" lon="5.384">
        <ele>216</ele>
        <time>2021-10-07T14:00:59Z</time>
      </trkpt>
      <trkpt lat="46.55978" lon="5.38419">
        <ele>216.2</ele>
        <time>2021-10-07T14:01:01Z</time>
      </trkpt>
      <trkpt lat="46.55977" lon="5.38428">
        <ele>216.2</ele>
        <time>2021-10-07T14:01:02Z</time>
      </trkpt>
      <trkpt lat="46.55976" lon="5.38437">
        <ele>216.4</ele>
        <time>2021-10-07T14:01:03Z</time>
      </trkpt>
      <trkpt lat="46.55975" lon="5.38455">
        <ele>217.2</ele>
        <time>2021-10-07T14:01:05Z</time>
      </trkpt>
      <trkpt lat="46.55976" lon="5.38473">
        <ele>217.6</ele>
        <time>2021-10-07T14:01:07Z</time>
      </trkpt>
      <trkpt lat="46.55976" lon="5.38482">
        <ele>217.6</ele>
        <time>2021-10-07T14:01:08Z</time>
      </trkpt>
      <trkpt lat="46.55976" lon="5.38492">
        <ele>217.8</ele>
        <time>2021-10-07T14:01:09Z</time>
      </trkpt>
      <trkpt lat="46.55978" lon="5.38512">
        <ele>218.4</ele>
        <time>2021-10-07T14:01:11Z</time>
      </trkpt>
      <trkpt lat="46.5598" lon="5.38533">
        <ele>218.6</ele>
        <time>2021-10-07T14:01:13Z</time>
      </trkpt>
      <trkpt lat="46.5598" lon="5.38543">
        <ele>218.6</ele>
        <time>2021-10-07T14:01:14Z</time>
      </trkpt>
      <trkpt lat="46.55981" lon="5.38554">
        <ele>218.6</ele>
        <time>2021-10-07T14:01:15Z</time>
      </trkpt>
      <trkpt lat="46.55984" lon="5.38576">
        <ele>218.6</ele>
        <time>2021-10-07T14:01:17Z</time>
      </trkpt>
      <trkpt lat="46.55987" lon="5.38597">
        <ele>218.6</ele>
        <time>2021-10-07T14:01:19Z</time>
      </trkpt>
      <trkpt lat="46.5599" lon="5.38617">
        <ele>218.6</ele>
        <time>2021-10-07T14:01:21Z</time>
      </trkpt>
      <trkpt lat="46.55993" lon="5.38638">
        <ele>218.4</ele>
        <time>2021-10-07T14:01:23Z</time>
      </trkpt>
      <trkpt lat="46.55995" lon="5.38658">
        <ele>218.4</ele>
        <time>2021-10-07T14:01:25Z</time>
      </trkpt>
      <trkpt lat="46.55996" lon="5.38678">
        <ele>218.4</ele>
        <time>2021-10-07T14:01:27Z</time>
      </trkpt>
      <trkpt lat="46.55997" lon="5.38688">
        <ele>218.4</ele>
        <time>2021-10-07T14:01:28Z</time>
      </trkpt>
      <trkpt lat="46.55997" lon="5.38698">
        <ele>218.4</ele>
        <time>2021-10-07T14:01:29Z</time>
      </trkpt>
      <trkpt lat="46.55999" lon="5.38719">
        <ele>218.4</ele>
        <time>2021-10-07T14:01:31Z</time>
      </trkpt>
      <trkpt lat="46.56002" lon="5.38741">
        <ele>218.8</ele>
        <time>2021-10-07T14:01:33Z</time>
      </trkpt>
      <trkpt lat="46.56004" lon="5.38752">
        <ele>218.8</ele>
        <time>2021-10-07T14:01:34Z</time>
      </trkpt>
      <trkpt lat="46.56005" lon="5.38764">
        <ele>218.8</ele>
        <time>2021-10-07T14:01:35Z</time>
      </trkpt>
      <trkpt lat="46.56006" lon="5.38789">
        <ele>218.8</ele>
        <time>2021-10-07T14:01:37Z</time>
      </trkpt>
      <trkpt lat="46.56006" lon="5.38803">
        <ele>218.8</ele>
        <time>2021-10-07T14:01:38Z</time>
      </trkpt>
      <trkpt lat="46.56004" lon="5.38817">
        <ele>218.8</ele>
        <time>2021-10-07T14:01:39Z</time>
      </trkpt>
      <trkpt lat="46.56" lon="5.38845">
        <ele>218.8</ele>
        <time>2021-10-07T14:01:41Z</time>
      </trkpt>
      <trkpt lat="46.55997" lon="5.38859">
        <ele>218</ele>
        <time>2021-10-07T14:01:42Z</time>
      </trkpt>
      <trkpt lat="46.55994" lon="5.38872">
        <ele>217.2</ele>
        <time>2021-10-07T14:01:43Z</time>
      </trkpt>
      <trkpt lat="46.55987" lon="5.38898">
        <ele>215.6</ele>
        <time>2021-10-07T14:01:45Z</time>
      </trkpt>
      <trkpt lat="46.55978" lon="5.38923">
        <ele>214.4</ele>
        <time>2021-10-07T14:01:47Z</time>
      </trkpt>
      <trkpt lat="46.55974" lon="5.38935">
        <ele>213.8</ele>
        <time>2021-10-07T14:01:48Z</time>
      </trkpt>
      <trkpt lat="46.55969" lon="5.38947">
        <ele>213.6</ele>
        <time>2021-10-07T14:01:49Z</time>
      </trkpt>
      <trkpt lat="46.55965" lon="5.38959">
        <ele>213.2</ele>
        <time>2021-10-07T14:01:50Z</time>
      </trkpt>
      <trkpt lat="46.55961" lon="5.3897">
        <ele>213.2</ele>
        <time>2021-10-07T14:01:51Z</time>
      </trkpt>
      <trkpt lat="46.55953" lon="5.38993">
        <ele>213</ele>
        <time>2021-10-07T14:01:53Z</time>
      </trkpt>
      <trkpt lat="46.55947" lon="5.39014">
        <ele>212.8</ele>
        <time>2021-10-07T14:01:55Z</time>
      </trkpt>
      <trkpt lat="46.55943" lon="5.39035">
        <ele>212.8</ele>
        <time>2021-10-07T14:01:57Z</time>
      </trkpt>
      <trkpt lat="46.5594" lon="5.39054">
        <ele>212.8</ele>
        <time>2021-10-07T14:01:59Z</time>
      </trkpt>
      <trkpt lat="46.55939" lon="5.39063">
        <ele>212.8</ele>
        <time>2021-10-07T14:02:00Z</time>
      </trkpt>
      <trkpt lat="46.55938" lon="5.39072">
        <ele>213</ele>
        <time>2021-10-07T14:02:01Z</time>
      </trkpt>
      <trkpt lat="46.55937" lon="5.3909">
        <ele>213.2</ele>
        <time>2021-10-07T14:02:03Z</time>
      </trkpt>
      <trkpt lat="46.55936" lon="5.39106">
        <ele>213.4</ele>
        <time>2021-10-07T14:02:05Z</time>
      </trkpt>
      <trkpt lat="46.55935" lon="5.39123">
        <ele>214</ele>
        <time>2021-10-07T14:02:07Z</time>
      </trkpt>
      <trkpt lat="46.55935" lon="5.39132">
        <ele>214.2</ele>
        <time>2021-10-07T14:02:08Z</time>
      </trkpt>
      <trkpt lat="46.55934" lon="5.39141">
        <ele>214.8</ele>
        <time>2021-10-07T14:02:09Z</time>
      </trkpt>
      <trkpt lat="46.55934" lon="5.3915">
        <ele>216</ele>
        <time>2021-10-07T14:02:10Z</time>
      </trkpt>
      <trkpt lat="46.55934" lon="5.3916">
        <ele>216.8</ele>
        <time>2021-10-07T14:02:11Z</time>
      </trkpt>
      <trkpt lat="46.55934" lon="5.3917">
        <ele>217.4</ele>
        <time>2021-10-07T14:02:12Z</time>
      </trkpt>
      <trkpt lat="46.55934" lon="5.3918">
        <ele>218</ele>
        <time>2021-10-07T14:02:13Z</time>
      </trkpt>
      <trkpt lat="46.55933" lon="5.39199">
        <ele>218.8</ele>
        <time>2021-10-07T14:02:15Z</time>
      </trkpt>
      <trkpt lat="46.55933" lon="5.39218">
        <ele>219.2</ele>
        <time>2021-10-07T14:02:17Z</time>
      </trkpt>
      <trkpt lat="46.55932" lon="5.39237">
        <ele>219.4</ele>
        <time>2021-10-07T14:02:19Z</time>
      </trkpt>
      <trkpt lat="46.5593" lon="5.39256">
        <ele>219.6</ele>
        <time>2021-10-07T14:02:21Z</time>
      </trkpt>
      <trkpt lat="46.55929" lon="5.39265">
        <ele>219.8</ele>
        <time>2021-10-07T14:02:22Z</time>
      </trkpt>
      <trkpt lat="46.55928" lon="5.39275">
        <ele>220</ele>
        <time>2021-10-07T14:02:23Z</time>
      </trkpt>
      <trkpt lat="46.55926" lon="5.39293">
        <ele>220.4</ele>
        <time>2021-10-07T14:02:25Z</time>
      </trkpt>
      <trkpt lat="46.55923" lon="5.39311">
        <ele>220.6</ele>
        <time>2021-10-07T14:02:27Z</time>
      </trkpt>
      <trkpt lat="46.55921" lon="5.3933">
        <ele>220.8</ele>
        <time>2021-10-07T14:02:29Z</time>
      </trkpt>
      <trkpt lat="46.55919" lon="5.39348">
        <ele>221</ele>
        <time>2021-10-07T14:02:31Z</time>
      </trkpt>
      <trkpt lat="46.55917" lon="5.39367">
        <ele>221.2</ele>
        <time>2021-10-07T14:02:33Z</time>
      </trkpt>
      <trkpt lat="46.55916" lon="5.39376">
        <ele>221.2</ele>
        <time>2021-10-07T14:02:34Z</time>
      </trkpt>
      <trkpt lat="46.55915" lon="5.39385">
        <ele>221.4</ele>
        <time>2021-10-07T14:02:35Z</time>
      </trkpt>
      <trkpt lat="46.55913" lon="5.39403">
        <ele>221.6</ele>
        <time>2021-10-07T14:02:37Z</time>
      </trkpt>
      <trkpt lat="46.55911" lon="5.39421">
        <ele>221.6</ele>
        <time>2021-10-07T14:02:39Z</time>
      </trkpt>
      <trkpt lat="46.55909" lon="5.39439">
        <ele>221.8</ele>
        <time>2021-10-07T14:02:41Z</time>
      </trkpt>
      <trkpt lat="46.55907" lon="5.39456">
        <ele>221.8</ele>
        <time>2021-10-07T14:02:43Z</time>
      </trkpt>
      <trkpt lat="46.55905" lon="5.39474">
        <ele>221.8</ele>
        <time>2021-10-07T14:02:45Z</time>
      </trkpt>
      <trkpt lat="46.55903" lon="5.39491">
        <ele>222</ele>
        <time>2021-10-07T14:02:47Z</time>
      </trkpt>
      <trkpt lat="46.55901" lon="5.39509">
        <ele>222</ele>
        <time>2021-10-07T14:02:49Z</time>
      </trkpt>
      <trkpt lat="46.55899" lon="5.39527">
        <ele>222</ele>
        <time>2021-10-07T14:02:51Z</time>
      </trkpt>
      <trkpt lat="46.55897" lon="5.39545">
        <ele>222</ele>
        <time>2021-10-07T14:02:53Z</time>
      </trkpt>
      <trkpt lat="46.55896" lon="5.39555">
        <ele>222.2</ele>
        <time>2021-10-07T14:02:54Z</time>
      </trkpt>
      <trkpt lat="46.55895" lon="5.39564">
        <ele>222.4</ele>
        <time>2021-10-07T14:02:55Z</time>
      </trkpt>
      <trkpt lat="46.55894" lon="5.39573">
        <ele>222.6</ele>
        <time>2021-10-07T14:02:56Z</time>
      </trkpt>
      <trkpt lat="46.55892" lon="5.39582">
        <ele>222.8</ele>
        <time>2021-10-07T14:02:57Z</time>
      </trkpt>
      <trkpt lat="46.5589" lon="5.396">
        <ele>223</ele>
        <time>2021-10-07T14:02:59Z</time>
      </trkpt>
      <trkpt lat="46.55887" lon="5.39618">
        <ele>223.2</ele>
        <time>2021-10-07T14:03:01Z</time>
      </trkpt>
      <trkpt lat="46.55884" lon="5.39636">
        <ele>223.2</ele>
        <time>2021-10-07T14:03:03Z</time>
      </trkpt>
      <trkpt lat="46.55882" lon="5.39645">
        <ele>223.2</ele>
        <time>2021-10-07T14:03:04Z</time>
      </trkpt>
      <trkpt lat="46.5588" lon="5.39654">
        <ele>223.4</ele>
        <time>2021-10-07T14:03:05Z</time>
      </trkpt>
      <trkpt lat="46.55878" lon="5.39662">
        <ele>223.4</ele>
        <time>2021-10-07T14:03:06Z</time>
      </trkpt>
      <trkpt lat="46.55876" lon="5.39671">
        <ele>223.6</ele>
        <time>2021-10-07T14:03:07Z</time>
      </trkpt>
      <trkpt lat="46.55872" lon="5.39688">
        <ele>223.6</ele>
        <time>2021-10-07T14:03:09Z</time>
      </trkpt>
      <trkpt lat="46.55867" lon="5.39706">
        <ele>223.8</ele>
        <time>2021-10-07T14:03:11Z</time>
      </trkpt>
      <trkpt lat="46.55862" lon="5.39723">
        <ele>223.8</ele>
        <time>2021-10-07T14:03:13Z</time>
      </trkpt>
      <trkpt lat="46.55858" lon="5.3974">
        <ele>224</ele>
        <time>2021-10-07T14:03:15Z</time>
      </trkpt>
      <trkpt lat="46.55855" lon="5.39749">
        <ele>224.4</ele>
        <time>2021-10-07T14:03:16Z</time>
      </trkpt>
      <trkpt lat="46.55853" lon="5.39758">
        <ele>224.4</ele>
        <time>2021-10-07T14:03:17Z</time>
      </trkpt>
      <trkpt lat="46.55849" lon="5.39775">
        <ele>224.6</ele>
        <time>2021-10-07T14:03:19Z</time>
      </trkpt>
      <trkpt lat="46.55844" lon="5.39792">
        <ele>224.8</ele>
        <time>2021-10-07T14:03:21Z</time>
      </trkpt>
      <trkpt lat="46.5584" lon="5.39809">
        <ele>225</ele>
        <time>2021-10-07T14:03:23Z</time>
      </trkpt>
      <trkpt lat="46.55835" lon="5.39827">
        <ele>225.4</ele>
        <time>2021-10-07T14:03:25Z</time>
      </trkpt>
      <trkpt lat="46.55833" lon="5.39836">
        <ele>225.6</ele>
        <time>2021-10-07T14:03:26Z</time>
      </trkpt>
      <trkpt lat="46.55831" lon="5.39846">
        <ele>225.8</ele>
        <time>2021-10-07T14:03:27Z</time>
      </trkpt>
      <trkpt lat="46.55827" lon="5.39866">
        <ele>226.2</ele>
        <time>2021-10-07T14:03:29Z</time>
      </trkpt>
      <trkpt lat="46.55822" lon="5.39886">
        <ele>226.4</ele>
        <time>2021-10-07T14:03:31Z</time>
      </trkpt>
      <trkpt lat="46.55819" lon="5.39896">
        <ele>226.4</ele>
        <time>2021-10-07T14:03:32Z</time>
      </trkpt>
      <trkpt lat="46.55816" lon="5.39905">
        <ele>226.4</ele>
        <time>2021-10-07T14:03:33Z</time>
      </trkpt>
      <trkpt lat="46.55805" lon="5.39916">
        <ele>226.6</ele>
        <time>2021-10-07T14:03:35Z</time>
      </trkpt>
      <trkpt lat="46.55793" lon="5.39912">
        <ele>226.8</ele>
        <time>2021-10-07T14:03:37Z</time>
      </trkpt>
      <trkpt lat="46.55787" lon="5.39907">
        <ele>226.6</ele>
        <time>2021-10-07T14:03:38Z</time>
      </trkpt>
      <trkpt lat="46.55781" lon="5.39901">
        <ele>226.6</ele>
        <time>2021-10-07T14:03:39Z</time>
      </trkpt>
      <trkpt lat="46.55769" lon="5.3989">
        <ele>226.6</ele>
        <time>2021-10-07T14:03:41Z</time>
      </trkpt>
      <trkpt lat="46.55756" lon="5.3988">
        <ele>226.6</ele>
        <time>2021-10-07T14:03:43Z</time>
      </trkpt>
      <trkpt lat="46.55744" lon="5.3987">
        <ele>226.6</ele>
        <time>2021-10-07T14:03:45Z</time>
      </trkpt>
      <trkpt lat="46.55733" lon="5.39859">
        <ele>226.8</ele>
        <time>2021-10-07T14:03:47Z</time>
      </trkpt>
      <trkpt lat="46.55722" lon="5.39848">
        <ele>227</ele>
        <time>2021-10-07T14:03:49Z</time>
      </trkpt>
      <trkpt lat="46.55712" lon="5.39838">
        <ele>227.2</ele>
        <time>2021-10-07T14:03:51Z</time>
      </trkpt>
      <trkpt lat="46.55702" lon="5.39827">
        <ele>228</ele>
        <time>2021-10-07T14:03:53Z</time>
      </trkpt>
      <trkpt lat="46.55691" lon="5.39817">
        <ele>228.8</ele>
        <time>2021-10-07T14:03:55Z</time>
      </trkpt>
      <trkpt lat="46.55686" lon="5.39812">
        <ele>229.2</ele>
        <time>2021-10-07T14:03:56Z</time>
      </trkpt>
      <trkpt lat="46.5568" lon="5.39807">
        <ele>229.6</ele>
        <time>2021-10-07T14:03:57Z</time>
      </trkpt>
      <trkpt lat="46.55668" lon="5.39798">
        <ele>230</ele>
        <time>2021-10-07T14:03:59Z</time>
      </trkpt>
      <trkpt lat="46.55662" lon="5.39793">
        <ele>230.4</ele>
        <time>2021-10-07T14:04:00Z</time>
      </trkpt>
      <trkpt lat="46.55656" lon="5.39789">
        <ele>230.6</ele>
        <time>2021-10-07T14:04:01Z</time>
      </trkpt>
      <trkpt lat="46.55649" lon="5.39784">
        <ele>230.8</ele>
        <time>2021-10-07T14:04:02Z</time>
      </trkpt>
      <trkpt lat="46.55641" lon="5.39779">
        <ele>230.8</ele>
        <time>2021-10-07T14:04:03Z</time>
      </trkpt>
      <trkpt lat="46.55626" lon="5.39769">
        <ele>231</ele>
        <time>2021-10-07T14:04:05Z</time>
      </trkpt>
      <trkpt lat="46.55609" lon="5.39757">
        <ele>231</ele>
        <time>2021-10-07T14:04:07Z</time>
      </trkpt>
      <trkpt lat="46.55601" lon="5.39751">
        <ele>231</ele>
        <time>2021-10-07T14:04:08Z</time>
      </trkpt>
      <trkpt lat="46.55593" lon="5.39745">
        <ele>231</ele>
        <time>2021-10-07T14:04:09Z</time>
      </trkpt>
      <trkpt lat="46.55577" lon="5.39732">
        <ele>230.8</ele>
        <time>2021-10-07T14:04:11Z</time>
      </trkpt>
      <trkpt lat="46.55561" lon="5.39718">
        <ele>230.2</ele>
        <time>2021-10-07T14:04:13Z</time>
      </trkpt>
      <trkpt lat="46.55546" lon="5.39705">
        <ele>229.4</ele>
        <time>2021-10-07T14:04:15Z</time>
      </trkpt>
      <trkpt lat="46.55539" lon="5.39699">
        <ele>229.4</ele>
        <time>2021-10-07T14:04:16Z</time>
      </trkpt>
      <trkpt lat="46.55532" lon="5.39693">
        <ele>229.2</ele>
        <time>2021-10-07T14:04:17Z</time>
      </trkpt>
      <trkpt lat="46.55518" lon="5.39681">
        <ele>229.2</ele>
        <time>2021-10-07T14:04:19Z</time>
      </trkpt>
      <trkpt lat="46.55503" lon="5.3967">
        <ele>229.2</ele>
        <time>2021-10-07T14:04:21Z</time>
      </trkpt>
      <trkpt lat="46.55487" lon="5.39658">
        <ele>229.2</ele>
        <time>2021-10-07T14:04:23Z</time>
      </trkpt>
      <trkpt lat="46.5548" lon="5.39651">
        <ele>229.4</ele>
        <time>2021-10-07T14:04:24Z</time>
      </trkpt>
      <trkpt lat="46.55472" lon="5.39645">
        <ele>229.6</ele>
        <time>2021-10-07T14:04:25Z</time>
      </trkpt>
      <trkpt lat="46.55457" lon="5.39632">
        <ele>229.8</ele>
        <time>2021-10-07T14:04:27Z</time>
      </trkpt>
      <trkpt lat="46.55443" lon="5.3962">
        <ele>230.2</ele>
        <time>2021-10-07T14:04:29Z</time>
      </trkpt>
      <trkpt lat="46.55429" lon="5.39608">
        <ele>230.2</ele>
        <time>2021-10-07T14:04:31Z</time>
      </trkpt>
      <trkpt lat="46.55416" lon="5.39597">
        <ele>230.4</ele>
        <time>2021-10-07T14:04:33Z</time>
      </trkpt>
      <trkpt lat="46.55403" lon="5.39586">
        <ele>230.6</ele>
        <time>2021-10-07T14:04:35Z</time>
      </trkpt>
      <trkpt lat="46.5539" lon="5.39575">
        <ele>230.6</ele>
        <time>2021-10-07T14:04:37Z</time>
      </trkpt>
      <trkpt lat="46.55377" lon="5.39564">
        <ele>231.2</ele>
        <time>2021-10-07T14:04:39Z</time>
      </trkpt>
      <trkpt lat="46.5537" lon="5.39558">
        <ele>231.6</ele>
        <time>2021-10-07T14:04:40Z</time>
      </trkpt>
      <trkpt lat="46.55364" lon="5.39553">
        <ele>232.2</ele>
        <time>2021-10-07T14:04:41Z</time>
      </trkpt>
      <trkpt lat="46.5535" lon="5.39542">
        <ele>232.6</ele>
        <time>2021-10-07T14:04:43Z</time>
      </trkpt>
      <trkpt lat="46.55343" lon="5.39536">
        <ele>233</ele>
        <time>2021-10-07T14:04:44Z</time>
      </trkpt>
      <trkpt lat="46.55336" lon="5.3953">
        <ele>233</ele>
        <time>2021-10-07T14:04:45Z</time>
      </trkpt>
      <trkpt lat="46.55322" lon="5.39519">
        <ele>233.4</ele>
        <time>2021-10-07T14:04:47Z</time>
      </trkpt>
      <trkpt lat="46.55308" lon="5.39508">
        <ele>233.4</ele>
        <time>2021-10-07T14:04:49Z</time>
      </trkpt>
      <trkpt lat="46.55293" lon="5.39497">
        <ele>233.6</ele>
        <time>2021-10-07T14:04:51Z</time>
      </trkpt>
      <trkpt lat="46.55286" lon="5.39492">
        <ele>233.6</ele>
        <time>2021-10-07T14:04:52Z</time>
      </trkpt>
      <trkpt lat="46.55279" lon="5.39486">
        <ele>233.6</ele>
        <time>2021-10-07T14:04:53Z</time>
      </trkpt>
      <trkpt lat="46.55263" lon="5.39473">
        <ele>233.8</ele>
        <time>2021-10-07T14:04:55Z</time>
      </trkpt>
      <trkpt lat="46.55248" lon="5.3946">
        <ele>233.8</ele>
        <time>2021-10-07T14:04:57Z</time>
      </trkpt>
      <trkpt lat="46.55241" lon="5.39453">
        <ele>233.8</ele>
        <time>2021-10-07T14:04:58Z</time>
      </trkpt>
      <trkpt lat="46.55234" lon="5.39445">
        <ele>233.8</ele>
        <time>2021-10-07T14:04:59Z</time>
      </trkpt>
      <trkpt lat="46.55221" lon="5.3943">
        <ele>233.6</ele>
        <time>2021-10-07T14:05:01Z</time>
      </trkpt>
      <trkpt lat="46.55213" lon="5.39425">
        <ele>233.4</ele>
        <time>2021-10-07T14:05:02Z</time>
      </trkpt>
      <trkpt lat="46.55204" lon="5.39422">
        <ele>233.4</ele>
        <time>2021-10-07T14:05:03Z</time>
      </trkpt>
      <trkpt lat="46.55186" lon="5.3942">
        <ele>233.2</ele>
        <time>2021-10-07T14:05:05Z</time>
      </trkpt>
      <trkpt lat="46.55177" lon="5.3942">
        <ele>233</ele>
        <time>2021-10-07T14:05:06Z</time>
      </trkpt>
      <trkpt lat="46.55168" lon="5.39418">
        <ele>233</ele>
        <time>2021-10-07T14:05:07Z</time>
      </trkpt>
      <trkpt lat="46.55151" lon="5.39413">
        <ele>233</ele>
        <time>2021-10-07T14:05:09Z</time>
      </trkpt>
      <trkpt lat="46.55135" lon="5.39406">
        <ele>233</ele>
        <time>2021-10-07T14:05:11Z</time>
      </trkpt>
      <trkpt lat="46.55118" lon="5.39399">
        <ele>233.2</ele>
        <time>2021-10-07T14:05:13Z</time>
      </trkpt>
      <trkpt lat="46.55102" lon="5.39391">
        <ele>233.2</ele>
        <time>2021-10-07T14:05:15Z</time>
      </trkpt>
      <trkpt lat="46.55084" lon="5.39383">
        <ele>233.6</ele>
        <time>2021-10-07T14:05:17Z</time>
      </trkpt>
      <trkpt lat="46.55066" lon="5.39374">
        <ele>233.6</ele>
        <time>2021-10-07T14:05:19Z</time>
      </trkpt>
      <trkpt lat="46.55047" lon="5.39364">
        <ele>233.6</ele>
        <time>2021-10-07T14:05:21Z</time>
      </trkpt>
      <trkpt lat="46.55027" lon="5.39351">
        <ele>233.6</ele>
        <time>2021-10-07T14:05:23Z</time>
      </trkpt>
      <trkpt lat="46.55007" lon="5.39337">
        <ele>233.6</ele>
        <time>2021-10-07T14:05:25Z</time>
      </trkpt>
      <trkpt lat="46.54984" lon="5.39325">
        <ele>232.4</ele>
        <time>2021-10-07T14:05:27Z</time>
      </trkpt>
      <trkpt lat="46.54973" lon="5.3932">
        <ele>232</ele>
        <time>2021-10-07T14:05:28Z</time>
      </trkpt>
      <trkpt lat="46.54961" lon="5.39315">
        <ele>231.6</ele>
        <time>2021-10-07T14:05:29Z</time>
      </trkpt>
      <trkpt lat="46.5495" lon="5.3931">
        <ele>231.4</ele>
        <time>2021-10-07T14:05:30Z</time>
      </trkpt>
      <trkpt lat="46.54938" lon="5.39306">
        <ele>231</ele>
        <time>2021-10-07T14:05:31Z</time>
      </trkpt>
      <trkpt lat="46.54927" lon="5.39302">
        <ele>229.6</ele>
        <time>2021-10-07T14:05:32Z</time>
      </trkpt>
      <trkpt lat="46.54917" lon="5.39299">
        <ele>229</ele>
        <time>2021-10-07T14:05:33Z</time>
      </trkpt>
      <trkpt lat="46.54895" lon="5.39291">
        <ele>228.6</ele>
        <time>2021-10-07T14:05:35Z</time>
      </trkpt>
      <trkpt lat="46.54874" lon="5.39284">
        <ele>228.4</ele>
        <time>2021-10-07T14:05:37Z</time>
      </trkpt>
      <trkpt lat="46.54853" lon="5.39275">
        <ele>228.4</ele>
        <time>2021-10-07T14:05:39Z</time>
      </trkpt>
      <trkpt lat="46.54832" lon="5.39266">
        <ele>228.4</ele>
        <time>2021-10-07T14:05:41Z</time>
      </trkpt>
      <trkpt lat="46.54812" lon="5.39257">
        <ele>228.8</ele>
        <time>2021-10-07T14:05:43Z</time>
      </trkpt>
      <trkpt lat="46.54792" lon="5.39246">
        <ele>229.6</ele>
        <time>2021-10-07T14:05:45Z</time>
      </trkpt>
      <trkpt lat="46.54782" lon="5.39241">
        <ele>229.8</ele>
        <time>2021-10-07T14:05:46Z</time>
      </trkpt>
      <trkpt lat="46.54771" lon="5.39236">
        <ele>230.2</ele>
        <time>2021-10-07T14:05:47Z</time>
      </trkpt>
      <trkpt lat="46.54751" lon="5.39225">
        <ele>231.2</ele>
        <time>2021-10-07T14:05:49Z</time>
      </trkpt>
      <trkpt lat="46.54729" lon="5.39215">
        <ele>232</ele>
        <time>2021-10-07T14:05:51Z</time>
      </trkpt>
      <trkpt lat="46.54719" lon="5.39209">
        <ele>232.2</ele>
        <time>2021-10-07T14:05:52Z</time>
      </trkpt>
      <trkpt lat="46.54708" lon="5.39204">
        <ele>233.2</ele>
        <time>2021-10-07T14:05:53Z</time>
      </trkpt>
      <trkpt lat="46.54687" lon="5.39194">
        <ele>234.4</ele>
        <time>2021-10-07T14:05:55Z</time>
      </trkpt>
      <trkpt lat="46.54667" lon="5.39185">
        <ele>235</ele>
        <time>2021-10-07T14:05:57Z</time>
      </trkpt>
      <trkpt lat="46.54646" lon="5.39175">
        <ele>235.6</ele>
        <time>2021-10-07T14:05:59Z</time>
      </trkpt>
      <trkpt lat="46.54624" lon="5.39166">
        <ele>236</ele>
        <time>2021-10-07T14:06:01Z</time>
      </trkpt>
      <trkpt lat="46.54603" lon="5.39156">
        <ele>236.2</ele>
        <time>2021-10-07T14:06:03Z</time>
      </trkpt>
      <trkpt lat="46.54582" lon="5.39146">
        <ele>236.2</ele>
        <time>2021-10-07T14:06:05Z</time>
      </trkpt>
      <trkpt lat="46.54562" lon="5.39136">
        <ele>236.4</ele>
        <time>2021-10-07T14:06:07Z</time>
      </trkpt>
      <trkpt lat="46.54552" lon="5.3913">
        <ele>236.4</ele>
        <time>2021-10-07T14:06:08Z</time>
      </trkpt>
      <trkpt lat="46.54543" lon="5.39125">
        <ele>236.4</ele>
        <time>2021-10-07T14:06:09Z</time>
      </trkpt>
      <trkpt lat="46.54526" lon="5.39114">
        <ele>236.6</ele>
        <time>2021-10-07T14:06:11Z</time>
      </trkpt>
      <trkpt lat="46.54518" lon="5.3911">
        <ele>236.6</ele>
        <time>2021-10-07T14:06:12Z</time>
      </trkpt>
      <trkpt lat="46.54511" lon="5.3911">
        <ele>236.6</ele>
        <time>2021-10-07T14:06:13Z</time>
      </trkpt>
      <trkpt lat="46.54505" lon="5.39114">
        <ele>236.6</ele>
        <time>2021-10-07T14:06:14Z</time>
      </trkpt>
      <trkpt lat="46.54501" lon="5.3912">
        <ele>236.8</ele>
        <time>2021-10-07T14:06:15Z</time>
      </trkpt>
      <trkpt lat="46.54496" lon="5.39135">
        <ele>237.6</ele>
        <time>2021-10-07T14:06:17Z</time>
      </trkpt>
      <trkpt lat="46.54486" lon="5.39144">
        <ele>238.8</ele>
        <time>2021-10-07T14:06:19Z</time>
      </trkpt>
      <trkpt lat="46.54472" lon="5.39139">
        <ele>239.6</ele>
        <time>2021-10-07T14:06:21Z</time>
      </trkpt>
      <trkpt lat="46.54464" lon="5.39135">
        <ele>239.6</ele>
        <time>2021-10-07T14:06:22Z</time>
      </trkpt>
      <trkpt lat="46.54456" lon="5.3913">
        <ele>239.6</ele>
        <time>2021-10-07T14:06:23Z</time>
      </trkpt>
      <trkpt lat="46.54438" lon="5.39124">
        <ele>239.6</ele>
        <time>2021-10-07T14:06:25Z</time>
      </trkpt>
      <trkpt lat="46.54429" lon="5.39122">
        <ele>239.6</ele>
        <time>2021-10-07T14:06:26Z</time>
      </trkpt>
      <trkpt lat="46.54419" lon="5.3912">
        <ele>239.6</ele>
        <time>2021-10-07T14:06:27Z</time>
      </trkpt>
      <trkpt lat="46.54399" lon="5.39113">
        <ele>239.8</ele>
        <time>2021-10-07T14:06:29Z</time>
      </trkpt>
      <trkpt lat="46.54378" lon="5.39106">
        <ele>239.2</ele>
        <time>2021-10-07T14:06:31Z</time>
      </trkpt>
      <trkpt lat="46.54358" lon="5.39099">
        <ele>237.4</ele>
        <time>2021-10-07T14:06:33Z</time>
      </trkpt>
      <trkpt lat="46.54338" lon="5.39091">
        <ele>236</ele>
        <time>2021-10-07T14:06:35Z</time>
      </trkpt>
      <trkpt lat="46.54319" lon="5.39082">
        <ele>234.4</ele>
        <time>2021-10-07T14:06:37Z</time>
      </trkpt>
      <trkpt lat="46.5431" lon="5.39077">
        <ele>233.8</ele>
        <time>2021-10-07T14:06:38Z</time>
      </trkpt>
      <trkpt lat="46.54301" lon="5.39072">
        <ele>233.6</ele>
        <time>2021-10-07T14:06:39Z</time>
      </trkpt>
      <trkpt lat="46.54292" lon="5.39068">
        <ele>233.2</ele>
        <time>2021-10-07T14:06:40Z</time>
      </trkpt>
      <trkpt lat="46.54283" lon="5.39063">
        <ele>233</ele>
        <time>2021-10-07T14:06:41Z</time>
      </trkpt>
      <trkpt lat="46.54266" lon="5.39054">
        <ele>232.8</ele>
        <time>2021-10-07T14:06:43Z</time>
      </trkpt>
      <trkpt lat="46.54249" lon="5.39045">
        <ele>232.6</ele>
        <time>2021-10-07T14:06:45Z</time>
      </trkpt>
      <trkpt lat="46.54241" lon="5.3904">
        <ele>232.6</ele>
        <time>2021-10-07T14:06:46Z</time>
      </trkpt>
      <trkpt lat="46.54232" lon="5.39036">
        <ele>232.4</ele>
        <time>2021-10-07T14:06:47Z</time>
      </trkpt>
      <trkpt lat="46.54216" lon="5.39028">
        <ele>232.2</ele>
        <time>2021-10-07T14:06:49Z</time>
      </trkpt>
      <trkpt lat="46.542" lon="5.3902">
        <ele>232.2</ele>
        <time>2021-10-07T14:06:51Z</time>
      </trkpt>
      <trkpt lat="46.54184" lon="5.39013">
        <ele>232.2</ele>
        <time>2021-10-07T14:06:53Z</time>
      </trkpt>
      <trkpt lat="46.54169" lon="5.39007">
        <ele>232.2</ele>
        <time>2021-10-07T14:06:55Z</time>
      </trkpt>
      <trkpt lat="46.54154" lon="5.39001">
        <ele>232.2</ele>
        <time>2021-10-07T14:06:57Z</time>
      </trkpt>
      <trkpt lat="46.54139" lon="5.38996">
        <ele>232.8</ele>
        <time>2021-10-07T14:06:59Z</time>
      </trkpt>
      <trkpt lat="46.54124" lon="5.3899">
        <ele>233.4</ele>
        <time>2021-10-07T14:07:01Z</time>
      </trkpt>
      <trkpt lat="46.54116" lon="5.38987">
        <ele>233.6</ele>
        <time>2021-10-07T14:07:02Z</time>
      </trkpt>
      <trkpt lat="46.54108" lon="5.38984">
        <ele>233.6</ele>
        <time>2021-10-07T14:07:03Z</time>
      </trkpt>
      <trkpt lat="46.54093" lon="5.38979">
        <ele>234</ele>
        <time>2021-10-07T14:07:05Z</time>
      </trkpt>
      <trkpt lat="46.54077" lon="5.38973">
        <ele>234.4</ele>
        <time>2021-10-07T14:07:07Z</time>
      </trkpt>
      <trkpt lat="46.54062" lon="5.38965">
        <ele>234.6</ele>
        <time>2021-10-07T14:07:09Z</time>
      </trkpt>
      <trkpt lat="46.54054" lon="5.38961">
        <ele>234.6</ele>
        <time>2021-10-07T14:07:10Z</time>
      </trkpt>
      <trkpt lat="46.54046" lon="5.38958">
        <ele>234.8</ele>
        <time>2021-10-07T14:07:11Z</time>
      </trkpt>
      <trkpt lat="46.5403" lon="5.38953">
        <ele>234.8</ele>
        <time>2021-10-07T14:07:13Z</time>
      </trkpt>
      <trkpt lat="46.54013" lon="5.38949">
        <ele>234.8</ele>
        <time>2021-10-07T14:07:15Z</time>
      </trkpt>
      <trkpt lat="46.54005" lon="5.38946">
        <ele>235</ele>
        <time>2021-10-07T14:07:16Z</time>
      </trkpt>
      <trkpt lat="46.53997" lon="5.38944">
        <ele>235</ele>
        <time>2021-10-07T14:07:17Z</time>
      </trkpt>
      <trkpt lat="46.5398" lon="5.3894">
        <ele>235</ele>
        <time>2021-10-07T14:07:19Z</time>
      </trkpt>
      <trkpt lat="46.53964" lon="5.38937">
        <ele>235</ele>
        <time>2021-10-07T14:07:21Z</time>
      </trkpt>
      <trkpt lat="46.53947" lon="5.38935">
        <ele>235.2</ele>
        <time>2021-10-07T14:07:23Z</time>
      </trkpt>
      <trkpt lat="46.53939" lon="5.38935">
        <ele>235.2</ele>
        <time>2021-10-07T14:07:24Z</time>
      </trkpt>
      <trkpt lat="46.53931" lon="5.38934">
        <ele>235.4</ele>
        <time>2021-10-07T14:07:25Z</time>
      </trkpt>
      <trkpt lat="46.53914" lon="5.38933">
        <ele>235.6</ele>
        <time>2021-10-07T14:07:27Z</time>
      </trkpt>
      <trkpt lat="46.53898" lon="5.38932">
        <ele>235.8</ele>
        <time>2021-10-07T14:07:29Z</time>
      </trkpt>
      <trkpt lat="46.53882" lon="5.38931">
        <ele>236</ele>
        <time>2021-10-07T14:07:31Z</time>
      </trkpt>
      <trkpt lat="46.53867" lon="5.3893">
        <ele>236.2</ele>
        <time>2021-10-07T14:07:33Z</time>
      </trkpt>
      <trkpt lat="46.53859" lon="5.38929">
        <ele>236.4</ele>
        <time>2021-10-07T14:07:34Z</time>
      </trkpt>
      <trkpt lat="46.53851" lon="5.38927">
        <ele>236.6</ele>
        <time>2021-10-07T14:07:35Z</time>
      </trkpt>
      <trkpt lat="46.53836" lon="5.38921">
        <ele>236.8</ele>
        <time>2021-10-07T14:07:37Z</time>
      </trkpt>
      <trkpt lat="46.5382" lon="5.38915">
        <ele>237</ele>
        <time>2021-10-07T14:07:39Z</time>
      </trkpt>
      <trkpt lat="46.53804" lon="5.38908">
        <ele>237</ele>
        <time>2021-10-07T14:07:41Z</time>
      </trkpt>
      <trkpt lat="46.53787" lon="5.38903">
        <ele>237</ele>
        <time>2021-10-07T14:07:43Z</time>
      </trkpt>
      <trkpt lat="46.5377" lon="5.38899">
        <ele>237.2</ele>
        <time>2021-10-07T14:07:45Z</time>
      </trkpt>
      <trkpt lat="46.53762" lon="5.38896">
        <ele>237.2</ele>
        <time>2021-10-07T14:07:46Z</time>
      </trkpt>
      <trkpt lat="46.53753" lon="5.38893">
        <ele>237.2</ele>
        <time>2021-10-07T14:07:47Z</time>
      </trkpt>
      <trkpt lat="46.53737" lon="5.38887">
        <ele>237.2</ele>
        <time>2021-10-07T14:07:49Z</time>
      </trkpt>
      <trkpt lat="46.53719" lon="5.3888">
        <ele>237.2</ele>
        <time>2021-10-07T14:07:51Z</time>
      </trkpt>
      <trkpt lat="46.53702" lon="5.38872">
        <ele>237.2</ele>
        <time>2021-10-07T14:07:53Z</time>
      </trkpt>
      <trkpt lat="46.53684" lon="5.38865">
        <ele>237.2</ele>
        <time>2021-10-07T14:07:55Z</time>
      </trkpt>
      <trkpt lat="46.53668" lon="5.38858">
        <ele>237.2</ele>
        <time>2021-10-07T14:07:57Z</time>
      </trkpt>
      <trkpt lat="46.53651" lon="5.38851">
        <ele>237.2</ele>
        <time>2021-10-07T14:07:59Z</time>
      </trkpt>
      <trkpt lat="46.53635" lon="5.38843">
        <ele>237.2</ele>
        <time>2021-10-07T14:08:01Z</time>
      </trkpt>
      <trkpt lat="46.5362" lon="5.38834">
        <ele>237.2</ele>
        <time>2021-10-07T14:08:03Z</time>
      </trkpt>
      <trkpt lat="46.53605" lon="5.38824">
        <ele>237.4</ele>
        <time>2021-10-07T14:08:05Z</time>
      </trkpt>
      <trkpt lat="46.5359" lon="5.38816">
        <ele>237.4</ele>
        <time>2021-10-07T14:08:07Z</time>
      </trkpt>
      <trkpt lat="46.53583" lon="5.38812">
        <ele>237.4</ele>
        <time>2021-10-07T14:08:08Z</time>
      </trkpt>
      <trkpt lat="46.53575" lon="5.38807">
        <ele>237.4</ele>
        <time>2021-10-07T14:08:09Z</time>
      </trkpt>
      <trkpt lat="46.53561" lon="5.38796">
        <ele>237.6</ele>
        <time>2021-10-07T14:08:11Z</time>
      </trkpt>
      <trkpt lat="46.53548" lon="5.38779">
        <ele>237.6</ele>
        <time>2021-10-07T14:08:13Z</time>
      </trkpt>
      <trkpt lat="46.53536" lon="5.38759">
        <ele>237.6</ele>
        <time>2021-10-07T14:08:15Z</time>
      </trkpt>
      <trkpt lat="46.5353" lon="5.3875">
        <ele>237.6</ele>
        <time>2021-10-07T14:08:16Z</time>
      </trkpt>
      <trkpt lat="46.53522" lon="5.38744">
        <ele>237.6</ele>
        <time>2021-10-07T14:08:17Z</time>
      </trkpt>
      <trkpt lat="46.53506" lon="5.38742">
        <ele>237.4</ele>
        <time>2021-10-07T14:08:19Z</time>
      </trkpt>
      <trkpt lat="46.53493" lon="5.3874">
        <ele>237.2</ele>
        <time>2021-10-07T14:08:21Z</time>
      </trkpt>
      <trkpt lat="46.53488" lon="5.38735">
        <ele>236.8</ele>
        <time>2021-10-07T14:08:22Z</time>
      </trkpt>
      <trkpt lat="46.53482" lon="5.38729">
        <ele>236.8</ele>
        <time>2021-10-07T14:08:23Z</time>
      </trkpt>
      <trkpt lat="46.53476" lon="5.38722">
        <ele>236.6</ele>
        <time>2021-10-07T14:08:24Z</time>
      </trkpt>
      <trkpt lat="46.53469" lon="5.38716">
        <ele>236.6</ele>
        <time>2021-10-07T14:08:25Z</time>
      </trkpt>
      <trkpt lat="46.53462" lon="5.3871">
        <ele>236.4</ele>
        <time>2021-10-07T14:08:26Z</time>
      </trkpt>
      <trkpt lat="46.53454" lon="5.38706">
        <ele>236.4</ele>
        <time>2021-10-07T14:08:27Z</time>
      </trkpt>
      <trkpt lat="46.53437" lon="5.38701">
        <ele>236.2</ele>
        <time>2021-10-07T14:08:29Z</time>
      </trkpt>
      <trkpt lat="46.53421" lon="5.38697">
        <ele>236</ele>
        <time>2021-10-07T14:08:31Z</time>
      </trkpt>
      <trkpt lat="46.53404" lon="5.38696">
        <ele>235.8</ele>
        <time>2021-10-07T14:08:33Z</time>
      </trkpt>
      <trkpt lat="46.53386" lon="5.38695">
        <ele>235.8</ele>
        <time>2021-10-07T14:08:35Z</time>
      </trkpt>
      <trkpt lat="46.53377" lon="5.38695">
        <ele>235.8</ele>
        <time>2021-10-07T14:08:36Z</time>
      </trkpt>
      <trkpt lat="46.53368" lon="5.38695">
        <ele>235.8</ele>
        <time>2021-10-07T14:08:37Z</time>
      </trkpt>
      <trkpt lat="46.5335" lon="5.38694">
        <ele>235.6</ele>
        <time>2021-10-07T14:08:39Z</time>
      </trkpt>
      <trkpt lat="46.53341" lon="5.38693">
        <ele>235.6</ele>
        <time>2021-10-07T14:08:40Z</time>
      </trkpt>
      <trkpt lat="46.53332" lon="5.38691">
        <ele>235.4</ele>
        <time>2021-10-07T14:08:41Z</time>
      </trkpt>
      <trkpt lat="46.53314" lon="5.38687">
        <ele>235.4</ele>
        <time>2021-10-07T14:08:43Z</time>
      </trkpt>
      <trkpt lat="46.53297" lon="5.38682">
        <ele>235</ele>
        <time>2021-10-07T14:08:45Z</time>
      </trkpt>
      <trkpt lat="46.53279" lon="5.38675">
        <ele>234.6</ele>
        <time>2021-10-07T14:08:47Z</time>
      </trkpt>
      <trkpt lat="46.5327" lon="5.38672">
        <ele>234.4</ele>
        <time>2021-10-07T14:08:48Z</time>
      </trkpt>
      <trkpt lat="46.5326" lon="5.38668">
        <ele>234</ele>
        <time>2021-10-07T14:08:49Z</time>
      </trkpt>
      <trkpt lat="46.53241" lon="5.3866">
        <ele>233.6</ele>
        <time>2021-10-07T14:08:51Z</time>
      </trkpt>
      <trkpt lat="46.53232" lon="5.38656">
        <ele>233.4</ele>
        <time>2021-10-07T14:08:52Z</time>
      </trkpt>
      <trkpt lat="46.53222" lon="5.38651">
        <ele>233.2</ele>
        <time>2021-10-07T14:08:53Z</time>
      </trkpt>
      <trkpt lat="46.53213" lon="5.38646">
        <ele>233.2</ele>
        <time>2021-10-07T14:08:54Z</time>
      </trkpt>
      <trkpt lat="46.53204" lon="5.38639">
        <ele>233</ele>
        <time>2021-10-07T14:08:55Z</time>
      </trkpt>
      <trkpt lat="46.53195" lon="5.3863">
        <ele>232.8</ele>
        <time>2021-10-07T14:08:56Z</time>
      </trkpt>
      <trkpt lat="46.53188" lon="5.3862">
        <ele>232.8</ele>
        <time>2021-10-07T14:08:57Z</time>
      </trkpt>
      <trkpt lat="46.5318" lon="5.38611">
        <ele>232.6</ele>
        <time>2021-10-07T14:08:58Z</time>
      </trkpt>
      <trkpt lat="46.53171" lon="5.38603">
        <ele>232.4</ele>
        <time>2021-10-07T14:08:59Z</time>
      </trkpt>
      <trkpt lat="46.53162" lon="5.38596">
        <ele>232</ele>
        <time>2021-10-07T14:09:00Z</time>
      </trkpt>
      <trkpt lat="46.53153" lon="5.38591">
        <ele>231.6</ele>
        <time>2021-10-07T14:09:01Z</time>
      </trkpt>
      <trkpt lat="46.53144" lon="5.38586">
        <ele>231.4</ele>
        <time>2021-10-07T14:09:02Z</time>
      </trkpt>
      <trkpt lat="46.53137" lon="5.38582">
        <ele>231.2</ele>
        <time>2021-10-07T14:09:03Z</time>
      </trkpt>
      <trkpt lat="46.53131" lon="5.38579">
        <ele>230.6</ele>
        <time>2021-10-07T14:09:04Z</time>
      </trkpt>
      <trkpt lat="46.53124" lon="5.38575">
        <ele>229.8</ele>
        <time>2021-10-07T14:09:05Z</time>
      </trkpt>
      <trkpt lat="46.53117" lon="5.38576">
        <ele>229.2</ele>
        <time>2021-10-07T14:09:06Z</time>
      </trkpt>
      <trkpt lat="46.53109" lon="5.38578">
        <ele>229</ele>
        <time>2021-10-07T14:09:07Z</time>
      </trkpt>
      <trkpt lat="46.53091" lon="5.38583">
        <ele>228.4</ele>
        <time>2021-10-07T14:09:09Z</time>
      </trkpt>
      <trkpt lat="46.53072" lon="5.38589">
        <ele>228.2</ele>
        <time>2021-10-07T14:09:11Z</time>
      </trkpt>
      <trkpt lat="46.53053" lon="5.38594">
        <ele>227.8</ele>
        <time>2021-10-07T14:09:13Z</time>
      </trkpt>
      <trkpt lat="46.53034" lon="5.386">
        <ele>227.6</ele>
        <time>2021-10-07T14:09:15Z</time>
      </trkpt>
      <trkpt lat="46.53013" lon="5.38603">
        <ele>227</ele>
        <time>2021-10-07T14:09:17Z</time>
      </trkpt>
      <trkpt lat="46.52993" lon="5.38603">
        <ele>226</ele>
        <time>2021-10-07T14:09:19Z</time>
      </trkpt>
      <trkpt lat="46.52972" lon="5.386">
        <ele>225.6</ele>
        <time>2021-10-07T14:09:21Z</time>
      </trkpt>
      <trkpt lat="46.5295" lon="5.38597">
        <ele>225</ele>
        <time>2021-10-07T14:09:23Z</time>
      </trkpt>
      <trkpt lat="46.5294" lon="5.38598">
        <ele>225</ele>
        <time>2021-10-07T14:09:24Z</time>
      </trkpt>
      <trkpt lat="46.52932" lon="5.38599">
        <ele>224.8</ele>
        <time>2021-10-07T14:09:25Z</time>
      </trkpt>
      <trkpt lat="46.52917" lon="5.38597">
        <ele>224.2</ele>
        <time>2021-10-07T14:09:27Z</time>
      </trkpt>
      <trkpt lat="46.5291" lon="5.386">
        <ele>224</ele>
        <time>2021-10-07T14:09:28Z</time>
      </trkpt>
      <trkpt lat="46.52903" lon="5.38603">
        <ele>223.4</ele>
        <time>2021-10-07T14:09:29Z</time>
      </trkpt>
      <trkpt lat="46.52887" lon="5.38604">
        <ele>221.8</ele>
        <time>2021-10-07T14:09:31Z</time>
      </trkpt>
      <trkpt lat="46.52878" lon="5.38603">
        <ele>221</ele>
        <time>2021-10-07T14:09:32Z</time>
      </trkpt>
      <trkpt lat="46.52869" lon="5.38601">
        <ele>220.4</ele>
        <time>2021-10-07T14:09:33Z</time>
      </trkpt>
      <trkpt lat="46.5285" lon="5.38597">
        <ele>219.8</ele>
        <time>2021-10-07T14:09:35Z</time>
      </trkpt>
      <trkpt lat="46.52841" lon="5.38595">
        <ele>219.4</ele>
        <time>2021-10-07T14:09:36Z</time>
      </trkpt>
      <trkpt lat="46.52832" lon="5.38593">
        <ele>219.2</ele>
        <time>2021-10-07T14:09:37Z</time>
      </trkpt>
      <trkpt lat="46.52814" lon="5.38585">
        <ele>218.6</ele>
        <time>2021-10-07T14:09:39Z</time>
      </trkpt>
      <trkpt lat="46.52806" lon="5.38578">
        <ele>217.8</ele>
        <time>2021-10-07T14:09:40Z</time>
      </trkpt>
      <trkpt lat="46.528" lon="5.3857">
        <ele>217.2</ele>
        <time>2021-10-07T14:09:41Z</time>
      </trkpt>
      <trkpt lat="46.52789" lon="5.38549">
        <ele>216.6</ele>
        <time>2021-10-07T14:09:43Z</time>
      </trkpt>
      <trkpt lat="46.52785" lon="5.38539">
        <ele>216.4</ele>
        <time>2021-10-07T14:09:44Z</time>
      </trkpt>
      <trkpt lat="46.5278" lon="5.3853">
        <ele>216.4</ele>
        <time>2021-10-07T14:09:45Z</time>
      </trkpt>
      <trkpt lat="46.52772" lon="5.38525">
        <ele>216.4</ele>
        <time>2021-10-07T14:09:46Z</time>
      </trkpt>
      <trkpt lat="46.52765" lon="5.38524">
        <ele>216.4</ele>
        <time>2021-10-07T14:09:47Z</time>
      </trkpt>
      <trkpt lat="46.52749" lon="5.38527">
        <ele>216.4</ele>
        <time>2021-10-07T14:09:49Z</time>
      </trkpt>
      <trkpt lat="46.52734" lon="5.3853">
        <ele>216.4</ele>
        <time>2021-10-07T14:09:51Z</time>
      </trkpt>
      <trkpt lat="46.52727" lon="5.38528">
        <ele>216.4</ele>
        <time>2021-10-07T14:09:52Z</time>
      </trkpt>
      <trkpt lat="46.5272" lon="5.38524">
        <ele>216.4</ele>
        <time>2021-10-07T14:09:53Z</time>
      </trkpt>
      <trkpt lat="46.52712" lon="5.3852">
        <ele>216.6</ele>
        <time>2021-10-07T14:09:54Z</time>
      </trkpt>
      <trkpt lat="46.52704" lon="5.38516">
        <ele>216.8</ele>
        <time>2021-10-07T14:09:55Z</time>
      </trkpt>
      <trkpt lat="46.52688" lon="5.38511">
        <ele>217.4</ele>
        <time>2021-10-07T14:09:57Z</time>
      </trkpt>
      <trkpt lat="46.5268" lon="5.38509">
        <ele>217.6</ele>
        <time>2021-10-07T14:09:58Z</time>
      </trkpt>
      <trkpt lat="46.52671" lon="5.38508">
        <ele>217.8</ele>
        <time>2021-10-07T14:09:59Z</time>
      </trkpt>
      <trkpt lat="46.52655" lon="5.38506">
        <ele>218</ele>
        <time>2021-10-07T14:10:01Z</time>
      </trkpt>
      <trkpt lat="46.52639" lon="5.38504">
        <ele>218.2</ele>
        <time>2021-10-07T14:10:03Z</time>
      </trkpt>
      <trkpt lat="46.52631" lon="5.38503">
        <ele>218.6</ele>
        <time>2021-10-07T14:10:04Z</time>
      </trkpt>
      <trkpt lat="46.52623" lon="5.38502">
        <ele>218.6</ele>
        <time>2021-10-07T14:10:05Z</time>
      </trkpt>
      <trkpt lat="46.52615" lon="5.38501">
        <ele>218.8</ele>
        <time>2021-10-07T14:10:06Z</time>
      </trkpt>
      <trkpt lat="46.52607" lon="5.38499">
        <ele>219.2</ele>
        <time>2021-10-07T14:10:07Z</time>
      </trkpt>
      <trkpt lat="46.52592" lon="5.38495">
        <ele>219.4</ele>
        <time>2021-10-07T14:10:09Z</time>
      </trkpt>
      <trkpt lat="46.52578" lon="5.38491">
        <ele>219.6</ele>
        <time>2021-10-07T14:10:11Z</time>
      </trkpt>
      <trkpt lat="46.52564" lon="5.38484">
        <ele>219.8</ele>
        <time>2021-10-07T14:10:13Z</time>
      </trkpt>
      <trkpt lat="46.52557" lon="5.3848">
        <ele>219.8</ele>
        <time>2021-10-07T14:10:14Z</time>
      </trkpt>
      <trkpt lat="46.5255" lon="5.38475">
        <ele>220.2</ele>
        <time>2021-10-07T14:10:15Z</time>
      </trkpt>
      <trkpt lat="46.52539" lon="5.38461">
        <ele>220.6</ele>
        <time>2021-10-07T14:10:17Z</time>
      </trkpt>
      <trkpt lat="46.52534" lon="5.38453">
        <ele>220.8</ele>
        <time>2021-10-07T14:10:18Z</time>
      </trkpt>
      <trkpt lat="46.5253" lon="5.38444">
        <ele>220.8</ele>
        <time>2021-10-07T14:10:19Z</time>
      </trkpt>
      <trkpt lat="46.52526" lon="5.38424">
        <ele>221.2</ele>
        <time>2021-10-07T14:10:21Z</time>
      </trkpt>
      <trkpt lat="46.52525" lon="5.38403">
        <ele>221.4</ele>
        <time>2021-10-07T14:10:23Z</time>
      </trkpt>
      <trkpt lat="46.52526" lon="5.38393">
        <ele>221.4</ele>
        <time>2021-10-07T14:10:24Z</time>
      </trkpt>
      <trkpt lat="46.52526" lon="5.38381">
        <ele>221.6</ele>
        <time>2021-10-07T14:10:25Z</time>
      </trkpt>
      <trkpt lat="46.52525" lon="5.38357">
        <ele>221.6</ele>
        <time>2021-10-07T14:10:27Z</time>
      </trkpt>
      <trkpt lat="46.52521" lon="5.38333">
        <ele>221.6</ele>
        <time>2021-10-07T14:10:29Z</time>
      </trkpt>
      <trkpt lat="46.52517" lon="5.38307">
        <ele>221.6</ele>
        <time>2021-10-07T14:10:31Z</time>
      </trkpt>
      <trkpt lat="46.52515" lon="5.3828">
        <ele>221</ele>
        <time>2021-10-07T14:10:33Z</time>
      </trkpt>
      <trkpt lat="46.52515" lon="5.38267">
        <ele>220.4</ele>
        <time>2021-10-07T14:10:34Z</time>
      </trkpt>
      <trkpt lat="46.52515" lon="5.38253">
        <ele>219.8</ele>
        <time>2021-10-07T14:10:35Z</time>
      </trkpt>
      <trkpt lat="46.52519" lon="5.38227">
        <ele>219.4</ele>
        <time>2021-10-07T14:10:37Z</time>
      </trkpt>
      <trkpt lat="46.52522" lon="5.38214">
        <ele>219.2</ele>
        <time>2021-10-07T14:10:38Z</time>
      </trkpt>
      <trkpt lat="46.52525" lon="5.38201">
        <ele>219.2</ele>
        <time>2021-10-07T14:10:39Z</time>
      </trkpt>
      <trkpt lat="46.52531" lon="5.38175">
        <ele>218.4</ele>
        <time>2021-10-07T14:10:41Z</time>
      </trkpt>
      <trkpt lat="46.52538" lon="5.38148">
        <ele>216.6</ele>
        <time>2021-10-07T14:10:43Z</time>
      </trkpt>
      <trkpt lat="46.52543" lon="5.38122">
        <ele>215</ele>
        <time>2021-10-07T14:10:45Z</time>
      </trkpt>
      <trkpt lat="46.52545" lon="5.38108">
        <ele>214.6</ele>
        <time>2021-10-07T14:10:46Z</time>
      </trkpt>
      <trkpt lat="46.52546" lon="5.38094">
        <ele>214.4</ele>
        <time>2021-10-07T14:10:47Z</time>
      </trkpt>
      <trkpt lat="46.52546" lon="5.38067">
        <ele>214</ele>
        <time>2021-10-07T14:10:49Z</time>
      </trkpt>
      <trkpt lat="46.52544" lon="5.38041">
        <ele>213.8</ele>
        <time>2021-10-07T14:10:51Z</time>
      </trkpt>
      <trkpt lat="46.52542" lon="5.38028">
        <ele>213.6</ele>
        <time>2021-10-07T14:10:52Z</time>
      </trkpt>
      <trkpt lat="46.5254" lon="5.38015">
        <ele>213.6</ele>
        <time>2021-10-07T14:10:53Z</time>
      </trkpt>
      <trkpt lat="46.52534" lon="5.37991">
        <ele>213.6</ele>
        <time>2021-10-07T14:10:55Z</time>
      </trkpt>
      <trkpt lat="46.52527" lon="5.37966">
        <ele>213</ele>
        <time>2021-10-07T14:10:57Z</time>
      </trkpt>
      <trkpt lat="46.52523" lon="5.37954">
        <ele>213</ele>
        <time>2021-10-07T14:10:58Z</time>
      </trkpt>
      <trkpt lat="46.52521" lon="5.37941">
        <ele>212.8</ele>
        <time>2021-10-07T14:10:59Z</time>
      </trkpt>
      <trkpt lat="46.52521" lon="5.37915">
        <ele>212.6</ele>
        <time>2021-10-07T14:11:01Z</time>
      </trkpt>
      <trkpt lat="46.52521" lon="5.37902">
        <ele>212.6</ele>
        <time>2021-10-07T14:11:02Z</time>
      </trkpt>
      <trkpt lat="46.52522" lon="5.37889">
        <ele>212.4</ele>
        <time>2021-10-07T14:11:03Z</time>
      </trkpt>
      <trkpt lat="46.52524" lon="5.37863">
        <ele>212.2</ele>
        <time>2021-10-07T14:11:05Z</time>
      </trkpt>
      <trkpt lat="46.52526" lon="5.37837">
        <ele>212.2</ele>
        <time>2021-10-07T14:11:07Z</time>
      </trkpt>
      <trkpt lat="46.52527" lon="5.37811">
        <ele>212</ele>
        <time>2021-10-07T14:11:09Z</time>
      </trkpt>
      <trkpt lat="46.52529" lon="5.37786">
        <ele>211.8</ele>
        <time>2021-10-07T14:11:11Z</time>
      </trkpt>
      <trkpt lat="46.5253" lon="5.37762">
        <ele>211.6</ele>
        <time>2021-10-07T14:11:13Z</time>
      </trkpt>
      <trkpt lat="46.52531" lon="5.37749">
        <ele>211.6</ele>
        <time>2021-10-07T14:11:14Z</time>
      </trkpt>
      <trkpt lat="46.52532" lon="5.37737">
        <ele>211.8</ele>
        <time>2021-10-07T14:11:15Z</time>
      </trkpt>
      <trkpt lat="46.52533" lon="5.37713">
        <ele>211.6</ele>
        <time>2021-10-07T14:11:17Z</time>
      </trkpt>
      <trkpt lat="46.52535" lon="5.37688">
        <ele>211.4</ele>
        <time>2021-10-07T14:11:19Z</time>
      </trkpt>
      <trkpt lat="46.52537" lon="5.37664">
        <ele>211.6</ele>
        <time>2021-10-07T14:11:21Z</time>
      </trkpt>
      <trkpt lat="46.52538" lon="5.3764">
        <ele>211.6</ele>
        <time>2021-10-07T14:11:23Z</time>
      </trkpt>
      <trkpt lat="46.52541" lon="5.37615">
        <ele>211.6</ele>
        <time>2021-10-07T14:11:25Z</time>
      </trkpt>
      <trkpt lat="46.52543" lon="5.37591">
        <ele>211.6</ele>
        <time>2021-10-07T14:11:27Z</time>
      </trkpt>
      <trkpt lat="46.52546" lon="5.37568">
        <ele>211.6</ele>
        <time>2021-10-07T14:11:29Z</time>
      </trkpt>
      <trkpt lat="46.52548" lon="5.37544">
        <ele>211.6</ele>
        <time>2021-10-07T14:11:31Z</time>
      </trkpt>
      <trkpt lat="46.5255" lon="5.37521">
        <ele>211.6</ele>
        <time>2021-10-07T14:11:33Z</time>
      </trkpt>
      <trkpt lat="46.52551" lon="5.3751">
        <ele>211.6</ele>
        <time>2021-10-07T14:11:34Z</time>
      </trkpt>
      <trkpt lat="46.52552" lon="5.37498">
        <ele>211.6</ele>
        <time>2021-10-07T14:11:35Z</time>
      </trkpt>
      <trkpt lat="46.52555" lon="5.37474">
        <ele>211.6</ele>
        <time>2021-10-07T14:11:37Z</time>
      </trkpt>
      <trkpt lat="46.52557" lon="5.37451">
        <ele>211.4</ele>
        <time>2021-10-07T14:11:39Z</time>
      </trkpt>
      <trkpt lat="46.52559" lon="5.37428">
        <ele>211.4</ele>
        <time>2021-10-07T14:11:41Z</time>
      </trkpt>
      <trkpt lat="46.5256" lon="5.37404">
        <ele>211</ele>
        <time>2021-10-07T14:11:43Z</time>
      </trkpt>
      <trkpt lat="46.52562" lon="5.37381">
        <ele>210.8</ele>
        <time>2021-10-07T14:11:45Z</time>
      </trkpt>
      <trkpt lat="46.52563" lon="5.37358">
        <ele>210.8</ele>
        <time>2021-10-07T14:11:47Z</time>
      </trkpt>
      <trkpt lat="46.52564" lon="5.37334">
        <ele>210.8</ele>
        <time>2021-10-07T14:11:49Z</time>
      </trkpt>
      <trkpt lat="46.52565" lon="5.37311">
        <ele>210.6</ele>
        <time>2021-10-07T14:11:51Z</time>
      </trkpt>
      <trkpt lat="46.52564" lon="5.37288">
        <ele>210.4</ele>
        <time>2021-10-07T14:11:53Z</time>
      </trkpt>
      <trkpt lat="46.5256" lon="5.37265">
        <ele>210.2</ele>
        <time>2021-10-07T14:11:55Z</time>
      </trkpt>
      <trkpt lat="46.52558" lon="5.37254">
        <ele>210.2</ele>
        <time>2021-10-07T14:11:56Z</time>
      </trkpt>
      <trkpt lat="46.52556" lon="5.37242">
        <ele>210.2</ele>
        <time>2021-10-07T14:11:57Z</time>
      </trkpt>
      <trkpt lat="46.52553" lon="5.37231">
        <ele>210</ele>
        <time>2021-10-07T14:11:58Z</time>
      </trkpt>
      <trkpt lat="46.52549" lon="5.37221">
        <ele>210</ele>
        <time>2021-10-07T14:11:59Z</time>
      </trkpt>
      <trkpt lat="46.52544" lon="5.37211">
        <ele>210</ele>
        <time>2021-10-07T14:12:00Z</time>
      </trkpt>
      <trkpt lat="46.52539" lon="5.37202">
        <ele>210</ele>
        <time>2021-10-07T14:12:01Z</time>
      </trkpt>
      <trkpt lat="46.52526" lon="5.37187">
        <ele>209.8</ele>
        <time>2021-10-07T14:12:03Z</time>
      </trkpt>
      <trkpt lat="46.52514" lon="5.3717">
        <ele>209.6</ele>
        <time>2021-10-07T14:12:05Z</time>
      </trkpt>
      <trkpt lat="46.52502" lon="5.37155">
        <ele>209.6</ele>
        <time>2021-10-07T14:12:07Z</time>
      </trkpt>
      <trkpt lat="46.52489" lon="5.3714">
        <ele>209.2</ele>
        <time>2021-10-07T14:12:09Z</time>
      </trkpt>
      <trkpt lat="46.52476" lon="5.37125">
        <ele>209</ele>
        <time>2021-10-07T14:12:11Z</time>
      </trkpt>
      <trkpt lat="46.52466" lon="5.37107">
        <ele>209</ele>
        <time>2021-10-07T14:12:13Z</time>
      </trkpt>
      <trkpt lat="46.52456" lon="5.37088">
        <ele>208.8</ele>
        <time>2021-10-07T14:12:15Z</time>
      </trkpt>
      <trkpt lat="46.52452" lon="5.37078">
        <ele>208.8</ele>
        <time>2021-10-07T14:12:16Z</time>
      </trkpt>
      <trkpt lat="46.52449" lon="5.37068">
        <ele>208.6</ele>
        <time>2021-10-07T14:12:17Z</time>
      </trkpt>
      <trkpt lat="46.52446" lon="5.37058">
        <ele>208.6</ele>
        <time>2021-10-07T14:12:18Z</time>
      </trkpt>
      <trkpt lat="46.52443" lon="5.37048">
        <ele>208.6</ele>
        <time>2021-10-07T14:12:19Z</time>
      </trkpt>
      <trkpt lat="46.52439" lon="5.37028">
        <ele>208.6</ele>
        <time>2021-10-07T14:12:21Z</time>
      </trkpt>
      <trkpt lat="46.52436" lon="5.3702">
        <ele>208.4</ele>
        <time>2021-10-07T14:12:22Z</time>
      </trkpt>
      <trkpt lat="46.52431" lon="5.37014">
        <ele>208.6</ele>
        <time>2021-10-07T14:12:23Z</time>
      </trkpt>
      <trkpt lat="46.52426" lon="5.37013">
        <ele>208.6</ele>
        <time>2021-10-07T14:12:24Z</time>
      </trkpt>
      <trkpt lat="46.52421" lon="5.37016">
        <ele>208.6</ele>
        <time>2021-10-07T14:12:25Z</time>
      </trkpt>
      <trkpt lat="46.52417" lon="5.37022">
        <ele>208.6</ele>
        <time>2021-10-07T14:12:26Z</time>
      </trkpt>
      <trkpt lat="46.52414" lon="5.3703">
        <ele>208.6</ele>
        <time>2021-10-07T14:12:27Z</time>
      </trkpt>
      <trkpt lat="46.52406" lon="5.37045">
        <ele>208.6</ele>
        <time>2021-10-07T14:12:29Z</time>
      </trkpt>
      <trkpt lat="46.52396" lon="5.3706">
        <ele>208.6</ele>
        <time>2021-10-07T14:12:31Z</time>
      </trkpt>
      <trkpt lat="46.52386" lon="5.37073">
        <ele>208.4</ele>
        <time>2021-10-07T14:12:33Z</time>
      </trkpt>
      <trkpt lat="46.52375" lon="5.37086">
        <ele>208.4</ele>
        <time>2021-10-07T14:12:35Z</time>
      </trkpt>
      <trkpt lat="46.52364" lon="5.37097">
        <ele>208.4</ele>
        <time>2021-10-07T14:12:37Z</time>
      </trkpt>
      <trkpt lat="46.52353" lon="5.37109">
        <ele>208.6</ele>
        <time>2021-10-07T14:12:39Z</time>
      </trkpt>
      <trkpt lat="46.52343" lon="5.37119">
        <ele>208.6</ele>
        <time>2021-10-07T14:12:41Z</time>
      </trkpt>
      <trkpt lat="46.52333" lon="5.3713">
        <ele>208.6</ele>
        <time>2021-10-07T14:12:43Z</time>
      </trkpt>
      <trkpt lat="46.52323" lon="5.3714">
        <ele>208.6</ele>
        <time>2021-10-07T14:12:45Z</time>
      </trkpt>
      <trkpt lat="46.52314" lon="5.37151">
        <ele>209</ele>
        <time>2021-10-07T14:12:47Z</time>
      </trkpt>
      <trkpt lat="46.52305" lon="5.3716">
        <ele>210</ele>
        <time>2021-10-07T14:12:49Z</time>
      </trkpt>
      <trkpt lat="46.52301" lon="5.37165">
        <ele>210.4</ele>
        <time>2021-10-07T14:12:50Z</time>
      </trkpt>
      <trkpt lat="46.52296" lon="5.3717">
        <ele>211</ele>
        <time>2021-10-07T14:12:51Z</time>
      </trkpt>
      <trkpt lat="46.52287" lon="5.3718">
        <ele>211.4</ele>
        <time>2021-10-07T14:12:53Z</time>
      </trkpt>
      <trkpt lat="46.52278" lon="5.37189">
        <ele>212</ele>
        <time>2021-10-07T14:12:55Z</time>
      </trkpt>
      <trkpt lat="46.52269" lon="5.37199">
        <ele>212.6</ele>
        <time>2021-10-07T14:12:57Z</time>
      </trkpt>
      <trkpt lat="46.5226" lon="5.37208">
        <ele>213.2</ele>
        <time>2021-10-07T14:12:59Z</time>
      </trkpt>
      <trkpt lat="46.52256" lon="5.37213">
        <ele>213.6</ele>
        <time>2021-10-07T14:13:00Z</time>
      </trkpt>
      <trkpt lat="46.52251" lon="5.37217">
        <ele>214</ele>
        <time>2021-10-07T14:13:01Z</time>
      </trkpt>
      <trkpt lat="46.52242" lon="5.37226">
        <ele>214.6</ele>
        <time>2021-10-07T14:13:03Z</time>
      </trkpt>
      <trkpt lat="46.52233" lon="5.37235">
        <ele>215</ele>
        <time>2021-10-07T14:13:05Z</time>
      </trkpt>
      <trkpt lat="46.52224" lon="5.37243">
        <ele>215.2</ele>
        <time>2021-10-07T14:13:07Z</time>
      </trkpt>
      <trkpt lat="46.52214" lon="5.37251">
        <ele>215.6</ele>
        <time>2021-10-07T14:13:09Z</time>
      </trkpt>
      <trkpt lat="46.52209" lon="5.37255">
        <ele>215.8</ele>
        <time>2021-10-07T14:13:10Z</time>
      </trkpt>
      <trkpt lat="46.52205" lon="5.37258">
        <ele>215.8</ele>
        <time>2021-10-07T14:13:11Z</time>
      </trkpt>
      <trkpt lat="46.52195" lon="5.37266">
        <ele>216.2</ele>
        <time>2021-10-07T14:13:13Z</time>
      </trkpt>
      <trkpt lat="46.52186" lon="5.37272">
        <ele>216.6</ele>
        <time>2021-10-07T14:13:15Z</time>
      </trkpt>
      <trkpt lat="46.52182" lon="5.37275">
        <ele>216.8</ele>
        <time>2021-10-07T14:13:16Z</time>
      </trkpt>
      <trkpt lat="46.52177" lon="5.37279">
        <ele>217</ele>
        <time>2021-10-07T14:13:17Z</time>
      </trkpt>
      <trkpt lat="46.52168" lon="5.37285">
        <ele>218</ele>
        <time>2021-10-07T14:13:19Z</time>
      </trkpt>
      <trkpt lat="46.52163" lon="5.37288">
        <ele>218.2</ele>
        <time>2021-10-07T14:13:20Z</time>
      </trkpt>
      <trkpt lat="46.52159" lon="5.37291">
        <ele>218.4</ele>
        <time>2021-10-07T14:13:21Z</time>
      </trkpt>
      <trkpt lat="46.5215" lon="5.37296">
        <ele>219</ele>
        <time>2021-10-07T14:13:23Z</time>
      </trkpt>
      <trkpt lat="46.52142" lon="5.37303">
        <ele>219.6</ele>
        <time>2021-10-07T14:13:25Z</time>
      </trkpt>
      <trkpt lat="46.52138" lon="5.37306">
        <ele>220</ele>
        <time>2021-10-07T14:13:26Z</time>
      </trkpt>
      <trkpt lat="46.52133" lon="5.37309">
        <ele>220.4</ele>
        <time>2021-10-07T14:13:27Z</time>
      </trkpt>
      <trkpt lat="46.52125" lon="5.37316">
        <ele>221.2</ele>
        <time>2021-10-07T14:13:29Z</time>
      </trkpt>
      <trkpt lat="46.52116" lon="5.37322">
        <ele>222.2</ele>
        <time>2021-10-07T14:13:31Z</time>
      </trkpt>
      <trkpt lat="46.52112" lon="5.37324">
        <ele>222.4</ele>
        <time>2021-10-07T14:13:32Z</time>
      </trkpt>
      <trkpt lat="46.52108" lon="5.37327">
        <ele>222.8</ele>
        <time>2021-10-07T14:13:33Z</time>
      </trkpt>
      <trkpt lat="46.521" lon="5.37333">
        <ele>223.2</ele>
        <time>2021-10-07T14:13:35Z</time>
      </trkpt>
      <trkpt lat="46.52092" lon="5.3734">
        <ele>223.6</ele>
        <time>2021-10-07T14:13:37Z</time>
      </trkpt>
      <trkpt lat="46.52086" lon="5.3735">
        <ele>224.6</ele>
        <time>2021-10-07T14:13:39Z</time>
      </trkpt>
      <trkpt lat="46.52083" lon="5.37356">
        <ele>224.8</ele>
        <time>2021-10-07T14:13:40Z</time>
      </trkpt>
      <trkpt lat="46.52081" lon="5.37362">
        <ele>225.2</ele>
        <time>2021-10-07T14:13:41Z</time>
      </trkpt>
      <trkpt lat="46.5208" lon="5.37369">
        <ele>225.4</ele>
        <time>2021-10-07T14:13:42Z</time>
      </trkpt>
      <trkpt lat="46.52078" lon="5.37377">
        <ele>225.8</ele>
        <time>2021-10-07T14:13:43Z</time>
      </trkpt>
      <trkpt lat="46.52077" lon="5.37384">
        <ele>226.2</ele>
        <time>2021-10-07T14:13:44Z</time>
      </trkpt>
      <trkpt lat="46.52075" lon="5.37392">
        <ele>226.4</ele>
        <time>2021-10-07T14:13:45Z</time>
      </trkpt>
      <trkpt lat="46.52071" lon="5.37407">
        <ele>227.4</ele>
        <time>2021-10-07T14:13:47Z</time>
      </trkpt>
      <trkpt lat="46.52068" lon="5.37422">
        <ele>227.6</ele>
        <time>2021-10-07T14:13:49Z</time>
      </trkpt>
      <trkpt lat="46.52064" lon="5.37439">
        <ele>227.8</ele>
        <time>2021-10-07T14:13:51Z</time>
      </trkpt>
      <trkpt lat="46.5206" lon="5.37456">
        <ele>227.8</ele>
        <time>2021-10-07T14:13:53Z</time>
      </trkpt>
      <trkpt lat="46.52056" lon="5.37473">
        <ele>227.8</ele>
        <time>2021-10-07T14:13:55Z</time>
      </trkpt>
      <trkpt lat="46.52052" lon="5.37492">
        <ele>227.8</ele>
        <time>2021-10-07T14:13:57Z</time>
      </trkpt>
      <trkpt lat="46.52048" lon="5.3751">
        <ele>227.6</ele>
        <time>2021-10-07T14:13:59Z</time>
      </trkpt>
      <trkpt lat="46.52044" lon="5.37528">
        <ele>227.4</ele>
        <time>2021-10-07T14:14:01Z</time>
      </trkpt>
      <trkpt lat="46.52042" lon="5.37538">
        <ele>227.4</ele>
        <time>2021-10-07T14:14:02Z</time>
      </trkpt>
      <trkpt lat="46.5204" lon="5.37547">
        <ele>227.2</ele>
        <time>2021-10-07T14:14:03Z</time>
      </trkpt>
      <trkpt lat="46.52035" lon="5.37565">
        <ele>227</ele>
        <time>2021-10-07T14:14:05Z</time>
      </trkpt>
      <trkpt lat="46.52031" lon="5.37583">
        <ele>227</ele>
        <time>2021-10-07T14:14:07Z</time>
      </trkpt>
      <trkpt lat="46.52027" lon="5.37601">
        <ele>227</ele>
        <time>2021-10-07T14:14:09Z</time>
      </trkpt>
      <trkpt lat="46.52022" lon="5.37618">
        <ele>226.8</ele>
        <time>2021-10-07T14:14:11Z</time>
      </trkpt>
      <trkpt lat="46.52012" lon="5.37628">
        <ele>226.8</ele>
        <time>2021-10-07T14:14:13Z</time>
      </trkpt>
      <trkpt lat="46.51999" lon="5.3763">
        <ele>227</ele>
        <time>2021-10-07T14:14:15Z</time>
      </trkpt>
      <trkpt lat="46.51985" lon="5.37632">
        <ele>227</ele>
        <time>2021-10-07T14:14:17Z</time>
      </trkpt>
      <trkpt lat="46.5197" lon="5.37635">
        <ele>227.2</ele>
        <time>2021-10-07T14:14:19Z</time>
      </trkpt>
      <trkpt lat="46.51956" lon="5.37637">
        <ele>227.2</ele>
        <time>2021-10-07T14:14:21Z</time>
      </trkpt>
      <trkpt lat="46.51941" lon="5.3764">
        <ele>227.2</ele>
        <time>2021-10-07T14:14:23Z</time>
      </trkpt>
      <trkpt lat="46.51933" lon="5.37641">
        <ele>227.2</ele>
        <time>2021-10-07T14:14:24Z</time>
      </trkpt>
      <trkpt lat="46.51926" lon="5.37643">
        <ele>227.2</ele>
        <time>2021-10-07T14:14:25Z</time>
      </trkpt>
      <trkpt lat="46.51911" lon="5.37646">
        <ele>227.4</ele>
        <time>2021-10-07T14:14:27Z</time>
      </trkpt>
      <trkpt lat="46.51897" lon="5.37648">
        <ele>227.4</ele>
        <time>2021-10-07T14:14:29Z</time>
      </trkpt>
      <trkpt lat="46.5189" lon="5.37648">
        <ele>227.6</ele>
        <time>2021-10-07T14:14:30Z</time>
      </trkpt>
      <trkpt lat="46.51882" lon="5.37648">
        <ele>227.6</ele>
        <time>2021-10-07T14:14:31Z</time>
      </trkpt>
      <trkpt lat="46.51868" lon="5.37647">
        <ele>227.6</ele>
        <time>2021-10-07T14:14:33Z</time>
      </trkpt>
      <trkpt lat="46.51853" lon="5.37648">
        <ele>227.8</ele>
        <time>2021-10-07T14:14:35Z</time>
      </trkpt>
      <trkpt lat="46.51838" lon="5.37648">
        <ele>228</ele>
        <time>2021-10-07T14:14:37Z</time>
      </trkpt>
      <trkpt lat="46.51831" lon="5.37648">
        <ele>228</ele>
        <time>2021-10-07T14:14:38Z</time>
      </trkpt>
      <trkpt lat="46.51823" lon="5.37648">
        <ele>228</ele>
        <time>2021-10-07T14:14:39Z</time>
      </trkpt>
      <trkpt lat="46.51806" lon="5.3765">
        <ele>228.2</ele>
        <time>2021-10-07T14:14:41Z</time>
      </trkpt>
      <trkpt lat="46.51788" lon="5.37649">
        <ele>228.2</ele>
        <time>2021-10-07T14:14:43Z</time>
      </trkpt>
      <trkpt lat="46.5177" lon="5.37645">
        <ele>228.2</ele>
        <time>2021-10-07T14:14:45Z</time>
      </trkpt>
      <trkpt lat="46.51752" lon="5.37639">
        <ele>228.2</ele>
        <time>2021-10-07T14:14:47Z</time>
      </trkpt>
      <trkpt lat="46.51742" lon="5.37636">
        <ele>227.8</ele>
        <time>2021-10-07T14:14:48Z</time>
      </trkpt>
      <trkpt lat="46.51732" lon="5.37633">
        <ele>227.4</ele>
        <time>2021-10-07T14:14:49Z</time>
      </trkpt>
      <trkpt lat="46.51712" lon="5.37629">
        <ele>226.8</ele>
        <time>2021-10-07T14:14:51Z</time>
      </trkpt>
      <trkpt lat="46.51702" lon="5.37629">
        <ele>226.6</ele>
        <time>2021-10-07T14:14:52Z</time>
      </trkpt>
      <trkpt lat="46.51693" lon="5.37632">
        <ele>226.4</ele>
        <time>2021-10-07T14:14:53Z</time>
      </trkpt>
      <trkpt lat="46.51675" lon="5.37643">
        <ele>226</ele>
        <time>2021-10-07T14:14:55Z</time>
      </trkpt>
      <trkpt lat="46.51666" lon="5.37649">
        <ele>225.6</ele>
        <time>2021-10-07T14:14:56Z</time>
      </trkpt>
      <trkpt lat="46.51658" lon="5.37654">
        <ele>224.8</ele>
        <time>2021-10-07T14:14:57Z</time>
      </trkpt>
      <trkpt lat="46.51639" lon="5.37662">
        <ele>223.8</ele>
        <time>2021-10-07T14:14:59Z</time>
      </trkpt>
      <trkpt lat="46.51622" lon="5.37669">
        <ele>223.2</ele>
        <time>2021-10-07T14:15:01Z</time>
      </trkpt>
      <trkpt lat="46.51604" lon="5.37675">
        <ele>223</ele>
        <time>2021-10-07T14:15:03Z</time>
      </trkpt>
      <trkpt lat="46.51587" lon="5.37678">
        <ele>223</ele>
        <time>2021-10-07T14:15:05Z</time>
      </trkpt>
      <trkpt lat="46.51579" lon="5.37679">
        <ele>223</ele>
        <time>2021-10-07T14:15:06Z</time>
      </trkpt>
      <trkpt lat="46.51571" lon="5.3768">
        <ele>223</ele>
        <time>2021-10-07T14:15:07Z</time>
      </trkpt>
      <trkpt lat="46.51555" lon="5.37682">
        <ele>223.2</ele>
        <time>2021-10-07T14:15:09Z</time>
      </trkpt>
      <trkpt lat="46.51541" lon="5.37686">
        <ele>223.6</ele>
        <time>2021-10-07T14:15:11Z</time>
      </trkpt>
      <trkpt lat="46.51533" lon="5.37687">
        <ele>224.2</ele>
        <time>2021-10-07T14:15:12Z</time>
      </trkpt>
      <trkpt lat="46.51526" lon="5.37689">
        <ele>224.6</ele>
        <time>2021-10-07T14:15:13Z</time>
      </trkpt>
      <trkpt lat="46.51519" lon="5.37691">
        <ele>225</ele>
        <time>2021-10-07T14:15:14Z</time>
      </trkpt>
      <trkpt lat="46.51512" lon="5.37692">
        <ele>225.2</ele>
        <time>2021-10-07T14:15:15Z</time>
      </trkpt>
      <trkpt lat="46.51498" lon="5.37696">
        <ele>225.6</ele>
        <time>2021-10-07T14:15:17Z</time>
      </trkpt>
      <trkpt lat="46.51484" lon="5.377">
        <ele>225.8</ele>
        <time>2021-10-07T14:15:19Z</time>
      </trkpt>
      <trkpt lat="46.51477" lon="5.37701">
        <ele>226</ele>
        <time>2021-10-07T14:15:20Z</time>
      </trkpt>
      <trkpt lat="46.5147" lon="5.37703">
        <ele>226</ele>
        <time>2021-10-07T14:15:21Z</time>
      </trkpt>
      <trkpt lat="46.51463" lon="5.37704">
        <ele>226.2</ele>
        <time>2021-10-07T14:15:22Z</time>
      </trkpt>
      <trkpt lat="46.51457" lon="5.37706">
        <ele>226.4</ele>
        <time>2021-10-07T14:15:23Z</time>
      </trkpt>
      <trkpt lat="46.51443" lon="5.3771">
        <ele>227.2</ele>
        <time>2021-10-07T14:15:25Z</time>
      </trkpt>
      <trkpt lat="46.51437" lon="5.37711">
        <ele>227.4</ele>
        <time>2021-10-07T14:15:26Z</time>
      </trkpt>
      <trkpt lat="46.5143" lon="5.37713">
        <ele>227.4</ele>
        <time>2021-10-07T14:15:27Z</time>
      </trkpt>
      <trkpt lat="46.51416" lon="5.37718">
        <ele>227.8</ele>
        <time>2021-10-07T14:15:29Z</time>
      </trkpt>
      <trkpt lat="46.51402" lon="5.37722">
        <ele>228</ele>
        <time>2021-10-07T14:15:31Z</time>
      </trkpt>
      <trkpt lat="46.51389" lon="5.37727">
        <ele>228.4</ele>
        <time>2021-10-07T14:15:33Z</time>
      </trkpt>
      <trkpt lat="46.51376" lon="5.37733">
        <ele>228.8</ele>
        <time>2021-10-07T14:15:35Z</time>
      </trkpt>
      <trkpt lat="46.51363" lon="5.3774">
        <ele>229.2</ele>
        <time>2021-10-07T14:15:37Z</time>
      </trkpt>
      <trkpt lat="46.51356" lon="5.37743">
        <ele>229.4</ele>
        <time>2021-10-07T14:15:38Z</time>
      </trkpt>
      <trkpt lat="46.5135" lon="5.37747">
        <ele>229.6</ele>
        <time>2021-10-07T14:15:39Z</time>
      </trkpt>
      <trkpt lat="46.51337" lon="5.37753">
        <ele>230</ele>
        <time>2021-10-07T14:15:41Z</time>
      </trkpt>
      <trkpt lat="46.51325" lon="5.37759">
        <ele>230</ele>
        <time>2021-10-07T14:15:43Z</time>
      </trkpt>
      <trkpt lat="46.51313" lon="5.37766">
        <ele>230.4</ele>
        <time>2021-10-07T14:15:45Z</time>
      </trkpt>
      <trkpt lat="46.51307" lon="5.37769">
        <ele>230.6</ele>
        <time>2021-10-07T14:15:46Z</time>
      </trkpt>
      <trkpt lat="46.51301" lon="5.37772">
        <ele>230.8</ele>
        <time>2021-10-07T14:15:47Z</time>
      </trkpt>
      <trkpt lat="46.51289" lon="5.37778">
        <ele>231.6</ele>
        <time>2021-10-07T14:15:49Z</time>
      </trkpt>
      <trkpt lat="46.51282" lon="5.37781">
        <ele>231.8</ele>
        <time>2021-10-07T14:15:50Z</time>
      </trkpt>
      <trkpt lat="46.51276" lon="5.37784">
        <ele>232</ele>
        <time>2021-10-07T14:15:51Z</time>
      </trkpt>
      <trkpt lat="46.51264" lon="5.3779">
        <ele>232.4</ele>
        <time>2021-10-07T14:15:53Z</time>
      </trkpt>
      <trkpt lat="46.51251" lon="5.37797">
        <ele>232.8</ele>
        <time>2021-10-07T14:15:55Z</time>
      </trkpt>
      <trkpt lat="46.51244" lon="5.37799">
        <ele>233</ele>
        <time>2021-10-07T14:15:56Z</time>
      </trkpt>
      <trkpt lat="46.51237" lon="5.378">
        <ele>233.2</ele>
        <time>2021-10-07T14:15:57Z</time>
      </trkpt>
      <trkpt lat="46.51223" lon="5.37803">
        <ele>233.4</ele>
        <time>2021-10-07T14:15:59Z</time>
      </trkpt>
      <trkpt lat="46.51209" lon="5.37804">
        <ele>233.8</ele>
        <time>2021-10-07T14:16:01Z</time>
      </trkpt>
      <trkpt lat="46.51203" lon="5.37806">
        <ele>233.8</ele>
        <time>2021-10-07T14:16:02Z</time>
      </trkpt>
      <trkpt lat="46.51196" lon="5.37807">
        <ele>234</ele>
        <time>2021-10-07T14:16:03Z</time>
      </trkpt>
      <trkpt lat="46.51183" lon="5.37809">
        <ele>234.4</ele>
        <time>2021-10-07T14:16:05Z</time>
      </trkpt>
      <trkpt lat="46.51177" lon="5.37811">
        <ele>234.4</ele>
        <time>2021-10-07T14:16:06Z</time>
      </trkpt>
      <trkpt lat="46.5117" lon="5.37814">
        <ele>234.6</ele>
        <time>2021-10-07T14:16:07Z</time>
      </trkpt>
      <trkpt lat="46.51164" lon="5.37818">
        <ele>234.6</ele>
        <time>2021-10-07T14:16:08Z</time>
      </trkpt>
      <trkpt lat="46.51159" lon="5.37822">
        <ele>235</ele>
        <time>2021-10-07T14:16:09Z</time>
      </trkpt>
      <trkpt lat="46.51147" lon="5.37831">
        <ele>235.2</ele>
        <time>2021-10-07T14:16:11Z</time>
      </trkpt>
      <trkpt lat="46.51135" lon="5.37841">
        <ele>235.8</ele>
        <time>2021-10-07T14:16:13Z</time>
      </trkpt>
      <trkpt lat="46.51129" lon="5.37845">
        <ele>236</ele>
        <time>2021-10-07T14:16:14Z</time>
      </trkpt>
      <trkpt lat="46.51123" lon="5.37849">
        <ele>236.2</ele>
        <time>2021-10-07T14:16:15Z</time>
      </trkpt>
      <trkpt lat="46.51111" lon="5.37857">
        <ele>236.4</ele>
        <time>2021-10-07T14:16:17Z</time>
      </trkpt>
      <trkpt lat="46.51098" lon="5.37862">
        <ele>236.6</ele>
        <time>2021-10-07T14:16:19Z</time>
      </trkpt>
      <trkpt lat="46.51086" lon="5.37866">
        <ele>236.8</ele>
        <time>2021-10-07T14:16:21Z</time>
      </trkpt>
      <trkpt lat="46.51079" lon="5.37868">
        <ele>236.8</ele>
        <time>2021-10-07T14:16:22Z</time>
      </trkpt>
      <trkpt lat="46.51073" lon="5.37869">
        <ele>236.8</ele>
        <time>2021-10-07T14:16:23Z</time>
      </trkpt>
      <trkpt lat="46.51066" lon="5.3787">
        <ele>237</ele>
        <time>2021-10-07T14:16:24Z</time>
      </trkpt>
      <trkpt lat="46.5106" lon="5.37871">
        <ele>237.4</ele>
        <time>2021-10-07T14:16:25Z</time>
      </trkpt>
      <trkpt lat="46.51047" lon="5.37871">
        <ele>238</ele>
        <time>2021-10-07T14:16:27Z</time>
      </trkpt>
      <trkpt lat="46.51041" lon="5.37872">
        <ele>238</ele>
        <time>2021-10-07T14:16:28Z</time>
      </trkpt>
      <trkpt lat="46.51034" lon="5.37873">
        <ele>238.4</ele>
        <time>2021-10-07T14:16:29Z</time>
      </trkpt>
      <trkpt lat="46.51022" lon="5.37874">
        <ele>238.6</ele>
        <time>2021-10-07T14:16:31Z</time>
      </trkpt>
      <trkpt lat="46.51009" lon="5.37876">
        <ele>239.2</ele>
        <time>2021-10-07T14:16:33Z</time>
      </trkpt>
      <trkpt lat="46.50997" lon="5.37878">
        <ele>239.8</ele>
        <time>2021-10-07T14:16:35Z</time>
      </trkpt>
      <trkpt lat="46.50984" lon="5.37881">
        <ele>240.2</ele>
        <time>2021-10-07T14:16:37Z</time>
      </trkpt>
      <trkpt lat="46.50971" lon="5.37883">
        <ele>240.6</ele>
        <time>2021-10-07T14:16:39Z</time>
      </trkpt>
      <trkpt lat="46.50959" lon="5.37887">
        <ele>241</ele>
        <time>2021-10-07T14:16:41Z</time>
      </trkpt>
      <trkpt lat="46.50945" lon="5.37891">
        <ele>241.2</ele>
        <time>2021-10-07T14:16:43Z</time>
      </trkpt>
      <trkpt lat="46.50932" lon="5.37896">
        <ele>241.4</ele>
        <time>2021-10-07T14:16:45Z</time>
      </trkpt>
      <trkpt lat="46.50917" lon="5.379">
        <ele>241.4</ele>
        <time>2021-10-07T14:16:47Z</time>
      </trkpt>
      <trkpt lat="46.50902" lon="5.37902">
        <ele>241.4</ele>
        <time>2021-10-07T14:16:49Z</time>
      </trkpt>
      <trkpt lat="46.50886" lon="5.37902">
        <ele>241.4</ele>
        <time>2021-10-07T14:16:51Z</time>
      </trkpt>
      <trkpt lat="46.50879" lon="5.37901">
        <ele>241.4</ele>
        <time>2021-10-07T14:16:52Z</time>
      </trkpt>
      <trkpt lat="46.50871" lon="5.37901">
        <ele>241.4</ele>
        <time>2021-10-07T14:16:53Z</time>
      </trkpt>
      <trkpt lat="46.50855" lon="5.37899">
        <ele>241.2</ele>
        <time>2021-10-07T14:16:55Z</time>
      </trkpt>
      <trkpt lat="46.5084" lon="5.37898">
        <ele>241.2</ele>
        <time>2021-10-07T14:16:57Z</time>
      </trkpt>
      <trkpt lat="46.50824" lon="5.37894">
        <ele>241.2</ele>
        <time>2021-10-07T14:16:59Z</time>
      </trkpt>
      <trkpt lat="46.50817" lon="5.37891">
        <ele>241.2</ele>
        <time>2021-10-07T14:17:00Z</time>
      </trkpt>
      <trkpt lat="46.5081" lon="5.37886">
        <ele>241.2</ele>
        <time>2021-10-07T14:17:01Z</time>
      </trkpt>
      <trkpt lat="46.50797" lon="5.37872">
        <ele>241.2</ele>
        <time>2021-10-07T14:17:03Z</time>
      </trkpt>
      <trkpt lat="46.50792" lon="5.37865">
        <ele>241.2</ele>
        <time>2021-10-07T14:17:04Z</time>
      </trkpt>
      <trkpt lat="46.50786" lon="5.37857">
        <ele>241.2</ele>
        <time>2021-10-07T14:17:05Z</time>
      </trkpt>
      <trkpt lat="46.50775" lon="5.37841">
        <ele>241.2</ele>
        <time>2021-10-07T14:17:07Z</time>
      </trkpt>
      <trkpt lat="46.50765" lon="5.37822">
        <ele>241</ele>
        <time>2021-10-07T14:17:09Z</time>
      </trkpt>
      <trkpt lat="46.50757" lon="5.37801">
        <ele>241.2</ele>
        <time>2021-10-07T14:17:11Z</time>
      </trkpt>
      <trkpt lat="46.50754" lon="5.37789">
        <ele>241</ele>
        <time>2021-10-07T14:17:12Z</time>
      </trkpt>
      <trkpt lat="46.50751" lon="5.37777">
        <ele>241</ele>
        <time>2021-10-07T14:17:13Z</time>
      </trkpt>
      <trkpt lat="46.50747" lon="5.37753">
        <ele>240.8</ele>
        <time>2021-10-07T14:17:15Z</time>
      </trkpt>
      <trkpt lat="46.50744" lon="5.37729">
        <ele>240.6</ele>
        <time>2021-10-07T14:17:17Z</time>
      </trkpt>
      <trkpt lat="46.50743" lon="5.37717">
        <ele>240.4</ele>
        <time>2021-10-07T14:17:18Z</time>
      </trkpt>
      <trkpt lat="46.50742" lon="5.37705">
        <ele>240</ele>
        <time>2021-10-07T14:17:19Z</time>
      </trkpt>
      <trkpt lat="46.5074" lon="5.3768">
        <ele>239.4</ele>
        <time>2021-10-07T14:17:21Z</time>
      </trkpt>
      <trkpt lat="46.50739" lon="5.37667">
        <ele>239.2</ele>
        <time>2021-10-07T14:17:22Z</time>
      </trkpt>
      <trkpt lat="46.50739" lon="5.37653">
        <ele>239</ele>
        <time>2021-10-07T14:17:23Z</time>
      </trkpt>
      <trkpt lat="46.50737" lon="5.37625">
        <ele>238.8</ele>
        <time>2021-10-07T14:17:25Z</time>
      </trkpt>
      <trkpt lat="46.50729" lon="5.376">
        <ele>238.4</ele>
        <time>2021-10-07T14:17:27Z</time>
      </trkpt>
      <trkpt lat="46.50723" lon="5.37589">
        <ele>238</ele>
        <time>2021-10-07T14:17:28Z</time>
      </trkpt>
      <trkpt lat="46.50716" lon="5.37579">
        <ele>237.4</ele>
        <time>2021-10-07T14:17:29Z</time>
      </trkpt>
      <trkpt lat="46.50709" lon="5.37572">
        <ele>236.8</ele>
        <time>2021-10-07T14:17:30Z</time>
      </trkpt>
      <trkpt lat="46.50705" lon="5.37566">
        <ele>236</ele>
        <time>2021-10-07T14:17:31Z</time>
      </trkpt>
      <trkpt lat="46.50702" lon="5.37561">
        <ele>235.4</ele>
        <time>2021-10-07T14:17:32Z</time>
      </trkpt>
      <trkpt lat="46.507" lon="5.37557">
        <ele>235</ele>
        <time>2021-10-07T14:17:33Z</time>
      </trkpt>
      <trkpt lat="46.50697" lon="5.37554">
        <ele>234.8</ele>
        <time>2021-10-07T14:17:34Z</time>
      </trkpt>
      <trkpt lat="46.50694" lon="5.37553">
        <ele>234.8</ele>
        <time>2021-10-07T14:17:35Z</time>
      </trkpt>
      <trkpt lat="46.5069" lon="5.37556">
        <ele>234.6</ele>
        <time>2021-10-07T14:17:36Z</time>
      </trkpt>
      <trkpt lat="46.50687" lon="5.3756">
        <ele>234.6</ele>
        <time>2021-10-07T14:17:37Z</time>
      </trkpt>
      <trkpt lat="46.5068" lon="5.37572">
        <ele>234.6</ele>
        <time>2021-10-07T14:17:39Z</time>
      </trkpt>
      <trkpt lat="46.50676" lon="5.37579">
        <ele>234.6</ele>
        <time>2021-10-07T14:17:40Z</time>
      </trkpt>
      <trkpt lat="46.50671" lon="5.37586">
        <ele>234.6</ele>
        <time>2021-10-07T14:17:41Z</time>
      </trkpt>
      <trkpt lat="46.50662" lon="5.376">
        <ele>234.8</ele>
        <time>2021-10-07T14:17:43Z</time>
      </trkpt>
      <trkpt lat="46.50652" lon="5.37615">
        <ele>234.8</ele>
        <time>2021-10-07T14:17:45Z</time>
      </trkpt>
      <trkpt lat="46.50642" lon="5.37631">
        <ele>235</ele>
        <time>2021-10-07T14:17:47Z</time>
      </trkpt>
      <trkpt lat="46.50632" lon="5.37647">
        <ele>235</ele>
        <time>2021-10-07T14:17:49Z</time>
      </trkpt>
      <trkpt lat="46.50621" lon="5.37663">
        <ele>235</ele>
        <time>2021-10-07T14:17:51Z</time>
      </trkpt>
      <trkpt lat="46.50611" lon="5.37678">
        <ele>235</ele>
        <time>2021-10-07T14:17:53Z</time>
      </trkpt>
      <trkpt lat="46.50602" lon="5.37693">
        <ele>235</ele>
        <time>2021-10-07T14:17:55Z</time>
      </trkpt>
      <trkpt lat="46.50598" lon="5.377">
        <ele>235</ele>
        <time>2021-10-07T14:17:56Z</time>
      </trkpt>
      <trkpt lat="46.50593" lon="5.37707">
        <ele>235</ele>
        <time>2021-10-07T14:17:57Z</time>
      </trkpt>
      <trkpt lat="46.50585" lon="5.3772">
        <ele>235</ele>
        <time>2021-10-07T14:17:59Z</time>
      </trkpt>
      <trkpt lat="46.50576" lon="5.37733">
        <ele>235</ele>
        <time>2021-10-07T14:18:01Z</time>
      </trkpt>
      <trkpt lat="46.50568" lon="5.37745">
        <ele>235.6</ele>
        <time>2021-10-07T14:18:03Z</time>
      </trkpt>
      <trkpt lat="46.50564" lon="5.37751">
        <ele>236.2</ele>
        <time>2021-10-07T14:18:04Z</time>
      </trkpt>
      <trkpt lat="46.50561" lon="5.37756">
        <ele>236.4</ele>
        <time>2021-10-07T14:18:05Z</time>
      </trkpt>
      <trkpt lat="46.50553" lon="5.37768">
        <ele>236.8</ele>
        <time>2021-10-07T14:18:07Z</time>
      </trkpt>
      <trkpt lat="46.50546" lon="5.37779">
        <ele>237.2</ele>
        <time>2021-10-07T14:18:09Z</time>
      </trkpt>
      <trkpt lat="46.50539" lon="5.3779">
        <ele>237.6</ele>
        <time>2021-10-07T14:18:11Z</time>
      </trkpt>
      <trkpt lat="46.50535" lon="5.37795">
        <ele>237.8</ele>
        <time>2021-10-07T14:18:12Z</time>
      </trkpt>
      <trkpt lat="46.50532" lon="5.378">
        <ele>238.2</ele>
        <time>2021-10-07T14:18:13Z</time>
      </trkpt>
      <trkpt lat="46.50525" lon="5.3781">
        <ele>238.6</ele>
        <time>2021-10-07T14:18:15Z</time>
      </trkpt>
      <trkpt lat="46.50519" lon="5.3782">
        <ele>239</ele>
        <time>2021-10-07T14:18:17Z</time>
      </trkpt>
      <trkpt lat="46.50512" lon="5.37831">
        <ele>239.6</ele>
        <time>2021-10-07T14:18:19Z</time>
      </trkpt>
      <trkpt lat="46.50509" lon="5.37836">
        <ele>239.8</ele>
        <time>2021-10-07T14:18:20Z</time>
      </trkpt>
      <trkpt lat="46.50505" lon="5.37841">
        <ele>240</ele>
        <time>2021-10-07T14:18:21Z</time>
      </trkpt>
      <trkpt lat="46.50502" lon="5.37846">
        <ele>240.2</ele>
        <time>2021-10-07T14:18:22Z</time>
      </trkpt>
      <trkpt lat="46.50499" lon="5.37851">
        <ele>241.2</ele>
        <time>2021-10-07T14:18:23Z</time>
      </trkpt>
      <trkpt lat="46.50492" lon="5.37861">
        <ele>241.8</ele>
        <time>2021-10-07T14:18:25Z</time>
      </trkpt>
      <trkpt lat="46.50486" lon="5.37871">
        <ele>242</ele>
        <time>2021-10-07T14:18:27Z</time>
      </trkpt>
      <trkpt lat="46.50483" lon="5.37876">
        <ele>242.4</ele>
        <time>2021-10-07T14:18:28Z</time>
      </trkpt>
      <trkpt lat="46.50479" lon="5.3788">
        <ele>242.6</ele>
        <time>2021-10-07T14:18:29Z</time>
      </trkpt>
      <trkpt lat="46.50472" lon="5.37891">
        <ele>243</ele>
        <time>2021-10-07T14:18:31Z</time>
      </trkpt>
      <trkpt lat="46.50469" lon="5.37896">
        <ele>243.2</ele>
        <time>2021-10-07T14:18:32Z</time>
      </trkpt>
      <trkpt lat="46.50465" lon="5.37901">
        <ele>243.2</ele>
        <time>2021-10-07T14:18:33Z</time>
      </trkpt>
      <trkpt lat="46.50462" lon="5.37907">
        <ele>243.4</ele>
        <time>2021-10-07T14:18:34Z</time>
      </trkpt>
      <trkpt lat="46.50459" lon="5.37912">
        <ele>243.8</ele>
        <time>2021-10-07T14:18:35Z</time>
      </trkpt>
      <trkpt lat="46.50452" lon="5.37922">
        <ele>244.2</ele>
        <time>2021-10-07T14:18:37Z</time>
      </trkpt>
      <trkpt lat="46.50448" lon="5.37927">
        <ele>244.4</ele>
        <time>2021-10-07T14:18:38Z</time>
      </trkpt>
      <trkpt lat="46.50444" lon="5.37931">
        <ele>244.6</ele>
        <time>2021-10-07T14:18:39Z</time>
      </trkpt>
      <trkpt lat="46.50437" lon="5.37941">
        <ele>245</ele>
        <time>2021-10-07T14:18:41Z</time>
      </trkpt>
      <trkpt lat="46.50434" lon="5.37945">
        <ele>245</ele>
        <time>2021-10-07T14:18:42Z</time>
      </trkpt>
      <trkpt lat="46.50431" lon="5.37949">
        <ele>245</ele>
        <time>2021-10-07T14:18:43Z</time>
      </trkpt>
      <trkpt lat="46.50428" lon="5.37953">
        <ele>245.2</ele>
        <time>2021-10-07T14:18:44Z</time>
      </trkpt>
      <trkpt lat="46.50425" lon="5.37958">
        <ele>245.2</ele>
        <time>2021-10-07T14:18:45Z</time>
      </trkpt>
      <trkpt lat="46.50419" lon="5.37968">
        <ele>245.2</ele>
        <time>2021-10-07T14:18:47Z</time>
      </trkpt>
      <trkpt lat="46.50412" lon="5.37978">
        <ele>245.4</ele>
        <time>2021-10-07T14:18:49Z</time>
      </trkpt>
      <trkpt lat="46.50405" lon="5.37988">
        <ele>245.8</ele>
        <time>2021-10-07T14:18:51Z</time>
      </trkpt>
      <trkpt lat="46.50399" lon="5.37998">
        <ele>246.4</ele>
        <time>2021-10-07T14:18:53Z</time>
      </trkpt>
      <trkpt lat="46.50396" lon="5.38003">
        <ele>246.6</ele>
        <time>2021-10-07T14:18:54Z</time>
      </trkpt>
      <trkpt lat="46.50392" lon="5.38008">
        <ele>247</ele>
        <time>2021-10-07T14:18:55Z</time>
      </trkpt>
      <trkpt lat="46.50386" lon="5.38018">
        <ele>247.2</ele>
        <time>2021-10-07T14:18:57Z</time>
      </trkpt>
      <trkpt lat="46.50382" lon="5.38022">
        <ele>247.4</ele>
        <time>2021-10-07T14:18:58Z</time>
      </trkpt>
      <trkpt lat="46.50378" lon="5.38024">
        <ele>247.6</ele>
        <time>2021-10-07T14:18:59Z</time>
      </trkpt>
      <trkpt lat="46.50374" lon="5.38024">
        <ele>248.2</ele>
        <time>2021-10-07T14:19:00Z</time>
      </trkpt>
      <trkpt lat="46.5037" lon="5.38021">
        <ele>248.6</ele>
        <time>2021-10-07T14:19:01Z</time>
      </trkpt>
      <trkpt lat="46.50366" lon="5.3801">
        <ele>249.6</ele>
        <time>2021-10-07T14:19:03Z</time>
      </trkpt>
      <trkpt lat="46.50365" lon="5.38003">
        <ele>250</ele>
        <time>2021-10-07T14:19:04Z</time>
      </trkpt>
      <trkpt lat="46.50365" lon="5.37996">
        <ele>250.6</ele>
        <time>2021-10-07T14:19:05Z</time>
      </trkpt>
      <trkpt lat="46.50365" lon="5.3799">
        <ele>251</ele>
        <time>2021-10-07T14:19:06Z</time>
      </trkpt>
      <trkpt lat="46.50366" lon="5.37983">
        <ele>251.2</ele>
        <time>2021-10-07T14:19:07Z</time>
      </trkpt>
      <trkpt lat="46.50367" lon="5.37969">
        <ele>251.8</ele>
        <time>2021-10-07T14:19:09Z</time>
      </trkpt>
      <trkpt lat="46.50367" lon="5.37954">
        <ele>252</ele>
        <time>2021-10-07T14:19:11Z</time>
      </trkpt>
      <trkpt lat="46.50365" lon="5.37938">
        <ele>252.4</ele>
        <time>2021-10-07T14:19:13Z</time>
      </trkpt>
      <trkpt lat="46.50362" lon="5.3792">
        <ele>252.6</ele>
        <time>2021-10-07T14:19:15Z</time>
      </trkpt>
      <trkpt lat="46.50355" lon="5.37903">
        <ele>252.8</ele>
        <time>2021-10-07T14:19:17Z</time>
      </trkpt>
      <trkpt lat="46.50346" lon="5.37887">
        <ele>252.8</ele>
        <time>2021-10-07T14:19:19Z</time>
      </trkpt>
      <trkpt lat="46.50334" lon="5.37873">
        <ele>252.8</ele>
        <time>2021-10-07T14:19:21Z</time>
      </trkpt>
      <trkpt lat="46.50328" lon="5.37867">
        <ele>252.8</ele>
        <time>2021-10-07T14:19:22Z</time>
      </trkpt>
      <trkpt lat="46.50322" lon="5.37861">
        <ele>252.6</ele>
        <time>2021-10-07T14:19:23Z</time>
      </trkpt>
      <trkpt lat="46.50316" lon="5.37855">
        <ele>252.4</ele>
        <time>2021-10-07T14:19:24Z</time>
      </trkpt>
      <trkpt lat="46.5031" lon="5.37848">
        <ele>252</ele>
        <time>2021-10-07T14:19:25Z</time>
      </trkpt>
      <trkpt lat="46.50297" lon="5.37836">
        <ele>251.8</ele>
        <time>2021-10-07T14:19:27Z</time>
      </trkpt>
      <trkpt lat="46.50284" lon="5.37824">
        <ele>251.2</ele>
        <time>2021-10-07T14:19:29Z</time>
      </trkpt>
      <trkpt lat="46.50271" lon="5.37812">
        <ele>251.4</ele>
        <time>2021-10-07T14:19:31Z</time>
      </trkpt>
      <trkpt lat="46.50258" lon="5.37799">
        <ele>251.4</ele>
        <time>2021-10-07T14:19:33Z</time>
      </trkpt>
      <trkpt lat="46.50251" lon="5.37793">
        <ele>251.2</ele>
        <time>2021-10-07T14:19:34Z</time>
      </trkpt>
      <trkpt lat="46.50245" lon="5.37786">
        <ele>251.2</ele>
        <time>2021-10-07T14:19:35Z</time>
      </trkpt>
      <trkpt lat="46.50238" lon="5.3778">
        <ele>251.2</ele>
        <time>2021-10-07T14:19:36Z</time>
      </trkpt>
      <trkpt lat="46.50231" lon="5.37774">
        <ele>251.2</ele>
        <time>2021-10-07T14:19:37Z</time>
      </trkpt>
      <trkpt lat="46.50216" lon="5.37763">
        <ele>251</ele>
        <time>2021-10-07T14:19:39Z</time>
      </trkpt>
      <trkpt lat="46.50208" lon="5.37758">
        <ele>251</ele>
        <time>2021-10-07T14:19:40Z</time>
      </trkpt>
      <trkpt lat="46.502" lon="5.37754">
        <ele>251</ele>
        <time>2021-10-07T14:19:41Z</time>
      </trkpt>
      <trkpt lat="46.50183" lon="5.37749">
        <ele>250.8</ele>
        <time>2021-10-07T14:19:43Z</time>
      </trkpt>
      <trkpt lat="46.50175" lon="5.37747">
        <ele>250.6</ele>
        <time>2021-10-07T14:19:44Z</time>
      </trkpt>
      <trkpt lat="46.50167" lon="5.37745">
        <ele>250.4</ele>
        <time>2021-10-07T14:19:45Z</time>
      </trkpt>
      <trkpt lat="46.50152" lon="5.37741">
        <ele>250.4</ele>
        <time>2021-10-07T14:19:47Z</time>
      </trkpt>
      <trkpt lat="46.50137" lon="5.37738">
        <ele>250.2</ele>
        <time>2021-10-07T14:19:49Z</time>
      </trkpt>
      <trkpt lat="46.50122" lon="5.37735">
        <ele>250.2</ele>
        <time>2021-10-07T14:19:51Z</time>
      </trkpt>
      <trkpt lat="46.50114" lon="5.37733">
        <ele>250.2</ele>
        <time>2021-10-07T14:19:52Z</time>
      </trkpt>
      <trkpt lat="46.50107" lon="5.37731">
        <ele>250.4</ele>
        <time>2021-10-07T14:19:53Z</time>
      </trkpt>
      <trkpt lat="46.50092" lon="5.37726">
        <ele>251</ele>
        <time>2021-10-07T14:19:55Z</time>
      </trkpt>
      <trkpt lat="46.50078" lon="5.37721">
        <ele>251.8</ele>
        <time>2021-10-07T14:19:57Z</time>
      </trkpt>
      <trkpt lat="46.50063" lon="5.37715">
        <ele>252.4</ele>
        <time>2021-10-07T14:19:59Z</time>
      </trkpt>
      <trkpt lat="46.50048" lon="5.37708">
        <ele>252.8</ele>
        <time>2021-10-07T14:20:01Z</time>
      </trkpt>
      <trkpt lat="46.50032" lon="5.37701">
        <ele>253</ele>
        <time>2021-10-07T14:20:03Z</time>
      </trkpt>
      <trkpt lat="46.50017" lon="5.37692">
        <ele>253</ele>
        <time>2021-10-07T14:20:05Z</time>
      </trkpt>
      <trkpt lat="46.5" lon="5.37684">
        <ele>253.2</ele>
        <time>2021-10-07T14:20:07Z</time>
      </trkpt>
      <trkpt lat="46.49983" lon="5.37676">
        <ele>253.2</ele>
        <time>2021-10-07T14:20:09Z</time>
      </trkpt>
      <trkpt lat="46.49966" lon="5.37669">
        <ele>253</ele>
        <time>2021-10-07T14:20:11Z</time>
      </trkpt>
      <trkpt lat="46.49948" lon="5.37661">
        <ele>253</ele>
        <time>2021-10-07T14:20:13Z</time>
      </trkpt>
      <trkpt lat="46.49939" lon="5.37658">
        <ele>252.8</ele>
        <time>2021-10-07T14:20:14Z</time>
      </trkpt>
      <trkpt lat="46.4993" lon="5.37654">
        <ele>252.8</ele>
        <time>2021-10-07T14:20:15Z</time>
      </trkpt>
      <trkpt lat="46.49912" lon="5.37648">
        <ele>252.6</ele>
        <time>2021-10-07T14:20:17Z</time>
      </trkpt>
      <trkpt lat="46.49894" lon="5.37642">
        <ele>252.4</ele>
        <time>2021-10-07T14:20:19Z</time>
      </trkpt>
      <trkpt lat="46.49876" lon="5.37635">
        <ele>252</ele>
        <time>2021-10-07T14:20:21Z</time>
      </trkpt>
      <trkpt lat="46.49867" lon="5.37632">
        <ele>251.8</ele>
        <time>2021-10-07T14:20:22Z</time>
      </trkpt>
      <trkpt lat="46.49858" lon="5.37628">
        <ele>251.8</ele>
        <time>2021-10-07T14:20:23Z</time>
      </trkpt>
      <trkpt lat="46.49839" lon="5.3762">
        <ele>251.4</ele>
        <time>2021-10-07T14:20:25Z</time>
      </trkpt>
      <trkpt lat="46.4983" lon="5.37616">
        <ele>251.2</ele>
        <time>2021-10-07T14:20:26Z</time>
      </trkpt>
      <trkpt lat="46.49821" lon="5.37612">
        <ele>251</ele>
        <time>2021-10-07T14:20:27Z</time>
      </trkpt>
      <trkpt lat="46.49804" lon="5.37602">
        <ele>251</ele>
        <time>2021-10-07T14:20:29Z</time>
      </trkpt>
      <trkpt lat="46.49796" lon="5.37596">
        <ele>251</ele>
        <time>2021-10-07T14:20:30Z</time>
      </trkpt>
      <trkpt lat="46.49788" lon="5.37591">
        <ele>251</ele>
        <time>2021-10-07T14:20:31Z</time>
      </trkpt>
      <trkpt lat="46.49771" lon="5.3758">
        <ele>251</ele>
        <time>2021-10-07T14:20:33Z</time>
      </trkpt>
      <trkpt lat="46.49754" lon="5.37569">
        <ele>250.8</ele>
        <time>2021-10-07T14:20:35Z</time>
      </trkpt>
      <trkpt lat="46.49738" lon="5.37558">
        <ele>250.8</ele>
        <time>2021-10-07T14:20:37Z</time>
      </trkpt>
      <trkpt lat="46.49721" lon="5.37548">
        <ele>250.6</ele>
        <time>2021-10-07T14:20:39Z</time>
      </trkpt>
      <trkpt lat="46.49705" lon="5.37539">
        <ele>250.6</ele>
        <time>2021-10-07T14:20:41Z</time>
      </trkpt>
      <trkpt lat="46.49688" lon="5.37531">
        <ele>250.4</ele>
        <time>2021-10-07T14:20:43Z</time>
      </trkpt>
      <trkpt lat="46.4967" lon="5.37524">
        <ele>250.2</ele>
        <time>2021-10-07T14:20:45Z</time>
      </trkpt>
      <trkpt lat="46.49653" lon="5.37516">
        <ele>250.2</ele>
        <time>2021-10-07T14:20:47Z</time>
      </trkpt>
      <trkpt lat="46.49639" lon="5.37509">
        <ele>250.2</ele>
        <time>2021-10-07T14:20:49Z</time>
      </trkpt>
      <trkpt lat="46.49634" lon="5.37506">
        <ele>250.2</ele>
        <time>2021-10-07T14:20:50Z</time>
      </trkpt>
      <trkpt lat="46.4963" lon="5.37503">
        <ele>250.2</ele>
        <time>2021-10-07T14:20:51Z</time>
      </trkpt>
      <trkpt lat="46.49623" lon="5.37498">
        <ele>250.2</ele>
        <time>2021-10-07T14:20:53Z</time>
      </trkpt>
      <trkpt lat="46.49618" lon="5.37498">
        <ele>250.2</ele>
        <time>2021-10-07T14:20:54Z</time>
      </trkpt>
      <trkpt lat="46.49613" lon="5.375">
        <ele>250.2</ele>
        <time>2021-10-07T14:20:55Z</time>
      </trkpt>
      <trkpt lat="46.49604" lon="5.37508">
        <ele>250.4</ele>
        <time>2021-10-07T14:20:57Z</time>
      </trkpt>
      <trkpt lat="46.49599" lon="5.37513">
        <ele>250.6</ele>
        <time>2021-10-07T14:20:58Z</time>
      </trkpt>
      <trkpt lat="46.49594" lon="5.37517">
        <ele>250.6</ele>
        <time>2021-10-07T14:20:59Z</time>
      </trkpt>
      <trkpt lat="46.49584" lon="5.37526">
        <ele>250.8</ele>
        <time>2021-10-07T14:21:01Z</time>
      </trkpt>
      <trkpt lat="46.49574" lon="5.37535">
        <ele>250.8</ele>
        <time>2021-10-07T14:21:03Z</time>
      </trkpt>
      <trkpt lat="46.49564" lon="5.37544">
        <ele>251</ele>
        <time>2021-10-07T14:21:05Z</time>
      </trkpt>
      <trkpt lat="46.49554" lon="5.37553">
        <ele>251</ele>
        <time>2021-10-07T14:21:07Z</time>
      </trkpt>
      <trkpt lat="46.49543" lon="5.37562">
        <ele>251.4</ele>
        <time>2021-10-07T14:21:09Z</time>
      </trkpt>
      <trkpt lat="46.49533" lon="5.37572">
        <ele>252.2</ele>
        <time>2021-10-07T14:21:11Z</time>
      </trkpt>
      <trkpt lat="46.49527" lon="5.37576">
        <ele>252.6</ele>
        <time>2021-10-07T14:21:12Z</time>
      </trkpt>
      <trkpt lat="46.49522" lon="5.37581">
        <ele>253.2</ele>
        <time>2021-10-07T14:21:13Z</time>
      </trkpt>
      <trkpt lat="46.49511" lon="5.3759">
        <ele>253.8</ele>
        <time>2021-10-07T14:21:15Z</time>
      </trkpt>
      <trkpt lat="46.49501" lon="5.376">
        <ele>254.4</ele>
        <time>2021-10-07T14:21:17Z</time>
      </trkpt>
      <trkpt lat="46.4949" lon="5.37608">
        <ele>254.6</ele>
        <time>2021-10-07T14:21:19Z</time>
      </trkpt>
      <trkpt lat="46.4948" lon="5.37617">
        <ele>254.8</ele>
        <time>2021-10-07T14:21:21Z</time>
      </trkpt>
      <trkpt lat="46.49471" lon="5.37625">
        <ele>254.8</ele>
        <time>2021-10-07T14:21:23Z</time>
      </trkpt>
      <trkpt lat="46.49461" lon="5.37633">
        <ele>255</ele>
        <time>2021-10-07T14:21:25Z</time>
      </trkpt>
      <trkpt lat="46.49452" lon="5.37641">
        <ele>255.2</ele>
        <time>2021-10-07T14:21:27Z</time>
      </trkpt>
      <trkpt lat="46.49448" lon="5.37645">
        <ele>255.2</ele>
        <time>2021-10-07T14:21:28Z</time>
      </trkpt>
      <trkpt lat="46.49444" lon="5.37649">
        <ele>255.4</ele>
        <time>2021-10-07T14:21:29Z</time>
      </trkpt>
      <trkpt lat="46.49436" lon="5.37656">
        <ele>256.2</ele>
        <time>2021-10-07T14:21:31Z</time>
      </trkpt>
      <trkpt lat="46.49428" lon="5.37663">
        <ele>257</ele>
        <time>2021-10-07T14:21:33Z</time>
      </trkpt>
      <trkpt lat="46.49425" lon="5.37667">
        <ele>257.4</ele>
        <time>2021-10-07T14:21:34Z</time>
      </trkpt>
      <trkpt lat="46.49421" lon="5.37671">
        <ele>257.6</ele>
        <time>2021-10-07T14:21:35Z</time>
      </trkpt>
      <trkpt lat="46.49414" lon="5.37681">
        <ele>257.8</ele>
        <time>2021-10-07T14:21:37Z</time>
      </trkpt>
      <trkpt lat="46.49408" lon="5.37691">
        <ele>258.6</ele>
        <time>2021-10-07T14:21:39Z</time>
      </trkpt>
      <trkpt lat="46.49403" lon="5.37702">
        <ele>259.4</ele>
        <time>2021-10-07T14:21:41Z</time>
      </trkpt>
      <trkpt lat="46.494" lon="5.37708">
        <ele>259.8</ele>
        <time>2021-10-07T14:21:42Z</time>
      </trkpt>
      <trkpt lat="46.49398" lon="5.37714">
        <ele>260</ele>
        <time>2021-10-07T14:21:43Z</time>
      </trkpt>
      <trkpt lat="46.49394" lon="5.37726">
        <ele>260.4</ele>
        <time>2021-10-07T14:21:45Z</time>
      </trkpt>
      <trkpt lat="46.49391" lon="5.37732">
        <ele>260.8</ele>
        <time>2021-10-07T14:21:46Z</time>
      </trkpt>
      <trkpt lat="46.49389" lon="5.37738">
        <ele>261</ele>
        <time>2021-10-07T14:21:47Z</time>
      </trkpt>
      <trkpt lat="46.49387" lon="5.37744">
        <ele>261.4</ele>
        <time>2021-10-07T14:21:48Z</time>
      </trkpt>
      <trkpt lat="46.49385" lon="5.3775">
        <ele>261.8</ele>
        <time>2021-10-07T14:21:49Z</time>
      </trkpt>
      <trkpt lat="46.49381" lon="5.37762">
        <ele>262.2</ele>
        <time>2021-10-07T14:21:51Z</time>
      </trkpt>
      <trkpt lat="46.49377" lon="5.37775">
        <ele>262.6</ele>
        <time>2021-10-07T14:21:53Z</time>
      </trkpt>
      <trkpt lat="46.49372" lon="5.37788">
        <ele>262.8</ele>
        <time>2021-10-07T14:21:55Z</time>
      </trkpt>
      <trkpt lat="46.4937" lon="5.37795">
        <ele>262.8</ele>
        <time>2021-10-07T14:21:56Z</time>
      </trkpt>
      <trkpt lat="46.49368" lon="5.37802">
        <ele>263.2</ele>
        <time>2021-10-07T14:21:57Z</time>
      </trkpt>
      <trkpt lat="46.49363" lon="5.37816">
        <ele>263.4</ele>
        <time>2021-10-07T14:21:59Z</time>
      </trkpt>
      <trkpt lat="46.49358" lon="5.37831">
        <ele>263.6</ele>
        <time>2021-10-07T14:22:01Z</time>
      </trkpt>
      <trkpt lat="46.49353" lon="5.37847">
        <ele>263.6</ele>
        <time>2021-10-07T14:22:03Z</time>
      </trkpt>
      <trkpt lat="46.49347" lon="5.37864">
        <ele>263.8</ele>
        <time>2021-10-07T14:22:05Z</time>
      </trkpt>
      <trkpt lat="46.49342" lon="5.37882">
        <ele>263.8</ele>
        <time>2021-10-07T14:22:07Z</time>
      </trkpt>
      <trkpt lat="46.49337" lon="5.37903">
        <ele>263.8</ele>
        <time>2021-10-07T14:22:09Z</time>
      </trkpt>
      <trkpt lat="46.49333" lon="5.37926">
        <ele>263.6</ele>
        <time>2021-10-07T14:22:11Z</time>
      </trkpt>
      <trkpt lat="46.49328" lon="5.37949">
        <ele>263.6</ele>
        <time>2021-10-07T14:22:13Z</time>
      </trkpt>
      <trkpt lat="46.49324" lon="5.37973">
        <ele>263.4</ele>
        <time>2021-10-07T14:22:15Z</time>
      </trkpt>
      <trkpt lat="46.4932" lon="5.37995">
        <ele>262.8</ele>
        <time>2021-10-07T14:22:17Z</time>
      </trkpt>
      <trkpt lat="46.49317" lon="5.38006">
        <ele>262</ele>
        <time>2021-10-07T14:22:18Z</time>
      </trkpt>
      <trkpt lat="46.49315" lon="5.38017">
        <ele>261.4</ele>
        <time>2021-10-07T14:22:19Z</time>
      </trkpt>
      <trkpt lat="46.49311" lon="5.38037">
        <ele>260.8</ele>
        <time>2021-10-07T14:22:21Z</time>
      </trkpt>
      <trkpt lat="46.49307" lon="5.38056">
        <ele>260.6</ele>
        <time>2021-10-07T14:22:23Z</time>
      </trkpt>
      <trkpt lat="46.49303" lon="5.38074">
        <ele>260.6</ele>
        <time>2021-10-07T14:22:25Z</time>
      </trkpt>
      <trkpt lat="46.493" lon="5.38093">
        <ele>260.6</ele>
        <time>2021-10-07T14:22:27Z</time>
      </trkpt>
      <trkpt lat="46.49297" lon="5.38111">
        <ele>260.6</ele>
        <time>2021-10-07T14:22:29Z</time>
      </trkpt>
      <trkpt lat="46.49294" lon="5.38128">
        <ele>260.6</ele>
        <time>2021-10-07T14:22:31Z</time>
      </trkpt>
      <trkpt lat="46.49291" lon="5.38146">
        <ele>261.8</ele>
        <time>2021-10-07T14:22:33Z</time>
      </trkpt>
      <trkpt lat="46.49288" lon="5.38162">
        <ele>262.2</ele>
        <time>2021-10-07T14:22:35Z</time>
      </trkpt>
      <trkpt lat="46.49286" lon="5.3817">
        <ele>262.6</ele>
        <time>2021-10-07T14:22:36Z</time>
      </trkpt>
      <trkpt lat="46.49285" lon="5.38179">
        <ele>262.8</ele>
        <time>2021-10-07T14:22:37Z</time>
      </trkpt>
      <trkpt lat="46.49282" lon="5.38195">
        <ele>263.2</ele>
        <time>2021-10-07T14:22:39Z</time>
      </trkpt>
      <trkpt lat="46.49279" lon="5.38212">
        <ele>263.4</ele>
        <time>2021-10-07T14:22:41Z</time>
      </trkpt>
      <trkpt lat="46.49277" lon="5.3822">
        <ele>263.6</ele>
        <time>2021-10-07T14:22:42Z</time>
      </trkpt>
      <trkpt lat="46.49275" lon="5.38228">
        <ele>263.8</ele>
        <time>2021-10-07T14:22:43Z</time>
      </trkpt>
      <trkpt lat="46.49274" lon="5.38236">
        <ele>264</ele>
        <time>2021-10-07T14:22:44Z</time>
      </trkpt>
      <trkpt lat="46.49272" lon="5.38244">
        <ele>264</ele>
        <time>2021-10-07T14:22:45Z</time>
      </trkpt>
      <trkpt lat="46.49269" lon="5.38259">
        <ele>264.8</ele>
        <time>2021-10-07T14:22:47Z</time>
      </trkpt>
      <trkpt lat="46.49266" lon="5.38275">
        <ele>265</ele>
        <time>2021-10-07T14:22:49Z</time>
      </trkpt>
      <trkpt lat="46.49263" lon="5.38291">
        <ele>265.2</ele>
        <time>2021-10-07T14:22:51Z</time>
      </trkpt>
      <trkpt lat="46.4926" lon="5.38306">
        <ele>265.6</ele>
        <time>2021-10-07T14:22:53Z</time>
      </trkpt>
      <trkpt lat="46.49258" lon="5.38314">
        <ele>265.6</ele>
        <time>2021-10-07T14:22:54Z</time>
      </trkpt>
      <trkpt lat="46.49256" lon="5.38321">
        <ele>265.8</ele>
        <time>2021-10-07T14:22:55Z</time>
      </trkpt>
      <trkpt lat="46.4925" lon="5.38334">
        <ele>266.2</ele>
        <time>2021-10-07T14:22:57Z</time>
      </trkpt>
      <trkpt lat="46.49241" lon="5.38339">
        <ele>266.4</ele>
        <time>2021-10-07T14:22:59Z</time>
      </trkpt>
      <trkpt lat="46.49229" lon="5.38334">
        <ele>267</ele>
        <time>2021-10-07T14:23:01Z</time>
      </trkpt>
      <trkpt lat="46.49223" lon="5.3833">
        <ele>267.2</ele>
        <time>2021-10-07T14:23:02Z</time>
      </trkpt>
      <trkpt lat="46.49216" lon="5.38326">
        <ele>267.4</ele>
        <time>2021-10-07T14:23:03Z</time>
      </trkpt>
      <trkpt lat="46.49202" lon="5.38318">
        <ele>267.6</ele>
        <time>2021-10-07T14:23:05Z</time>
      </trkpt>
      <trkpt lat="46.49187" lon="5.38311">
        <ele>267.6</ele>
        <time>2021-10-07T14:23:07Z</time>
      </trkpt>
      <trkpt lat="46.49179" lon="5.38308">
        <ele>267.6</ele>
        <time>2021-10-07T14:23:08Z</time>
      </trkpt>
      <trkpt lat="46.49171" lon="5.38305">
        <ele>267.6</ele>
        <time>2021-10-07T14:23:09Z</time>
      </trkpt>
      <trkpt lat="46.49154" lon="5.383">
        <ele>267.6</ele>
        <time>2021-10-07T14:23:11Z</time>
      </trkpt>
      <trkpt lat="46.49137" lon="5.38295">
        <ele>267.4</ele>
        <time>2021-10-07T14:23:13Z</time>
      </trkpt>
      <trkpt lat="46.4912" lon="5.3829">
        <ele>267.4</ele>
        <time>2021-10-07T14:23:15Z</time>
      </trkpt>
      <trkpt lat="46.49105" lon="5.38285">
        <ele>266.8</ele>
        <time>2021-10-07T14:23:17Z</time>
      </trkpt>
      <trkpt lat="46.49099" lon="5.38279">
        <ele>266.6</ele>
        <time>2021-10-07T14:23:18Z</time>
      </trkpt>
      <trkpt lat="46.49094" lon="5.38271">
        <ele>266.4</ele>
        <time>2021-10-07T14:23:19Z</time>
      </trkpt>
      <trkpt lat="46.4909" lon="5.38261">
        <ele>266.2</ele>
        <time>2021-10-07T14:23:20Z</time>
      </trkpt>
      <trkpt lat="46.49087" lon="5.38249">
        <ele>266</ele>
        <time>2021-10-07T14:23:21Z</time>
      </trkpt>
      <trkpt lat="46.49083" lon="5.38237">
        <ele>265.6</ele>
        <time>2021-10-07T14:23:22Z</time>
      </trkpt>
      <trkpt lat="46.49079" lon="5.38225">
        <ele>265.2</ele>
        <time>2021-10-07T14:23:23Z</time>
      </trkpt>
      <trkpt lat="46.49072" lon="5.38199">
        <ele>264.4</ele>
        <time>2021-10-07T14:23:25Z</time>
      </trkpt>
      <trkpt lat="46.49063" lon="5.38173">
        <ele>264.2</ele>
        <time>2021-10-07T14:23:27Z</time>
      </trkpt>
      <trkpt lat="46.49054" lon="5.38146">
        <ele>263.2</ele>
        <time>2021-10-07T14:23:29Z</time>
      </trkpt>
      <trkpt lat="46.4905" lon="5.38131">
        <ele>262.8</ele>
        <time>2021-10-07T14:23:30Z</time>
      </trkpt>
      <trkpt lat="46.49045" lon="5.38117">
        <ele>262.2</ele>
        <time>2021-10-07T14:23:31Z</time>
      </trkpt>
      <trkpt lat="46.4904" lon="5.38102">
        <ele>262</ele>
        <time>2021-10-07T14:23:32Z</time>
      </trkpt>
      <trkpt lat="46.49036" lon="5.38087">
        <ele>261.6</ele>
        <time>2021-10-07T14:23:33Z</time>
      </trkpt>
      <trkpt lat="46.49031" lon="5.38072">
        <ele>261</ele>
        <time>2021-10-07T14:23:34Z</time>
      </trkpt>
      <trkpt lat="46.49027" lon="5.38057">
        <ele>260.6</ele>
        <time>2021-10-07T14:23:35Z</time>
      </trkpt>
      <trkpt lat="46.49017" lon="5.38027">
        <ele>260</ele>
        <time>2021-10-07T14:23:37Z</time>
      </trkpt>
      <trkpt lat="46.49013" lon="5.38012">
        <ele>259.8</ele>
        <time>2021-10-07T14:23:38Z</time>
      </trkpt>
      <trkpt lat="46.49008" lon="5.37996">
        <ele>259.4</ele>
        <time>2021-10-07T14:23:39Z</time>
      </trkpt>
      <trkpt lat="46.49004" lon="5.37981">
        <ele>258.4</ele>
        <time>2021-10-07T14:23:40Z</time>
      </trkpt>
      <trkpt lat="46.48999" lon="5.37965">
        <ele>257.6</ele>
        <time>2021-10-07T14:23:41Z</time>
      </trkpt>
      <trkpt lat="46.48995" lon="5.3795">
        <ele>257.2</ele>
        <time>2021-10-07T14:23:42Z</time>
      </trkpt>
      <trkpt lat="46.48991" lon="5.37935">
        <ele>256.8</ele>
        <time>2021-10-07T14:23:43Z</time>
      </trkpt>
      <trkpt lat="46.48982" lon="5.37905">
        <ele>256.4</ele>
        <time>2021-10-07T14:23:45Z</time>
      </trkpt>
      <trkpt lat="46.48977" lon="5.3789">
        <ele>255.8</ele>
        <time>2021-10-07T14:23:46Z</time>
      </trkpt>
      <trkpt lat="46.48973" lon="5.37875">
        <ele>255</ele>
        <time>2021-10-07T14:23:47Z</time>
      </trkpt>
      <trkpt lat="46.48968" lon="5.3786">
        <ele>254.6</ele>
        <time>2021-10-07T14:23:48Z</time>
      </trkpt>
      <trkpt lat="46.48964" lon="5.37846">
        <ele>254</ele>
        <time>2021-10-07T14:23:49Z</time>
      </trkpt>
      <trkpt lat="46.4896" lon="5.37831">
        <ele>253.6</ele>
        <time>2021-10-07T14:23:50Z</time>
      </trkpt>
      <trkpt lat="46.48955" lon="5.37817">
        <ele>253</ele>
        <time>2021-10-07T14:23:51Z</time>
      </trkpt>
      <trkpt lat="46.48947" lon="5.37789">
        <ele>252.8</ele>
        <time>2021-10-07T14:23:53Z</time>
      </trkpt>
      <trkpt lat="46.48942" lon="5.37775">
        <ele>252.6</ele>
        <time>2021-10-07T14:23:54Z</time>
      </trkpt>
      <trkpt lat="46.48938" lon="5.37761">
        <ele>252.6</ele>
        <time>2021-10-07T14:23:55Z</time>
      </trkpt>
      <trkpt lat="46.48929" lon="5.37734">
        <ele>252.4</ele>
        <time>2021-10-07T14:23:57Z</time>
      </trkpt>
      <trkpt lat="46.48925" lon="5.3772">
        <ele>252.2</ele>
        <time>2021-10-07T14:23:58Z</time>
      </trkpt>
      <trkpt lat="46.48921" lon="5.37707">
        <ele>252.4</ele>
        <time>2021-10-07T14:23:59Z</time>
      </trkpt>
      <trkpt lat="46.48914" lon="5.37682">
        <ele>252.4</ele>
        <time>2021-10-07T14:24:01Z</time>
      </trkpt>
      <trkpt lat="46.48907" lon="5.37659">
        <ele>252.4</ele>
        <time>2021-10-07T14:24:03Z</time>
      </trkpt>
      <trkpt lat="46.489" lon="5.37637">
        <ele>252.4</ele>
        <time>2021-10-07T14:24:05Z</time>
      </trkpt>
      <trkpt lat="46.48895" lon="5.37628">
        <ele>252.6</ele>
        <time>2021-10-07T14:24:06Z</time>
      </trkpt>
      <trkpt lat="46.48888" lon="5.37623">
        <ele>252.8</ele>
        <time>2021-10-07T14:24:07Z</time>
      </trkpt>
      <trkpt lat="46.48881" lon="5.37622">
        <ele>253</ele>
        <time>2021-10-07T14:24:08Z</time>
      </trkpt>
      <trkpt lat="46.48875" lon="5.37622">
        <ele>253.4</ele>
        <time>2021-10-07T14:24:09Z</time>
      </trkpt>
      <trkpt lat="46.48869" lon="5.37619">
        <ele>253.6</ele>
        <time>2021-10-07T14:24:10Z</time>
      </trkpt>
      <trkpt lat="46.48864" lon="5.37614">
        <ele>254</ele>
        <time>2021-10-07T14:24:11Z</time>
      </trkpt>
      <trkpt lat="46.48858" lon="5.37597">
        <ele>254.2</ele>
        <time>2021-10-07T14:24:13Z</time>
      </trkpt>
      <trkpt lat="46.48857" lon="5.37588">
        <ele>254.6</ele>
        <time>2021-10-07T14:24:14Z</time>
      </trkpt>
      <trkpt lat="46.48856" lon="5.37579">
        <ele>254.8</ele>
        <time>2021-10-07T14:24:15Z</time>
      </trkpt>
      <trkpt lat="46.48851" lon="5.37561">
        <ele>255.2</ele>
        <time>2021-10-07T14:24:17Z</time>
      </trkpt>
      <trkpt lat="46.48847" lon="5.37552">
        <ele>255.6</ele>
        <time>2021-10-07T14:24:18Z</time>
      </trkpt>
      <trkpt lat="46.48844" lon="5.37544">
        <ele>255.8</ele>
        <time>2021-10-07T14:24:19Z</time>
      </trkpt>
      <trkpt lat="46.48837" lon="5.37528">
        <ele>256.2</ele>
        <time>2021-10-07T14:24:21Z</time>
      </trkpt>
      <trkpt lat="46.48828" lon="5.37513">
        <ele>256.4</ele>
        <time>2021-10-07T14:24:23Z</time>
      </trkpt>
      <trkpt lat="46.48824" lon="5.37507">
        <ele>256.6</ele>
        <time>2021-10-07T14:24:24Z</time>
      </trkpt>
      <trkpt lat="46.4882" lon="5.375">
        <ele>256.8</ele>
        <time>2021-10-07T14:24:25Z</time>
      </trkpt>
      <trkpt lat="46.48812" lon="5.37487">
        <ele>257.4</ele>
        <time>2021-10-07T14:24:27Z</time>
      </trkpt>
      <trkpt lat="46.48802" lon="5.37473">
        <ele>257.8</ele>
        <time>2021-10-07T14:24:29Z</time>
      </trkpt>
      <trkpt lat="46.48797" lon="5.37466">
        <ele>258</ele>
        <time>2021-10-07T14:24:30Z</time>
      </trkpt>
      <trkpt lat="46.48791" lon="5.37458">
        <ele>258.4</ele>
        <time>2021-10-07T14:24:31Z</time>
      </trkpt>
      <trkpt lat="46.48786" lon="5.37451">
        <ele>258.8</ele>
        <time>2021-10-07T14:24:32Z</time>
      </trkpt>
      <trkpt lat="46.4878" lon="5.37443">
        <ele>258.8</ele>
        <time>2021-10-07T14:24:33Z</time>
      </trkpt>
      <trkpt lat="46.48768" lon="5.37426">
        <ele>259</ele>
        <time>2021-10-07T14:24:35Z</time>
      </trkpt>
      <trkpt lat="46.48757" lon="5.37409">
        <ele>259</ele>
        <time>2021-10-07T14:24:37Z</time>
      </trkpt>
      <trkpt lat="46.48745" lon="5.37391">
        <ele>259</ele>
        <time>2021-10-07T14:24:39Z</time>
      </trkpt>
      <trkpt lat="46.48733" lon="5.37374">
        <ele>259</ele>
        <time>2021-10-07T14:24:41Z</time>
      </trkpt>
      <trkpt lat="46.48721" lon="5.37357">
        <ele>258.6</ele>
        <time>2021-10-07T14:24:43Z</time>
      </trkpt>
      <trkpt lat="46.48708" lon="5.3734">
        <ele>258</ele>
        <time>2021-10-07T14:24:45Z</time>
      </trkpt>
      <trkpt lat="46.48696" lon="5.37323">
        <ele>257.4</ele>
        <time>2021-10-07T14:24:47Z</time>
      </trkpt>
      <trkpt lat="46.4869" lon="5.37315">
        <ele>257</ele>
        <time>2021-10-07T14:24:48Z</time>
      </trkpt>
      <trkpt lat="46.48684" lon="5.37308">
        <ele>256.8</ele>
        <time>2021-10-07T14:24:49Z</time>
      </trkpt>
      <trkpt lat="46.48672" lon="5.37292">
        <ele>256.4</ele>
        <time>2021-10-07T14:24:51Z</time>
      </trkpt>
      <trkpt lat="46.48661" lon="5.37277">
        <ele>256.2</ele>
        <time>2021-10-07T14:24:53Z</time>
      </trkpt>
      <trkpt lat="46.4865" lon="5.37264">
        <ele>256.2</ele>
        <time>2021-10-07T14:24:55Z</time>
      </trkpt>
      <trkpt lat="46.4864" lon="5.3725">
        <ele>256.2</ele>
        <time>2021-10-07T14:24:57Z</time>
      </trkpt>
    </trkseg>
  </trk>
</gpx>